# Wetter Temperatur Luftdruck Luftfeuchtigkeit Sichtweite Windgeschwindigkeit Windrichtung Zeit
1 Clear 12 1020 53 10000 1.34 324 21:57 02.12.2021
2 Clear 12 1020 52 10000 1.34 15 21:30 02.12.2021
3 Clear 13 1019 51 10000 1.34 346 20:40 02.12.2021
4 Clear 13 1019 50 10000 1.34 342 19:57 02.12.2021
5 Clear 14 1017 47 10000 0.89 338 18:34 02.12.2021
6 Clear 16 1015 46 10000 4.02 40 15:52 02.12.2021
7 Clear 16 1015 47 10000 4.47 42 15:28 02.12.2021
8 Clouds 16 1015 48 10000 4.02 22 14:48 02.12.2021
9 Clouds 14 1016 54 10000 4.02 25 12:53 02.12.2021
10 Clouds 14 1016 57 10000 4.02 29 12:19 02.12.2021
11 Clouds 12 1015 79 10000 1.34 297 10:41 02.12.2021
12 Clouds 11 1015 83 10000 1.79 270 09:25 02.12.2021
13 Rain 11 1015 76 10000 0.45 282 06:45 02.12.2021
14 Clouds 13 1018 84 10000 2.68 272 00:55 02.12.2021
15 Clouds 13 1019 83 10000 1.79 252 23:30 01.12.2021
16 Clouds 13 1019 81 10000 2.68 240 22:25 01.12.2021
17 Clouds 13 1020 79 10000 2.24 227 21:42 01.12.2021
18 Clouds 13 1021 71 10000 2.24 273 19:59 01.12.2021
19 Clear 13 1021 72 10000 1.79 233 19:37 01.12.2021
20 Clear 16 1021 58 10000 2.68 245 17:50 01.12.2021
21 Clear 16 1021 57 10000 1.79 237 16:59 01.12.2021
22 Clear 15 1022 60 10000 1.79 205 15:37 01.12.2021
23 Clear 14 1023 62 10000 0.89 258 14:30 01.12.2021
24 Clear 13 1024 65 10000 1.79 205 13:36 01.12.2021
25 Clear 8 1026 82 10000 0.89 25 10:44 01.12.2021
26 Clear 8 1026 83 10000 0.89 34 10:20 01.12.2021
27 Clear 5 1025 87 10000 0.89 64 08:51 01.12.2021
28 Clear 6 1025 88 10000 1.34 41 07:56 01.12.2021
29 Clear 6 1025 86 10000 1.34 28 07:19 01.12.2021
30 Clear 7 1025 83 10000 0.89 41 03:53 01.12.2021
31 Clear 7 1025 83 10000 0.89 34 03:19 01.12.2021
32 Clear 9 1026 77 10000 1.34 359 00:20 01.12.2021
33 Clear 9 1026 77 10000 1.34 14 00:20 01.12.2021
34 Clear 9 1026 75 10000 1.34 16 23:28 30.11.2021
35 Clear 10 1026 73 10000 1.34 37 22:31 30.11.2021
36 Clear 12 1026 66 10000 1.03 300 20:47 30.11.2021
37 Clear 12 1026 67 10000 0.45 336 20:24 30.11.2021
38 Clear 12 1026 64 10000 0.45 336 19:39 30.11.2021
39 Clear 14 1025 59 10000 0.89 331 18:53 30.11.2021
40 Clear 15 1025 55 10000 0.89 309 17:45 30.11.2021
41 Clouds 16 1025 52 10000 0.89 311 15:57 30.11.2021
42 Clouds 15 1026 54 10000 1.34 175 14:34 30.11.2021
43 Clouds 14 1026 56 10000 0.89 21 13:41 30.11.2021
44 Clouds 14 1027 55 10000 0.45 171 12:54 30.11.2021
45 Clouds 13 1028 60 10000 0.45 324 11:59 30.11.2021
46 Clouds 13 1028 65 10000 0.45 355 11:25 30.11.2021
47 Clouds 12 1027 72 10000 1.34 335 10:36 30.11.2021
48 Clouds 10 1027 82 10000 1.03 270 08:57 30.11.2021
49 Clouds 10 1026 82 10000 0 0 08:32 30.11.2021
50 Clouds 10 1026 82 10000 0 0 07:56 30.11.2021
51 Clouds 10 1026 75 10000 0 0 06:37 30.11.2021
52 Clouds 12 1025 73 10000 0.89 359 01:49 30.11.2021
53 Clouds 12 1025 74 10000 0.45 271 01:27 30.11.2021
54 Clouds 12 1025 72 10000 1.34 336 23:36 29.11.2021
55 Clouds 12 1024 72 10000 1.34 348 23:18 29.11.2021
56 Clouds 12 1025 74 10000 1.34 351 22:38 29.11.2021
57 Clouds 12 1024 73 10000 0.45 347 21:54 29.11.2021
58 Clouds 12 1024 72 10000 1.34 333 21:20 29.11.2021
59 Clouds 13 1024 71 10000 0.89 313 20:48 29.11.2021
60 Clear 13 1023 69 10000 0.45 319 19:59 29.11.2021
61 Clear 13 1023 68 10000 0.45 310 19:40 29.11.2021
62 Clear 15 1023 64 10000 0.45 297 18:59 29.11.2021
63 Clouds 14 1023 58 10000 2.62 296 18:41 29.11.2021
64 Clouds 18 1022 44 10000 3.95 302 17:22 29.11.2021
65 Clouds 18 1022 44 10000 3.95 302 16:45 29.11.2021
66 Clouds 18 1022 41 10000 4.93 303 16:24 29.11.2021
67 Clouds 18 1022 41 10000 4.89 300 14:46 29.11.2021
68 Clouds 18 1023 43 10000 4.59 301 14:23 29.11.2021
69 Clouds 17 1024 47 10000 4.31 307 12:59 29.11.2021
70 Clouds 16 1025 53 10000 4.52 310 12:19 29.11.2021
71 Clouds 16 1025 53 10000 4.52 310 11:30 29.11.2021
72 Clouds 9 1025 97 10000 2.06 240 09:59 29.11.2021
73 Clouds 10 1024 90 10000 2.06 240 07:47 29.11.2021
74 Clouds 11 1023 87 10000 4.63 230 05:51 29.11.2021
75 Clouds 9 1024 71 10000 3.6 220 01:30 29.11.2021
76 Clear 9 1024 71 10000 4.12 220 23:59 28.11.2021
77 Clear 9 1024 66 10000 4.12 210 23:40 28.11.2021
78 Clear 10 1024 66 10000 5.14 280 22:20 28.11.2021
79 Clear 10 1023 62 10000 3.6 260 21:39 28.11.2021
80 Clear 9 1023 61 10000 2.57 260 20:44 28.11.2021
81 Clear 10 1023 57 10000 3.09 300 19:53 28.11.2021
82 Clear 13 1022 44 10000 4.63 310 18:40 28.11.2021
83 Clear 13 1022 44 10000 4.63 310 18:22 28.11.2021
84 Clear 14 1021 38 10000 4.12 310 17:45 28.11.2021
85 Clear 14 1021 35 10000 5.66 310 16:48 28.11.2021
86 Clear 14 1021 41 10000 3.09 210 16:28 28.11.2021
87 Clear 14 1021 41 10000 3.09 210 16:28 28.11.2021
88 Clear 14 1021 41 10000 3.6 220 15:50 28.11.2021
89 Clear 13 1021 41 10000 3.6 230 14:56 28.11.2021
90 Clear 12 1022 43 10000 3.09 270 14:29 28.11.2021
91 Clear 11 1023 46 10000 0.51 300 12:54 28.11.2021
92 Clear 9 1023 53 10000 1.54 210 11:51 28.11.2021
93 Clear 7 1022 65 10000 1.54 170 10:37 28.11.2021
94 Clear 7 1022 65 10000 1.54 170 10:18 28.11.2021
95 Clear 5 1021 70 10000 1.03 260 09:36 28.11.2021
96 Clear 6 1018 61 10000 5.14 330 05:23 28.11.2021
97 Clear 9 1016 57 10000 2.57 330 22:58 27.11.2021
98 Clear 11 1014 66 10000 3.6 330 20:28 27.11.2021
99 Clouds 13 1012 67 10000 3.09 330 18:47 27.11.2021
100 Clouds 15 1011 51 10000 5.66 300 16:31 27.11.2021
101 Clouds 14 1011 62 10000 2.06 290 15:32 27.11.2021
102 Clouds 13 1012 67 10000 3.09 260 13:41 27.11.2021
103 Clear 10 1013 71 10000 2.57 210 12:29 27.11.2021
104 Clear 7 1014 81 10000 2.06 200 10:31 27.11.2021
105 Clear 5 1013 93 10000 1.03 180 09:41 27.11.2021
106 Clear 4 1013 93 10000 0.51 240 07:44 27.11.2021
107 Clear 4 1013 93 10000 0.51 0 04:56 27.11.2021
108 Clear 7 1014 87 10000 1.54 340 00:55 27.11.2021
109 Clear 9 1014 76 10000 2.06 290 23:29 26.11.2021
110 Clear 8 1014 81 10000 0 0 22:25 26.11.2021
111 Clear 8 1014 81 10000 0 0 22:25 26.11.2021
112 Clear 10 1013 71 10000 0 0 21:35 26.11.2021
113 Clear 11 1013 66 10000 1.54 350 20:46 26.11.2021
114 Clear 11 1013 66 10000 2.06 340 20:18 26.11.2021
115 Clear 12 1013 66 10000 2.06 350 19:47 26.11.2021
116 Clear 15 1012 55 10000 2.06 290 17:57 26.11.2021
117 Clear 15 1012 55 10000 2.06 290 17:22 26.11.2021
118 Clear 15 1012 58 10000 2.06 280 15:57 26.11.2021
119 Clouds 12 1012 72 10000 1.34 359 13:35 26.11.2021
120 Clouds 12 1013 74 10000 1.34 16 12:34 26.11.2021
121 Clear 10 1012 88 10000 0.45 352 10:38 26.11.2021
122 Fog 8 1012 92 7000 0.89 356 08:59 26.11.2021
123 Mist 8 1012 95 3000 0.45 1 08:21 26.11.2021
124 Mist 8 1011 94 1500 1.34 352 07:29 26.11.2021
125 Fog 8 1010 93 800 1.34 14 06:27 26.11.2021
126 Mist 8 1010 92 1800 0.89 322 04:51 26.11.2021
127 Mist 9 1010 92 2500 0.45 12 03:25 26.11.2021
128 Clouds 10 1010 90 10000 0 0 23:27 25.11.2021
129 Clouds 10 1010 89 10000 0.45 311 21:48 25.11.2021
130 Clouds 11 1009 89 10000 2.24 122 20:37 25.11.2021
131 Rain 11 1009 88 10000 1.79 22 18:48 25.11.2021
132 Rain 13 1009 76 10000 0.89 300 17:48 25.11.2021
133 Rain 14 1008 67 10000 1.34 159 17:26 25.11.2021
134 Clouds 15 1008 61 10000 0.89 226 16:34 25.11.2021
135 Clouds 14 1009 64 10000 0.45 83 15:49 25.11.2021
136 Clouds 13 1010 68 10000 1.34 314 14:19 25.11.2021
137 Clouds 10 1012 80 10000 1.79 272 12:28 25.11.2021
138 Clouds 10 1012 82 10000 1.34 225 11:52 25.11.2021
139 Clear 7 1012 89 9000 0.45 232 09:56 25.11.2021
140 Clear 6 1012 89 10000 0.45 0 06:22 25.11.2021
141 Clear 9 1012 82 9000 1.54 140 02:52 25.11.2021
142 Clear 10 1014 82 10000 0.45 261 23:39 24.11.2021
143 Clear 10 1014 81 10000 0.45 254 22:28 24.11.2021
144 Clear 11 1014 79 10000 0.89 272 21:44 24.11.2021
145 Clear 11 1013 78 10000 0.89 254 20:56 24.11.2021
146 Clear 12 1013 75 10000 1.79 268 20:26 24.11.2021
147 Clear 14 1013 64 10000 0.89 268 18:37 24.11.2021
148 Clouds 14 1013 63 10000 2.24 274 18:18 24.11.2021
149 Clouds 15 1014 62 10000 1.79 274 16:19 24.11.2021
150 Clouds 14 1015 65 10000 1.34 216 14:54 24.11.2021
151 Clear 13 1015 66 10000 1.34 206 14:20 24.11.2021
152 Clear 12 1017 68 10000 0.45 180 12:50 24.11.2021
153 Clear 9 1017 77 10000 0.89 214 11:22 24.11.2021
154 Clear 8 1017 81 10000 0.89 207 10:50 24.11.2021
155 Clear 7 1017 83 10000 0.89 167 10:27 24.11.2021
156 Clear 4 1017 89 10000 0.45 312 07:56 24.11.2021
157 Clear 5 1016 88 10000 0.89 358 06:59 24.11.2021
158 Clear 6 1015 85 10000 0.89 227 03:59 24.11.2021
159 Clear 7 1015 80 10000 0.51 0 01:30 24.11.2021
160 Clear 9 1015 71 10000 1.34 348 22:59 23.11.2021
161 Clear 9 1015 72 10000 2.24 330 22:34 23.11.2021
162 Clear 9 1014 75 10000 2.68 338 21:45 23.11.2021
163 Clear 10 1013 72 10000 2.68 346 20:21 23.11.2021
164 Clouds 11 1012 72 10000 2.24 349 19:20 23.11.2021
165 Clouds 12 1012 64 10000 4.47 322 18:29 23.11.2021
166 Clouds 14 1011 59 10000 1.34 283 17:23 23.11.2021
167 Clouds 14 1011 59 10000 1.34 283 17:23 23.11.2021
168 Clouds 14 1011 55 10000 2.24 314 16:35 23.11.2021
169 Clouds 14 1011 58 10000 3.13 298 15:25 23.11.2021
170 Clouds 14 1011 61 10000 2.24 272 14:39 23.11.2021
171 Clouds 12 1013 69 10000 0.45 232 12:50 23.11.2021
172 Clear 8 1013 83 10000 0.45 213 10:26 23.11.2021
173 Clear 7 1013 86 10000 0.89 230 09:43 23.11.2021
174 Clear 6 1012 87 10000 0.45 226 07:42 23.11.2021
175 Clear 8 1011 81 10000 0 0 04:38 23.11.2021
176 Clear 9 1011 78 10000 0.45 315 03:27 23.11.2021
177 Clear 12 1011 71 10000 1.34 290 23:26 22.11.2021
178 Clear 12 1011 71 10000 0.89 310 22:56 22.11.2021
179 Clear 12 1010 68 10000 1.79 304 22:30 22.11.2021
180 Clouds 14 1010 63 10000 1.79 303 21:44 22.11.2021
181 Clouds 15 1010 60 10000 2.24 287 20:56 22.11.2021
182 Clouds 15 1010 62 10000 1.34 312 20:23 22.11.2021
183 Clouds 15 1009 68 10000 2.24 259 19:20 22.11.2021
184 Clouds 16 1009 70 10000 2.68 268 18:40 22.11.2021
185 Clouds 16 1009 73 10000 2.24 248 17:46 22.11.2021
186 Clouds 17 1009 67 10000 2.68 261 16:30 22.11.2021
187 Clouds 16 1010 74 10000 3.13 277 14:41 22.11.2021
188 Clouds 15 1011 81 10000 2.24 268 12:48 22.11.2021
189 Clouds 14 1012 83 10000 1.79 273 11:27 22.11.2021
190 Clouds 13 1012 88 10000 0.89 232 10:19 22.11.2021
191 Clouds 12 1011 92 7000 0.45 226 08:42 22.11.2021
192 Clear 13 1011 91 6000 1.34 219 07:33 22.11.2021
193 Clear 14 1013 88 10000 0.89 284 00:50 22.11.2021
194 Clouds 15 1013 86 10000 0.89 275 23:19 21.11.2021
195 Clouds 15 1013 85 10000 0.45 305 22:42 21.11.2021
196 Clouds 16 1013 81 10000 0.89 226 20:44 21.11.2021
197 Clouds 17 1013 81 10000 0.45 246 20:26 21.11.2021
198 Clouds 17 1013 76 10000 1.03 100 18:53 21.11.2021
199 Clouds 18 1013 72 10000 1.03 0 17:52 21.11.2021
200 Clouds 18 1013 71 10000 0.89 347 17:29 21.11.2021
201 Clouds 18 1014 72 10000 0.45 267 14:49 21.11.2021
202 Clouds 18 1014 74 10000 0.89 346 14:18 21.11.2021
203 Clouds 17 1015 79 10000 0.45 93 12:58 21.11.2021
204 Clouds 16 1016 83 10000 0.45 78 12:20 21.11.2021
205 Clouds 15 1016 90 10000 0.45 78 11:37 21.11.2021
206 Clouds 13 1016 95 8000 0.45 289 10:19 21.11.2021
207 Clouds 13 1016 95 6000 0.45 344 09:45 21.11.2021
208 Mist 12 1015 94 5000 0.45 314 08:32 21.11.2021
209 Clouds 12 1015 94 7000 0.45 78 07:52 21.11.2021
210 Mist 12 1015 94 5000 0.45 82 06:28 21.11.2021
211 Mist 12 1015 95 4300 0.45 82 05:41 21.11.2021
212 Mist 13 1016 94 4700 0.45 342 03:22 21.11.2021
213 Mist 13 1016 93 5000 1.54 70 02:55 21.11.2021
214 Rain 14 1017 94 7000 1.34 76 01:28 21.11.2021
215 Clouds 14 1017 94 8000 0.89 78 00:43 21.11.2021
216 Clouds 14 1017 93 10000 0.45 78 22:35 20.11.2021
217 Clouds 14 1017 92 10000 0.89 78 21:32 20.11.2021
218 Rain 14 1017 92 7000 1.34 93 19:58 20.11.2021
219 Clouds 14 1017 91 7000 0.89 76 18:45 20.11.2021
220 Clouds 14 1017 91 7000 0.89 101 18:23 20.11.2021
221 Rain 17 1018 82 10000 2.57 40 17:22 20.11.2021
222 Clear 17 1017 80 10000 1.34 57 15:23 20.11.2021
223 Clouds 17 1017 82 10000 1.34 58 14:39 20.11.2021
224 Clouds 16 1018 83 10000 0.45 21 14:20 20.11.2021
225 Rain 15 1019 82 10000 0.45 32 11:56 20.11.2021
226 Clouds 15 1018 79 10000 1.34 6 09:59 20.11.2021
227 Clear 14 1017 80 10000 1.34 356 08:48 20.11.2021
228 Clear 14 1017 78 10000 1.34 32 06:57 20.11.2021
229 Clouds 14 1017 76 10000 0.89 38 05:21 20.11.2021
230 Clouds 15 1017 73 10000 0.89 49 04:50 20.11.2021
231 Clear 16 1017 60 10000 1.79 343 00:45 20.11.2021
232 Clear 16 1017 62 10000 1.34 66 00:27 20.11.2021
233 Clear 17 1017 58 10000 1.34 98 22:55 19.11.2021
234 Clear 18 1016 55 10000 3.13 112 21:44 19.11.2021
235 Clear 18 1016 54 10000 2.68 117 20:54 19.11.2021
236 Clear 19 1016 52 10000 2.24 125 20:36 19.11.2021
237 Clear 19 1016 50 10000 3.13 117 19:49 19.11.2021
238 Clear 20 1016 48 10000 4.02 127 18:50 19.11.2021
239 Clear 21 1016 48 10000 3.58 127 18:19 19.11.2021
240 Clear 22 1016 45 10000 3.58 102 16:47 19.11.2021
241 Clear 22 1016 42 10000 5.81 121 15:31 19.11.2021
242 Clear 20 1018 50 10000 3.58 90 12:53 19.11.2021
243 Clear 15 1018 60 10000 3.58 82 10:27 19.11.2021
244 Clear 13 1018 66 10000 2.68 72 08:47 19.11.2021
245 Clear 13 1017 67 10000 3.13 67 07:34 19.11.2021
246 Clear 13 1018 75 10000 2.24 62 04:28 19.11.2021
247 Clear 14 1019 74 10000 1.79 70 01:32 19.11.2021
248 Clear 15 1019 72 10000 1.79 88 23:51 18.11.2021
249 Clear 17 1019 64 10000 1.79 101 21:50 18.11.2021
250 Clear 17 1018 61 10000 2.68 100 20:48 18.11.2021
251 Clear 18 1018 58 10000 2.68 112 20:30 18.11.2021
252 Clear 18 1018 57 10000 2.68 133 19:44 18.11.2021
253 Clear 18 1018 56 10000 3.58 109 18:55 18.11.2021
254 Clear 19 1017 54 10000 3.13 92 18:27 18.11.2021
255 Clear 20 1017 52 10000 3.58 92 17:49 18.11.2021
256 Clear 20 1017 50 10000 4.02 76 16:44 18.11.2021
257 Clear 20 1018 48 10000 4.47 90 15:32 18.11.2021
258 Clear 19 1019 48 10000 3.58 81 13:31 18.11.2021
259 Clear 18 1019 50 10000 4.02 74 12:33 18.11.2021
260 Clear 17 1020 54 10000 3.58 54 11:42 18.11.2021
261 Clear 16 1020 54 10000 2.68 86 11:24 18.11.2021
262 Clear 12 1020 68 10000 3.13 82 09:37 18.11.2021
263 Clear 9 1019 73 10000 2.24 58 07:35 18.11.2021
264 Clear 10 1018 73 10000 2.24 45 05:55 18.11.2021
265 Clear 10 1018 71 10000 1.79 47 05:36 18.11.2021
266 Clear 12 1019 67 10000 1.34 63 01:24 18.11.2021
267 Clear 14 1019 60 10000 0.89 62 22:49 17.11.2021
268 Clear 14 1019 58 10000 1.34 66 22:21 17.11.2021
269 Clear 14 1018 56 10000 0.89 9 21:39 17.11.2021
270 Clear 15 1018 53 10000 1.34 342 20:58 17.11.2021
271 Clouds 17 1017 45 10000 0.89 72 18:47 17.11.2021
272 Clouds 19 1016 41 10000 3.13 84 17:28 17.11.2021
273 Clear 20 1016 45 10000 3.13 82 14:52 17.11.2021
274 Clear 17 1018 52 10000 3.13 73 12:42 17.11.2021
275 Clear 15 1018 54 10000 3.13 55 11:49 17.11.2021
276 Clear 14 1018 59 10000 2.24 88 10:49 17.11.2021
277 Clear 10 1017 69 10000 2.24 43 09:26 17.11.2021
278 Clear 9 1016 72 10000 1.79 68 07:45 17.11.2021
279 Clear 10 1016 68 10000 1.34 69 04:47 17.11.2021
280 Clear 11 1016 64 10000 1.34 59 02:42 17.11.2021
281 Clear 13 1016 56 10000 1.34 54 23:27 16.11.2021
282 Clear 14 1016 52 10000 0.89 353 21:48 16.11.2021
283 Clear 15 1015 47 10000 0.89 41 20:19 16.11.2021
284 Clear 17 1016 42 10000 2.57 70 18:56 16.11.2021
285 Clear 18 1015 39 10000 2.57 60 18:36 16.11.2021
286 Clear 18 1015 39 10000 2.57 60 18:36 16.11.2021
287 Clear 20 1014 34 10000 3.13 86 17:44 16.11.2021
288 Clear 20 1014 35 10000 2.24 98 16:58 16.11.2021
289 Clear 20 1015 38 10000 2.68 53 16:19 16.11.2021
290 Clear 20 1015 37 10000 3.13 77 15:41 16.11.2021
291 Clear 17 1017 48 10000 3.13 86 12:43 16.11.2021
292 Clear 12 1017 65 10000 3.13 76 10:21 16.11.2021
293 Clear 10 1018 71 10000 2.24 25 09:38 16.11.2021
294 Clear 9 1016 75 10000 2.24 51 07:34 16.11.2021
295 Clear 9 1016 72 10000 2.24 61 06:43 16.11.2021
296 Clear 13 1017 65 10000 0.89 340 23:26 15.11.2021
297 Clear 14 1018 63 10000 0.89 332 22:40 15.11.2021
298 Clear 14 1017 61 10000 0.45 109 21:57 15.11.2021
299 Clear 15 1017 58 10000 0.45 109 21:31 15.11.2021
300 Clear 15 1017 57 10000 1.54 120 20:35 15.11.2021
301 Clear 18 1017 52 10000 0 0 19:18 15.11.2021
302 Clear 21 1016 40 10000 0.45 237 17:31 15.11.2021
303 Clear 21 1016 40 10000 1.34 91 15:51 15.11.2021
304 Clear 21 1016 40 10000 1.79 135 15:32 15.11.2021
305 Clear 20 1017 41 10000 2.68 101 14:27 15.11.2021
306 Clear 18 1018 48 10000 2.68 74 12:37 15.11.2021
307 Clear 13 1018 73 10000 2.24 51 09:59 15.11.2021
308 Clear 11 1018 76 10000 0.89 50 09:19 15.11.2021
309 Clear 10 1016 76 10000 0.45 18 06:54 15.11.2021
310 Clear 14 1016 62 10000 0.45 5 00:56 15.11.2021
311 Clear 16 1016 58 10000 0.89 5 22:44 14.11.2021
312 Clear 17 1016 60 10000 1.34 8 21:45 14.11.2021
313 Clear 20 1015 52 10000 1.03 210 19:22 14.11.2021
314 Clear 20 1015 51 10000 1.03 210 18:54 14.11.2021
315 Clear 22 1016 43 10000 0.51 0 18:36 14.11.2021
316 Clear 23 1015 43 10000 0.89 240 18:18 14.11.2021
317 Clear 23 1015 40 10000 0.45 245 17:58 14.11.2021
318 Clear 24 1014 39 10000 0.45 285 17:40 14.11.2021
319 Clear 24 1014 39 10000 0.45 285 17:21 14.11.2021
320 Clear 24 1014 39 10000 0.89 315 16:58 14.11.2021
321 Clear 24 1014 39 10000 0.45 315 16:40 14.11.2021
322 Clear 24 1014 40 10000 0.45 334 16:18 14.11.2021
323 Clear 23 1015 41 10000 0.89 31 15:19 14.11.2021
324 Clear 23 1015 43 10000 1.34 70 14:45 14.11.2021
325 Clear 22 1016 44 10000 0.89 14 14:20 14.11.2021
326 Clear 22 1016 46 10000 1.34 44 13:51 14.11.2021
327 Clear 21 1016 48 10000 0.89 83 13:27 14.11.2021
328 Clear 19 1017 56 10000 1.79 20 12:22 14.11.2021
329 Clear 16 1017 64 10000 2.24 44 11:25 14.11.2021
330 Clear 13 1019 71 10000 2.57 40 10:37 14.11.2021
331 Clear 12 1017 76 10000 2.68 53 09:27 14.11.2021
332 Clear 11 1017 77 10000 1.34 14 08:51 14.11.2021
333 Clear 12 1016 75 10000 1.34 18 04:47 14.11.2021
334 Clear 16 1017 62 10000 0.45 62 23:20 13.11.2021
335 Clear 16 1017 59 10000 0.89 47 22:20 13.11.2021
336 Clear 17 1016 57 10000 0.89 7 21:35 13.11.2021
337 Clear 18 1016 55 10000 0.45 349 20:43 13.11.2021
338 Clear 19 1016 51 10000 0.45 83 19:32 13.11.2021
339 Clear 21 1015 44 10000 2.57 80 18:32 13.11.2021
340 Clear 23 1015 38 10000 1.79 82 17:41 13.11.2021
341 Clear 24 1015 37 10000 2.24 78 15:55 13.11.2021
342 Clear 23 1015 38 10000 2.24 21 14:45 13.11.2021
343 Clear 21 1016 44 10000 2.24 83 13:56 13.11.2021
344 Clear 20 1017 49 10000 2.68 64 12:43 13.11.2021
345 Clear 18 1017 54 10000 0.89 60 11:51 13.11.2021
346 Clear 16 1017 60 10000 3.13 58 11:24 13.11.2021
347 Clear 14 1019 62 10000 4.12 40 10:39 13.11.2021
348 Clear 11 1018 76 10000 2.57 40 09:49 13.11.2021
349 Clear 11 1017 73 10000 2.24 44 09:31 13.11.2021
350 Clear 10 1017 76 10000 1.79 26 08:49 13.11.2021
351 Clear 10 1017 76 10000 1.34 9 07:54 13.11.2021
352 Clear 11 1016 72 10000 1.34 65 04:43 13.11.2021
353 Clear 11 1016 73 10000 1.79 14 04:23 13.11.2021
354 Clear 13 1016 68 10000 1.34 10 00:19 13.11.2021
355 Clear 14 1016 62 10000 1.34 32 22:42 12.11.2021
356 Clear 16 1015 58 10000 0.89 8 20:55 12.11.2021
357 Clear 17 1015 56 10000 0.45 65 19:43 12.11.2021
358 Clear 18 1015 52 10000 0.45 65 19:23 12.11.2021
359 Clear 20 1014 47 10000 0.89 78 18:20 12.11.2021
360 Clear 20 1014 44 10000 0.89 24 16:19 12.11.2021
361 Clear 19 1015 48 10000 2.68 46 14:53 12.11.2021
362 Clear 14 1016 68 10000 1.34 88 11:31 12.11.2021
363 Clear 13 1017 71 10000 1.79 76 10:49 12.11.2021
364 Clear 10 1017 80 10000 1.79 49 09:29 12.11.2021
365 Clear 9 1017 83 10000 1.34 60 08:38 12.11.2021
366 Clear 11 1017 81 10000 1.34 357 02:25 12.11.2021
367 Clear 13 1017 76 10000 0.89 48 23:33 11.11.2021
368 Clear 14 1017 74 10000 0.45 2 22:30 11.11.2021
369 Clear 15 1017 72 10000 0.45 153 21:27 11.11.2021
370 Clear 16 1017 67 10000 0.89 221 20:38 11.11.2021
371 Clear 18 1017 58 10000 0 0 18:56 11.11.2021
372 Clear 20 1017 52 10000 0.45 156 17:43 11.11.2021
373 Clear 20 1016 52 10000 0.45 124 16:43 11.11.2021
374 Clear 19 1017 59 10000 0.89 280 14:46 11.11.2021
375 Clear 18 1017 61 10000 0.45 285 14:28 11.11.2021
376 Clear 17 1018 63 10000 0.89 39 13:37 11.11.2021
377 Clear 16 1018 65 10000 0.89 55 12:48 11.11.2021
378 Clear 10 1019 79 10000 1.54 330 10:36 11.11.2021
379 Clear 10 1019 81 10000 1.79 30 09:34 11.11.2021
380 Clear 9 1018 84 10000 1.79 43 07:38 11.11.2021
381 Clear 10 1017 85 9000 0.45 21 03:58 11.11.2021
382 Clear 14 1018 81 10000 0.45 96 23:35 10.11.2021
383 Clear 15 1018 77 10000 0.45 316 22:22 10.11.2021
384 Clear 16 1017 70 10000 0.89 214 21:21 10.11.2021
385 Clear 16 1017 68 10000 0.89 241 20:46 10.11.2021
386 Clear 17 1017 62 10000 0.45 180 19:47 10.11.2021
387 Clear 17 1017 62 10000 0.45 180 19:47 10.11.2021
388 Clear 17 1017 62 10000 0.45 180 19:47 10.11.2021
389 Clear 18 1017 59 10000 0.45 180 19:24 10.11.2021
390 Clear 21 1016 48 10000 0.89 81 16:34 10.11.2021
391 Clear 21 1016 49 10000 0.45 160 15:28 10.11.2021
392 Clear 18 1018 57 10000 0.45 335 13:43 10.11.2021
393 Clear 17 1018 57 10000 0.45 50 12:59 10.11.2021
394 Clear 13 1020 67 10000 2.57 20 10:56 10.11.2021
395 Clear 9 1018 77 10000 1.79 40 08:47 10.11.2021
396 Clear 9 1017 77 10000 1.34 12 07:48 10.11.2021
397 Clear 9 1016 77 10000 1.34 13 06:40 10.11.2021
398 Clear 9 1016 77 10000 0.45 20 05:51 10.11.2021
399 Clear 12 1016 72 10000 1.54 100 00:27 10.11.2021
400 Clear 15 1015 61 10000 0.89 171 21:51 09.11.2021
401 Clear 17 1014 54 10000 1.34 184 20:32 09.11.2021
402 Clear 19 1014 47 10000 0.89 144 19:26 09.11.2021
403 Clear 21 1013 39 10000 1.34 179 17:57 09.11.2021
404 Clear 22 1013 36 10000 0.45 199 16:26 09.11.2021
405 Clear 21 1014 37 10000 0.45 75 14:52 09.11.2021
406 Clear 18 1017 52 10000 3.09 20 12:53 09.11.2021
407 Clear 15 1018 63 10000 2.06 10 11:59 09.11.2021
408 Clear 13 1018 71 10000 3.09 50 10:46 09.11.2021
409 Clear 10 1017 81 10000 0.89 5 09:40 09.11.2021
410 Clear 8 1016 84 10000 0.89 352 08:37 09.11.2021
411 Clear 10 1016 79 10000 0.89 354 05:58 09.11.2021
412 Clear 11 1016 82 10000 0.51 0 02:28 09.11.2021
413 Clear 11 1016 80 10000 0 0 01:48 09.11.2021
414 Clear 12 1017 75 10000 2.06 170 00:18 09.11.2021
415 Clear 13 1017 71 10000 0.45 150 23:20 08.11.2021
416 Clear 13 1017 68 10000 1.34 191 22:32 08.11.2021
417 Clear 15 1017 60 10000 0.45 146 21:20 08.11.2021
418 Clear 17 1017 53 10000 0.45 193 19:56 08.11.2021
419 Clear 18 1017 48 10000 0.89 201 18:57 08.11.2021
420 Clear 21 1016 40 10000 0.45 283 17:23 08.11.2021
421 Clear 20 1017 41 10000 0.89 83 15:31 08.11.2021
422 Clear 20 1017 42 10000 0.89 93 14:53 08.11.2021
423 Clear 19 1018 44 10000 0.45 127 13:56 08.11.2021
424 Clear 16 1019 47 10000 0.89 79 12:44 08.11.2021
425 Clear 14 1020 53 10000 0.45 95 11:28 08.11.2021
426 Clear 12 1019 58 10000 0.45 13 10:18 08.11.2021
427 Clear 9 1019 67 10000 0.89 338 08:56 08.11.2021
428 Clear 8 1019 69 10000 0.45 323 07:38 08.11.2021
429 Clear 8 1019 67 10000 0.89 10 06:50 08.11.2021
430 Clear 10 1019 57 10000 0.89 328 03:34 08.11.2021
431 Clear 12 1020 50 10000 0.89 18 23:51 07.11.2021
432 Clear 13 1020 49 10000 0.89 29 22:30 07.11.2021
433 Clear 13 1020 51 10000 0.89 15 21:22 07.11.2021
434 Clear 14 1021 45 10000 0.45 318 19:55 07.11.2021
435 Clear 17 1020 34 10000 1.54 90 18:28 07.11.2021
436 Clear 18 1021 29 10000 0.45 90 17:38 07.11.2021
437 Clear 19 1020 29 10000 1.79 100 16:20 07.11.2021
438 Clear 17 1020 31 10000 2.24 79 14:47 07.11.2021
439 Clear 17 1021 32 10000 3.13 95 14:24 07.11.2021
440 Clear 14 1023 45 10000 2.68 78 11:58 07.11.2021
441 Clear 13 1023 50 10000 2.68 70 11:18 07.11.2021
442 Clear 8 1023 68 10000 1.34 53 08:59 07.11.2021
443 Clear 11 1023 58 10000 0.89 66 02:53 07.11.2021
444 Clear 12 1024 56 10000 0.89 25 00:25 07.11.2021
445 Clear 12 1024 54 10000 0.89 328 22:55 06.11.2021
446 Clear 13 1024 51 10000 0.89 20 21:49 06.11.2021
447 Clear 14 1024 49 10000 0.89 334 20:54 06.11.2021
448 Clear 15 1024 46 10000 1.34 352 19:42 06.11.2021
449 Clear 18 1023 34 10000 1.79 52 17:31 06.11.2021
450 Clear 18 1022 34 10000 2.24 59 16:32 06.11.2021
451 Clear 16 1024 42 10000 3.13 83 13:39 06.11.2021
452 Clear 15 1024 44 10000 3.13 89 12:55 06.11.2021
453 Clear 12 1024 52 10000 3.58 47 10:35 06.11.2021
454 Clear 10 1023 62 10000 2.68 55 08:36 06.11.2021
455 Clear 11 1021 60 10000 1.34 70 04:50 06.11.2021
456 Clear 12 1022 61 10000 1.34 347 23:49 05.11.2021
457 Clear 12 1022 59 10000 0.45 355 23:28 05.11.2021
458 Clear 13 1022 55 10000 1.34 5 22:33 05.11.2021
459 Clear 15 1021 45 10000 1.79 343 20:26 05.11.2021
460 Clear 15 1021 43 10000 2.24 347 19:51 05.11.2021
461 Clear 17 1021 37 10000 0.45 346 18:43 05.11.2021
462 Clear 18 1020 34 10000 3.58 36 17:52 05.11.2021
463 Clear 19 1020 34 10000 3.13 40 16:37 05.11.2021
464 Clear 18 1021 40 10000 1.34 78 14:21 05.11.2021
465 Clear 16 1022 50 10000 3.13 58 12:27 05.11.2021
466 Clear 10 1021 72 10000 0.89 54 09:29 05.11.2021
467 Clear 9 1021 76 10000 1.34 11 08:28 05.11.2021
468 Clear 10 1019 72 10000 0.89 353 05:40 05.11.2021
469 Clear 11 1018 70 10000 1.34 358 02:38 05.11.2021
470 Clear 11 1018 70 10000 0.89 359 02:19 05.11.2021
471 Clear 12 1018 68 10000 0.89 14 23:57 04.11.2021
472 Clear 13 1018 61 10000 0.89 22 22:21 04.11.2021
473 Clear 14 1018 61 10000 0.89 3 21:56 04.11.2021
474 Clear 14 1017 60 10000 1.34 22 21:27 04.11.2021
475 Clear 14 1018 57 10000 1.79 18 20:29 04.11.2021
476 Clear 15 1017 54 10000 2.68 38 19:49 04.11.2021
477 Clear 16 1017 53 10000 2.68 40 19:27 04.11.2021
478 Clear 17 1015 46 10000 1.79 34 18:26 04.11.2021
479 Clear 18 1015 42 10000 2.24 19 17:26 04.11.2021
480 Clear 18 1015 44 10000 1.79 318 15:46 04.11.2021
481 Clear 17 1015 47 10000 0.89 24 13:45 04.11.2021
482 Clear 12 1016 71 10000 1.34 332 10:35 04.11.2021
483 Clear 10 1014 80 10000 0.89 329 08:41 04.11.2021
484 Clear 9 1014 82 10000 0.89 342 07:49 04.11.2021
485 Clear 9 1014 80 10000 1.34 348 07:31 04.11.2021
486 Clear 14 1014 65 10000 1.54 360 23:18 03.11.2021
487 Clear 14 1013 62 10000 0.45 314 22:26 03.11.2021
488 Clear 15 1013 60 10000 0.89 328 21:37 03.11.2021
489 Clear 15 1013 57 10000 0.89 325 20:44 03.11.2021
490 Clear 15 1013 56 10000 0.89 328 20:25 03.11.2021
491 Clear 16 1012 52 10000 1.34 334 19:33 03.11.2021
492 Clear 18 1011 46 10000 1.34 330 18:27 03.11.2021
493 Clear 18 1011 46 10000 1.34 330 18:27 03.11.2021
494 Clear 18 1011 46 10000 1.34 330 18:27 03.11.2021
495 Clouds 18 1011 46 10000 2.24 310 17:48 03.11.2021
496 Clouds 19 1011 45 10000 2.24 313 16:49 03.11.2021
497 Clear 18 1011 47 10000 2.68 289 15:49 03.11.2021
498 Clear 18 1011 48 10000 1.79 318 15:30 03.11.2021
499 Clouds 18 1012 50 10000 2.68 303 13:42 03.11.2021
500 Clouds 16 1013 61 10000 1.79 319 11:37 03.11.2021
501 Clouds 16 1013 63 10000 0.89 310 10:50 03.11.2021
502 Clear 15 1013 68 10000 0.89 318 09:47 03.11.2021
503 Clouds 14 1012 74 10000 1.34 340 08:53 03.11.2021
504 Clear 14 1011 78 10000 2.68 333 07:59 03.11.2021
505 Clear 14 1011 82 10000 0.45 321 07:34 03.11.2021
506 Clear 16 1010 86 10000 0.89 276 04:23 03.11.2021
507 Clear 16 1012 83 10000 1.79 260 00:58 03.11.2021
508 Clear 17 1012 79 10000 0.45 284 23:30 02.11.2021
509 Clouds 18 1012 81 10000 0.45 281 22:20 02.11.2021
510 Clear 18 1012 72 10000 0.89 246 20:45 02.11.2021
511 Clear 19 1012 70 10000 1.79 238 20:21 02.11.2021
512 Clouds 19 1012 66 10000 0.89 274 19:31 02.11.2021
513 Clouds 19 1012 67 10000 0.45 253 19:31 02.11.2021
514 Clouds 19 1013 63 10000 0.89 270 18:36 02.11.2021
515 Clouds 19 1013 63 10000 0.89 270 18:36 02.11.2021
516 Clear 20 1013 61 10000 1.34 253 17:48 02.11.2021
517 Clear 20 1013 59 10000 1.34 271 17:25 02.11.2021
518 Clouds 20 1013 57 10000 1.34 283 16:26 02.11.2021
519 Clouds 20 1014 56 10000 0.89 282 14:57 02.11.2021
520 Clouds 19 1015 54 10000 0.45 271 13:32 02.11.2021
521 Clouds 19 1015 56 10000 0.89 2 12:59 02.11.2021
522 Clouds 18 1016 59 10000 1.34 339 12:20 02.11.2021
523 Clouds 18 1017 62 10000 1.34 52 11:27 02.11.2021
524 Clouds 17 1017 68 10000 1.34 348 10:45 02.11.2021
525 Clouds 17 1017 68 10000 1.79 25 10:22 02.11.2021
526 Clouds 16 1016 77 10000 1.79 340 08:25 02.11.2021
527 Clouds 17 1016 78 10000 1.79 8 06:32 02.11.2021
528 Clouds 18 1015 76 10000 1.34 352 03:32 02.11.2021
529 Clouds 20 1016 80 10000 0.89 331 00:55 02.11.2021
530 Clouds 21 1016 83 10000 0.89 247 22:25 01.11.2021
531 Clear 22 1016 79 10000 0.89 288 20:50 01.11.2021
532 Clear 22 1015 79 10000 0.89 278 20:32 01.11.2021
533 Clear 22 1015 77 10000 1.79 279 19:44 01.11.2021
534 Clear 22 1015 75 10000 1.34 280 18:55 01.11.2021
535 Clouds 24 1014 74 10000 1.79 301 17:59 01.11.2021
536 Clouds 23 1014 80 10000 2.24 270 17:18 01.11.2021
537 Clouds 23 1014 80 10000 2.68 271 16:34 01.11.2021
538 Clouds 22 1014 86 10000 0.89 280 15:44 01.11.2021
539 Clouds 22 1014 87 4000 2.68 305 15:19 01.11.2021
540 Clouds 24 1014 79 10000 3.58 270 14:40 01.11.2021
541 Clouds 24 1014 83 9000 2.68 279 14:19 01.11.2021
542 Clouds 24 1015 81 10000 4.47 252 12:53 01.11.2021
543 Clouds 23 1016 85 10000 4.02 264 11:40 01.11.2021
544 Clouds 22 1016 87 10000 4.02 260 10:22 01.11.2021
545 Clouds 21 1015 91 10000 3.13 245 08:26 01.11.2021
546 Clouds 21 1015 91 10000 3.13 252 07:47 01.11.2021
547 Clouds 21 1015 93 10000 3.13 247 03:58 01.11.2021
548 Clouds 20 1015 93 10000 2.68 245 03:39 01.11.2021
549 Drizzle 21 1016 94 3000 2.68 240 23:58 31.10.2021
550 Clouds 21 1017 89 10000 1.34 223 21:26 31.10.2021
551 Clouds 21 1016 89 10000 1.79 240 20:24 31.10.2021
552 Clouds 21 1016 91 10000 2.68 237 18:43 31.10.2021
553 Clouds 21 1016 91 10000 2.24 223 18:21 31.10.2021
554 Clouds 22 1016 86 10000 2.68 254 16:48 31.10.2021
555 Clouds 23 1015 84 10000 3.13 255 16:48 31.10.2021
556 Clouds 24 1016 79 10000 4.02 255 15:18 31.10.2021
557 Clouds 23 1017 86 10000 3.13 250 12:58 31.10.2021
558 Clouds 23 1017 86 10000 3.58 246 12:58 31.10.2021
559 Clouds 22 1017 86 10000 3.58 271 12:25 31.10.2021
560 Clouds 22 1018 89 10000 3.13 240 10:51 31.10.2021
561 Rain 21 1017 92 10000 1.79 230 09:26 31.10.2021
562 Rain 21 1017 92 10000 2.24 231 08:47 31.10.2021
563 Clouds 21 1015 93 10000 4.02 234 04:54 31.10.2021
564 Drizzle 20 1015 93 8000 3.58 242 00:36 31.10.2021
565 Drizzle 21 1014 92 4500 4.47 243 22:27 30.10.2021
566 Clouds 21 1014 91 4500 4.47 242 21:29 30.10.2021
567 Clouds 21 1014 92 10000 8.49 226 19:57 30.10.2021
568 Clouds 21 1012 90 5000 5.36 224 17:51 30.10.2021
569 Clouds 22 1012 84 10000 5.81 247 15:49 30.10.2021
570 Clouds 22 1012 90 10000 4.92 244 14:23 30.10.2021
571 Clouds 21 1012 90 4200 5.36 243 13:38 30.10.2021
572 Clouds 21 1012 90 5000 5.36 240 13:20 30.10.2021
573 Rain 20 1012 92 4200 5.36 239 11:50 30.10.2021
574 Rain 21 1012 92 4500 4.92 239 10:58 30.10.2021
575 Clouds 21 1011 91 5000 5.81 241 09:40 30.10.2021
576 Clouds 20 1010 91 10000 4.92 239 07:57 30.10.2021
577 Clouds 20 1010 91 10000 4.92 239 07:57 30.10.2021
578 Clouds 20 1010 91 10000 4.92 242 05:48 30.10.2021
579 Clouds 20 1011 92 10000 4.47 236 03:28 30.10.2021
580 Clouds 20 1012 90 10000 3.58 229 23:22 29.10.2021
581 Clouds 19 1012 90 9000 3.13 237 22:35 29.10.2021
582 Clouds 19 1012 92 6000 3.13 243 21:19 29.10.2021
583 Clouds 18 1012 91 4500 3.13 226 20:33 29.10.2021
584 Clouds 19 1012 87 9000 2.24 227 19:33 29.10.2021
585 Rain 19 1012 84 10000 4.02 250 18:18 29.10.2021
586 Clouds 21 1013 74 10000 4.47 240 16:20 29.10.2021
587 Clouds 21 1015 70 10000 3.13 214 13:23 29.10.2021
588 Clouds 17 1015 79 10000 2.24 226 10:50 29.10.2021
589 Clouds 17 1015 79 10000 1.79 227 10:31 29.10.2021
590 Clouds 17 1014 80 10000 1.34 268 05:43 29.10.2021
591 Clear 19 1015 73 10000 1.79 254 00:35 29.10.2021
592 Clear 20 1014 65 10000 2.24 266 22:40 28.10.2021
593 Clouds 21 1014 56 9000 1.79 227 21:20 28.10.2021
594 Clear 23 1013 47 10000 0.45 215 20:19 28.10.2021
595 Clear 25 1013 41 10000 1.34 215 18:57 28.10.2021
596 Clear 26 1013 39 10000 0.89 249 17:57 28.10.2021
597 Clear 26 1014 39 10000 1.34 298 16:54 28.10.2021
598 Clear 25 1015 42 10000 1.34 272 15:20 28.10.2021
599 Clear 22 1017 55 10000 0.89 289 13:35 28.10.2021
600 Clear 21 1017 59 10000 0.45 66 12:53 28.10.2021
601 Clear 20 1017 62 10000 0.89 20 12:34 28.10.2021
602 Clear 16 1017 69 10000 1.34 69 10:51 28.10.2021
603 Clear 14 1017 73 10000 1.34 45 09:38 28.10.2021
604 Clear 14 1016 73 10000 1.79 28 08:37 28.10.2021
605 Clear 14 1016 71 10000 1.34 17 07:49 28.10.2021
606 Clouds 16 1017 67 10000 1.34 58 04:36 28.10.2021
607 Clouds 20 1017 59 10000 1.34 226 23:26 27.10.2021
608 Clear 21 1017 53 10000 1.34 187 22:30 27.10.2021
609 Clear 22 1017 46 10000 0.45 93 21:32 27.10.2021
610 Clear 23 1017 43 10000 0.45 87 20:49 27.10.2021
611 Clear 24 1016 39 10000 0.45 46 19:52 27.10.2021
612 Clear 26 1016 37 10000 2.24 74 18:58 27.10.2021
613 Clear 26 1016 37 10000 2.68 68 18:38 27.10.2021
614 Clear 26 1016 39 10000 1.79 100 16:26 27.10.2021
615 Clear 25 1017 40 10000 2.68 86 15:30 27.10.2021
616 Clear 25 1017 40 10000 2.68 86 15:30 27.10.2021
617 Clear 25 1018 40 10000 3.13 74 14:39 27.10.2021
618 Clear 18 1020 58 10000 2.24 59 11:21 27.10.2021
619 Clear 17 1020 62 10000 3.13 62 10:58 27.10.2021
620 Clear 15 1019 69 10000 3.13 49 09:45 27.10.2021
621 Clear 14 1019 71 10000 2.68 46 07:53 27.10.2021
622 Clear 15 1019 70 10000 2.68 51 06:53 27.10.2021
623 Clear 17 1019 66 10000 0.45 213 01:45 27.10.2021
624 Clear 18 1019 63 10000 0.45 297 00:56 27.10.2021
625 Clear 18 1019 60 10000 0.89 179 00:24 27.10.2021
626 Clear 19 1019 55 10000 3.6 150 23:40 26.10.2021
627 Clouds 20 1019 49 10000 0.89 110 22:37 26.10.2021
628 Clouds 21 1018 54 10000 0.78 105 21:57 26.10.2021
629 Clear 22 1018 51 10000 0.89 73 20:27 26.10.2021
630 Clear 24 1017 46 10000 1.79 74 19:26 26.10.2021
631 Clear 24 1017 46 10000 2.68 63 18:40 26.10.2021
632 Clouds 26 1016 37 10000 2.24 93 16:22 26.10.2021
633 Clear 25 1018 46 10000 2.24 113 14:19 26.10.2021
634 Clear 19 1019 60 10000 1.34 53 11:34 26.10.2021
635 Clear 15 1019 67 10000 1.34 49 10:20 26.10.2021
636 Clear 15 1017 69 10000 0.45 51 07:25 26.10.2021
637 Clear 18 1017 61 10000 0.89 83 03:39 26.10.2021
638 Clouds 19 1017 60 10000 1.34 221 23:50 25.10.2021
639 Clear 20 1018 53 10000 0.45 157 22:53 25.10.2021
640 Clear 21 1017 49 10000 0.45 305 22:18 25.10.2021
641 Clear 22 1016 45 10000 1.54 30 21:38 25.10.2021
642 Clear 25 1016 39 10000 0.45 322 19:53 25.10.2021
643 Clear 25 1016 38 10000 0.89 322 19:25 25.10.2021
644 Clear 26 1016 37 10000 0.45 327 18:54 25.10.2021
645 Clear 26 1016 37 10000 1.79 335 17:59 25.10.2021
646 Clear 26 1016 37 10000 0.89 55 16:18 25.10.2021
647 Clear 24 1018 45 10000 1.34 129 14:28 25.10.2021
648 Clear 20 1020 56 10000 1.79 78 12:29 25.10.2021
649 Clear 15 1020 66 10000 2.24 59 10:20 25.10.2021
650 Clear 14 1019 70 10000 1.79 45 08:34 25.10.2021
651 Clear 15 1019 67 10000 1.34 73 06:24 25.10.2021
652 Clear 19 1020 56 10000 1.03 0 00:58 25.10.2021
653 Clear 19 1020 55 10000 0.45 0 00:37 25.10.2021
654 Clear 19 1019 53 10000 0.89 274 23:47 24.10.2021
655 Clear 21 1019 46 10000 0.89 357 22:44 24.10.2021
656 Clear 21 1019 47 10000 1.03 0 22:21 24.10.2021
657 Clear 22 1019 46 10000 1.54 60 21:41 24.10.2021
658 Clear 23 1019 40 10000 2.06 50 20:45 24.10.2021
659 Clear 24 1019 39 10000 0.45 10 20:23 24.10.2021
660 Clear 26 1018 36 10000 2.24 10 18:52 24.10.2021
661 Clear 27 1019 37 10000 1.79 36 17:55 24.10.2021
662 Clear 26 1019 37 10000 0.89 340 16:49 24.10.2021
663 Clouds 26 1020 43 10000 1.34 97 15:28 24.10.2021
664 Clear 23 1021 51 10000 2.24 46 13:49 24.10.2021
665 Clear 21 1021 59 10000 1.79 29 12:41 24.10.2021
666 Clear 19 1022 65 10000 1.79 15 11:40 24.10.2021
667 Clear 17 1022 69 10000 2.24 59 10:43 24.10.2021
668 Clear 14 1021 76 10000 2.24 54 09:38 24.10.2021
669 Clear 15 1020 73 10000 0.89 1 05:35 24.10.2021
670 Clear 19 1020 66 10000 0.89 227 00:40 24.10.2021
671 Clear 21 1020 56 10000 0.45 213 23:24 23.10.2021
672 Clear 21 1019 48 10000 0.51 0 21:50 23.10.2021
673 Clear 24 1018 41 10000 0.89 349 19:47 23.10.2021
674 Clear 25 1018 41 10000 1.34 7 18:48 23.10.2021
675 Clear 26 1017 40 10000 1.34 358 18:21 23.10.2021
676 Clear 26 1018 41 10000 1.34 18 17:42 23.10.2021
677 Clear 25 1018 43 10000 1.34 9 16:20 23.10.2021
678 Clear 23 1020 51 10000 0.89 23 13:57 23.10.2021
679 Clear 17 1017 67 10000 1.34 164 03:32 23.10.2021
680 Clear 19 1017 55 10000 0.89 321 23:45 22.10.2021
681 Clear 20 1016 53 10000 2.06 220 22:44 22.10.2021
682 Clear 24 1014 41 10000 0.89 253 19:51 22.10.2021
683 Clear 26 1014 37 10000 0.45 308 18:40 22.10.2021
684 Clear 25 1014 39 10000 0.89 307 17:36 22.10.2021
685 Clear 22 1015 47 10000 0.89 300 14:58 22.10.2021
686 Clear 20 1016 53 10000 0.89 269 13:35 22.10.2021
687 Clear 16 1017 67 10000 0.89 250 10:58 22.10.2021
688 Clear 16 1017 68 10000 0.89 273 10:38 22.10.2021
689 Clear 14 1016 74 10000 0.45 347 09:41 22.10.2021
690 Clear 14 1015 71 10000 1.79 10 08:30 22.10.2021
691 Clear 15 1015 69 10000 1.34 6 07:21 22.10.2021
692 Clear 18 1016 61 10000 1.79 333 02:56 22.10.2021
693 Clear 21 1016 53 10000 1.79 334 23:53 21.10.2021
694 Clear 21 1016 53 10000 2.24 335 23:21 21.10.2021
695 Clear 23 1016 50 10000 1.34 322 21:39 21.10.2021
696 Clear 25 1015 44 10000 1.79 359 20:27 21.10.2021
697 Clear 26 1015 40 10000 1.34 354 19:57 21.10.2021
698 Clear 27 1015 36 10000 2.24 247 19:28 21.10.2021
699 Clear 28 1015 32 10000 1.34 278 18:43 21.10.2021
700 Clear 28 1015 31 10000 1.34 304 17:54 21.10.2021
701 Clear 28 1015 32 10000 1.34 282 17:32 21.10.2021
702 Clear 26 1017 38 10000 1.34 288 15:34 21.10.2021
703 Clear 26 1017 41 10000 0.89 330 14:57 21.10.2021
704 Clear 26 1018 42 10000 1.34 315 14:37 21.10.2021
705 Clear 26 1018 42 10000 0.89 351 14:37 21.10.2021
706 Clear 23 1019 55 10000 1.34 53 12:44 21.10.2021
707 Clear 19 1018 74 10000 0.89 1 09:56 21.10.2021
708 Clear 18 1018 76 10000 0.45 5 08:21 21.10.2021
709 Clear 18 1018 74 10000 1.54 130 07:23 21.10.2021
710 Clear 21 1018 63 10000 0.45 117 00:58 21.10.2021
711 Clear 22 1018 56 10000 0.51 0 23:25 20.10.2021
712 Clear 24 1018 48 10000 0.89 251 21:51 20.10.2021
713 Clear 25 1018 45 10000 1.34 244 21:28 20.10.2021
714 Clear 26 1019 37 10000 0.45 253 20:46 20.10.2021
715 Clear 27 1017 38 10000 0.45 236 20:26 20.10.2021
716 Clear 28 1018 35 10000 0.89 243 19:32 20.10.2021
717 Clear 29 1017 33 10000 0.89 205 18:49 20.10.2021
718 Clear 29 1018 32 10000 0.45 304 17:40 20.10.2021
719 Clear 28 1019 33 10000 0.45 277 15:26 20.10.2021
720 Clear 28 1019 33 10000 0.45 277 15:26 20.10.2021
721 Clear 19 1021 62 10000 1.34 46 10:25 20.10.2021
722 Clear 18 1020 73 10000 1.79 21 08:36 20.10.2021
723 Clear 20 1020 57 10000 1.34 33 02:47 20.10.2021
724 Clear 22 1021 53 10000 0.45 22 00:43 20.10.2021
725 Clear 24 1021 51 10000 0.45 316 23:32 19.10.2021
726 Clear 26 1021 43 10000 0.89 265 21:41 19.10.2021
727 Clear 26 1021 40 10000 0.89 73 20:48 19.10.2021
728 Clear 28 1019 38 10000 2.24 101 20:22 19.10.2021
729 Clear 30 1018 36 10000 1.34 96 19:40 19.10.2021
730 Clear 30 1018 37 10000 1.79 306 18:52 19.10.2021
731 Clear 31 1018 35 10000 1.34 278 17:57 19.10.2021
732 Clear 30 1020 35 10000 1.34 173 15:38 19.10.2021
733 Clear 30 1020 37 10000 0.89 78 15:19 19.10.2021
734 Clear 29 1020 39 10000 1.79 121 14:23 19.10.2021
735 Clear 26 1021 46 10000 1.34 67 12:38 19.10.2021
736 Clear 24 1021 56 10000 1.34 87 11:32 19.10.2021
737 Clear 21 1021 63 10000 1.34 44 10:19 19.10.2021
738 Clear 18 1021 67 10000 0.89 62 08:58 19.10.2021
739 Clear 19 1020 69 10000 0.89 2 06:34 19.10.2021
740 Clear 23 1019 63 10000 0.89 230 00:24 19.10.2021
741 Clear 23 1019 61 10000 1.34 241 23:49 18.10.2021
742 Clear 24 1019 58 10000 0.89 209 23:19 18.10.2021
743 Clear 25 1019 57 10000 0.89 224 22:53 18.10.2021
744 Clear 28 1018 49 10000 1.03 30 21:19 18.10.2021
745 Clear 28 1017 47 10000 0.51 70 20:41 18.10.2021
746 Clear 30 1017 43 10000 1.03 80 19:53 18.10.2021
747 Clear 30 1017 42 10000 0.45 94 19:30 18.10.2021
748 Clear 30 1017 42 10000 0.89 102 18:54 18.10.2021
749 Clear 30 1019 45 10000 1.34 110 15:32 18.10.2021
750 Clear 27 1020 53 10000 1.34 103 13:32 18.10.2021
751 Clear 22 1020 69 10000 2.24 58 10:43 18.10.2021
752 Clear 20 1020 74 10000 1.79 71 09:30 18.10.2021
753 Clear 21 1019 64 10000 0.89 106 03:22 18.10.2021
754 Clear 24 1018 52 10000 1.34 339 23:31 17.10.2021
755 Clear 25 1017 47 10000 0.45 313 21:55 17.10.2021
756 Clear 26 1017 41 10000 0.89 209 21:18 17.10.2021
757 Clear 27 1016 37 10000 0.45 217 20:38 17.10.2021
758 Clear 28 1016 35 10000 0.89 193 19:42 17.10.2021
759 Clear 28 1016 34 10000 0.45 184 19:23 17.10.2021
760 Clear 29 1016 32 10000 0.89 109 17:34 17.10.2021
761 Clear 28 1016 32 10000 0.45 342 15:46 17.10.2021
762 Clear 26 1016 38 10000 0.45 144 14:26 17.10.2021
763 Clear 26 1017 40 10000 0.45 144 13:56 17.10.2021
764 Clear 24 1017 47 10000 0.45 140 12:35 17.10.2021
765 Clear 21 1017 59 10000 1.34 82 10:45 17.10.2021
766 Clear 19 1017 66 10000 1.34 63 09:48 17.10.2021
767 Clear 18 1016 72 10000 0.45 27 07:42 17.10.2021
768 Clear 21 1016 63 10000 0.45 238 00:56 17.10.2021
769 Clear 21 1016 62 10000 1.79 230 00:24 17.10.2021
770 Clear 22 1016 55 10000 2.24 206 22:35 16.10.2021
771 Clear 24 1015 57 10000 1.79 220 20:36 16.10.2021
772 Clear 25 1015 52 10000 2.68 217 19:56 16.10.2021
773 Clear 26 1014 47 10000 2.24 216 19:37 16.10.2021
774 Clouds 26 1014 47 10000 2.24 216 19:18 16.10.2021
775 Clear 27 1014 40 10000 2.24 221 18:42 16.10.2021
776 Clear 28 1014 34 10000 1.79 213 18:20 16.10.2021
777 Rain 28 1014 29 10000 1.79 245 17:29 16.10.2021
778 Clear 28 1015 34 10000 1.79 230 15:39 16.10.2021
779 Clear 23 1017 60 10000 0.45 310 12:44 16.10.2021
780 Clear 19 1017 70 10000 0.89 27 10:51 16.10.2021
781 Clear 16 1016 79 10000 0.89 24 08:56 16.10.2021
782 Clear 21 1016 62 10000 0.45 285 01:36 16.10.2021
783 Clear 21 1017 59 10000 0.45 266 00:29 16.10.2021
784 Clear 22 1017 56 10000 1.79 271 23:25 15.10.2021
785 Clear 23 1017 48 10000 1.79 262 22:20 15.10.2021
786 Clear 24 1017 44 10000 0.89 284 21:37 15.10.2021
787 Clear 25 1017 33 10000 2.57 230 20:52 15.10.2021
788 Clear 26 1016 37 10000 0.89 229 20:22 15.10.2021
789 Clear 28 1015 33 10000 0.89 231 19:19 15.10.2021
790 Clear 29 1015 32 10000 0.89 252 18:21 15.10.2021
791 Clear 28 1017 31 10000 0.89 246 15:46 15.10.2021
792 Clear 25 1018 39 10000 0.89 326 14:18 15.10.2021
793 Clear 21 1019 54 10000 0.89 2 11:54 15.10.2021
794 Clear 18 1019 62 10000 0.45 7 10:58 15.10.2021
795 Clear 17 1019 66 10000 0.89 84 10:28 15.10.2021
796 Clear 16 1018 66 10000 1.34 46 07:35 15.10.2021
797 Clear 18 1018 60 10000 1.34 11 04:46 15.10.2021
798 Clear 22 1019 57 10000 1.79 276 00:22 15.10.2021
799 Clear 23 1018 56 10000 0.89 253 22:54 14.10.2021
800 Clear 24 1018 45 10000 0.45 194 22:20 14.10.2021
801 Clear 24 1019 44 10000 0.45 104 21:37 14.10.2021
802 Clear 27 1017 42 10000 1.79 66 20:20 14.10.2021
803 Clear 28 1017 41 10000 2.24 22 19:46 14.10.2021
804 Clear 29 1016 37 10000 0.89 123 18:40 14.10.2021
805 Clear 29 1016 36 10000 0.89 123 18:40 14.10.2021
806 Clear 29 1016 38 10000 1.79 31 16:59 14.10.2021
807 Clear 29 1016 39 10000 1.79 105 16:32 14.10.2021
808 Clear 27 1018 45 10000 1.79 118 14:50 14.10.2021
809 Clear 26 1018 47 10000 1.79 105 14:26 14.10.2021
810 Clear 25 1019 53 10000 0.89 107 13:33 14.10.2021
811 Clear 20 1019 72 10000 1.79 38 11:35 14.10.2021
812 Clear 17 1019 84 10000 1.34 77 09:24 14.10.2021
813 Clear 18 1017 85 10000 0.89 355 06:19 14.10.2021
814 Clear 20 1016 79 10000 1.79 223 00:43 14.10.2021
815 Clear 23 1016 61 10000 0.89 211 22:42 13.10.2021
816 Clear 25 1015 54 10000 1.79 277 21:37 13.10.2021
817 Clear 26 1014 48 10000 2.24 267 20:45 13.10.2021
818 Clear 26 1015 49 10000 2.24 267 20:45 13.10.2021
819 Clear 29 1014 39 10000 0.89 269 19:39 13.10.2021
820 Clear 30 1014 37 10000 0.89 239 18:47 13.10.2021
821 Clear 30 1014 40 10000 0.89 125 17:22 13.10.2021
822 Clear 26 1015 54 10000 0.89 335 14:47 13.10.2021
823 Clear 26 1015 56 10000 1.34 86 14:25 13.10.2021
824 Clear 23 1017 64 10000 0.45 151 12:48 13.10.2021
825 Clear 20 1016 72 10000 1.34 37 11:37 13.10.2021
826 Clear 17 1016 81 10000 1.34 13 10:18 13.10.2021
827 Clear 17 1015 84 10000 1.34 338 07:54 13.10.2021
828 Clear 20 1014 80 10000 0.89 241 04:50 13.10.2021
829 Clear 21 1014 75 10000 0.89 269 02:22 13.10.2021
830 Clear 22 1015 71 10000 0.89 276 23:51 12.10.2021
831 Clear 22 1015 70 10000 1.34 275 23:27 12.10.2021
832 Clear 23 1014 67 10000 2.24 273 22:41 12.10.2021
833 Clear 25 1013 58 10000 2.24 272 20:55 12.10.2021
834 Clear 25 1013 55 10000 3.13 261 20:31 12.10.2021
835 Clear 28 1013 45 10000 0.45 257 19:45 12.10.2021
836 Clear 29 1012 37 10000 0.89 32 18:26 12.10.2021
837 Clear 30 1012 37 10000 0.45 292 17:35 12.10.2021
838 Clear 29 1013 39 10000 0.89 39 16:24 12.10.2021
839 Clear 29 1013 42 10000 0.89 340 15:35 12.10.2021
840 Clear 27 1014 46 10000 1.79 82 14:20 12.10.2021
841 Clear 26 1015 46 10000 2.24 102 13:41 12.10.2021
842 Clear 22 1016 60 10000 1.34 52 11:36 12.10.2021
843 Clear 19 1015 75 10000 2.24 77 09:41 12.10.2021
844 Clear 18 1015 75 10000 1.79 59 08:35 12.10.2021
845 Clear 19 1014 72 10000 1.79 28 06:49 12.10.2021
846 Clear 19 1014 69 10000 1.79 49 05:29 12.10.2021
847 Clear 19 1014 66 10000 2.24 48 04:29 12.10.2021
848 Clear 22 1014 50 10000 2.24 50 00:18 12.10.2021
849 Clear 22 1014 50 10000 1.79 54 00:18 12.10.2021
850 Clear 22 1014 50 10000 2.24 50 00:18 12.10.2021
851 Clear 22 1014 50 10000 2.24 50 00:18 12.10.2021
852 Clear 23 1014 47 10000 1.34 47 23:37 11.10.2021
853 Clear 23 1014 44 10000 1.79 69 22:56 11.10.2021
854 Clear 26 1014 41 10000 3.09 110 21:41 11.10.2021
855 Clear 28 1013 35 10000 3.13 98 20:32 11.10.2021
856 Clear 29 1014 30 10000 6.69 100 19:38 11.10.2021
857 Clear 31 1012 31 10000 2.24 232 18:24 11.10.2021
858 Clear 31 1012 30 10000 1.34 156 16:49 11.10.2021
859 Clear 31 1012 29 10000 1.79 136 16:31 11.10.2021
860 Clear 30 1013 29 10000 2.24 129 15:45 11.10.2021
861 Clear 30 1013 31 10000 3.13 108 14:54 11.10.2021
862 Clear 29 1014 34 10000 3.13 92 14:22 11.10.2021
863 Clear 27 1015 38 10000 3.13 108 13:36 11.10.2021
864 Clear 23 1015 58 10000 3.13 85 11:25 11.10.2021
865 Clear 19 1015 71 10000 1.79 54 09:55 11.10.2021
866 Clear 18 1014 74 10000 1.79 71 08:41 11.10.2021
867 Clear 20 1014 67 10000 1.79 67 03:47 11.10.2021
868 Clear 21 1015 59 10000 1.34 75 01:34 11.10.2021
869 Clear 22 1015 50 10000 1.34 19 00:43 11.10.2021
870 Clear 23 1015 48 10000 1.79 344 23:52 10.10.2021
871 Clear 26 1014 39 10000 3.13 119 21:51 10.10.2021
872 Clear 26 1014 39 10000 3.13 119 21:51 10.10.2021
873 Clear 26 1014 37 10000 3.13 108 21:29 10.10.2021
874 Clear 27 1014 34 10000 1.34 97 20:41 10.10.2021
875 Clear 28 1013 35 10000 3.58 110 20:20 10.10.2021
876 Clear 28 1014 36 10000 0.45 86 19:52 10.10.2021
877 Clear 29 1013 37 10000 2.68 110 19:33 10.10.2021
878 Clear 30 1013 35 10000 2.24 116 18:28 10.10.2021
879 Clear 30 1014 37 10000 1.34 180 15:59 10.10.2021
880 Clear 30 1014 37 10000 1.34 146 15:40 10.10.2021
881 Clear 27 1015 42 10000 1.79 88 13:42 10.10.2021
882 Clear 26 1016 47 10000 2.68 103 12:48 10.10.2021
883 Clear 26 1016 52 10000 2.24 63 12:30 10.10.2021
884 Clear 21 1016 72 10000 2.24 66 10:42 10.10.2021
885 Clear 18 1016 78 10000 2.24 41 09:29 10.10.2021
886 Clear 18 1016 80 10000 1.34 30 08:52 10.10.2021
887 Clear 18 1015 78 10000 0.89 350 06:54 10.10.2021
888 Clear 20 1016 72 10000 1.34 233 02:29 10.10.2021
889 Clear 22 1016 66 10000 1.79 223 00:55 10.10.2021
890 Clear 23 1015 60 10000 0.89 155 23:52 09.10.2021
891 Clear 24 1015 57 10000 1.34 280 22:45 09.10.2021
892 Clear 26 1015 53 10000 0.45 192 21:38 09.10.2021
893 Clear 26 1015 52 10000 0.45 192 21:19 09.10.2021
894 Clear 28 1014 45 10000 0.89 192 19:43 09.10.2021
895 Clear 29 1014 43 10000 0.89 219 18:57 09.10.2021
896 Clear 29 1014 43 10000 0.89 235 18:32 09.10.2021
897 Clear 28 1015 47 10000 0.89 294 16:29 09.10.2021
898 Clear 28 1015 47 10000 0.89 294 16:29 09.10.2021
899 Clear 28 1015 47 10000 0.89 251 16:29 09.10.2021
900 Clear 28 1015 47 10000 0.89 294 16:29 09.10.2021
901 Clear 27 1016 52 10000 0.89 50 15:28 09.10.2021
902 Clear 25 1017 59 10000 1.54 310 13:43 09.10.2021
903 Clouds 23 1018 69 10000 0.45 111 12:38 09.10.2021
904 Clouds 21 1019 82 10000 1.03 0 11:47 09.10.2021
905 Mist 17 1019 100 2000 1.54 40 10:42 09.10.2021
906 Fog 18 1017 89 400 0.89 341 10:41 09.10.2021
907 Fog 17 1017 91 200 0.89 358 09:36 09.10.2021
908 Fog 16 1016 90 10000 1.79 6 08:29 09.10.2021
909 Fog 17 1016 88 9000 0.45 42 07:46 09.10.2021
910 Mist 18 1015 91 4200 0.45 269 05:28 09.10.2021
911 Clear 19 1015 84 10000 1.34 240 02:57 09.10.2021
912 Clear 19 1015 82 10000 1.34 227 02:38 09.10.2021
913 Clear 23 1015 60 10000 1.79 242 23:36 08.10.2021
914 Clear 24 1015 57 10000 0.89 258 22:53 08.10.2021
915 Clear 24 1015 57 10000 1.79 264 22:22 08.10.2021
916 Clear 26 1015 51 10000 2.24 232 20:49 08.10.2021
917 Clear 31 1014 38 10000 1.34 208 18:53 08.10.2021
918 Clear 31 1014 33 10000 0.89 217 17:28 08.10.2021
919 Clear 31 1014 36 10000 0.45 256 16:50 08.10.2021
920 Clear 30 1015 38 10000 0.89 220 16:23 08.10.2021
921 Clear 27 1016 50 10000 0.89 177 13:57 08.10.2021
922 Clear 25 1017 54 10000 1.54 10 12:48 08.10.2021
923 Clear 21 1017 66 10000 1.79 44 11:31 08.10.2021
924 Clear 18 1018 74 10000 1.54 330 10:40 08.10.2021
925 Clear 17 1016 79 10000 0.89 336 08:27 08.10.2021
926 Clear 23 1015 56 10000 0.45 210 23:55 07.10.2021
927 Clear 25 1015 51 10000 0.45 243 23:18 07.10.2021
928 Clear 26 1015 48 10000 1.79 220 21:45 07.10.2021
929 Clear 27 1015 47 10000 1.79 255 21:20 07.10.2021
930 Clear 29 1015 39 10000 0.51 0 20:20 07.10.2021
931 Clear 32 1014 33 10000 0.89 101 19:29 07.10.2021
932 Clear 31 1014 35 10000 1.34 79 18:22 07.10.2021
933 Clear 31 1015 36 10000 1.79 19 17:18 07.10.2021
934 Clear 30 1016 40 10000 2.24 85 15:50 07.10.2021
935 Clear 28 1017 47 10000 2.68 68 13:52 07.10.2021
936 Clear 27 1017 49 10000 2.68 47 13:34 07.10.2021
937 Clear 25 1018 53 10000 2.68 62 12:40 07.10.2021
938 Clear 21 1018 59 10000 2.68 70 10:52 07.10.2021
939 Clear 21 1018 59 10000 1.34 17 10:52 07.10.2021
940 Clear 20 1018 61 10000 2.68 58 10:19 07.10.2021
941 Clear 19 1018 64 10000 2.24 55 09:33 07.10.2021
942 Clear 18 1018 66 10000 1.34 16 08:41 07.10.2021
943 Clear 18 1018 62 10000 2.24 44 07:43 07.10.2021
944 Clear 19 1018 62 10000 1.79 52 07:19 07.10.2021
945 Clear 21 1018 60 10000 1.34 339 02:50 07.10.2021
946 Clear 24 1018 53 10000 0.45 318 00:29 07.10.2021
947 Clear 24 1018 52 10000 1.79 251 22:51 06.10.2021
948 Clear 25 1018 47 10000 2.24 176 21:53 06.10.2021
949 Clear 29 1017 38 10000 0.89 67 20:38 06.10.2021
950 Clear 30 1018 34 10000 0.45 53 19:55 06.10.2021
951 Clear 32 1016 28 10000 2.68 58 18:41 06.10.2021
952 Clear 32 1017 27 10000 2.68 90 16:58 06.10.2021
953 Clear 30 1018 34 10000 3.58 81 15:30 06.10.2021
954 Clear 29 1019 37 10000 3.58 82 14:22 06.10.2021
955 Clear 27 1019 45 10000 4.02 81 13:20 06.10.2021
956 Clear 25 1019 52 10000 3.13 63 12:43 06.10.2021
957 Clear 25 1019 54 10000 3.58 75 12:21 06.10.2021
958 Clear 21 1020 76 10000 1.79 50 10:21 06.10.2021
959 Clear 19 1019 80 10000 1.79 64 09:39 06.10.2021
960 Clear 18 1019 82 10000 0.89 47 08:42 06.10.2021
961 Clear 19 1019 82 10000 0.89 65 07:48 06.10.2021
962 Clear 19 1018 79 10000 1.34 69 05:26 06.10.2021
963 Clear 22 1020 68 10000 0.89 10 00:29 06.10.2021
964 Clear 22 1020 67 10000 1.34 3 23:58 05.10.2021
965 Clear 23 1020 65 10000 0.89 9 23:39 05.10.2021
966 Clear 23 1020 65 10000 0.89 10 23:20 05.10.2021
967 Clear 23 1020 59 10000 2.68 32 22:28 05.10.2021
968 Clear 24 1019 53 10000 1.79 50 21:50 05.10.2021
969 Clear 25 1019 48 10000 1.54 340 20:48 05.10.2021
970 Clear 26 1018 45 10000 1.03 340 20:24 05.10.2021
971 Clear 26 1018 43 10000 0.89 267 19:47 05.10.2021
972 Clear 28 1018 40 10000 0.45 87 18:57 05.10.2021
973 Clear 27 1019 40 10000 1.34 127 16:58 05.10.2021
974 Clear 25 1021 39 10000 0.89 57 14:57 05.10.2021
975 Clear 23 1022 45 10000 1.79 80 13:42 05.10.2021
976 Clear 22 1022 48 10000 1.34 74 12:54 05.10.2021
977 Clear 21 1022 51 10000 2.24 93 12:19 05.10.2021
978 Clear 20 1022 56 10000 1.79 73 11:21 05.10.2021
979 Clear 16 1021 68 10000 1.79 51 09:27 05.10.2021
980 Clear 16 1020 63 10000 2.24 33 05:36 05.10.2021
981 Clear 19 1020 46 10000 0.89 352 23:54 04.10.2021
982 Clear 21 1020 40 10000 1.79 13 22:39 04.10.2021
983 Clear 22 1019 43 10000 0 0 20:43 04.10.2021
984 Clear 26 1018 32 10000 0.45 317 18:34 04.10.2021
985 Clear 25 1018 35 10000 0.89 136 16:39 04.10.2021
986 Clear 23 1019 37 10000 0.89 323 15:32 04.10.2021
987 Clear 22 1020 41 10000 1.79 133 14:43 04.10.2021
988 Clear 22 1021 43 10000 1.79 84 13:58 04.10.2021
989 Clear 21 1021 47 10000 1.79 87 13:30 04.10.2021
990 Clear 19 1021 56 10000 2.68 68 12:30 04.10.2021
991 Clear 17 1022 60 10000 1.34 56 11:31 04.10.2021
992 Clear 15 1021 69 10000 1.34 20 10:34 04.10.2021
993 Clear 14 1020 69 10000 2.68 8 09:25 04.10.2021
994 Clear 14 1020 71 10000 1.34 352 07:52 04.10.2021
995 Clear 16 1018 67 10000 0.89 291 03:34 04.10.2021
996 Clear 19 1017 52 10000 0.89 325 22:48 03.10.2021
997 Clear 20 1017 51 10000 0.89 307 21:43 03.10.2021
998 Clear 20 1016 50 10000 3.13 341 21:24 03.10.2021
999 Clear 21 1015 50 10000 2.24 334 20:43 03.10.2021
1000 Clear 23 1014 48 10000 2.68 328 19:33 03.10.2021
1001 Clouds 23 1013 50 10000 2.68 307 18:28 03.10.2021
1002 Clouds 23 1013 50 10000 2.68 307 18:28 03.10.2021
1003 Clouds 23 1013 63 10000 3.58 277 17:31 03.10.2021
1004 Drizzle 20 1012 91 3500 3.58 245 14:49 03.10.2021
1005 Drizzle 20 1013 90 4000 3.13 237 14:28 03.10.2021
1006 Clouds 21 1013 81 10000 5.36 266 13:35 03.10.2021
1007 Clouds 22 1013 72 10000 3.58 246 12:44 03.10.2021
1008 Clouds 20 1013 80 10000 2.24 245 10:58 03.10.2021
1009 Clear 18 1013 87 10000 1.34 241 09:42 03.10.2021
1010 Clouds 17 1012 89 10000 1.34 247 05:25 03.10.2021
1011 Clear 21 1013 68 10000 1.79 253 22:52 02.10.2021
1012 Clear 23 1013 54 10000 1.79 237 21:49 02.10.2021
1013 Clear 26 1013 40 10000 2.68 236 20:18 02.10.2021
1014 Clear 29 1012 33 10000 3.13 243 18:56 02.10.2021
1015 Clear 29 1012 33 10000 3.13 243 18:56 02.10.2021
1016 Clear 29 1012 33 10000 3.13 243 18:56 02.10.2021
1017 Clear 29 1012 33 10000 3.13 243 18:56 02.10.2021
1018 Clear 29 1012 34 10000 3.13 250 18:20 02.10.2021
1019 Clear 30 1012 36 10000 3.13 214 17:37 02.10.2021
1020 Clear 30 1013 39 10000 2.24 228 16:28 02.10.2021
1021 Clear 19 1015 83 10000 0.45 360 06:47 02.10.2021
1022 Clear 30 1020 36 10000 0.45 296 15:37 30.09.2021
1023 Clear 28 1021 42 10000 0.89 171 13:54 30.09.2021
1024 Clear 25 1022 52 10000 0.89 125 11:53 30.09.2021
1025 Clear 22 1022 59 10000 0.45 80 10:53 30.09.2021
1026 Clear 21 1021 63 10000 0.89 75 10:22 30.09.2021
1027 Clear 19 1020 64 10000 1.34 344 08:31 30.09.2021
1028 Clear 19 1020 61 10000 0.45 81 07:35 30.09.2021
1029 Clear 21 1020 56 10000 1.34 54 05:23 30.09.2021
1030 Clear 24 1020 46 10000 1.34 61 01:41 30.09.2021
1031 Clear 25 1020 44 10000 0.89 1 00:30 30.09.2021
1032 Clear 27 1020 42 10000 0.89 355 22:39 29.09.2021
1033 Clear 28 1019 39 10000 0.89 11 21:28 29.09.2021
1034 Clear 31 1018 33 10000 0.89 5 20:28 29.09.2021
1035 Clear 32 1019 30 10000 1.34 52 19:55 29.09.2021
1036 Clear 32 1018 29 10000 1.79 54 18:54 29.09.2021
1037 Clear 32 1018 29 10000 1.34 72 17:55 29.09.2021
1038 Clear 32 1019 31 10000 1.79 28 16:55 29.09.2021
1039 Clear 31 1019 34 10000 1.79 354 16:21 29.09.2021
1040 Clear 30 1020 39 10000 2.24 77 14:42 29.09.2021
1041 Clear 29 1021 42 10000 2.24 53 14:18 29.09.2021
1042 Clear 28 1021 46 10000 1.79 47 13:27 29.09.2021
1043 Clear 26 1022 50 10000 2.24 71 12:38 29.09.2021
1044 Clear 22 1022 57 10000 1.79 49 10:57 29.09.2021
1045 Clear 21 1022 59 10000 1.34 69 10:25 29.09.2021
1046 Clear 20 1022 62 10000 1.34 31 09:39 29.09.2021
1047 Clear 19 1021 63 10000 0.89 353 07:48 29.09.2021
1048 Clear 20 1020 62 10000 0.89 346 05:50 29.09.2021
1049 Clear 24 1020 61 10000 0.89 329 23:36 28.09.2021
1050 Clear 24 1019 65 10000 1.79 250 22:24 28.09.2021
1051 Clear 25 1019 59 10000 2.24 240 21:45 28.09.2021
1052 Clear 27 1018 49 10000 3.13 206 20:44 28.09.2021
1053 Clear 28 1018 45 10000 2.24 215 19:47 28.09.2021
1054 Clear 30 1017 41 10000 2.24 212 18:53 28.09.2021
1055 Clear 31 1018 35 10000 0.89 227 18:27 28.09.2021
1056 Clear 30 1018 36 10000 0.89 210 16:42 28.09.2021
1057 Clear 29 1019 43 10000 0.89 252 14:53 28.09.2021
1058 Clear 27 1020 51 10000 0.45 184 13:25 28.09.2021
1059 Clear 25 1020 54 10000 0.89 145 12:24 28.09.2021
1060 Clear 24 1020 59 10000 0.89 94 11:47 28.09.2021
1061 Clear 23 1020 62 10000 0.89 89 11:25 28.09.2021
1062 Clear 21 1020 71 10000 0.89 336 10:26 28.09.2021
1063 Mist 18 1019 81 5000 0.45 358 09:25 28.09.2021
1064 Fog 18 1019 83 1000 0.89 355 08:43 28.09.2021
1065 Clouds 18 1018 84 7000 0.51 0 07:55 28.09.2021
1066 Clear 19 1018 85 10000 0 0 06:25 28.09.2021
1067 Clear 21 1019 71 10000 0.45 252 01:31 28.09.2021
1068 Clear 23 1019 66 10000 0.45 302 00:28 28.09.2021
1069 Clear 24 1019 63 10000 0.89 307 23:48 27.09.2021
1070 Clear 24 1018 60 10000 0.45 300 23:24 27.09.2021
1071 Clear 25 1019 57 10000 1.34 265 22:20 27.09.2021
1072 Clear 25 1019 57 10000 1.34 261 22:20 27.09.2021
1073 Clear 27 1018 49 10000 2.24 236 20:54 27.09.2021
1074 Clear 29 1017 40 10000 1.34 232 20:26 27.09.2021
1075 Clear 30 1018 32 10000 0.45 230 19:37 27.09.2021
1076 Clear 31 1018 29 10000 0.89 285 18:52 27.09.2021
1077 Clear 31 1018 30 10000 0.45 228 18:52 27.09.2021
1078 Clear 31 1018 31 10000 0.89 315 17:37 27.09.2021
1079 Clear 30 1018 34 10000 1.34 292 16:56 27.09.2021
1080 Clear 30 1018 34 10000 0.89 348 16:34 27.09.2021
1081 Clear 29 1019 39 10000 0.89 8 15:37 27.09.2021
1082 Clear 27 1020 50 10000 0.89 251 13:49 27.09.2021
1083 Clear 23 1021 65 10000 1.34 66 12:22 27.09.2021
1084 Clear 20 1021 79 10000 0.89 21 10:48 27.09.2021
1085 Clear 18 1020 86 10000 0.45 54 09:42 27.09.2021
1086 Clear 17 1020 87 10000 0.89 323 07:54 27.09.2021
1087 Clear 19 1019 80 10000 0.89 200 03:34 27.09.2021
1088 Clear 23 1019 61 10000 0.89 313 23:53 26.09.2021
1089 Clear 24 1018 56 10000 1.79 216 21:59 26.09.2021
1090 Clear 26 1018 47 10000 0.45 287 21:27 26.09.2021
1091 Clear 28 1018 40 10000 0.45 299 20:30 26.09.2021
1092 Clear 28 1018 40 10000 0.45 283 19:54 26.09.2021
1093 Clear 29 1018 38 10000 0.89 337 19:26 26.09.2021
1094 Clear 29 1018 38 10000 0.89 337 19:26 26.09.2021
1095 Clear 29 1018 38 10000 0.89 337 19:26 26.09.2021
1096 Clear 29 1018 38 10000 0.89 337 19:26 26.09.2021
1097 Clear 29 1018 38 10000 0.89 337 19:26 26.09.2021
1098 Clear 29 1018 38 10000 0.89 337 19:26 26.09.2021
1099 Clear 29 1018 38 10000 0.89 337 19:26 26.09.2021
1100 Clear 30 1018 37 10000 0.89 343 18:41 26.09.2021
1101 Clear 29 1018 39 10000 0.89 326 17:48 26.09.2021
1102 Clear 29 1018 39 10000 0.89 308 17:20 26.09.2021
1103 Clear 28 1018 42 10000 1.34 320 16:24 26.09.2021
1104 Clear 28 1019 45 10000 0.89 296 15:47 26.09.2021
1105 Clear 27 1020 55 10000 0.89 274 14:26 26.09.2021
1106 Clear 25 1020 60 10000 0.89 122 13:44 26.09.2021
1107 Clear 23 1021 70 10000 1.34 90 12:31 26.09.2021
1108 Clear 22 1021 76 10000 1.34 66 11:58 26.09.2021
1109 Clouds 21 1020 78 10000 1.34 57 11:36 26.09.2021
1110 Clouds 18 1020 90 9000 0.89 33 09:52 26.09.2021
1111 Clouds 17 1020 91 9000 0.45 32 08:54 26.09.2021
1112 Clear 20 1019 82 10000 0.89 220 01:28 26.09.2021
1113 Clear 20 1019 79 10000 0.89 289 00:20 26.09.2021
1114 Clear 21 1018 73 10000 1.34 283 22:42 25.09.2021
1115 Clear 22 1018 72 10000 0.89 274 22:23 25.09.2021
1116 Clear 23 1018 69 10000 1.34 265 21:49 25.09.2021
1117 Clear 23 1018 63 10000 2.24 247 20:53 25.09.2021
1118 Clear 25 1017 54 10000 2.24 227 19:54 25.09.2021
1119 Clear 27 1016 47 10000 1.79 248 18:39 25.09.2021
1120 Clear 27 1016 46 10000 1.79 283 17:46 25.09.2021
1121 Clouds 26 1017 52 10000 2.24 283 15:35 25.09.2021
1122 Clouds 25 1018 63 10000 1.34 227 13:56 25.09.2021
1123 Clouds 23 1018 70 10000 1.34 208 12:48 25.09.2021
1124 Clouds 22 1018 76 10000 1.34 204 11:40 25.09.2021
1125 Clouds 19 1017 83 10000 0.45 184 10:24 25.09.2021
1126 Clouds 18 1017 87 10000 1.54 150 09:25 25.09.2021
1127 Clear 17 1016 89 10000 0.45 170 07:52 25.09.2021
1128 Clear 17 1016 89 10000 0.45 170 07:52 25.09.2021
1129 Clear 19 1016 82 10000 0.45 233 01:35 25.09.2021
1130 Clouds 21 1016 77 10000 1.34 239 23:45 24.09.2021
1131 Clouds 22 1014 71 10000 2.68 240 21:41 24.09.2021
1132 Clouds 23 1013 63 10000 2.24 245 20:33 24.09.2021
1133 Clouds 23 1013 60 10000 3.13 245 19:45 24.09.2021
1134 Clouds 24 1013 56 10000 2.68 264 18:32 24.09.2021
1135 Clouds 24 1013 55 10000 3.13 246 17:53 24.09.2021
1136 Clouds 24 1013 53 10000 3.13 242 17:35 24.09.2021
1137 Clouds 24 1013 53 10000 2.68 262 16:55 24.09.2021
1138 Clouds 24 1013 65 10000 2.24 210 13:57 24.09.2021
1139 Clouds 22 1013 75 10000 1.79 205 12:45 24.09.2021
1140 Clouds 22 1014 78 10000 2.68 206 12:27 24.09.2021
1141 Clouds 22 1013 79 10000 1.79 236 11:59 24.09.2021
1142 Clouds 21 1012 84 10000 1.34 279 10:25 24.09.2021
1143 Clouds 21 1011 88 10000 0.45 267 08:29 24.09.2021
1144 Clouds 21 1011 90 9000 0.51 0 07:32 24.09.2021
1145 Clouds 21 1011 90 10000 1.03 0 06:44 24.09.2021
1146 Clouds 21 1011 90 10000 0.45 324 04:53 24.09.2021
1147 Clouds 23 1012 82 10000 1.34 198 23:57 23.09.2021
1148 Clouds 23 1011 82 10000 0.89 284 22:20 23.09.2021
1149 Clouds 23 1011 81 10000 0.45 258 21:47 23.09.2021
1150 Clouds 23 1011 81 10000 0.45 322 20:33 23.09.2021
1151 Clouds 23 1010 79 10000 1.34 326 19:28 23.09.2021
1152 Clouds 24 1010 76 10000 1.79 348 17:45 23.09.2021
1153 Clouds 24 1012 66 10000 3.09 300 15:21 23.09.2021
1154 Clouds 23 1012 72 10000 3.6 300 14:59 23.09.2021
1155 Clouds 25 1010 61 10000 3.58 311 13:45 23.09.2021
1156 Clouds 27 1010 54 10000 2.24 207 13:19 23.09.2021
1157 Clouds 27 1010 50 10000 3.13 162 12:48 23.09.2021
1158 Clear 27 1011 54 10000 2.68 147 12:22 23.09.2021
1159 Clear 26 1011 56 10000 3.58 132 11:23 23.09.2021
1160 Clear 24 1011 62 10000 5.14 90 10:20 23.09.2021
1161 Clear 23 1010 67 10000 2.68 95 09:51 23.09.2021
1162 Clouds 21 1010 77 10000 0.89 358 07:44 23.09.2021
1163 Clouds 22 1012 71 10000 1.34 47 01:43 23.09.2021
1164 Clouds 23 1013 67 10000 1.03 0 22:58 22.09.2021
1165 Clouds 23 1012 65 10000 1.79 38 22:28 22.09.2021
1166 Clouds 23 1012 64 10000 1.34 52 21:53 22.09.2021
1167 Clouds 24 1012 63 10000 1.79 14 21:33 22.09.2021
1168 Clouds 27 1011 54 10000 1.79 245 20:39 22.09.2021
1169 Clouds 28 1010 48 10000 3.13 234 19:29 22.09.2021
1170 Clouds 30 1010 41 10000 2.24 229 18:37 22.09.2021
1171 Clouds 30 1010 41 10000 0.89 244 17:43 22.09.2021
1172 Clouds 30 1011 43 10000 1.79 86 16:37 22.09.2021
1173 Clear 29 1013 44 10000 1.79 70 15:18 22.09.2021
1174 Clouds 27 1013 47 10000 1.79 109 13:48 22.09.2021
1175 Clear 25 1014 60 10000 2.24 106 11:46 22.09.2021
1176 Clear 22 1014 71 10000 1.79 34 10:44 22.09.2021
1177 Clear 20 1014 78 10000 1.79 56 09:21 22.09.2021
1178 Clear 19 1013 82 10000 1.34 75 08:22 22.09.2021
1179 Clear 19 1013 82 10000 0.89 62 06:57 22.09.2021
1180 Clear 19 1013 81 10000 1.79 53 05:53 22.09.2021
1181 Clear 20 1013 80 10000 1.34 42 05:32 22.09.2021
1182 Clear 20 1014 77 10000 1.34 65 03:48 22.09.2021
1183 Clear 23 1015 69 10000 1.34 53 00:21 22.09.2021
1184 Clear 24 1015 63 10000 2.24 53 22:52 21.09.2021
1185 Clear 24 1013 57 10000 1.34 84 21:33 21.09.2021
1186 Clear 24 1013 60 10000 0.89 4 20:24 21.09.2021
1187 Clouds 25 1013 54 10000 2.68 177 19:20 21.09.2021
1188 Clear 31 1011 37 10000 1.34 338 17:35 21.09.2021
1189 Clouds 30 1012 41 10000 1.79 80 16:34 21.09.2021
1190 Clear 30 1013 43 10000 1.79 54 15:38 21.09.2021
1191 Clear 29 1014 43 10000 1.34 60 14:57 21.09.2021
1192 Clear 28 1014 45 10000 3.13 84 13:56 21.09.2021
1193 Clear 28 1014 45 10000 2.68 67 13:56 21.09.2021
1194 Clear 28 1015 46 10000 3.58 81 13:36 21.09.2021
1195 Clear 25 1015 49 10000 2.68 82 11:45 21.09.2021
1196 Clouds 22 1016 57 10000 3.6 50 10:26 21.09.2021
1197 Clear 18 1015 80 10000 2.57 70 08:28 21.09.2021
1198 Clear 19 1015 82 10000 2.06 40 06:41 21.09.2021
1199 Clear 25 1016 57 10000 4.12 290 23:59 20.09.2021
1200 Clear 26 1015 51 10000 2.57 270 22:25 20.09.2021
1201 Clear 27 1014 45 10000 2.57 260 21:38 20.09.2021
1202 Clear 29 1014 40 10000 3.09 250 20:34 20.09.2021
1203 Clear 31 1013 41 10000 2.68 259 19:31 20.09.2021
1204 Clear 32 1014 37 10000 0.45 231 17:47 20.09.2021
1205 Clear 31 1014 38 10000 1.34 226 16:49 20.09.2021
1206 Clear 31 1015 40 10000 1.34 348 15:56 20.09.2021
1207 Clear 30 1016 43 10000 1.34 214 15:32 20.09.2021
1208 Clear 29 1016 48 10000 0.89 319 14:25 20.09.2021
1209 Clear 26 1017 50 10000 0.89 17 12:36 20.09.2021
1210 Clear 24 1018 55 10000 1.34 23 11:44 20.09.2021
1211 Clear 22 1017 63 10000 0.89 355 10:32 20.09.2021
1212 Clear 20 1017 71 10000 0.89 350 09:43 20.09.2021
1213 Clear 19 1017 73 10000 0.45 354 09:20 20.09.2021
1214 Clear 19 1016 74 10000 0.89 351 08:27 20.09.2021
1215 Clear 21 1016 71 10000 0.89 236 02:27 20.09.2021
1216 Clear 26 1015 48 10000 0.45 271 22:46 19.09.2021
1217 Clear 27 1015 43 10000 1.79 223 21:45 19.09.2021
1218 Clear 29 1014 37 10000 1.79 234 20:53 19.09.2021
1219 Clear 31 1014 30 10000 0.89 164 19:41 19.09.2021
1220 Clear 32 1013 30 10000 0.89 26 18:32 19.09.2021
1221 Clear 32 1014 32 10000 1.34 335 17:23 19.09.2021
1222 Clear 31 1014 36 10000 1.34 29 16:32 19.09.2021
1223 Clear 30 1015 36 10000 1.34 345 15:31 19.09.2021
1224 Clear 29 1015 38 10000 0.89 34 14:48 19.09.2021
1225 Clear 28 1016 42 10000 0.89 15 13:46 19.09.2021
1226 Clear 26 1017 45 10000 1.34 104 12:52 19.09.2021
1227 Clear 24 1016 52 10000 1.79 76 11:39 19.09.2021
1228 Clear 23 1017 54 10000 1.79 44 11:20 19.09.2021
1229 Clear 20 1016 71 10000 1.34 63 09:50 19.09.2021
1230 Clear 20 1016 71 10000 1.34 63 09:50 19.09.2021
1231 Clear 18 1016 83 10000 0.89 49 08:49 19.09.2021
1232 Clear 18 1015 84 10000 0.89 9 06:43 19.09.2021
1233 Clear 21 1014 75 10000 0.89 243 00:20 19.09.2021
1234 Clear 22 1014 69 10000 0.89 244 22:54 18.09.2021
1235 Clear 24 1013 56 10000 1.79 226 21:40 18.09.2021
1236 Clear 26 1013 38 10000 1.34 250 20:46 18.09.2021
1237 Clear 29 1012 33 10000 2.68 274 19:41 18.09.2021
1238 Clear 29 1012 34 10000 2.24 269 19:21 18.09.2021
1239 Clear 30 1012 34 10000 2.68 267 18:38 18.09.2021
1240 Clear 30 1012 36 10000 3.13 254 17:59 18.09.2021
1241 Clear 30 1012 39 10000 2.24 283 16:34 18.09.2021
1242 Clear 27 1014 51 10000 2.24 261 13:51 18.09.2021
1243 Clear 27 1014 51 10000 1.79 257 13:31 18.09.2021
1244 Clear 27 1014 54 10000 0.89 253 12:51 18.09.2021
1245 Clear 24 1015 62 10000 0.45 358 11:42 18.09.2021
1246 Clear 22 1014 70 10000 1.79 32 10:37 18.09.2021
1247 Clear 21 1014 74 10000 0.89 324 09:55 18.09.2021
1248 Clear 20 1014 76 10000 1.34 25 09:22 18.09.2021
1249 Clear 20 1013 74 10000 1.34 348 07:36 18.09.2021
1250 Clouds 25 1013 60 10000 0.89 219 00:42 18.09.2021
1251 Clouds 25 1013 54 10000 0.45 310 23:53 17.09.2021
1252 Clouds 26 1013 57 10000 1.34 300 22:43 17.09.2021
1253 Clear 26 1013 56 10000 1.34 272 22:21 17.09.2021
1254 Clear 28 1012 53 10000 1.79 241 21:27 17.09.2021
1255 Clear 30 1012 46 10000 2.68 224 19:29 17.09.2021
1256 Clear 31 1011 46 10000 2.68 222 17:57 17.09.2021
1257 Clear 31 1013 43 10000 1.79 252 16:33 17.09.2021
1258 Clear 29 1015 50 10000 1.34 182 14:32 17.09.2021
1259 Clear 25 1015 68 10000 1.34 87 11:30 17.09.2021
1260 Clear 21 1015 86 8000 0 0 09:24 17.09.2021
1261 Clear 20 1014 89 10000 0.45 335 07:36 17.09.2021
1262 Clear 21 1014 86 10000 0.89 159 04:25 17.09.2021
1263 Clear 24 1015 70 10000 0.89 231 23:41 16.09.2021
1264 Clear 25 1015 66 10000 2.24 275 22:33 16.09.2021
1265 Clear 26 1015 62 10000 1.79 247 21:52 16.09.2021
1266 Clear 27 1014 60 10000 1.79 240 21:27 16.09.2021
1267 Clear 28 1014 52 10000 1.34 220 20:28 16.09.2021
1268 Clouds 30 1014 45 10000 0.89 312 18:28 16.09.2021
1269 Clouds 29 1014 45 10000 1.34 327 17:58 16.09.2021
1270 Clouds 27 1016 53 10000 0.89 265 15:31 16.09.2021
1271 Clouds 26 1016 65 10000 0.89 203 14:35 16.09.2021
1272 Clouds 24 1017 75 10000 0.45 162 12:59 16.09.2021
1273 Clouds 23 1017 78 10000 0.89 165 12:36 16.09.2021
1274 Clouds 21 1018 88 10000 1.54 50 11:46 16.09.2021
1275 Clouds 20 1017 90 10000 0.89 132 10:40 16.09.2021
1276 Clouds 20 1017 91 10000 0.89 72 10:18 16.09.2021
1277 Mist 20 1016 92 10000 0.45 13 08:45 16.09.2021
1278 Clouds 19 1015 94 9000 0.51 170 07:46 16.09.2021
1279 Mist 19 1015 93 4500 0.45 280 06:56 16.09.2021
1280 Mist 19 1015 92 4200 0.45 247 06:32 16.09.2021
1281 Clear 20 1015 89 10000 0.45 279 02:58 16.09.2021
1282 Clear 21 1016 85 10000 1.34 227 00:46 16.09.2021
1283 Clear 22 1015 80 10000 0.89 232 22:59 15.09.2021
1284 Clear 22 1015 76 10000 0.89 225 22:20 15.09.2021
1285 Clouds 23 1014 73 10000 0.89 218 21:30 15.09.2021
1286 Clouds 25 1013 65 10000 1.79 245 20:26 15.09.2021
1287 Clouds 26 1013 61 10000 2.68 216 19:29 15.09.2021
1288 Clouds 26 1013 61 10000 1.79 243 18:37 15.09.2021
1289 Clouds 26 1013 63 10000 0.45 212 17:27 15.09.2021
1290 Clouds 25 1015 67 10000 8.75 270 16:28 15.09.2021
1291 Clouds 26 1014 63 10000 1.34 293 14:53 15.09.2021
1292 Clouds 25 1014 65 10000 1.34 298 14:33 15.09.2021
1293 Clouds 25 1014 68 10000 0.89 278 13:42 15.09.2021
1294 Clouds 25 1014 69 10000 0.89 247 13:23 15.09.2021
1295 Clouds 23 1014 74 10000 1.34 326 12:29 15.09.2021
1296 Clouds 23 1014 79 10000 0.89 177 11:50 15.09.2021
1297 Clouds 21 1014 88 10000 0.45 231 10:57 15.09.2021
1298 Clouds 21 1014 88 10000 0.89 237 10:57 15.09.2021
1299 Clouds 20 1013 93 10000 0.45 269 09:59 15.09.2021
1300 Clouds 19 1013 94 10000 0.89 224 08:46 15.09.2021
1301 Clouds 20 1012 93 10000 0.45 218 06:28 15.09.2021
1302 Clouds 20 1012 92 10000 1.34 229 00:41 15.09.2021
1303 Clouds 21 1011 92 10000 0.89 170 22:22 14.09.2021
1304 Clouds 21 1010 91 10000 0.45 222 21:19 14.09.2021
1305 Clouds 21 1010 89 1000 1.34 197 19:58 14.09.2021
1306 Clouds 23 1009 75 10000 2.24 238 18:44 14.09.2021
1307 Clouds 24 1009 74 10000 5.36 211 17:32 14.09.2021
1308 Clouds 26 1010 65 10000 2.57 170 15:59 14.09.2021
1309 Clouds 25 1010 67 10000 3.09 140 14:32 14.09.2021
1310 Clouds 24 1009 76 10000 1.79 164 13:33 14.09.2021
1311 Clouds 21 1011 89 10000 2.24 118 10:57 14.09.2021
1312 Clouds 21 1010 91 8000 2.68 124 09:52 14.09.2021
1313 Rain 21 1010 91 10000 2.68 131 09:18 14.09.2021
1314 Clouds 20 1011 92 7000 1.79 146 07:28 14.09.2021
1315 Rain 24 1011 71 10000 2.68 206 00:57 14.09.2021
1316 Rain 26 1010 58 10000 1.34 230 23:18 13.09.2021
1317 Clear 26 1010 64 10000 0.45 319 22:27 13.09.2021
1318 Clear 27 1009 62 10000 1.34 121 21:54 13.09.2021
1319 Clear 27 1009 61 10000 2.24 116 21:19 13.09.2021
1320 Clear 29 1009 54 10000 1.79 128 19:34 13.09.2021
1321 Clouds 29 1009 54 10000 2.68 139 18:44 13.09.2021
1322 Clouds 28 1010 56 10000 2.24 107 17:21 13.09.2021
1323 Clouds 27 1012 64 10000 0.89 141 15:55 13.09.2021
1324 Clouds 29 1011 48 10000 0.45 162 14:30 13.09.2021
1325 Clear 25 1010 63 10000 2.24 79 11:21 13.09.2021
1326 Clouds 24 1011 72 10000 2.24 59 09:54 13.09.2021
1327 Clear 24 1010 74 10000 0.89 119 07:57 13.09.2021
1328 Clear 26 1012 54 10000 1.79 208 00:18 13.09.2021
1329 Clear 27 1012 42 10000 1.34 280 22:42 12.09.2021
1330 Clear 28 1012 43 10000 0.89 261 22:20 12.09.2021
1331 Clouds 31 1009 36 10000 3.13 240 20:41 12.09.2021
1332 Clear 33 1009 35 10000 3.13 248 19:56 12.09.2021
1333 Clear 34 1009 32 10000 2.68 246 19:29 12.09.2021
1334 Clear 35 1008 29 10000 1.79 216 18:50 12.09.2021
1335 Clear 34 1009 29 10000 1.34 255 16:58 12.09.2021
1336 Clear 34 1010 28 10000 1.34 242 15:37 12.09.2021
1337 Clear 32 1011 32 10000 0.89 187 14:32 12.09.2021
1338 Clear 27 1013 53 10000 0.89 33 11:49 12.09.2021
1339 Clear 22 1013 70 10000 1.34 23 10:19 12.09.2021
1340 Clear 19 1013 83 10000 1.34 69 08:38 12.09.2021
1341 Clear 21 1013 86 10000 0.45 233 04:59 12.09.2021
1342 Clear 23 1014 76 10000 0.89 220 00:46 12.09.2021
1343 Clear 26 1014 54 10000 2.68 176 22:29 11.09.2021
1344 Clear 28 1013 45 10000 1.34 201 21:38 11.09.2021
1345 Clear 32 1012 36 10000 3.13 254 19:35 11.09.2021
1346 Clouds 34 1012 32 10000 1.79 217 17:56 11.09.2021
1347 Clear 34 1013 28 10000 1.79 225 16:41 11.09.2021
1348 Clear 33 1014 31 10000 0.89 282 14:45 11.09.2021
1349 Clear 30 1015 41 10000 0.89 264 13:22 11.09.2021
1350 Clear 27 1016 51 10000 1.79 62 11:40 11.09.2021
1351 Clear 22 1016 68 10000 1.34 73 09:42 11.09.2021
1352 Clear 20 1016 76 10000 1.34 18 08:31 11.09.2021
1353 Clear 20 1015 76 10000 0.89 79 07:34 11.09.2021
1354 Clear 21 1017 72 10000 1.34 227 02:29 11.09.2021
1355 Clear 25 1018 56 10000 0.89 284 22:27 10.09.2021
1356 Clear 26 1018 52 10000 1.79 258 21:56 10.09.2021
1357 Clear 27 1017 50 10000 3.13 286 21:25 10.09.2021
1358 Clear 31 1015 42 10000 2.68 216 18:43 10.09.2021
1359 Clear 32 1015 38 10000 2.24 235 17:42 10.09.2021
1360 Clear 31 1016 38 10000 0.89 318 15:38 10.09.2021
1361 Clear 27 1018 50 10000 0.89 240 13:18 10.09.2021
1362 Clear 23 1018 70 10000 1.79 22 10:32 10.09.2021
1363 Clear 19 1017 84 10000 0.51 0 07:51 10.09.2021
1364 Clear 21 1016 82 10000 0.89 239 04:33 10.09.2021
1365 Clear 23 1016 69 10000 1.34 220 23:52 09.09.2021
1366 Clear 25 1015 61 10000 2.24 210 21:47 09.09.2021
1367 Clear 26 1015 57 10000 2.68 241 20:47 09.09.2021
1368 Clear 27 1015 56 10000 2.68 236 20:23 09.09.2021
1369 Clear 27 1015 56 10000 2.68 236 20:23 09.09.2021
1370 Clear 30 1014 45 10000 1.34 266 18:37 09.09.2021
1371 Clear 30 1014 44 10000 2.68 173 17:41 09.09.2021
1372 Clear 29 1015 42 10000 0.89 283 16:27 09.09.2021
1373 Clouds 27 1016 52 10000 0.89 25 13:35 09.09.2021
1374 Clouds 25 1017 61 10000 1.34 345 11:50 09.09.2021
1375 Clear 24 1016 67 10000 2.24 331 10:54 09.09.2021
1376 Clear 21 1016 75 10000 0.45 322 09:34 09.09.2021
1377 Clear 20 1016 77 10000 0.89 293 07:34 09.09.2021
1378 Clear 21 1016 71 10000 0.45 278 04:47 09.09.2021
1379 Clear 24 1015 67 10000 2.24 250 22:58 08.09.2021
1380 Clear 25 1014 62 10000 2.24 241 21:47 08.09.2021
1381 Clear 27 1013 55 10000 3.58 254 20:37 08.09.2021
1382 Clear 28 1013 51 10000 4.02 263 19:44 08.09.2021
1383 Clouds 30 1013 43 10000 2.68 270 18:34 08.09.2021
1384 Clouds 31 1013 38 10000 2.24 268 17:59 08.09.2021
1385 Clouds 31 1013 37 10000 2.24 315 17:39 08.09.2021
1386 Clear 29 1016 41 10000 0.89 255 14:57 08.09.2021
1387 Clear 27 1016 50 10000 1.79 292 13:28 08.09.2021
1388 Clouds 26 1017 58 10000 1.79 284 12:41 08.09.2021
1389 Clouds 26 1017 58 10000 1.79 284 12:22 08.09.2021
1390 Clear 24 1016 69 10000 0.89 197 11:26 08.09.2021
1391 Clear 23 1016 78 10000 0.89 233 10:31 08.09.2021
1392 Clear 21 1016 84 10000 0.45 174 09:37 08.09.2021
1393 Clouds 20 1015 88 10000 0.89 28 07:44 08.09.2021
1394 Clear 20 1015 89 10000 0.45 238 06:40 08.09.2021
1395 Clear 24 1015 77 10000 1.34 241 23:18 07.09.2021
1396 Clear 25 1014 73 10000 3.58 257 22:19 07.09.2021
1397 Clear 28 1013 60 10000 2.24 243 20:41 07.09.2021
1398 Clear 31 1013 47 10000 3.58 266 18:53 07.09.2021
1399 Clear 32 1013 42 10000 3.13 250 18:25 07.09.2021
1400 Clear 32 1013 41 10000 2.68 244 17:25 07.09.2021
1401 Clear 32 1014 39 10000 2.68 216 15:56 07.09.2021
1402 Clear 31 1014 45 10000 2.68 228 14:48 07.09.2021
1403 Clear 30 1015 52 10000 2.24 234 13:52 07.09.2021
1404 Clouds 26 1017 71 10000 2.06 0 11:58 07.09.2021
1405 Clouds 24 1017 79 10000 2.57 240 10:48 07.09.2021
1406 Clear 23 1015 85 10000 3.58 242 09:40 07.09.2021
1407 Clear 23 1014 85 10000 0.45 317 07:46 07.09.2021
1408 Clear 23 1013 83 10000 1.34 341 06:19 07.09.2021
1409 Clear 24 1014 75 10000 0.89 335 02:38 07.09.2021
1410 Clear 25 1014 73 10000 1.34 330 01:57 07.09.2021
1411 Clear 28 1014 55 10000 1.34 255 23:49 06.09.2021
1412 Clear 28 1013 54 10000 1.79 265 23:30 06.09.2021
1413 Clear 29 1014 50 10000 1.79 263 22:51 06.09.2021
1414 Clear 31 1014 44 10000 0.89 248 21:55 06.09.2021
1415 Clear 35 1011 36 10000 0.89 261 20:35 06.09.2021
1416 Clear 35 1011 33 10000 1.34 230 19:19 06.09.2021
1417 Clear 35 1011 33 10000 0.89 233 18:35 06.09.2021
1418 Clouds 35 1011 33 10000 0.89 258 17:50 06.09.2021
1419 Clear 35 1013 32 10000 0.45 233 16:20 06.09.2021
1420 Clear 33 1013 36 10000 0.89 214 14:59 06.09.2021
1421 Clear 30 1015 51 10000 3.09 230 12:59 06.09.2021
1422 Clear 29 1015 54 10000 2.57 230 12:41 06.09.2021
1423 Clear 29 1015 54 10000 2.57 230 12:41 06.09.2021
1424 Clear 26 1014 66 10000 1.34 311 10:27 06.09.2021
1425 Clear 26 1011 57 10000 2.68 319 07:39 06.09.2021
1426 Clear 28 1010 47 10000 0.89 45 04:27 06.09.2021
1427 Clouds 29 1013 54 9000 1.79 163 23:23 05.09.2021
1428 Clouds 29 1013 53 7000 1.79 14 22:33 05.09.2021
1429 Clear 30 1014 48 10000 8.49 257 21:56 05.09.2021
1430 Clear 34 1012 33 10000 2.24 244 21:20 05.09.2021
1431 Clear 37 1010 27 10000 0.45 277 19:45 05.09.2021
1432 Clear 37 1010 27 10000 1.34 241 17:52 05.09.2021
1433 Clear 36 1011 28 10000 1.34 144 16:33 05.09.2021
1434 Clear 34 1012 29 10000 1.79 232 15:20 05.09.2021
1435 Clear 30 1014 41 10000 1.34 62 12:44 05.09.2021
1436 Clear 27 1014 51 10000 2.24 42 11:35 05.09.2021
1437 Clear 25 1014 54 10000 2.24 81 10:42 05.09.2021
1438 Clear 23 1014 63 10000 1.34 6 09:35 05.09.2021
1439 Clear 21 1013 66 10000 1.34 341 08:34 05.09.2021
1440 Clear 22 1013 68 10000 0.51 0 05:47 05.09.2021
1441 Clear 25 1013 56 10000 1.34 226 00:41 05.09.2021
1442 Clear 26 1012 54 10000 1.79 209 23:59 04.09.2021
1443 Clear 27 1012 52 10000 1.79 234 23:25 04.09.2021
1444 Clear 28 1013 48 10000 0.89 250 22:35 04.09.2021
1445 Clear 30 1012 42 10000 1.34 273 21:18 04.09.2021
1446 Clear 34 1010 36 10000 2.24 240 19:33 04.09.2021
1447 Clear 34 1010 32 10000 1.34 223 17:25 04.09.2021
1448 Clear 33 1011 35 10000 1.34 285 15:41 04.09.2021
1449 Clear 27 1014 55 10000 0.45 177 11:54 04.09.2021
1450 Clear 25 1013 60 10000 0.45 282 10:55 04.09.2021
1451 Clear 20 1013 75 10000 0.89 7 08:39 04.09.2021
1452 Clear 25 1014 52 10000 1.34 290 00:50 04.09.2021
1453 Clear 25 1014 52 10000 1.79 277 00:19 04.09.2021
1454 Clear 26 1014 48 10000 2.24 269 23:22 03.09.2021
1455 Clear 28 1014 45 10000 1.34 271 21:43 03.09.2021
1456 Clear 28 1012 47 10000 3.13 262 21:24 03.09.2021
1457 Clear 30 1012 46 10000 3.13 261 20:34 03.09.2021
1458 Clear 31 1012 42 10000 2.68 245 19:44 03.09.2021
1459 Clear 33 1012 33 10000 0.89 243 18:37 03.09.2021
1460 Clear 33 1012 35 10000 1.34 181 17:32 03.09.2021
1461 Clear 32 1013 39 10000 0.89 61 16:22 03.09.2021
1462 Clear 30 1015 45 10000 0.45 162 14:47 03.09.2021
1463 Clear 25 1016 68 10000 0.89 165 11:47 03.09.2021
1464 Clouds 21 1016 79 10000 0.45 103 10:21 03.09.2021
1465 Clear 19 1015 83 10000 0.89 322 08:38 03.09.2021
1466 Clear 19 1015 84 10000 0.51 30 07:34 03.09.2021
1467 Clear 22 1016 66 10000 1.34 247 00:24 03.09.2021
1468 Clear 24 1015 59 10000 1.79 252 22:43 02.09.2021
1469 Clear 26 1014 52 10000 2.24 237 21:18 02.09.2021
1470 Clouds 29 1013 45 10000 3.58 223 18:57 02.09.2021
1471 Clouds 30 1013 44 10000 4.02 215 17:22 02.09.2021
1472 Clouds 30 1015 43 10000 2.24 226 15:43 02.09.2021
1473 Clouds 28 1015 52 10000 2.24 242 13:43 02.09.2021
1474 Clear 26 1015 61 10000 0.89 297 12:21 02.09.2021
1475 Clear 24 1015 69 10000 0.45 168 11:33 02.09.2021
1476 Clear 20 1015 84 10000 0.89 160 09:30 02.09.2021
1477 Clear 20 1014 85 10000 0.89 140 07:45 02.09.2021
1478 Clear 20 1014 83 10000 0.89 192 06:47 02.09.2021
1479 Clear 21 1014 79 10000 1.79 209 02:38 02.09.2021
1480 Clear 21 1014 76 10000 1.79 228 01:53 02.09.2021
1481 Clear 22 1014 73 10000 2.24 222 01:18 02.09.2021
1482 Clear 24 1014 62 10000 1.79 249 23:34 01.09.2021
1483 Clear 24 1014 63 10000 2.68 253 22:34 01.09.2021
1484 Clear 26 1013 61 10000 2.68 242 21:33 01.09.2021
1485 Clear 29 1011 50 10000 3.13 219 19:55 01.09.2021
1486 Clouds 30 1011 47 10000 2.24 213 17:58 01.09.2021
1487 Clouds 30 1012 44 10000 2.24 168 17:18 01.09.2021
1488 Clouds 30 1012 44 10000 1.34 220 16:46 01.09.2021
1489 Clouds 29 1013 52 10000 0.89 235 15:24 01.09.2021
1490 Clouds 24 1014 76 10000 1.34 195 11:49 01.09.2021
1491 Clouds 23 1014 83 10000 0.89 243 10:55 01.09.2021
1492 Clouds 21 1013 87 7000 0.89 211 08:46 01.09.2021
1493 Clear 20 1013 86 10000 0.89 177 07:50 01.09.2021
1494 Clear 25 1013 56 10000 0.45 233 23:43 31.08.2021
1495 Clear 27 1011 53 10000 3.13 241 22:29 31.08.2021
1496 Clear 29 1010 47 10000 3.13 243 20:57 31.08.2021
1497 Clouds 30 1010 45 10000 4.02 242 19:44 31.08.2021
1498 Clouds 32 1009 43 10000 3.58 252 18:23 31.08.2021
1499 Clouds 33 1009 44 10000 2.68 226 17:34 31.08.2021
1500 Clouds 33 1010 39 10000 2.24 248 16:49 31.08.2021
1501 Clear 32 1011 41 10000 1.79 247 15:59 31.08.2021
1502 Clear 28 1013 51 10000 0.89 215 12:56 31.08.2021
1503 Clear 26 1013 64 10000 1.34 203 11:26 31.08.2021
1504 Clear 24 1012 67 10000 0.89 101 10:49 31.08.2021
1505 Clear 23 1012 73 10000 0.89 53 09:43 31.08.2021
1506 Clear 20 1012 82 10000 1.34 29 08:36 31.08.2021
1507 Clear 21 1011 80 10000 0.45 155 05:58 31.08.2021
1508 Clear 23 1011 71 10000 1.79 224 00:23 31.08.2021
1509 Clear 25 1011 64 10000 1.79 221 23:29 30.08.2021
1510 Clear 27 1011 57 10000 6.17 220 21:43 30.08.2021
1511 Clear 30 1010 44 10000 4.63 230 20:42 30.08.2021
1512 Clear 31 1009 46 10000 2.68 223 19:58 30.08.2021
1513 Clear 32 1009 40 10000 1.79 215 19:29 30.08.2021
1514 Clear 32 1009 35 10000 1.79 209 18:29 30.08.2021
1515 Clear 32 1010 34 10000 1.34 321 17:44 30.08.2021
1516 Clear 31 1011 37 10000 1.34 214 15:56 30.08.2021
1517 Clear 29 1012 42 10000 1.34 98 14:39 30.08.2021
1518 Clear 28 1013 47 10000 0.89 304 13:27 30.08.2021
1519 Clear 25 1013 56 10000 0.89 12 11:57 30.08.2021
1520 Clear 19 1013 83 10000 0.45 256 08:27 30.08.2021
1521 Clear 24 1012 63 10000 1.79 231 22:20 29.08.2021
1522 Clear 25 1012 63 10000 2.68 231 21:31 29.08.2021
1523 Clear 28 1011 54 10000 4.47 240 19:33 29.08.2021
1524 Clear 30 1011 47 10000 3.58 200 18:30 29.08.2021
1525 Clouds 30 1011 46 10000 4.02 212 17:41 29.08.2021
1526 Clouds 29 1013 46 10000 2.68 143 15:29 29.08.2021
1527 Clouds 28 1014 45 10000 1.79 240 13:57 29.08.2021
1528 Clouds 26 1014 54 10000 3.13 189 12:58 29.08.2021
1529 Clouds 25 1015 60 10000 2.68 183 12:31 29.08.2021
1530 Clouds 25 1014 66 10000 1.79 198 11:41 29.08.2021
1531 Clear 23 1014 70 10000 0.89 255 10:49 29.08.2021
1532 Clear 23 1014 72 10000 0.45 177 10:30 29.08.2021
1533 Clear 21 1014 79 10000 0.45 225 09:44 29.08.2021
1534 Clear 20 1013 85 10000 0.45 236 06:41 29.08.2021
1535 Clear 23 1015 75 10000 1.79 214 23:48 28.08.2021
1536 Clear 26 1013 62 10000 4.02 241 20:52 28.08.2021
1537 Clear 28 1013 57 10000 4.47 254 19:43 28.08.2021
1538 Clear 31 1013 47 10000 4.02 248 18:27 28.08.2021
1539 Clear 31 1013 46 10000 3.58 241 17:47 28.08.2021
1540 Clear 31 1013 45 10000 4.92 202 16:58 28.08.2021
1541 Clear 31 1015 43 10000 2.68 209 15:28 28.08.2021
1542 Clear 28 1015 52 10000 1.34 198 14:18 28.08.2021
1543 Clear 27 1017 47 10000 2.06 180 13:42 28.08.2021
1544 Clear 26 1016 53 10000 0.45 246 12:40 28.08.2021
1545 Clear 25 1016 61 10000 0.45 296 11:48 28.08.2021
1546 Clear 22 1016 77 10000 0.89 29 10:18 28.08.2021
1547 Clear 19 1015 86 10000 0.89 36 08:36 28.08.2021
1548 Clear 20 1015 85 10000 0.45 239 05:22 28.08.2021
1549 Clear 25 1013 64 10000 3.13 223 21:59 27.08.2021
1550 Clear 28 1012 50 10000 2.24 223 20:55 27.08.2021
1551 Clear 31 1012 39 10000 2.24 227 19:57 27.08.2021
1552 Clear 32 1012 38 10000 3.13 209 18:39 27.08.2021
1553 Clear 33 1012 38 10000 2.68 217 18:20 27.08.2021
1554 Clear 32 1012 45 10000 2.68 220 16:47 27.08.2021
1555 Clear 31 1013 51 10000 0.89 202 15:21 27.08.2021
1556 Clear 30 1015 50 10000 3.09 230 14:37 27.08.2021
1557 Clear 27 1015 63 10000 1.79 223 12:28 27.08.2021
1558 Clear 26 1014 70 10000 0.89 252 11:23 27.08.2021
1559 Clear 24 1014 79 10000 1.34 217 10:41 27.08.2021
1560 Clear 22 1014 87 10000 1.34 251 09:26 27.08.2021
1561 Clear 21 1013 89 10000 0.89 240 08:39 27.08.2021
1562 Clear 21 1013 86 10000 1.34 174 05:52 27.08.2021
1563 Clear 25 1013 75 10000 1.34 258 00:50 27.08.2021
1564 Clear 25 1013 73 10000 1.34 251 00:28 27.08.2021
1565 Clear 28 1012 65 10000 2.24 259 22:28 26.08.2021
1566 Clear 28 1011 62 10000 2.24 232 21:57 26.08.2021
1567 Clear 33 1010 48 10000 3.13 242 19:54 26.08.2021
1568 Clear 34 1010 41 10000 1.79 221 18:42 26.08.2021
1569 Clear 34 1010 37 10000 1.79 199 17:34 26.08.2021
1570 Clear 34 1011 37 10000 1.79 244 16:32 26.08.2021
1571 Clear 34 1011 38 10000 1.34 194 15:53 26.08.2021
1572 Clear 30 1013 48 10000 1.34 122 13:29 26.08.2021
1573 Clear 30 1013 49 10000 0.89 157 12:49 26.08.2021
1574 Clear 28 1013 59 10000 0.89 90 11:51 26.08.2021
1575 Clear 24 1013 71 10000 0.45 316 09:43 26.08.2021
1576 Clear 22 1012 77 10000 0.45 355 08:33 26.08.2021
1577 Clear 23 1012 73 10000 0.89 236 01:30 26.08.2021
1578 Clear 25 1011 67 10000 1.34 263 22:47 25.08.2021
1579 Clear 26 1011 65 10000 2.24 254 22:28 25.08.2021
1580 Clear 28 1010 61 10000 2.24 253 21:25 25.08.2021
1581 Clear 29 1010 57 10000 2.24 258 20:43 25.08.2021
1582 Clear 30 1010 53 10000 2.68 240 20:25 25.08.2021
1583 Clouds 31 1010 52 10000 2.68 267 18:32 25.08.2021
1584 Clouds 30 1010 55 10000 2.68 241 17:19 25.08.2021
1585 Clouds 29 1012 58 10000 1.79 203 15:42 25.08.2021
1586 Clouds 29 1013 56 10000 3.6 0 14:47 25.08.2021
1587 Clouds 27 1013 65 10000 0.89 194 13:59 25.08.2021
1588 Clouds 27 1013 68 10000 2.24 200 12:53 25.08.2021
1589 Clouds 25 1012 75 10000 1.79 231 11:25 25.08.2021
1590 Clouds 25 1012 74 10000 2.68 215 11:25 25.08.2021
1591 Clouds 24 1012 76 10000 1.34 203 10:26 25.08.2021
1592 Clouds 24 1012 77 10000 1.79 232 09:43 25.08.2021
1593 Clouds 23 1012 80 10000 2.24 206 08:40 25.08.2021
1594 Clouds 23 1011 82 10000 1.79 241 07:43 25.08.2021
1595 Clouds 24 1011 81 10000 1.79 258 03:28 25.08.2021
1596 Clouds 25 1012 78 10000 3.58 249 23:40 24.08.2021
1597 Clear 27 1010 73 10000 3.58 241 21:48 24.08.2021
1598 Clear 28 1009 68 10000 3.58 239 20:46 24.08.2021
1599 Clear 30 1009 63 10000 3.58 244 19:45 24.08.2021
1600 Clouds 32 1009 56 10000 3.58 244 17:58 24.08.2021
1601 Clouds 32 1009 55 10000 3.58 259 17:26 24.08.2021
1602 Clouds 32 1010 53 10000 2.24 254 16:41 24.08.2021
1603 Clouds 31 1011 58 10000 1.79 228 14:25 24.08.2021
1604 Clouds 31 1011 60 10000 0.89 281 13:24 24.08.2021
1605 Clouds 29 1011 65 10000 0.89 212 11:38 24.08.2021
1606 Clear 28 1011 68 10000 0.89 93 10:48 24.08.2021
1607 Clear 27 1011 71 10000 0.89 137 10:26 24.08.2021
1608 Clear 25 1011 79 10000 0.45 358 08:49 24.08.2021
1609 Clear 25 1011 77 10000 0.45 310 06:36 24.08.2021
1610 Clear 26 1011 77 10000 1.34 308 04:40 24.08.2021
1611 Clear 27 1011 74 10000 2.68 275 00:45 24.08.2021
1612 Clear 28 1010 66 10000 2.68 239 22:52 23.08.2021
1613 Clear 29 1010 62 10000 3.58 264 22:21 23.08.2021
1614 Clear 33 1009 50 10000 3.13 248 20:27 23.08.2021
1615 Clear 36 1009 42 10000 3.13 251 18:58 23.08.2021
1616 Clear 36 1010 34 10000 1.34 203 16:37 23.08.2021
1617 Clear 34 1011 45 10000 1.34 199 14:29 23.08.2021
1618 Clear 30 1014 51 10000 1.54 0 12:56 23.08.2021
1619 Clear 30 1013 53 10000 1.54 200 11:48 23.08.2021
1620 Clear 27 1013 55 10000 1.54 30 10:38 23.08.2021
1621 Clear 25 1013 59 10000 0.89 345 09:41 23.08.2021
1622 Clear 24 1013 65 10000 0.45 272 08:20 23.08.2021
1623 Clear 24 1012 63 10000 0.89 191 06:48 23.08.2021
1624 Clear 25 1012 62 10000 0.89 189 06:21 23.08.2021
1625 Clear 27 1014 57 10000 0.89 237 00:52 23.08.2021
1626 Clear 31 1013 50 10000 1.79 251 22:44 22.08.2021
1627 Clear 31 1013 50 10000 2.68 248 22:25 22.08.2021
1628 Clear 35 1011 40 10000 2.68 243 20:21 22.08.2021
1629 Clear 36 1012 37 10000 0.89 221 19:35 22.08.2021
1630 Clouds 36 1014 30 10000 0.89 197 16:33 22.08.2021
1631 Clear 33 1016 35 10000 2.57 0 14:56 22.08.2021
1632 Clear 33 1015 38 10000 1.34 163 14:37 22.08.2021
1633 Clear 31 1016 40 10000 1.34 227 13:21 22.08.2021
1634 Clear 31 1016 30 10000 1.54 190 12:51 22.08.2021
1635 Clear 30 1015 41 10000 1.34 259 12:25 22.08.2021
1636 Clear 29 1015 43 10000 0.45 142 11:42 22.08.2021
1637 Clear 26 1015 53 10000 1.34 24 10:22 22.08.2021
1638 Clear 22 1014 63 10000 1.34 53 08:19 22.08.2021
1639 Clear 24 1015 60 10000 0.89 57 04:56 22.08.2021
1640 Clear 26 1015 52 10000 1.79 206 23:57 21.08.2021
1641 Clear 26 1015 52 10000 1.79 206 23:57 21.08.2021
1642 Clear 29 1014 42 10000 2.24 159 22:34 21.08.2021
1643 Clear 33 1013 37 10000 2.68 237 20:35 21.08.2021
1644 Clear 36 1013 31 10000 2.68 218 18:39 21.08.2021
1645 Clear 36 1013 28 10000 2.24 215 17:59 21.08.2021
1646 Clear 36 1014 27 10000 2.24 244 16:54 21.08.2021
1647 Clear 36 1014 27 10000 1.34 163 16:28 21.08.2021
1648 Clear 35 1015 26 10000 1.34 191 15:36 21.08.2021
1649 Clear 34 1015 26 10000 0.89 8 14:47 21.08.2021
1650 Clear 32 1016 33 10000 0.89 273 13:31 21.08.2021
1651 Clear 31 1016 36 10000 1.03 50 12:34 21.08.2021
1652 Clear 24 1015 67 10000 0.45 81 09:29 21.08.2021
1653 Clear 22 1014 79 10000 0.45 210 05:41 21.08.2021
1654 Clear 22 1014 79 10000 0.45 210 05:41 21.08.2021
1655 Clear 22 1014 79 10000 0.45 210 05:41 21.08.2021
1656 Clear 27 1013 59 10000 2.24 222 23:22 20.08.2021
1657 Clear 31 1013 46 10000 1.79 295 21:48 20.08.2021
1658 Clear 35 1011 38 10000 1.79 202 18:26 20.08.2021
1659 Clear 34 1012 42 10000 1.34 256 16:21 20.08.2021
1660 Clear 31 1014 49 10000 2.06 0 13:47 20.08.2021
1661 Clear 26 1014 66 10000 1.34 282 11:40 20.08.2021
1662 Clear 25 1014 67 10000 0.89 308 10:51 20.08.2021
1663 Clear 23 1013 74 10000 1.34 359 09:42 20.08.2021
1664 Clear 21 1013 85 10000 0.89 253 08:42 20.08.2021
1665 Clear 21 1013 83 10000 0.89 201 07:45 20.08.2021
1666 Clear 22 1012 76 10000 0.45 186 04:22 20.08.2021
1667 Clear 24 1012 75 10000 1.34 230 00:20 20.08.2021
1668 Clear 27 1011 64 10000 1.79 184 23:20 19.08.2021
1669 Clear 28 1011 58 10000 1.79 219 22:33 19.08.2021
1670 Clear 32 1009 44 10000 2.24 243 20:39 19.08.2021
1671 Clear 32 1009 43 10000 2.68 241 19:43 19.08.2021
1672 Clear 33 1010 42 10000 3.13 245 17:27 19.08.2021
1673 Clear 33 1011 39 10000 1.34 277 16:30 19.08.2021
1674 Clouds 28 1013 61 10000 2.57 200 13:47 19.08.2021
1675 Clouds 25 1014 71 10000 3.09 240 12:37 19.08.2021
1676 Clouds 25 1013 74 10000 2.24 239 11:30 19.08.2021
1677 Clouds 24 1013 80 10000 0.89 185 10:24 19.08.2021
1678 Clouds 22 1012 86 10000 0.89 241 09:47 19.08.2021
1679 Clouds 22 1012 89 8000 0.89 252 09:21 19.08.2021
1680 Fog 21 1012 91 700 0.89 235 07:35 19.08.2021
1681 Clear 23 1012 78 10000 1.34 237 02:25 19.08.2021
1682 Clear 24 1013 77 10000 1.34 230 01:54 19.08.2021
1683 Clear 27 1013 65 10000 1.79 287 22:56 18.08.2021
1684 Clear 29 1013 58 10000 2.68 270 21:41 18.08.2021
1685 Clear 32 1011 47 10000 3.13 261 20:33 18.08.2021
1686 Clear 33 1011 44 10000 2.68 257 19:34 18.08.2021
1687 Clear 33 1012 44 10000 3.13 243 18:55 18.08.2021
1688 Clear 34 1012 43 10000 3.13 236 17:57 18.08.2021
1689 Clear 34 1013 43 10000 1.79 278 16:24 18.08.2021
1690 Clear 33 1014 48 10000 2.24 206 15:38 18.08.2021
1691 Clear 32 1014 48 10000 3.6 220 15:20 18.08.2021
1692 Clear 29 1016 59 10000 1.79 265 12:43 18.08.2021
1693 Clouds 28 1015 64 10000 0.89 272 12:25 18.08.2021
1694 Clouds 26 1016 71 10000 1.79 277 10:43 18.08.2021
1695 Clear 22 1015 77 10000 0.51 0 07:48 18.08.2021
1696 Clear 25 1015 59 10000 1.79 244 00:45 18.08.2021
1697 Clear 28 1014 50 10000 2.24 255 22:30 17.08.2021
1698 Clear 29 1014 50 10000 2.68 244 21:29 17.08.2021
1699 Clear 30 1013 48 10000 2.68 250 20:45 17.08.2021
1700 Clear 33 1014 42 10000 3.58 242 19:19 17.08.2021
1701 Clear 35 1014 38 10000 4.47 224 17:33 17.08.2021
1702 Clear 35 1015 36 10000 3.13 207 16:40 17.08.2021
1703 Clear 34 1015 39 10000 4.02 244 15:40 17.08.2021
1704 Clear 34 1016 38 10000 3.58 231 14:39 17.08.2021
1705 Clear 30 1016 50 10000 3.58 209 12:35 17.08.2021
1706 Clear 23 1015 61 10000 2.24 230 09:22 17.08.2021
1707 Clear 23 1014 51 10000 1.34 224 07:54 17.08.2021
1708 Clear 25 1013 44 10000 0.89 249 06:40 17.08.2021
1709 Clear 33 1014 14 10000 3.09 350 23:18 16.08.2021
1710 Clear 34 1014 14 10000 3.09 350 22:47 16.08.2021
1711 Clear 35 1013 13 10000 3.09 350 22:28 16.08.2021
1712 Clear 38 1011 11 10000 2.24 18 21:36 16.08.2021
1713 Clear 40 1012 10 10000 2.68 336 20:50 16.08.2021
1714 Clear 43 1010 5 10000 2.68 277 19:26 16.08.2021
1715 Clear 44 1010 4 10000 2.68 273 18:25 16.08.2021
1716 Clear 44 1010 4 10000 3.13 283 17:52 16.08.2021
1717 Clear 43 1011 6 10000 2.68 220 16:25 16.08.2021
1718 Clear 41 1013 4 10000 0.45 19 14:58 16.08.2021
1719 Clear 38 1014 11 10000 0.89 137 13:40 16.08.2021
1720 Clear 36 1015 11 10000 1.03 0 12:56 16.08.2021
1721 Clear 34 1014 19 10000 0.45 320 11:30 16.08.2021
1722 Clear 26 1013 39 10000 1.34 312 08:54 16.08.2021
1723 Clear 26 1013 45 10000 1.03 0 07:45 16.08.2021
1724 Clear 26 1013 42 10000 1.03 250 07:27 16.08.2021
1725 Clear 27 1012 46 10000 0.89 250 05:51 16.08.2021
1726 Clear 32 1012 34 10000 1.34 205 23:47 15.08.2021
1727 Clear 39 1011 23 10000 2.24 194 21:21 15.08.2021
1728 Clear 42 1011 16 10000 0.89 192 19:25 15.08.2021
1729 Clear 42 1011 14 10000 0.45 184 18:38 15.08.2021
1730 Clear 42 1013 14 10000 5.66 220 17:42 15.08.2021
1731 Clear 41 1014 21 10000 4.12 250 16:29 15.08.2021
1732 Rain 41 1014 20 10000 2.57 220 15:32 15.08.2021
1733 Clear 39 1015 21 10000 2.06 240 14:31 15.08.2021
1734 Clear 35 1015 29 10000 0.51 30 12:39 15.08.2021
1735 Clear 27 1015 54 10000 1.03 30 09:56 15.08.2021
1736 Clear 27 1013 60 10000 0.45 350 06:31 15.08.2021
1737 Clear 31 1014 43 10000 1.79 175 00:44 15.08.2021
1738 Clear 34 1015 35 10000 0.89 282 23:45 14.08.2021
1739 Clear 38 1012 29 10000 1.79 230 21:21 14.08.2021
1740 Clear 42 1012 23 10000 2.24 217 19:45 14.08.2021
1741 Clear 43 1012 23 10000 2.24 223 19:25 14.08.2021
1742 Clear 44 1013 16 10000 1.79 207 17:32 14.08.2021
1743 Clear 43 1015 14 10000 3.6 260 16:38 14.08.2021
1744 Clear 43 1015 13 10000 1.54 250 15:33 14.08.2021
1745 Clear 37 1017 22 10000 1.03 0 12:49 14.08.2021
1746 Clear 31 1017 35 10000 3.09 40 10:56 14.08.2021
1747 Clear 27 1015 62 10000 0.89 29 08:53 14.08.2021
1748 Clear 32 1015 52 10000 1.79 218 23:56 13.08.2021
1749 Clear 32 1015 51 10000 1.34 222 23:38 13.08.2021
1750 Clear 37 1015 26 10000 2.06 270 21:49 13.08.2021
1751 Clear 41 1013 27 10000 0.89 305 19:29 13.08.2021
1752 Clear 41 1014 28 10000 0.89 326 18:45 13.08.2021
1753 Clear 38 1016 27 10000 2.06 330 17:18 13.08.2021
1754 Clear 38 1017 30 10000 2.57 240 15:53 13.08.2021
1755 Clear 31 1018 52 10000 1.03 0 11:43 13.08.2021
1756 Clear 30 1017 57 10000 0.51 0 11:18 13.08.2021
1757 Clear 25 1016 75 10000 0.89 215 08:39 13.08.2021
1758 Clear 25 1015 74 10000 1.54 130 07:48 13.08.2021
1759 Clear 26 1015 73 10000 0.45 182 06:32 13.08.2021
1760 Clear 32 1014 50 10000 0.89 225 00:27 13.08.2021
1761 Clear 35 1014 43 10000 2.06 250 21:51 12.08.2021
1762 Clear 38 1013 35 10000 1.34 247 20:35 12.08.2021
1763 Clear 39 1013 35 10000 0.45 200 19:50 12.08.2021
1764 Clear 39 1013 36 10000 0.89 280 18:34 12.08.2021
1765 Clear 38 1013 37 10000 0.89 94 16:50 12.08.2021
1766 Clear 38 1013 37 10000 0.89 94 16:50 12.08.2021
1767 Clear 37 1014 40 10000 1.34 47 15:51 12.08.2021
1768 Clear 33 1016 50 10000 1.54 360 13:52 12.08.2021
1769 Clear 29 1017 66 10000 0.45 82 11:38 12.08.2021
1770 Clear 23 1016 86 10000 0.45 209 08:59 12.08.2021
1771 Clear 23 1015 87 10000 0.45 257 07:51 12.08.2021
1772 Clear 28 1014 67 10000 1.79 221 23:22 11.08.2021
1773 Clear 30 1014 62 10000 2.24 253 21:53 11.08.2021
1774 Clear 33 1011 53 10000 3.13 231 19:25 11.08.2021
1775 Clear 34 1011 50 10000 3.13 235 18:27 11.08.2021
1776 Clear 34 1013 44 10000 1.34 234 15:37 11.08.2021
1777 Clear 34 1013 45 10000 1.79 239 15:19 11.08.2021
1778 Clear 32 1013 49 10000 0.89 224 14:20 11.08.2021
1779 Clear 30 1014 59 10000 0.45 284 12:29 11.08.2021
1780 Clear 29 1013 61 10000 0.89 292 11:45 11.08.2021
1781 Clear 28 1014 62 10000 0.89 293 11:21 11.08.2021
1782 Clear 26 1014 64 10000 0.45 93 09:21 11.08.2021
1783 Clear 24 1013 64 10000 1.34 17 07:23 11.08.2021
1784 Clear 31 1012 47 10000 0.89 297 22:46 10.08.2021
1785 Clear 31 1012 42 10000 0.45 279 22:20 10.08.2021
1786 Clear 37 1010 26 10000 1.03 0 20:56 10.08.2021
1787 Clear 37 1009 30 10000 0.89 125 19:29 10.08.2021
1788 Clear 37 1009 30 10000 0.89 253 18:29 10.08.2021
1789 Clear 34 1012 32 10000 0.89 174 15:47 10.08.2021
1790 Clear 34 1012 32 10000 0.89 143 14:41 10.08.2021
1791 Clear 28 1014 48 10000 0.45 266 10:58 10.08.2021
1792 Clear 25 1014 55 10000 0.45 47 09:37 10.08.2021
1793 Clear 24 1013 56 10000 0.45 345 06:24 10.08.2021
1794 Clear 26 1013 66 10000 2.68 239 02:40 10.08.2021
1795 Clear 29 1013 53 10000 0.89 262 23:37 09.08.2021
1796 Clear 31 1011 45 10000 2.24 288 21:54 09.08.2021
1797 Clear 33 1010 41 10000 1.34 263 21:29 09.08.2021
1798 Clear 35 1010 29 10000 0.89 346 18:56 09.08.2021
1799 Clear 34 1011 30 10000 1.34 262 16:57 09.08.2021
1800 Clear 32 1013 35 10000 1.34 149 15:27 09.08.2021
1801 Clear 29 1014 40 10000 0.89 44 13:32 09.08.2021
1802 Clear 28 1014 43 10000 0.89 316 12:40 09.08.2021
1803 Clear 23 1014 61 10000 0.45 359 09:56 09.08.2021
1804 Clear 19 1014 70 10000 0.45 317 08:25 09.08.2021
1805 Clear 24 1013 45 10000 1.34 260 22:41 08.08.2021
1806 Clear 28 1010 36 10000 2.68 240 21:25 08.08.2021
1807 Clear 33 1010 25 10000 2.68 241 18:50 08.08.2021
1808 Clear 32 1011 29 10000 2.24 185 16:53 08.08.2021
1809 Clear 32 1011 29 10000 2.24 185 16:53 08.08.2021
1810 Clear 31 1011 31 10000 1.79 229 15:31 08.08.2021
1811 Clear 28 1013 39 10000 0.89 222 12:49 08.08.2021
1812 Clear 25 1013 49 10000 0.89 259 10:47 08.08.2021
1813 Clear 20 1012 68 10000 0.45 290 06:44 08.08.2021
1814 Clear 21 1012 65 10000 0.45 0 05:37 08.08.2021
1815 Clear 23 1011 62 10000 1.79 225 00:30 08.08.2021
1816 Clear 23 1011 62 10000 1.79 225 00:30 08.08.2021
1817 Clear 23 1011 62 10000 1.79 225 00:30 08.08.2021
1818 Clear 26 1009 52 10000 2.24 233 22:19 07.08.2021
1819 Clear 27 1010 51 10000 2.68 269 21:40 07.08.2021
1820 Clear 29 1008 47 10000 4.02 254 20:25 07.08.2021
1821 Clear 33 1008 31 10000 1.79 228 17:30 07.08.2021
1822 Clear 33 1009 31 10000 2.68 228 16:34 07.08.2021
1823 Clear 30 1010 37 10000 1.79 306 14:27 07.08.2021
1824 Clear 29 1010 42 10000 1.34 301 13:30 07.08.2021
1825 Clear 24 1011 57 10000 2.24 352 10:22 07.08.2021
1826 Clear 23 1010 58 10000 0.89 35 05:40 07.08.2021
1827 Clear 27 1008 46 10000 1.34 205 23:55 06.08.2021
1828 Clear 32 1007 38 10000 2.24 256 21:25 06.08.2021
1829 Clear 35 1006 31 10000 4.02 239 20:27 06.08.2021
1830 Clear 36 1006 26 10000 3.13 299 19:56 06.08.2021
1831 Clear 38 1006 22 10000 4.47 268 18:30 06.08.2021
1832 Clear 35 1010 28 10000 2.68 194 15:19 06.08.2021
1833 Clear 25 1011 66 10000 1.34 253 10:40 06.08.2021
1834 Clear 23 1011 65 10000 0.89 207 09:26 06.08.2021
1835 Clear 24 1011 53 10000 1.34 218 02:33 06.08.2021
1836 Clear 27 1011 38 10000 0.89 212 23:31 05.08.2021
1837 Clear 32 1010 30 10000 1.79 216 21:32 05.08.2021
1838 Clear 36 1010 24 10000 2.68 228 19:57 05.08.2021
1839 Clear 37 1010 24 10000 3.58 219 18:49 05.08.2021
1840 Clear 37 1012 25 10000 1.34 257 16:20 05.08.2021
1841 Clear 35 1013 29 10000 0.89 200 14:18 05.08.2021
1842 Clear 28 1015 45 10000 1.34 41 10:53 05.08.2021
1843 Clear 23 1014 68 10000 0.45 355 08:21 05.08.2021
1844 Clear 24 1014 68 10000 1.54 160 03:45 05.08.2021
1845 Clear 28 1013 55 10000 2.24 190 22:48 04.08.2021
1846 Clear 29 1012 51 10000 3.58 181 21:40 04.08.2021
1847 Clear 30 1012 49 10000 2.24 217 21:18 04.08.2021
1848 Clear 35 1012 30 10000 2.24 189 17:25 04.08.2021
1849 Clear 34 1012 31 10000 1.79 216 15:32 04.08.2021
1850 Clear 34 1013 31 10000 0.45 147 14:41 04.08.2021
1851 Clear 25 1015 44 10000 1.34 358 09:48 04.08.2021
1852 Clear 28 1015 44 10000 1.34 293 23:20 03.08.2021
1853 Clear 34 1011 32 10000 2.24 218 20:32 03.08.2021
1854 Clear 35 1011 25 10000 0.89 242 18:59 03.08.2021
1855 Clear 35 1012 23 10000 1.34 211 17:31 03.08.2021
1856 Clear 33 1014 33 10000 0.89 71 14:58 03.08.2021
1857 Clear 26 1016 61 10000 0.89 28 10:58 03.08.2021
1858 Clear 25 1015 64 10000 1.34 46 10:39 03.08.2021
1859 Clear 25 1014 54 10000 1.34 289 23:46 02.08.2021
1860 Clear 32 1011 30 10000 2.24 250 17:32 02.08.2021
1861 Clear 31 1011 33 10000 1.34 347 15:46 02.08.2021
1862 Clear 28 1013 47 10000 1.34 112 12:54 02.08.2021
1863 Clear 25 1013 53 10000 0.89 161 11:58 02.08.2021
1864 Clear 24 1013 58 10000 0.89 349 10:58 02.08.2021
1865 Clear 22 1013 62 10000 0.89 347 09:47 02.08.2021
1866 Clear 25 1012 49 10000 1.79 207 21:43 01.08.2021
1867 Clear 31 1013 22 10000 3.6 220 18:18 01.08.2021
1868 Clear 27 1015 36 10000 1.34 303 13:18 01.08.2021
1869 Clear 24 1016 43 10000 1.34 47 11:37 01.08.2021
1870 Clear 20 1015 47 10000 2.57 310 04:53 01.08.2021
1871 Clear 20 1016 45 10000 0.45 349 03:47 01.08.2021
1872 Clear 28 1013 26 10000 4.02 336 22:43 31.07.2021
1873 Clear 31 1011 25 10000 2.68 280 19:59 31.07.2021
1874 Clear 31 1012 26 10000 3.58 275 16:40 31.07.2021
1875 Clear 30 1013 25 10000 2.68 267 15:38 31.07.2021
1876 Clear 24 1014 46 10000 1.79 254 12:21 31.07.2021
1877 Clear 21 1013 65 10000 1.34 329 06:18 31.07.2021
1878 Clear 21 1013 65 10000 1.34 329 06:18 31.07.2021
1879 Clear 27 1012 48 10000 1.34 214 23:27 30.07.2021
1880 Clear 34 1010 33 10000 4.02 243 20:26 30.07.2021
1881 Clear 37 1011 17 10000 2.68 258 16:33 30.07.2021
1882 Clear 30 1011 59 10000 3.13 263 22:27 29.07.2021
1883 Clear 30 1012 47 10000 0.89 283 12:34 29.07.2021
1884 Clear 24 1012 56 10000 1.54 330 05:23 29.07.2021
1885 Clear 24 1012 53 10000 0.45 339 04:28 29.07.2021
1886 Clear 35 1008 34 10000 3.58 243 20:52 28.07.2021
1887 Clear 37 1008 28 10000 2.24 198 17:19 28.07.2021
1888 Clear 27 1010 55 10000 0.45 268 10:48 28.07.2021
1889 Clear 24 1010 66 10000 1.34 243 03:46 28.07.2021
1890 Clear 34 1008 38 10000 1.79 227 21:37 27.07.2021
1891 Clear 36 1008 32 10000 1.34 334 18:30 27.07.2021
1892 Clear 34 1012 36 10000 0.89 215 14:51 27.07.2021
1893 Clear 26 1013 62 10000 0.89 47 10:45 27.07.2021
1894 Clear 21 1013 78 10000 0.89 80 07:31 27.07.2021
1895 Clear 32 1012 41 10000 1.34 214 15:48 26.07.2021
1896 Clear 32 1012 41 10000 1.34 214 15:48 26.07.2021
1897 Clouds 29 1012 49 10000 1.34 248 13:58 26.07.2021
1898 Clear 23 1011 68 10000 1.79 291 04:51 26.07.2021
1899 Clear 32 1008 40 10000 3.13 294 20:55 25.07.2021
1900 Clear 35 1008 28 10000 2.24 286 17:45 25.07.2021
1901 Clear 34 1010 29 10000 2.24 224 15:27 25.07.2021
1902 Clear 25 1011 48 10000 1.79 13 10:44 25.07.2021
1903 Clear 21 1011 66 10000 0.45 212 08:18 25.07.2021
1904 Clear 33 1007 27 10000 4.47 249 20:24 24.07.2021
1905 Clear 34 1007 26 10000 4.47 250 19:54 24.07.2021
1906 Clear 30 1012 29 10000 0.45 144 12:34 24.07.2021
1907 Clear 34 1010 21 10000 1.34 270 21:47 23.07.2021
1908 Clear 34 1012 28 10000 3.09 230 14:36 23.07.2021
1909 Clear 31 1012 32 10000 0.89 2 12:40 23.07.2021
1910 Clear 33 1012 27 10000 3.6 230 22:58 22.07.2021
1911 Clear 38 1011 21 10000 1.34 232 17:44 22.07.2021
1912 Clear 29 1015 37 10000 0.89 42 11:21 22.07.2021
1913 Clear 22 1014 60 10000 0.89 54 08:34 22.07.2021
1914 Clear 22 1014 60 10000 0.89 54 08:34 22.07.2021
1915 Clear 25 1014 51 10000 1.54 150 01:58 22.07.2021
1916 Clear 35 1014 17 10000 4.12 220 21:43 21.07.2021
1917 Clear 34 1013 19 10000 2.24 275 21:23 21.07.2021
1918 Clear 28 1016 49 10000 1.54 0 11:54 21.07.2021
1919 Clear 22 1015 78 10000 0.89 46 09:20 21.07.2021
1920 Clear 20 1014 86 10000 1.03 100 06:50 21.07.2021
1921 Clear 25 1014 64 10000 0.89 231 23:24 20.07.2021
1922 Clear 30 1014 37 10000 3.09 240 16:37 20.07.2021
1923 Clear 28 1015 43 10000 2.57 250 15:28 20.07.2021
1924 Clear 24 1016 59 10000 3.09 200 12:58 20.07.2021
1925 Clouds 21 1015 76 10000 1.34 195 10:21 20.07.2021
1926 Clouds 20 1012 87 10000 2.24 228 03:45 20.07.2021
1927 Clear 26 1011 55 10000 4.02 234 21:29 19.07.2021
1928 Clear 27 1014 52 10000 4.63 200 12:52 19.07.2021
1929 Clear 23 1013 73 10000 1.79 222 10:28 19.07.2021
1930 Clear 33 1012 29 10000 8.23 210 18:30 18.07.2021
1931 Clear 26 1016 50 10000 2.06 180 10:55 18.07.2021
1932 Clear 26 1015 58 10000 0.45 168 10:18 18.07.2021
1933 Clear 29 1013 40 10000 2.24 228 22:24 17.07.2021
1934 Clear 30 1014 38 10000 6.17 220 21:43 17.07.2021
1935 Clear 34 1012 34 10000 4.02 237 20:49 17.07.2021
1936 Clear 31 1015 40 10000 0.89 290 12:25 17.07.2021
1937 Clear 22 1014 72 10000 0.89 225 07:19 17.07.2021
1938 Clear 38 1012 18 10000 4.63 220 20:48 16.07.2021
1939 Clear 34 1014 26 10000 2.24 40 13:22 16.07.2021
1940 Clear 21 1015 66 10000 1.34 328 07:32 16.07.2021
1941 Clear 27 1014 44 10000 1.34 238 00:36 16.07.2021
1942 Clear 33 1014 29 10000 0.45 182 13:52 15.07.2021
1943 Clear 30 1013 38 10000 1.79 98 11:50 15.07.2021
1944 Clear 22 1013 69 10000 0.89 326 07:25 15.07.2021
1945 Clear 36 1011 20 10000 0.89 122 19:27 14.07.2021
1946 Clear 34 1014 23 10000 0.89 162 15:55 14.07.2021
1947 Clear 34 1014 23 10000 0.89 162 15:55 14.07.2021
1948 Clear 19 1015 70 10000 0.51 130 07:52 14.07.2021
1949 Clear 28 1015 37 10000 1.34 245 21:50 13.07.2021
1950 Clear 31 1013 33 10000 3.58 247 19:55 13.07.2021
1951 Clear 33 1014 26 10000 0.89 227 19:28 13.07.2021
1952 Clear 33 1014 22 10000 1.34 159 18:46 13.07.2021
1953 Clear 33 1014 22 10000 1.34 8 18:28 13.07.2021
1954 Clear 33 1014 21 10000 1.34 71 17:56 13.07.2021
1955 Clear 27 1017 31 10000 0.89 310 13:21 13.07.2021
1956 Clear 20 1018 52 10000 2.68 3 08:50 13.07.2021
1957 Clear 33 1013 18 10000 4.47 351 20:24 12.07.2021
1958 Clear 34 1013 25 10000 4.47 287 16:45 12.07.2021
1959 Clear 29 1016 32 10000 1.34 275 12:21 12.07.2021
1960 Rain 27 1012 72 10000 2.68 192 23:20 11.07.2021
1961 Clouds 32 1010 50 10000 3.13 238 19:54 11.07.2021
1962 Clear 31 1012 47 10000 0.89 173 11:26 11.07.2021
1963 Clear 35 1010 34 10000 1.03 0 22:58 10.07.2021
1964 Clear 33 1012 31 10000 2.68 99 12:37 10.07.2021
1965 Clear 24 1013 55 10000 1.34 59 07:49 10.07.2021
1966 Clear 27 1014 53 10000 0.45 261 01:27 10.07.2021
1967 Clear 37 1011 28 10000 2.24 172 18:20 09.07.2021
1968 Clear 35 1014 27 10000 2.68 120 14:49 09.07.2021
1969 Clear 27 1016 54 10000 1.79 45 10:26 09.07.2021
1970 Clear 28 1017 28 10000 4.12 220 23:51 08.07.2021
1971 Clear 31 1016 22 10000 3.6 210 22:48 08.07.2021
1972 Clear 36 1014 15 10000 1.79 325 18:57 08.07.2021
1973 Clear 36 1015 15 10000 0.89 323 17:42 08.07.2021
1974 Clear 31 1017 26 10000 1.34 287 13:31 08.07.2021
1975 Clear 29 1018 29 10000 1.34 106 12:44 08.07.2021
1976 Clear 27 1018 33 10000 2.24 33 11:32 08.07.2021
1977 Clear 25 1018 40 10000 1.79 64 09:52 08.07.2021
1978 Clear 21 1018 56 10000 0.89 74 04:47 08.07.2021
1979 Clear 22 1017 60 10000 0.89 192 01:43 08.07.2021
1980 Clear 26 1016 47 10000 0.89 184 22:56 07.07.2021
1981 Clear 27 1015 44 10000 1.34 235 22:19 07.07.2021
1982 Clear 28 1015 43 10000 2.24 224 21:41 07.07.2021
1983 Clear 28 1015 40 10000 2.24 217 21:22 07.07.2021
1984 Clear 31 1015 29 10000 5.66 230 19:57 07.07.2021
1985 Clear 31 1015 26 10000 3.6 250 19:28 07.07.2021
1986 Clear 32 1015 23 10000 0.45 180 17:36 07.07.2021
1987 Clear 31 1016 25 10000 0.45 241 15:45 07.07.2021
1988 Clear 25 1017 36 10000 1.79 47 12:26 07.07.2021
1989 Clear 20 1015 55 10000 2.24 349 08:36 07.07.2021
1990 Clear 20 1015 54 10000 1.79 334 06:46 07.07.2021
1991 Clear 21 1014 51 10000 2.24 15 05:47 07.07.2021
1992 Clear 29 1012 54 10000 3.58 257 21:32 06.07.2021
1993 Clear 31 1012 47 10000 3.13 278 19:30 06.07.2021
1994 Clear 31 1012 48 10000 4.02 268 18:47 06.07.2021
1995 Clear 31 1012 46 10000 4.92 269 18:28 06.07.2021
1996 Clear 29 1015 45 10000 2.57 260 13:46 06.07.2021
1997 Clear 27 1014 51 10000 0.89 239 12:34 06.07.2021
1998 Clear 23 1014 67 10000 0.89 346 09:41 06.07.2021
1999 Clear 22 1014 72 10000 1.34 16 08:34 06.07.2021
2000 Clear 21 1013 76 10000 0.89 235 06:45 06.07.2021
2001 Clear 23 1013 68 10000 1.79 233 01:43 06.07.2021
2002 Clear 28 1012 51 10000 3.58 233 22:43 05.07.2021
2003 Clear 32 1010 41 10000 4.02 246 20:27 05.07.2021
2004 Clear 35 1012 29 10000 0.89 300 15:45 05.07.2021
2005 Clear 24 1014 62 10000 0.89 64 08:45 05.07.2021
2006 Clear 22 1014 71 10000 0.45 244 05:47 05.07.2021
2007 Clear 22 1014 70 10000 1.34 232 04:40 05.07.2021
2008 Clear 26 1014 55 10000 2.24 221 23:19 04.07.2021
2009 Clear 32 1013 42 10000 3.13 221 19:55 04.07.2021
2010 Clear 35 1015 21 10000 2.57 240 16:51 04.07.2021
2011 Clear 30 1016 39 10000 0.89 164 13:27 04.07.2021
2012 Clear 24 1017 67 10000 1.79 11 09:28 04.07.2021
2013 Clear 27 1014 55 10000 1.79 224 23:34 03.07.2021
2014 Clear 28 1014 49 10000 4.12 200 22:40 03.07.2021
2015 Clear 34 1015 27 10000 1.34 265 15:41 03.07.2021
2016 Clear 30 1017 39 10000 1.34 199 12:39 03.07.2021
2017 Clear 24 1016 54 10000 0.45 138 09:41 03.07.2021
2018 Clear 24 1016 56 10000 0.45 138 09:20 03.07.2021
2019 Clear 22 1016 61 10000 0.45 193 08:44 03.07.2021
2020 Clear 35 1014 29 10000 3.13 188 17:57 02.07.2021
2021 Clear 19 1016 81 10000 0.45 227 07:41 02.07.2021
2022 Clear 19 1015 81 10000 0.45 171 06:34 02.07.2021
2023 Clear 25 1016 53 10000 1.34 247 23:37 01.07.2021
2024 Clear 28 1014 46 10000 1.79 211 22:30 01.07.2021
2025 Clear 30 1014 41 10000 2.68 211 21:34 01.07.2021
2026 Clear 33 1013 38 10000 3.13 239 19:39 01.07.2021
2027 Clear 33 1013 37 10000 3.13 227 19:19 01.07.2021
2028 Clear 33 1013 37 10000 3.13 227 18:46 01.07.2021
2029 Clear 33 1013 37 10000 3.13 227 18:46 01.07.2021
2030 Clear 33 1013 38 10000 2.68 196 17:33 01.07.2021
2031 Clear 32 1015 35 10000 0.45 238 15:57 01.07.2021
2032 Clear 32 1015 35 10000 0.45 238 15:57 01.07.2021
2033 Clear 32 1015 36 10000 2.57 0 15:22 01.07.2021
2034 Clear 27 1016 55 10000 0.45 248 11:56 01.07.2021
2035 Clear 23 1016 66 10000 0.45 329 09:34 01.07.2021
2036 Clear 25 1015 47 10000 4.63 220 00:30 01.07.2021
2037 Clear 28 1014 28 10000 3.6 220 23:18 30.06.2021
2038 Clear 31 1014 23 10000 4.12 230 21:57 30.06.2021
2039 Clear 32 1012 28 10000 3.13 234 21:18 30.06.2021
2040 Clear 33 1012 29 10000 2.68 260 20:20 30.06.2021
2041 Clear 34 1012 29 10000 2.68 216 16:45 30.06.2021
2042 Clear 29 1014 36 10000 0.45 177 13:26 30.06.2021
2043 Clear 23 1015 60 10000 0.45 241 10:27 30.06.2021
2044 Clear 23 1014 44 10000 1.79 172 00:31 30.06.2021
2045 Clear 32 1012 28 10000 4.02 257 20:23 29.06.2021
2046 Clear 33 1012 24 10000 2.24 221 17:47 29.06.2021
2047 Clear 33 1012 22 10000 2.24 210 17:28 29.06.2021
2048 Clear 32 1014 21 10000 0.45 261 15:51 29.06.2021
2049 Clear 32 1014 21 10000 0.45 261 15:51 29.06.2021
2050 Clear 32 1014 21 10000 0.45 261 15:51 29.06.2021
2051 Clear 31 1015 24 10000 0.45 261 14:55 29.06.2021
2052 Clear 29 1015 31 10000 1.34 357 13:26 29.06.2021
2053 Clear 18 1015 77 10000 0.45 229 05:25 29.06.2021
2054 Clear 22 1015 58 10000 1.79 209 23:26 28.06.2021
2055 Clear 26 1014 42 10000 3.13 224 21:31 28.06.2021
2056 Clear 31 1015 27 10000 5.14 230 18:44 28.06.2021
2057 Clear 31 1015 18 10000 0.89 167 16:58 28.06.2021
2058 Clear 29 1017 26 10000 2.57 210 14:32 28.06.2021
2059 Clear 26 1016 37 10000 0.89 288 12:24 28.06.2021
2060 Clear 22 1014 62 10000 1.34 224 23:55 27.06.2021
2061 Clear 24 1013 53 10000 3.13 234 22:32 27.06.2021
2062 Clear 30 1012 36 10000 4.02 242 19:45 27.06.2021
2063 Clear 31 1012 33 10000 4.47 226 18:56 27.06.2021
2064 Clear 31 1014 31 10000 1.79 261 15:40 27.06.2021
2065 Clouds 24 1014 67 10000 2.68 197 11:23 27.06.2021
2066 Clear 22 1014 78 10000 1.34 213 01:38 27.06.2021
2067 Clear 27 1013 57 10000 2.24 246 22:30 26.06.2021
2068 Clear 30 1012 49 10000 3.58 238 20:55 26.06.2021
2069 Clear 30 1012 46 10000 3.13 232 20:35 26.06.2021
2070 Clear 33 1013 34 10000 2.68 194 16:33 26.06.2021
2071 Clear 32 1014 34 10000 1.34 248 14:47 26.06.2021
2072 Clear 28 1015 47 10000 1.34 259 12:25 26.06.2021
2073 Clear 21 1015 76 10000 0.45 191 07:33 26.06.2021
2074 Clear 27 1014 52 10000 3.13 269 23:29 25.06.2021
2075 Clear 32 1012 36 10000 3.58 256 20:38 25.06.2021
2076 Clear 34 1012 33 10000 3.58 264 19:28 25.06.2021
2077 Clear 35 1012 24 10000 1.34 196 17:31 25.06.2021
2078 Clear 35 1013 26 10000 2.24 224 16:43 25.06.2021
2079 Clear 34 1014 26 10000 1.79 87 14:22 25.06.2021
2080 Clear 26 1015 50 10000 2.68 46 10:46 25.06.2021
2081 Clear 20 1016 67 10000 1.79 350 07:44 25.06.2021
2082 Clear 21 1016 66 10000 1.79 350 07:19 25.06.2021
2083 Clear 23 1016 61 10000 0.89 297 03:32 25.06.2021
2084 Clear 33 1014 16 10000 5.14 80 21:49 24.06.2021
2085 Clear 33 1015 30 10000 0.89 260 20:58 24.06.2021
2086 Clear 34 1014 24 10000 3.6 40 20:39 24.06.2021
2087 Clear 35 1013 24 10000 2.68 354 18:35 24.06.2021
2088 Clear 33 1014 28 10000 1.79 95 15:25 24.06.2021
2089 Clear 33 1015 29 10000 1.34 342 14:55 24.06.2021
2090 Clear 31 1015 32 10000 1.34 81 13:57 24.06.2021
2091 Clear 25 1016 49 10000 0.89 30 10:39 24.06.2021
2092 Clear 22 1015 55 10000 1.34 40 09:27 24.06.2021
2093 Clear 20 1015 63 10000 1.34 46 08:22 24.06.2021
2094 Clear 22 1014 56 10000 1.34 217 02:32 24.06.2021
2095 Clear 27 1013 38 10000 2.68 259 22:36 23.06.2021
2096 Clear 30 1014 32 10000 4.12 260 21:43 23.06.2021
2097 Clear 31 1012 32 10000 3.58 241 20:37 23.06.2021
2098 Clear 32 1012 28 10000 0.89 201 18:34 23.06.2021
2099 Clear 31 1013 29 10000 1.79 255 17:31 23.06.2021
2100 Clear 30 1014 30 10000 0.89 256 15:34 23.06.2021
2101 Clear 27 1016 41 10000 0.89 114 12:51 23.06.2021
2102 Clear 25 1016 48 10000 1.34 52 11:55 23.06.2021
2103 Clear 21 1016 69 10000 0.45 26 09:55 23.06.2021
2104 Clear 19 1016 77 10000 0 0 08:46 23.06.2021
2105 Clear 17 1015 83 10000 0.89 328 07:51 23.06.2021
2106 Clear 17 1015 84 10000 0.89 340 06:49 23.06.2021
2107 Clear 18 1015 79 10000 0.45 209 03:33 23.06.2021
2108 Clear 20 1016 75 10000 1.79 184 00:43 23.06.2021
2109 Clear 20 1016 73 10000 1.34 223 23:55 22.06.2021
2110 Clear 21 1015 67 10000 2.68 216 22:44 22.06.2021
2111 Clear 21 1015 64 10000 2.24 220 22:19 22.06.2021
2112 Clear 22 1015 61 10000 3.13 229 21:36 22.06.2021
2113 Clear 25 1014 53 10000 4.47 233 19:37 22.06.2021
2114 Clear 26 1013 46 10000 4.02 238 18:53 22.06.2021
2115 Clear 27 1013 44 10000 4.92 198 18:23 22.06.2021
2116 Clear 28 1013 34 10000 1.34 233 17:21 22.06.2021
2117 Clear 28 1013 35 10000 1.34 158 16:30 22.06.2021
2118 Clear 28 1013 35 10000 1.34 217 16:30 22.06.2021
2119 Clear 26 1014 42 10000 1.34 207 14:36 22.06.2021
2120 Clouds 25 1015 44 10000 1.79 265 13:48 22.06.2021
2121 Clouds 25 1015 46 10000 1.34 202 13:48 22.06.2021
2122 Clouds 24 1015 50 10000 1.79 217 12:35 22.06.2021
2123 Clear 22 1015 58 10000 0.89 21 10:58 22.06.2021
2124 Clear 19 1015 70 10000 1.79 343 09:31 22.06.2021
2125 Clear 16 1015 82 10000 0 0 06:41 22.06.2021
2126 Clear 20 1015 67 10000 2.24 264 00:42 22.06.2021
2127 Clear 21 1014 60 10000 3.58 270 22:59 21.06.2021
2128 Clear 23 1014 55 10000 3.58 245 21:54 21.06.2021
2129 Clear 25 1013 45 10000 2.24 296 20:55 21.06.2021
2130 Clear 25 1013 44 10000 2.68 279 20:28 21.06.2021
2131 Clear 25 1012 43 10000 2.24 291 19:50 21.06.2021
2132 Clear 26 1013 43 10000 2.68 292 18:33 21.06.2021
2133 Clear 26 1013 41 10000 2.24 289 17:23 21.06.2021
2134 Clear 25 1014 41 10000 1.79 309 16:40 21.06.2021
2135 Clear 25 1014 40 10000 1.34 280 16:19 21.06.2021
2136 Clear 25 1014 40 10000 2.24 281 15:40 21.06.2021
2137 Clear 24 1014 42 10000 2.68 346 13:55 21.06.2021
2138 Clear 24 1014 42 10000 2.68 314 13:32 21.06.2021
2139 Clear 22 1014 46 10000 2.24 297 12:36 21.06.2021
2140 Clouds 20 1014 51 10000 1.79 326 11:25 21.06.2021
2141 Clear 19 1014 58 10000 2.24 340 10:24 21.06.2021
2142 Clear 17 1014 68 10000 2.24 326 09:18 21.06.2021
2143 Clear 16 1014 74 10000 0.45 290 08:19 21.06.2021
2144 Clouds 16 1014 73 10000 1.34 330 06:44 21.06.2021
2145 Clouds 20 1013 78 10000 2.24 252 23:58 20.06.2021
2146 Clouds 21 1013 76 10000 3.13 250 23:34 20.06.2021
2147 Clouds 21 1013 75 10000 3.13 244 22:57 20.06.2021
2148 Clouds 21 1013 73 10000 3.13 245 21:57 20.06.2021
2149 Clouds 22 1013 68 10000 2.68 242 20:30 20.06.2021
2150 Clouds 23 1013 66 10000 3.58 243 19:41 20.06.2021
2151 Clouds 23 1013 65 10000 4.02 214 19:20 20.06.2021
2152 Clouds 23 1013 67 10000 4.47 251 17:47 20.06.2021
2153 Clouds 22 1014 68 10000 3.58 243 16:46 20.06.2021
2154 Clouds 22 1014 64 10000 3.13 256 15:48 20.06.2021
2155 Clouds 22 1014 62 10000 4.47 254 15:27 20.06.2021
2156 Clear 23 1014 59 10000 4.02 254 14:43 20.06.2021
2157 Clear 23 1014 49 10000 1.79 215 13:35 20.06.2021
2158 Clear 22 1015 48 10000 2.24 251 12:39 20.06.2021
2159 Clear 20 1015 52 10000 3.58 248 11:45 20.06.2021
2160 Clear 19 1015 58 10000 3.58 259 10:23 20.06.2021
2161 Clear 18 1015 62 10000 3.13 248 09:43 20.06.2021
2162 Clouds 17 1014 74 10000 1.79 246 06:56 20.06.2021
2163 Clear 20 1016 69 10000 2.24 236 23:37 19.06.2021
2164 Clear 20 1015 66 10000 2.24 232 22:58 19.06.2021
2165 Clear 22 1015 61 10000 2.68 244 21:51 19.06.2021
2166 Clear 22 1015 58 10000 3.13 232 21:19 19.06.2021
2167 Clear 25 1014 51 10000 3.13 209 18:53 19.06.2021
2168 Clouds 25 1014 49 10000 3.13 259 18:22 19.06.2021
2169 Clouds 25 1014 48 10000 2.24 193 17:26 19.06.2021
2170 Clouds 25 1014 50 10000 2.24 241 16:41 19.06.2021
2171 Clouds 23 1016 48 10000 2.57 230 15:40 19.06.2021
2172 Clouds 22 1016 58 10000 1.34 155 12:54 19.06.2021
2173 Clouds 20 1016 66 10000 0.45 305 11:54 19.06.2021
2174 Clouds 18 1016 73 10000 0.45 252 10:46 19.06.2021
2175 Clouds 18 1016 76 10000 0.45 277 10:26 19.06.2021
2176 Clouds 17 1016 77 10000 0.45 284 09:56 19.06.2021
2177 Clouds 15 1016 83 10000 0.89 240 07:50 19.06.2021
2178 Clear 15 1015 81 10000 1.79 272 06:34 19.06.2021
2179 Clear 17 1015 83 10000 1.34 227 02:28 19.06.2021
2180 Clear 18 1015 76 10000 1.79 221 00:20 19.06.2021
2181 Clear 19 1015 73 10000 2.24 225 23:34 18.06.2021
2182 Clear 19 1015 69 10000 2.24 212 22:55 18.06.2021
2183 Clear 19 1014 67 10000 2.68 195 22:31 18.06.2021
2184 Clear 20 1014 64 10000 3.13 223 21:47 18.06.2021
2185 Clear 20 1015 63 10000 3.13 202 21:23 18.06.2021
2186 Clouds 21 1013 59 10000 4.02 237 20:23 18.06.2021
2187 Clouds 24 1013 52 10000 5.36 206 18:33 18.06.2021
2188 Clouds 24 1012 49 10000 3.58 219 17:50 18.06.2021
2189 Clouds 25 1012 52 10000 4.47 205 16:39 18.06.2021
2190 Clouds 24 1012 60 10000 2.24 178 15:46 18.06.2021
2191 Clouds 22 1013 75 10000 3.09 190 14:36 18.06.2021
2192 Rain 20 1014 78 10000 3.09 200 13:43 18.06.2021
2193 Clouds 21 1012 76 10000 2.24 177 12:52 18.06.2021
2194 Clouds 21 1012 77 10000 1.79 187 12:33 18.06.2021
2195 Clouds 20 1012 83 10000 1.79 194 11:44 18.06.2021
2196 Clouds 19 1013 91 10000 3.09 170 10:57 18.06.2021
2197 Clouds 19 1013 91 10000 3.09 170 10:57 18.06.2021
2198 Rain 18 1013 91 10000 2.24 157 10:23 18.06.2021
2199 Rain 18 1012 88 5000 1.34 201 09:57 18.06.2021
2200 Rain 19 1012 87 10000 1.34 196 09:21 18.06.2021
2201 Rain 19 1012 88 10000 1.54 230 08:32 18.06.2021
2202 Clouds 18 1011 86 10000 1.34 224 07:36 18.06.2021
2203 Clouds 19 1010 83 10000 1.34 221 05:36 18.06.2021
2204 Clouds 20 1013 81 10000 1.79 228 00:35 18.06.2021
2205 Clouds 20 1012 78 10000 2.24 238 23:27 17.06.2021
2206 Clouds 21 1011 74 10000 1.34 226 22:27 17.06.2021
2207 Clouds 22 1011 71 10000 3.13 247 21:58 17.06.2021
2208 Clouds 22 1012 71 10000 3.58 245 21:19 17.06.2021
2209 Clouds 23 1012 60 10000 7.2 220 20:33 17.06.2021
2210 Clouds 23 1010 65 10000 3.58 231 19:57 17.06.2021
2211 Clouds 24 1010 66 10000 3.13 214 19:27 17.06.2021
2212 Clouds 24 1011 64 10000 4.02 228 17:50 17.06.2021
2213 Clouds 24 1010 65 10000 3.58 236 17:23 17.06.2021
2214 Clouds 23 1011 69 10000 4.02 242 16:30 17.06.2021
2215 Clouds 23 1012 73 10000 4.12 210 15:54 17.06.2021
2216 Clouds 20 1013 83 10000 4.63 230 14:39 17.06.2021
2217 Rain 23 1012 70 10000 5.66 210 13:53 17.06.2021
2218 Clouds 22 1012 76 10000 1.79 205 12:31 17.06.2021
2219 Clouds 22 1012 75 10000 1.34 187 11:43 17.06.2021
2220 Clouds 21 1012 83 10000 1.34 156 10:45 17.06.2021
2221 Clouds 20 1012 84 10000 0.45 175 10:24 17.06.2021
2222 Clouds 19 1011 87 6000 0.45 0 09:42 17.06.2021
2223 Rain 19 1011 85 10000 0.89 237 08:59 17.06.2021
2224 Clouds 19 1011 83 10000 0.89 198 07:55 17.06.2021
2225 Clouds 19 1010 81 10000 0.89 200 06:36 17.06.2021
2226 Clouds 20 1011 78 10000 0.89 246 03:22 17.06.2021
2227 Clear 20 1013 71 10000 2.24 251 23:42 16.06.2021
2228 Clear 21 1012 69 10000 3.58 255 23:21 16.06.2021
2229 Clear 21 1012 67 10000 3.13 227 22:33 16.06.2021
2230 Clear 23 1010 60 10000 4.02 232 21:45 16.06.2021
2231 Clear 23 1010 59 10000 4.02 255 21:21 16.06.2021
2232 Clear 24 1011 50 10000 6.17 230 20:43 16.06.2021
2233 Clear 25 1010 53 10000 4.02 247 19:54 16.06.2021
2234 Clear 26 1010 50 10000 4.02 241 19:34 16.06.2021
2235 Clear 26 1010 50 10000 4.47 246 18:55 16.06.2021
2236 Clear 27 1010 49 10000 4.02 239 18:28 16.06.2021
2237 Clear 27 1010 46 10000 3.13 202 17:44 16.06.2021
2238 Clear 27 1010 46 10000 3.13 206 17:26 16.06.2021
2239 Clear 27 1010 46 10000 4.47 198 16:44 16.06.2021
2240 Clear 27 1010 46 10000 3.58 223 16:18 16.06.2021
2241 Clouds 26 1011 46 10000 3.13 211 15:36 16.06.2021
2242 Clouds 26 1011 49 10000 2.24 219 14:50 16.06.2021
2243 Clouds 26 1013 44 10000 3.6 210 14:30 16.06.2021
2244 Clouds 26 1012 51 10000 2.24 181 13:56 16.06.2021
2245 Clouds 26 1012 51 10000 2.24 181 13:56 16.06.2021
2246 Clouds 25 1012 56 10000 1.79 219 13:23 16.06.2021
2247 Clouds 24 1012 59 10000 1.34 223 12:55 16.06.2021
2248 Clouds 24 1012 59 10000 0.89 255 12:33 16.06.2021
2249 Clouds 22 1013 65 10000 1.79 276 11:46 16.06.2021
2250 Clouds 22 1013 68 10000 2.24 233 10:53 16.06.2021
2251 Clouds 22 1013 69 10000 1.79 228 10:34 16.06.2021
2252 Clear 21 1013 74 10000 1.34 246 09:38 16.06.2021
2253 Clouds 20 1012 78 10000 0.89 225 08:34 16.06.2021
2254 Clouds 20 1012 77 10000 0.89 236 07:48 16.06.2021
2255 Clouds 20 1012 78 10000 1.34 257 07:25 16.06.2021
2256 Clouds 20 1012 78 10000 1.34 257 07:25 16.06.2021
2257 Clouds 20 1014 77 10000 0.89 269 02:48 16.06.2021
2258 Clear 21 1013 77 10000 2.68 238 23:49 15.06.2021
2259 Clear 22 1012 74 10000 1.79 234 23:23 15.06.2021
2260 Clear 22 1012 73 10000 1.79 232 22:50 15.06.2021
2261 Clear 23 1012 71 10000 1.34 227 22:32 15.06.2021
2262 Clear 23 1012 71 10000 1.34 227 22:32 15.06.2021
2263 Clear 25 1011 65 10000 3.13 235 21:27 15.06.2021
2264 Clear 27 1011 57 10000 2.24 223 20:21 15.06.2021
2265 Clear 28 1011 54 10000 2.24 228 19:33 15.06.2021
2266 Clear 29 1012 51 10000 2.24 245 18:25 15.06.2021
2267 Clear 28 1012 54 10000 2.68 229 16:52 15.06.2021
2268 Clear 27 1014 57 10000 3.6 250 16:20 15.06.2021
2269 Clear 27 1014 57 10000 3.6 200 15:34 15.06.2021
2270 Clouds 26 1015 61 10000 3.09 210 14:44 15.06.2021
2271 Clouds 24 1015 67 10000 2.57 210 13:41 15.06.2021
2272 Clouds 24 1015 69 10000 2.57 230 12:59 15.06.2021
2273 Clouds 23 1015 73 10000 2.57 220 12:38 15.06.2021
2274 Clouds 22 1016 76 10000 3.09 220 11:46 15.06.2021
2275 Clouds 21 1016 78 10000 3.09 220 11:19 15.06.2021
2276 Clouds 21 1016 78 10000 3.09 220 10:46 15.06.2021
2277 Clouds 22 1014 81 10000 0.89 232 10:22 15.06.2021
2278 Clouds 21 1015 83 10000 1.79 228 09:32 15.06.2021
2279 Clouds 20 1014 86 10000 0.89 207 08:28 15.06.2021
2280 Clouds 20 1015 87 10000 0.89 235 07:43 15.06.2021
2281 Clouds 19 1014 87 10000 1.34 234 06:36 15.06.2021
2282 Clear 20 1014 85 10000 1.34 233 04:31 15.06.2021
2283 Clear 21 1015 75 10000 1.79 241 00:47 15.06.2021
2284 Clear 23 1015 69 10000 2.24 232 23:45 14.06.2021
2285 Clear 23 1015 68 10000 1.79 228 23:25 14.06.2021
2286 Clear 24 1014 63 10000 2.68 219 22:42 14.06.2021
2287 Clear 25 1014 61 10000 3.13 223 22:20 14.06.2021
2288 Clear 28 1014 53 10000 2.24 211 21:41 14.06.2021
2289 Clear 29 1014 50 10000 2.24 209 21:22 14.06.2021
2290 Clear 31 1013 43 10000 2.68 263 20:50 14.06.2021
2291 Clear 32 1013 41 10000 2.24 273 19:54 14.06.2021
2292 Clear 32 1013 41 10000 3.13 261 19:35 14.06.2021
2293 Clear 32 1013 41 10000 2.24 249 18:59 14.06.2021
2294 Clear 33 1014 41 10000 2.24 239 18:24 14.06.2021
2295 Clear 33 1014 40 10000 2.24 218 17:54 14.06.2021
2296 Clear 33 1014 38 10000 2.24 240 17:29 14.06.2021
2297 Clear 33 1014 38 10000 1.34 149 16:35 14.06.2021
2298 Clear 32 1015 40 10000 1.34 237 15:49 14.06.2021
2299 Clear 31 1016 41 10000 1.34 245 15:20 14.06.2021
2300 Clear 31 1016 41 10000 0.89 247 14:43 14.06.2021
2301 Clear 30 1017 43 10000 1.34 172 13:35 14.06.2021
2302 Clear 28 1017 48 10000 0.45 149 12:54 14.06.2021
2303 Clear 28 1017 50 10000 0.89 279 12:35 14.06.2021
2304 Clear 26 1018 57 10000 2.06 230 11:46 14.06.2021
2305 Clear 24 1018 64 10000 0.89 321 10:55 14.06.2021
2306 Clear 22 1018 70 10000 0.45 250 09:46 14.06.2021
2307 Clear 21 1018 74 10000 0.89 314 09:21 14.06.2021
2308 Clear 20 1018 78 10000 0.89 269 08:42 14.06.2021
2309 Clear 19 1018 84 10000 0.45 209 07:44 14.06.2021
2310 Clear 19 1017 82 10000 0.89 245 06:24 14.06.2021
2311 Clear 20 1017 80 10000 1.79 193 04:53 14.06.2021
2312 Clear 22 1018 71 10000 0.45 261 00:46 14.06.2021
2313 Clear 24 1019 64 10000 2.68 276 23:45 13.06.2021
2314 Clear 25 1017 64 10000 2.68 254 23:23 13.06.2021
2315 Clear 26 1016 61 10000 2.68 235 22:40 13.06.2021
2316 Clear 26 1016 60 10000 2.24 268 22:18 13.06.2021
2317 Clear 27 1017 57 10000 2.68 243 21:47 13.06.2021
2318 Clear 27 1016 55 10000 2.68 244 21:28 13.06.2021
2319 Clear 28 1016 52 10000 3.13 254 20:45 13.06.2021
2320 Clear 28 1015 51 10000 2.68 245 20:26 13.06.2021
2321 Clear 28 1015 51 10000 2.68 245 20:26 13.06.2021
2322 Clear 29 1015 48 10000 2.68 238 19:43 13.06.2021
2323 Clear 30 1015 48 10000 3.58 259 19:24 13.06.2021
2324 Clear 31 1015 46 10000 3.58 227 18:39 13.06.2021
2325 Clear 31 1016 46 10000 3.58 228 18:18 13.06.2021
2326 Clear 31 1016 45 10000 2.68 236 17:23 13.06.2021
2327 Clear 31 1016 40 10000 1.34 166 16:28 13.06.2021
2328 Clear 31 1016 40 10000 0.89 157 15:34 13.06.2021
2329 Clear 30 1017 41 10000 2.68 148 14:32 13.06.2021
2330 Clear 30 1017 41 10000 2.68 150 13:44 13.06.2021
2331 Clear 28 1017 46 10000 2.24 243 13:24 13.06.2021
2332 Clear 28 1017 45 10000 1.34 130 12:50 13.06.2021
2333 Clear 28 1017 48 10000 1.79 225 12:25 13.06.2021
2334 Clear 27 1017 50 10000 0.89 180 11:39 13.06.2021
2335 Clear 26 1017 53 10000 0.45 151 10:48 13.06.2021
2336 Clear 25 1017 57 10000 0.45 297 10:19 13.06.2021
2337 Clear 24 1017 63 10000 0.45 318 09:44 13.06.2021
2338 Clear 23 1017 65 10000 0.89 326 09:25 13.06.2021
2339 Clear 22 1017 68 10000 0.89 359 08:49 13.06.2021
2340 Clear 21 1016 71 10000 0.89 29 08:26 13.06.2021
2341 Clear 20 1017 70 10000 2.06 290 06:58 13.06.2021
2342 Clear 21 1018 68 10000 0.45 16 02:57 13.06.2021
2343 Clear 25 1017 50 10000 3.09 240 23:31 12.06.2021
2344 Clear 26 1014 55 10000 2.68 261 22:42 12.06.2021
2345 Clear 25 1015 57 10000 2.68 257 22:21 12.06.2021
2346 Clear 25 1015 57 10000 2.68 257 22:21 12.06.2021
2347 Clear 26 1014 55 10000 2.68 268 21:42 12.06.2021
2348 Clear 27 1014 51 10000 3.58 231 20:45 12.06.2021
2349 Clear 28 1013 49 10000 3.58 249 20:20 12.06.2021
2350 Clear 29 1013 47 10000 3.58 250 19:41 12.06.2021
2351 Clouds 30 1013 44 10000 2.68 240 18:43 12.06.2021
2352 Clouds 31 1013 42 10000 3.13 240 17:58 12.06.2021
2353 Clouds 31 1013 42 10000 1.79 241 17:29 12.06.2021
2354 Clouds 31 1014 42 10000 1.79 200 16:40 12.06.2021
2355 Clouds 29 1015 42 10000 3.09 260 15:38 12.06.2021
2356 Clouds 27 1016 47 10000 2.57 220 14:47 12.06.2021
2357 Clouds 27 1016 47 10000 2.57 220 14:26 12.06.2021
2358 Clouds 27 1015 50 10000 1.79 283 13:23 12.06.2021
2359 Clouds 26 1016 57 10000 1.03 160 12:39 12.06.2021
2360 Clouds 26 1015 58 10000 1.34 203 12:21 12.06.2021
2361 Clouds 24 1015 68 10000 1.34 234 11:23 12.06.2021
2362 Clouds 22 1016 73 10000 1.54 280 10:36 12.06.2021
2363 Clouds 22 1015 77 10000 1.79 264 09:55 12.06.2021
2364 Clouds 22 1015 78 10000 1.34 263 09:36 12.06.2021
2365 Clouds 21 1015 83 10000 0.89 208 08:25 12.06.2021
2366 Clear 20 1015 87 10000 0.89 270 06:36 12.06.2021
2367 Clear 21 1014 78 10000 1.34 265 01:54 12.06.2021
2368 Clear 24 1013 60 10000 2.68 193 23:29 11.06.2021
2369 Clear 27 1013 48 10000 1.34 259 22:25 11.06.2021
2370 Clear 29 1014 38 10000 4.12 230 21:49 11.06.2021
2371 Clear 29 1011 43 10000 2.68 239 21:29 11.06.2021
2372 Clear 30 1012 35 10000 6.17 230 20:43 11.06.2021
2373 Clouds 31 1010 39 10000 3.58 244 19:56 11.06.2021
2374 Clear 32 1010 37 10000 3.58 259 18:49 11.06.2021
2375 Clear 32 1010 38 10000 3.13 233 18:25 11.06.2021
2376 Clear 32 1011 36 10000 3.58 254 17:18 11.06.2021
2377 Clear 33 1011 32 10000 2.24 235 16:31 11.06.2021
2378 Clear 33 1011 33 10000 2.24 235 16:31 11.06.2021
2379 Clear 32 1011 31 10000 1.79 188 15:23 11.06.2021
2380 Clear 31 1012 32 10000 2.24 245 14:32 11.06.2021
2381 Clear 30 1013 38 10000 0.89 316 13:27 11.06.2021
2382 Clear 28 1013 42 10000 0.89 259 12:27 11.06.2021
2383 Clear 28 1013 42 10000 0.89 259 12:27 11.06.2021
2384 Clear 26 1013 46 10000 0.89 228 11:37 11.06.2021
2385 Clear 25 1013 51 10000 0.45 291 10:56 11.06.2021
2386 Clear 23 1013 63 10000 0.89 283 09:33 11.06.2021
2387 Clear 22 1013 67 10000 0.45 191 08:45 11.06.2021
2388 Clear 20 1013 72 10000 0.45 188 07:39 11.06.2021
2389 Clear 22 1013 58 10000 0.89 252 04:27 11.06.2021
2390 Clear 28 1014 36 10000 3.09 210 23:38 10.06.2021
2391 Clear 28 1014 36 10000 3.6 230 22:42 10.06.2021
2392 Clear 32 1015 29 10000 5.66 220 21:58 10.06.2021
2393 Clear 33 1012 30 10000 2.68 244 21:22 10.06.2021
2394 Clear 33 1013 21 10000 5.66 220 20:45 10.06.2021
2395 Clear 35 1012 25 10000 2.68 243 19:42 10.06.2021
2396 Clear 35 1012 24 10000 3.13 251 19:18 10.06.2021
2397 Clear 35 1012 24 10000 3.58 245 18:29 10.06.2021
2398 Clear 36 1012 23 10000 2.68 242 17:46 10.06.2021
2399 Clear 36 1013 23 10000 2.68 255 16:49 10.06.2021
2400 Clear 36 1013 23 10000 2.68 256 16:31 10.06.2021
2401 Clear 35 1014 26 10000 2.24 252 15:19 10.06.2021
2402 Clear 32 1015 33 10000 1.79 255 13:23 10.06.2021
2403 Clear 30 1015 32 10000 1.79 253 12:26 10.06.2021
2404 Clear 28 1016 37 10000 1.34 274 11:25 10.06.2021
2405 Clear 26 1016 45 10000 1.34 37 10:28 10.06.2021
2406 Clear 21 1015 63 10000 1.34 336 06:30 10.06.2021
2407 Clear 28 1018 28 10000 3.09 210 00:25 10.06.2021
2408 Clear 29 1017 28 10000 2.57 280 23:43 09.06.2021
2409 Clear 32 1016 19 10000 5.14 260 22:28 09.06.2021
2410 Clear 35 1015 17 10000 5.14 230 21:43 09.06.2021
2411 Clear 34 1016 22 10000 2.24 274 21:23 09.06.2021
2412 Clear 36 1014 19 10000 3.13 252 20:35 09.06.2021
2413 Clear 36 1014 21 10000 3.13 185 19:48 09.06.2021
2414 Clear 37 1014 18 10000 1.79 253 19:18 09.06.2021
2415 Clear 35 1016 24 10000 1.79 158 15:58 09.06.2021
2416 Clear 35 1017 24 10000 2.24 188 15:32 09.06.2021
2417 Clear 34 1017 25 10000 0.45 218 14:34 09.06.2021
2418 Clear 33 1017 26 10000 0.89 212 13:33 09.06.2021
2419 Clear 32 1018 27 10000 0.45 262 12:54 09.06.2021
2420 Clear 30 1018 32 10000 0.89 235 12:35 09.06.2021
2421 Clear 27 1018 37 10000 1.03 0 10:56 09.06.2021
2422 Clear 23 1017 54 10000 1.34 92 08:58 09.06.2021
2423 Clear 22 1017 56 10000 1.79 45 08:33 09.06.2021
2424 Clear 21 1017 58 10000 0.45 202 06:45 09.06.2021
2425 Clear 23 1017 49 10000 1.34 275 03:44 09.06.2021
2426 Clear 29 1017 30 10000 4.63 250 22:55 08.06.2021
2427 Clear 29 1017 30 10000 4.63 250 22:55 08.06.2021
2428 Clear 30 1017 26 10000 5.66 260 22:34 08.06.2021
2429 Clear 32 1015 30 10000 3.13 256 21:18 08.06.2021
2430 Clear 35 1014 25 10000 4.02 268 19:28 08.06.2021
2431 Clear 37 1014 18 10000 2.24 249 17:52 08.06.2021
2432 Clear 37 1014 18 10000 3.13 238 17:33 08.06.2021
2433 Clear 36 1015 19 10000 1.34 239 15:29 08.06.2021
2434 Clear 33 1016 27 10000 1.34 8 13:33 08.06.2021
2435 Clear 30 1017 34 10000 2.06 20 11:54 08.06.2021
2436 Clear 21 1016 62 10000 0.89 44 07:45 08.06.2021
2437 Clear 22 1017 54 10000 0.51 200 04:26 08.06.2021
2438 Clear 27 1018 39 10000 1.34 220 23:52 07.06.2021
2439 Clear 36 1014 14 10000 2.57 90 20:41 07.06.2021
2440 Clear 36 1013 21 10000 1.79 79 18:53 07.06.2021
2441 Clear 36 1014 23 10000 1.34 29 16:25 07.06.2021
2442 Clear 34 1016 26 10000 1.34 42 14:22 07.06.2021
2443 Clear 29 1017 39 10000 1.34 61 11:51 07.06.2021
2444 Clear 25 1018 52 10000 2.24 27 10:27 07.06.2021
2445 Clear 24 1018 56 10000 2.24 58 09:58 07.06.2021
2446 Clear 23 1017 61 10000 2.24 45 09:25 07.06.2021
2447 Clear 20 1017 69 10000 0.89 79 07:41 07.06.2021
2448 Clear 27 1017 34 10000 1.54 140 22:53 06.06.2021
2449 Clear 33 1016 24 10000 0.89 269 21:18 06.06.2021
2450 Clear 34 1015 22 10000 0.89 48 19:26 06.06.2021
2451 Clear 34 1016 25 10000 1.34 16 17:35 06.06.2021
2452 Clear 31 1018 35 10000 2.24 77 14:38 06.06.2021
2453 Clear 27 1019 50 10000 1.79 92 12:33 06.06.2021
2454 Clear 25 1020 56 10000 1.34 67 11:51 06.06.2021
2455 Clear 22 1020 65 10000 1.34 59 10:26 06.06.2021
2456 Clear 21 1020 69 10000 1.34 57 09:55 06.06.2021
2457 Clear 20 1020 71 10000 0.89 75 09:26 06.06.2021
2458 Clear 19 1020 74 10000 0.89 39 08:47 06.06.2021
2459 Clear 19 1020 79 10000 1.34 340 05:24 06.06.2021
2460 Clear 23 1021 67 10000 1.34 289 23:19 05.06.2021
2461 Clear 24 1019 66 10000 2.68 247 22:25 05.06.2021
2462 Clear 26 1019 59 10000 3.58 217 20:43 05.06.2021
2463 Rain 27 1018 57 10000 4.92 240 19:40 05.06.2021
2464 Clouds 29 1018 48 10000 2.24 220 17:21 05.06.2021
2465 Clear 29 1018 48 10000 1.79 228 15:57 05.06.2021
2466 Clear 27 1019 56 10000 2.24 190 14:21 05.06.2021
2467 Clouds 24 1020 62 10000 2.68 239 11:55 05.06.2021
2468 Clouds 24 1020 61 10000 2.24 216 11:29 05.06.2021
2469 Clouds 20 1020 76 10000 0.97 41 09:23 05.06.2021
2470 Clouds 18 1019 79 10000 2.06 160 07:47 05.06.2021
2471 Clear 23 1019 64 10000 3.09 220 23:42 04.06.2021
2472 Clear 25 1017 57 10000 2.57 240 22:22 04.06.2021
2473 Clear 26 1016 57 10000 2.24 243 21:27 04.06.2021
2474 Clear 28 1016 52 10000 1.79 251 20:22 04.06.2021
2475 Clear 28 1016 49 10000 1.79 233 18:30 04.06.2021
2476 Clear 28 1016 46 10000 1.34 234 17:20 04.06.2021
2477 Clear 29 1017 45 10000 1.34 279 15:40 04.06.2021
2478 Clear 25 1019 57 10000 1.34 66 12:40 04.06.2021
2479 Clear 23 1019 60 10000 0.89 106 11:26 04.06.2021
2480 Clouds 17 1018 82 10000 0.45 313 07:52 04.06.2021
2481 Clear 17 1018 84 10000 1.54 170 06:25 04.06.2021
2482 Clear 23 1018 56 10000 3.09 220 23:52 03.06.2021
2483 Clear 25 1016 50 10000 5.14 220 21:56 03.06.2021
2484 Clear 27 1015 50 10000 2.24 257 20:29 03.06.2021
2485 Clear 27 1014 48 10000 3.13 230 19:51 03.06.2021
2486 Clouds 28 1014 46 10000 3.13 252 18:22 03.06.2021
2487 Clouds 28 1014 43 10000 2.68 237 16:43 03.06.2021
2488 Clear 27 1016 40 10000 1.34 178 14:55 03.06.2021
2489 Clear 25 1016 48 10000 1.34 244 12:59 03.06.2021
2490 Clear 22 1016 62 10000 0.45 104 10:19 03.06.2021
2491 Clear 20 1016 69 10000 0.45 105 09:50 03.06.2021
2492 Clear 18 1015 76 10000 1.34 342 08:35 03.06.2021
2493 Clear 20 1015 60 10000 4.63 220 00:24 03.06.2021
2494 Clear 23 1014 49 10000 5.14 220 22:55 02.06.2021
2495 Clear 27 1013 34 10000 5.66 220 21:34 02.06.2021
2496 Clear 27 1013 30 10000 5.66 220 20:52 02.06.2021
2497 Clear 29 1011 37 10000 2.68 244 19:56 02.06.2021
2498 Clear 29 1011 34 10000 2.24 200 17:35 02.06.2021
2499 Clear 29 1012 36 10000 1.79 186 16:35 02.06.2021
2500 Clear 26 1012 44 10000 1.79 229 13:58 02.06.2021
2501 Clear 23 1013 55 10000 0.89 157 12:25 02.06.2021
2502 Clear 20 1013 66 10000 1.34 83 10:56 02.06.2021
2503 Clear 20 1013 68 10000 1.34 47 10:37 02.06.2021
2504 Clear 18 1013 72 10000 1.34 9 09:44 02.06.2021
2505 Clear 16 1013 82 10000 2.06 70 08:44 02.06.2021
2506 Clear 15 1012 83 10000 0.45 218 07:56 02.06.2021
2507 Clear 15 1012 80 10000 1.03 0 04:23 02.06.2021
2508 Clear 16 1012 77 10000 1.54 200 03:24 02.06.2021
2509 Clear 22 1013 53 10000 2.24 244 21:54 01.06.2021
2510 Clear 23 1011 49 10000 2.68 225 20:50 01.06.2021
2511 Clear 25 1010 44 10000 2.68 239 19:45 01.06.2021
2512 Clear 25 1011 42 10000 2.68 252 17:29 01.06.2021
2513 Clouds 24 1012 43 10000 3.13 284 15:37 01.06.2021
2514 Clouds 22 1012 51 10000 2.68 257 13:20 01.06.2021
2515 Clouds 21 1013 53 10000 2.24 244 12:36 01.06.2021
2516 Clouds 21 1013 56 10000 2.68 267 11:38 01.06.2021
2517 Clouds 20 1012 57 10000 2.24 264 11:18 01.06.2021
2518 Clouds 19 1013 64 10000 2.68 242 10:21 01.06.2021
2519 Clouds 18 1012 69 10000 2.24 259 09:20 01.06.2021
2520 Clouds 18 1012 71 10000 2.68 259 07:49 01.06.2021
2521 Clouds 18 1011 75 10000 2.24 252 04:58 01.06.2021
2522 Clouds 19 1012 78 10000 3.58 262 23:42 31.05.2021
2523 Clouds 19 1012 78 10000 2.68 271 23:21 31.05.2021
2524 Clouds 20 1011 75 10000 3.13 268 22:29 31.05.2021
2525 Clouds 21 1011 70 10000 3.58 262 21:22 31.05.2021
2526 Clear 23 1010 67 10000 4.47 247 20:24 31.05.2021
2527 Clear 25 1010 61 10000 4.47 259 19:23 31.05.2021
2528 Clear 27 1010 53 10000 4.47 268 17:56 31.05.2021
2529 Clear 28 1010 52 10000 2.68 215 16:55 31.05.2021
2530 Clouds 29 1011 46 10000 2.24 271 15:58 31.05.2021
2531 Clear 27 1011 46 10000 1.79 215 13:53 31.05.2021
2532 Clouds 26 1011 50 10000 0.89 282 13:22 31.05.2021
2533 Clouds 25 1013 55 10000 2.57 210 12:35 31.05.2021
2534 Clear 24 1012 59 10000 0.45 229 11:48 31.05.2021
2535 Clear 22 1012 69 10000 1.34 275 10:41 31.05.2021
2536 Clear 21 1012 74 10000 1.34 277 09:40 31.05.2021
2537 Clear 20 1012 72 10000 0.89 298 08:30 31.05.2021
2538 Clear 20 1012 69 10000 0.89 325 07:53 31.05.2021
2539 Clear 20 1012 67 10000 0.89 306 07:34 31.05.2021
2540 Clear 24 1013 50 10000 2.24 238 00:51 31.05.2021
2541 Clear 25 1012 51 10000 1.79 237 23:23 30.05.2021
2542 Clear 26 1012 48 10000 0.89 255 22:43 30.05.2021
2543 Clear 27 1011 50 10000 1.79 236 22:23 30.05.2021
2544 Clear 28 1012 45 10000 1.79 223 21:42 30.05.2021
2545 Clear 29 1011 43 10000 1.34 223 21:18 30.05.2021
2546 Clear 29 1011 41 10000 1.79 218 20:39 30.05.2021
2547 Clear 31 1011 41 10000 1.79 235 19:51 30.05.2021
2548 Clear 31 1011 40 10000 1.34 220 19:19 30.05.2021
2549 Clear 32 1011 37 10000 0.89 223 18:20 30.05.2021
2550 Clear 32 1013 32 10000 3.09 230 17:18 30.05.2021
2551 Clear 31 1013 30 10000 2.06 280 16:39 30.05.2021
2552 Clear 31 1014 29 10000 2.57 270 15:52 30.05.2021
2553 Clear 31 1013 37 10000 1.34 238 15:22 30.05.2021
2554 Clear 30 1013 38 10000 1.34 164 13:41 30.05.2021
2555 Clear 28 1013 46 10000 1.79 149 12:22 30.05.2021
2556 Clear 26 1013 54 10000 2.24 70 11:20 30.05.2021
2557 Clear 25 1013 60 10000 1.34 24 10:39 30.05.2021
2558 Clear 25 1013 60 10000 1.34 24 10:39 30.05.2021
2559 Clear 24 1013 63 10000 2.24 29 10:18 30.05.2021
2560 Clear 24 1013 63 10000 2.24 29 10:18 30.05.2021
2561 Clear 23 1013 67 10000 1.79 34 09:43 30.05.2021
2562 Clear 22 1013 69 10000 1.79 39 09:24 30.05.2021
2563 Clear 20 1014 72 10000 0.89 35 08:22 30.05.2021
2564 Clear 21 1013 71 10000 0.89 325 05:43 30.05.2021
2565 Clear 23 1017 60 10000 1.34 260 00:55 30.05.2021
2566 Clear 24 1017 56 10000 2.24 263 23:49 29.05.2021
2567 Clear 26 1014 53 10000 3.58 247 22:25 29.05.2021
2568 Clear 27 1015 49 10000 3.13 226 21:54 29.05.2021
2569 Clear 28 1014 47 10000 4.02 244 21:26 29.05.2021
2570 Clear 29 1014 45 10000 3.58 257 20:52 29.05.2021
2571 Clouds 30 1013 44 10000 4.47 240 20:34 29.05.2021
2572 Clouds 31 1013 41 10000 4.02 242 19:52 29.05.2021
2573 Clear 34 1013 33 10000 0.89 305 18:41 29.05.2021
2574 Clear 33 1013 34 10000 1.34 260 17:27 29.05.2021
2575 Clear 32 1014 36 10000 0.89 246 16:23 29.05.2021
2576 Clear 32 1015 39 10000 1.34 261 15:25 29.05.2021
2577 Clear 30 1015 42 10000 1.34 78 14:27 29.05.2021
2578 Clear 29 1016 46 10000 1.34 100 13:32 29.05.2021
2579 Clear 28 1017 48 10000 0.89 65 12:44 29.05.2021
2580 Clear 27 1017 51 10000 1.34 111 12:25 29.05.2021
2581 Clear 25 1017 56 10000 0.89 71 11:31 29.05.2021
2582 Clear 24 1017 61 10000 1.79 48 10:52 29.05.2021
2583 Clear 23 1017 65 10000 1.34 69 10:26 29.05.2021
2584 Clear 21 1017 69 10000 1.34 76 09:42 29.05.2021
2585 Clear 20 1017 73 10000 0.89 52 09:19 29.05.2021
2586 Clear 19 1016 78 10000 1.34 20 08:26 29.05.2021
2587 Clear 18 1016 80 10000 0.51 0 06:51 29.05.2021
2588 Clear 21 1015 64 10000 2.24 225 00:59 29.05.2021
2589 Clear 22 1015 60 10000 2.24 202 23:51 28.05.2021
2590 Clear 23 1014 58 10000 3.13 233 22:46 28.05.2021
2591 Clear 28 1015 47 10000 0.89 271 21:42 28.05.2021
2592 Clear 31 1012 37 10000 0.45 113 20:49 28.05.2021
2593 Clear 31 1012 37 10000 1.34 124 20:18 28.05.2021
2594 Clear 31 1012 38 10000 1.79 56 19:39 28.05.2021
2595 Clear 31 1012 39 10000 2.24 68 18:58 28.05.2021
2596 Clear 31 1012 38 10000 1.34 21 18:30 28.05.2021
2597 Clouds 30 1012 39 10000 1.79 146 17:38 28.05.2021
2598 Clouds 30 1013 38 10000 1.79 126 16:50 28.05.2021
2599 Clouds 29 1013 42 10000 1.79 126 16:23 28.05.2021
2600 Clouds 29 1013 46 10000 1.34 88 15:35 28.05.2021
2601 Clear 27 1014 49 10000 1.34 339 14:38 28.05.2021
2602 Clouds 27 1014 49 10000 0.89 59 13:49 28.05.2021
2603 Clear 25 1014 55 10000 0.89 95 13:22 28.05.2021
2604 Clear 25 1015 56 10000 0.45 179 12:44 28.05.2021
2605 Clear 25 1015 56 10000 0.45 179 12:44 28.05.2021
2606 Clear 23 1015 63 10000 0.89 12 11:49 28.05.2021
2607 Clear 22 1015 69 10000 1.34 38 11:24 28.05.2021
2608 Clear 21 1015 74 10000 1.34 40 10:35 28.05.2021
2609 Clear 19 1015 82 10000 1.79 81 09:36 28.05.2021
2610 Clear 19 1015 84 10000 1.79 76 09:18 28.05.2021
2611 Clear 18 1014 86 10000 0.89 55 08:44 28.05.2021
2612 Clear 17 1014 90 10000 0.89 350 07:52 28.05.2021
2613 Clear 17 1014 90 10000 0.89 19 07:34 28.05.2021
2614 Clear 17 1013 90 10000 1.79 358 06:45 28.05.2021
2615 Clear 18 1014 87 10000 0.89 83 05:25 28.05.2021
2616 Clear 19 1015 79 10000 0.45 230 23:59 27.05.2021
2617 Clear 19 1015 79 10000 0.89 235 23:38 27.05.2021
2618 Clouds 19 1014 81 10000 0.89 276 22:24 27.05.2021
2619 Clouds 19 1014 80 10000 1.34 256 21:53 27.05.2021
2620 Clouds 18 1014 82 10000 0.89 267 21:33 27.05.2021
2621 Clouds 19 1014 80 10000 1.34 174 20:52 27.05.2021
2622 Clouds 18 1015 88 10000 3.09 170 20:29 27.05.2021
2623 Clouds 18 1015 88 10000 4.12 230 19:32 27.05.2021
2624 Rain 19 1013 77 10000 4.16 252 18:50 27.05.2021
2625 Rain 20 1015 75 10000 3.09 220 18:29 27.05.2021
2626 Rain 20 1014 76 10000 2.24 175 17:35 27.05.2021
2627 Rain 21 1014 64 10000 0.89 260 16:59 27.05.2021
2628 Rain 21 1014 66 10000 1.79 217 16:35 27.05.2021
2629 Rain 22 1013 63 10000 0.45 199 15:52 27.05.2021
2630 Rain 21 1014 64 10000 0.89 126 15:20 27.05.2021
2631 Rain 21 1014 62 10000 0.89 3 14:46 27.05.2021
2632 Rain 21 1014 60 10000 0.45 307 14:24 27.05.2021
2633 Rain 21 1015 58 10000 1.03 0 13:51 27.05.2021
2634 Clear 21 1014 61 10000 0.45 313 13:19 27.05.2021
2635 Rain 21 1014 62 10000 0.89 6 12:55 27.05.2021
2636 Clear 21 1014 61 10000 0.45 317 12:37 27.05.2021
2637 Clear 21 1014 63 10000 0.89 327 12:19 27.05.2021
2638 Clear 20 1014 65 10000 1.34 81 11:23 27.05.2021
2639 Clear 20 1014 66 10000 1.34 92 10:51 27.05.2021
2640 Clear 20 1014 68 10000 2.24 60 10:18 27.05.2021
2641 Clear 20 1014 69 10000 1.34 53 09:45 27.05.2021
2642 Clear 19 1014 71 10000 2.24 67 08:40 27.05.2021
2643 Clear 19 1014 72 10000 1.34 64 07:42 27.05.2021
2644 Clear 19 1014 73 10000 0.89 308 04:54 27.05.2021
2645 Clear 21 1014 67 10000 1.34 300 01:25 27.05.2021
2646 Clear 22 1014 61 10000 1.79 277 23:46 26.05.2021
2647 Clear 22 1014 60 10000 2.24 289 23:26 26.05.2021
2648 Clear 23 1014 55 10000 3.13 269 22:46 26.05.2021
2649 Clear 23 1014 55 10000 3.13 269 22:46 26.05.2021
2650 Clear 24 1014 52 10000 3.13 255 22:21 26.05.2021
2651 Clear 25 1014 45 10000 3.13 317 21:40 26.05.2021
2652 Clear 25 1013 46 10000 4.02 269 21:22 26.05.2021
2653 Clear 27 1012 41 10000 4.02 252 20:45 26.05.2021
2654 Clouds 28 1012 38 10000 3.13 266 20:25 26.05.2021
2655 Clouds 29 1012 36 10000 3.58 259 19:55 26.05.2021
2656 Clear 31 1012 30 10000 1.34 269 19:36 26.05.2021
2657 Clear 32 1012 24 10000 1.34 300 18:53 26.05.2021
2658 Clear 32 1012 24 10000 0.89 272 18:21 26.05.2021
2659 Clear 31 1013 25 10000 1.34 245 17:30 26.05.2021
2660 Clear 31 1013 25 10000 1.34 249 16:46 26.05.2021
2661 Clear 30 1013 26 10000 1.34 161 16:20 26.05.2021
2662 Clear 30 1014 27 10000 1.79 238 15:50 26.05.2021
2663 Clear 29 1014 28 10000 1.34 255 15:26 26.05.2021
2664 Clear 29 1016 24 10000 2.57 0 14:48 26.05.2021
2665 Clear 28 1015 29 10000 0.89 278 14:22 26.05.2021
2666 Clear 28 1015 29 10000 0.89 31 13:51 26.05.2021
2667 Clear 27 1016 31 10000 1.34 78 13:23 26.05.2021
2668 Clear 26 1016 32 10000 1.34 134 12:32 26.05.2021
2669 Clear 25 1016 32 10000 1.79 57 11:54 26.05.2021
2670 Clear 24 1016 33 10000 1.79 42 11:27 26.05.2021
2671 Clear 23 1016 36 10000 1.34 69 10:49 26.05.2021
2672 Clear 22 1017 38 10000 1.34 38 10:29 26.05.2021
2673 Clear 21 1017 41 10000 1.34 37 09:54 26.05.2021
2674 Clear 20 1017 44 10000 1.34 55 09:35 26.05.2021
2675 Clear 19 1017 46 10000 1.79 54 08:55 26.05.2021
2676 Clear 17 1017 50 10000 0.89 344 07:40 26.05.2021
2677 Clear 16 1017 52 10000 0.45 334 06:59 26.05.2021
2678 Clear 17 1017 50 10000 0.45 333 05:28 26.05.2021
2679 Clear 23 1018 25 10000 3.6 240 00:58 26.05.2021
2680 Clear 23 1017 27 10000 1.34 259 23:38 25.05.2021
2681 Clear 25 1017 22 10000 4.12 230 22:52 25.05.2021
2682 Clear 25 1017 26 10000 1.79 230 22:19 25.05.2021
2683 Clear 28 1016 23 10000 5.14 230 21:41 25.05.2021
2684 Clear 27 1015 24 10000 3.58 245 21:20 25.05.2021
2685 Clear 27 1015 24 10000 3.58 245 21:20 25.05.2021
2686 Clear 29 1014 24 10000 3.58 239 20:33 25.05.2021
2687 Clouds 31 1013 29 10000 4.02 242 19:43 25.05.2021
2688 Clouds 32 1013 24 10000 3.58 233 19:23 25.05.2021
2689 Clear 32 1013 19 10000 3.13 244 18:52 25.05.2021
2690 Clear 33 1014 18 10000 2.24 270 18:32 25.05.2021
2691 Clear 32 1014 19 10000 2.24 340 17:37 25.05.2021
2692 Clear 32 1014 18 10000 1.34 297 16:46 25.05.2021
2693 Clear 32 1015 18 10000 1.79 13 16:25 25.05.2021
2694 Clear 31 1015 20 10000 1.34 72 15:51 25.05.2021
2695 Clear 31 1017 19 10000 3.09 40 15:21 25.05.2021
2696 Clear 30 1016 24 10000 2.24 129 14:49 25.05.2021
2697 Clear 30 1016 25 10000 1.79 104 14:30 25.05.2021
2698 Clear 29 1017 27 10000 2.68 90 13:54 25.05.2021
2699 Clear 28 1018 32 10000 3.13 76 13:28 25.05.2021
2700 Clear 27 1018 36 10000 3.13 76 12:47 25.05.2021
2701 Clear 26 1018 38 10000 3.58 86 12:26 25.05.2021
2702 Clear 25 1018 41 10000 3.13 80 11:42 25.05.2021
2703 Clear 24 1018 43 10000 2.68 84 11:21 25.05.2021
2704 Clear 23 1019 47 10000 3.13 73 10:37 25.05.2021
2705 Clear 21 1019 51 10000 4.02 54 09:53 25.05.2021
2706 Clear 19 1019 54 10000 1.79 47 08:42 25.05.2021
2707 Clear 18 1018 59 10000 1.79 356 07:54 25.05.2021
2708 Clear 18 1019 60 10000 1.79 353 06:48 25.05.2021
2709 Clear 19 1020 57 10000 0.45 57 03:41 25.05.2021
2710 Clear 21 1021 50 10000 0.45 11 00:37 25.05.2021
2711 Clear 22 1021 46 10000 0.45 358 23:38 24.05.2021
2712 Clear 23 1020 43 10000 0.45 19 22:59 24.05.2021
2713 Clear 24 1019 42 10000 1.79 342 22:36 24.05.2021
2714 Clear 26 1020 42 10000 0.45 12 21:58 24.05.2021
2715 Clear 27 1018 36 10000 2.68 342 21:22 24.05.2021
2716 Clear 28 1018 35 10000 1.34 356 20:51 24.05.2021
2717 Clear 28 1017 33 10000 1.79 354 20:23 24.05.2021
2718 Clear 28 1017 32 10000 1.34 325 19:51 24.05.2021
2719 Clear 28 1018 33 10000 1.34 280 19:31 24.05.2021
2720 Clear 28 1018 33 10000 1.34 252 18:59 24.05.2021
2721 Clear 28 1018 33 10000 0.89 215 18:32 24.05.2021
2722 Clear 28 1018 34 10000 1.34 195 17:56 24.05.2021
2723 Clear 27 1018 36 10000 1.34 18 17:25 24.05.2021
2724 Clear 27 1019 34 10000 2.24 105 16:48 24.05.2021
2725 Clear 26 1019 36 10000 1.34 353 15:55 24.05.2021
2726 Clear 25 1020 36 10000 1.79 91 15:27 24.05.2021
2727 Clear 25 1021 33 10000 4.12 20 14:50 24.05.2021
2728 Clear 24 1021 38 10000 2.24 75 14:22 24.05.2021
2729 Clear 23 1021 36 10000 2.68 61 13:43 24.05.2021
2730 Clear 22 1022 41 10000 2.68 78 13:19 24.05.2021
2731 Clear 21 1022 43 10000 3.58 75 12:29 24.05.2021
2732 Clear 20 1022 44 10000 3.13 81 11:56 24.05.2021
2733 Clear 19 1023 45 10000 2.24 17 11:27 24.05.2021
2734 Clear 18 1023 47 10000 2.24 2 10:56 24.05.2021
2735 Clear 17 1022 48 10000 3.13 42 10:21 24.05.2021
2736 Clear 16 1023 54 10000 2.68 14 09:42 24.05.2021
2737 Clear 15 1023 55 10000 1.54 330 09:18 24.05.2021
2738 Clear 15 1022 59 10000 2.24 27 08:38 24.05.2021
2739 Clear 13 1022 59 10000 2.57 360 07:30 24.05.2021
2740 Clear 14 1021 57 10000 0.45 31 04:32 24.05.2021
2741 Clear 16 1021 49 10000 1.34 314 03:32 24.05.2021
2742 Clear 19 1020 38 10000 4.47 336 00:53 24.05.2021
2743 Clear 20 1020 32 10000 1.79 300 23:53 23.05.2021
2744 Clear 21 1020 29 10000 1.79 301 23:21 23.05.2021
2745 Clear 21 1019 27 10000 1.34 306 22:41 23.05.2021
2746 Clear 22 1018 26 10000 2.68 293 22:19 23.05.2021
2747 Clear 24 1018 23 10000 3.58 322 21:25 23.05.2021
2748 Clear 25 1017 22 10000 3.13 310 20:58 23.05.2021
2749 Clear 25 1016 21 10000 2.68 320 20:37 23.05.2021
2750 Clear 26 1016 21 10000 3.58 332 19:56 23.05.2021
2751 Clear 26 1015 21 10000 3.58 304 19:38 23.05.2021
2752 Clear 26 1015 20 10000 3.13 322 18:55 23.05.2021
2753 Clear 27 1015 19 10000 2.68 316 18:19 23.05.2021
2754 Clear 26 1015 20 10000 3.58 343 17:43 23.05.2021
2755 Clear 26 1015 21 10000 2.68 328 17:23 23.05.2021
2756 Clear 25 1014 24 10000 2.68 317 16:45 23.05.2021
2757 Clear 25 1014 25 10000 3.13 263 16:24 23.05.2021
2758 Clear 25 1014 25 10000 2.24 251 15:49 23.05.2021
2759 Clear 25 1015 27 10000 3.13 321 15:30 23.05.2021
2760 Clear 24 1015 29 10000 2.24 321 14:50 23.05.2021
2761 Clear 24 1015 30 10000 2.24 331 14:27 23.05.2021
2762 Clear 23 1015 33 10000 1.79 299 13:32 23.05.2021
2763 Clear 21 1016 37 10000 1.34 319 12:39 23.05.2021
2764 Clear 21 1015 38 10000 1.34 278 12:20 23.05.2021
2765 Clear 20 1016 41 10000 1.34 21 11:33 23.05.2021
2766 Clear 20 1016 41 10000 1.34 21 11:33 23.05.2021
2767 Clear 19 1015 44 10000 2.24 35 10:49 23.05.2021
2768 Clear 18 1014 47 10000 1.34 360 10:25 23.05.2021
2769 Clear 18 1014 47 10000 2.24 350 09:54 23.05.2021
2770 Clear 17 1014 50 10000 2.24 11 08:55 23.05.2021
2771 Clear 17 1013 51 10000 1.79 19 07:50 23.05.2021
2772 Clear 17 1014 50 10000 2.24 332 07:32 23.05.2021
2773 Clear 18 1013 50 10000 2.68 12 06:48 23.05.2021
2774 Clear 20 1014 33 10000 1.79 6 01:51 23.05.2021
2775 Clear 20 1014 33 10000 1.79 6 01:51 23.05.2021
2776 Clear 22 1014 32 10000 3.58 3 00:28 23.05.2021
2777 Clear 22 1013 32 10000 4.47 10 23:26 22.05.2021
2778 Clear 23 1013 30 10000 4.47 5 22:53 22.05.2021
2779 Clear 23 1013 28 10000 4.92 13 22:34 22.05.2021
2780 Clear 24 1012 25 10000 4.02 12 21:50 22.05.2021
2781 Rain 25 1012 23 10000 4.47 1 21:32 22.05.2021
2782 Clear 26 1012 20 10000 3.58 14 20:55 22.05.2021
2783 Clear 26 1012 20 10000 3.58 14 20:55 22.05.2021
2784 Clear 26 1012 19 10000 3.58 1 20:29 22.05.2021
2785 Clear 27 1011 19 10000 4.02 16 19:43 22.05.2021
2786 Clear 27 1011 18 10000 3.58 13 19:24 22.05.2021
2787 Clear 28 1011 18 10000 3.58 354 18:49 22.05.2021
2788 Clear 28 1011 18 10000 3.13 347 18:21 22.05.2021
2789 Clear 28 1011 20 10000 4.02 23 17:41 22.05.2021
2790 Clear 28 1011 20 10000 3.58 35 17:23 22.05.2021
2791 Clear 28 1012 19 10000 2.68 340 16:27 22.05.2021
2792 Clear 27 1012 19 10000 1.79 335 15:35 22.05.2021
2793 Clear 27 1013 22 10000 0.89 118 14:58 22.05.2021
2794 Clear 25 1013 24 10000 0.89 355 14:28 22.05.2021
2795 Clear 25 1014 20 10000 6.17 360 13:51 22.05.2021
2796 Clear 25 1014 26 10000 3.13 23 13:21 22.05.2021
2797 Clear 23 1014 34 10000 2.24 350 12:34 22.05.2021
2798 Clear 23 1014 34 10000 2.68 14 11:56 22.05.2021
2799 Clear 22 1014 34 10000 2.68 357 11:34 22.05.2021
2800 Clear 21 1014 43 10000 3.13 7 10:38 22.05.2021
2801 Clear 21 1014 43 10000 3.13 7 10:38 22.05.2021
2802 Clear 19 1014 53 10000 3.13 23 09:56 22.05.2021
2803 Clear 18 1014 58 10000 3.13 357 08:55 22.05.2021
2804 Clear 18 1013 61 10000 3.13 341 08:20 22.05.2021
2805 Clear 17 1013 63 10000 1.34 357 07:30 22.05.2021
2806 Clear 17 1014 70 10000 2.57 30 05:35 22.05.2021
2807 Clear 21 1014 62 10000 0.45 249 02:18 22.05.2021
2808 Clear 24 1013 47 10000 0.89 223 23:41 21.05.2021
2809 Clear 24 1013 44 10000 0.45 303 22:42 21.05.2021
2810 Clear 26 1011 42 10000 1.79 222 22:22 21.05.2021
2811 Clear 26 1012 40 10000 1.79 225 21:48 21.05.2021
2812 Clear 28 1011 37 10000 1.34 232 21:25 21.05.2021
2813 Clear 29 1011 33 10000 1.79 226 20:49 21.05.2021
2814 Clear 30 1011 31 10000 2.68 241 20:28 21.05.2021
2815 Clear 30 1011 32 10000 3.13 219 19:44 21.05.2021
2816 Clear 31 1011 31 10000 3.58 217 19:25 21.05.2021
2817 Clear 32 1012 27 10000 3.13 228 18:45 21.05.2021
2818 Clear 33 1012 23 10000 2.68 235 17:57 21.05.2021
2819 Clear 33 1012 23 10000 1.79 253 17:39 21.05.2021
2820 Clear 33 1012 26 10000 2.24 282 16:57 21.05.2021
2821 Clear 32 1013 27 10000 1.79 231 16:27 21.05.2021
2822 Clear 32 1013 28 10000 1.79 276 15:57 21.05.2021
2823 Clear 32 1013 29 10000 1.34 267 15:37 21.05.2021
2824 Clear 31 1014 31 10000 1.79 246 15:18 21.05.2021
2825 Clear 30 1014 38 10000 0.89 220 14:36 21.05.2021
2826 Clear 28 1015 43 10000 1.34 257 13:42 21.05.2021
2827 Clear 28 1015 45 10000 0.89 174 13:22 21.05.2021
2828 Clear 26 1016 50 10000 1.34 272 12:23 21.05.2021
2829 Clear 24 1016 55 10000 1.34 275 11:40 21.05.2021
2830 Clear 24 1016 56 10000 1.79 230 11:21 21.05.2021
2831 Clear 23 1016 58 10000 1.34 262 10:45 21.05.2021
2832 Clear 22 1016 64 10000 1.34 288 09:57 21.05.2021
2833 Clear 21 1016 67 10000 1.34 259 09:28 21.05.2021
2834 Clear 19 1016 75 10000 1.79 189 08:34 21.05.2021
2835 Clear 18 1016 78 10000 0.89 199 07:57 21.05.2021
2836 Clear 17 1016 82 10000 1.03 0 07:19 21.05.2021
2837 Clear 20 1015 72 10000 0.45 227 04:18 21.05.2021
2838 Clear 23 1018 58 10000 3.13 259 00:34 21.05.2021
2839 Clear 24 1018 57 10000 2.24 261 23:52 20.05.2021
2840 Clear 25 1018 53 10000 1.34 266 23:24 20.05.2021
2841 Clear 27 1017 44 10000 4.63 280 22:56 20.05.2021
2842 Clear 28 1016 42 10000 4.12 270 22:36 20.05.2021
2843 Clear 30 1016 32 10000 2.57 300 21:55 20.05.2021
2844 Clear 30 1016 39 10000 2.68 259 21:24 20.05.2021
2845 Clear 33 1016 17 10000 0.51 340 20:59 20.05.2021
2846 Clear 32 1015 33 10000 0.89 286 20:33 20.05.2021
2847 Clear 33 1015 27 10000 0.89 341 19:51 20.05.2021
2848 Clear 33 1015 27 10000 0.89 28 19:29 20.05.2021
2849 Clear 33 1016 26 10000 0.89 330 18:49 20.05.2021
2850 Clear 33 1016 26 10000 0.89 303 18:30 20.05.2021
2851 Clear 32 1016 28 10000 1.34 288 17:47 20.05.2021
2852 Clear 32 1016 29 10000 0.89 229 17:28 20.05.2021
2853 Clear 31 1017 33 10000 0.89 64 16:40 20.05.2021
2854 Clear 31 1017 33 10000 1.34 323 16:20 20.05.2021
2855 Clear 31 1018 33 10000 1.34 109 15:40 20.05.2021
2856 Clear 30 1018 38 10000 1.34 252 15:21 20.05.2021
2857 Clear 29 1019 37 10000 3.09 310 15:21 20.05.2021
2858 Clear 29 1018 41 10000 1.34 269 14:28 20.05.2021
2859 Clear 28 1019 42 10000 1.34 209 13:59 20.05.2021
2860 Clear 28 1019 42 10000 1.34 209 13:59 20.05.2021
2861 Clear 28 1019 43 10000 1.34 194 13:35 20.05.2021
2862 Clear 27 1019 48 10000 0.89 186 12:49 20.05.2021
2863 Clear 25 1019 52 10000 0.89 258 12:20 20.05.2021
2864 Clear 25 1020 55 10000 1.34 68 11:58 20.05.2021
2865 Clear 24 1020 59 10000 1.34 272 11:21 20.05.2021
2866 Clear 23 1020 61 10000 0.89 344 10:51 20.05.2021
2867 Clear 23 1020 63 10000 0.89 282 10:28 20.05.2021
2868 Clear 22 1020 66 10000 1.34 7 09:54 20.05.2021
2869 Clear 21 1020 70 10000 0.89 3 09:36 20.05.2021
2870 Clear 21 1020 70 10000 0.45 337 09:18 20.05.2021
2871 Clear 19 1019 78 10000 1.34 295 08:41 20.05.2021
2872 Clear 19 1019 80 10000 0.89 292 08:20 20.05.2021
2873 Clear 18 1019 80 10000 0.89 288 07:46 20.05.2021
2874 Clear 19 1018 77 10000 0.89 315 06:55 20.05.2021
2875 Clear 19 1018 76 10000 1.34 328 06:37 20.05.2021
2876 Clear 20 1017 75 10000 1.79 278 05:27 20.05.2021
2877 Clear 21 1017 62 10000 1.79 246 03:24 20.05.2021
2878 Clear 23 1019 43 10000 3.09 180 00:53 20.05.2021
2879 Clear 24 1018 35 10000 1.54 60 23:56 19.05.2021
2880 Clear 26 1018 27 10000 1.54 20 23:26 19.05.2021
2881 Clear 26 1017 25 10000 0.51 0 22:57 19.05.2021
2882 Clear 29 1017 23 10000 2.06 350 22:38 19.05.2021
2883 Clear 29 1018 26 10000 2.06 350 22:18 19.05.2021
2884 Clear 30 1017 19 10000 1.54 20 21:41 19.05.2021
2885 Clear 32 1016 13 10000 2.57 30 21:21 19.05.2021
2886 Clear 33 1016 13 10000 2.57 30 20:57 19.05.2021
2887 Clear 33 1015 16 10000 1.79 53 20:25 19.05.2021
2888 Clear 33 1015 16 10000 1.79 80 19:49 19.05.2021
2889 Clear 34 1015 16 10000 1.79 44 19:25 19.05.2021
2890 Clear 34 1015 16 10000 0.89 43 18:50 19.05.2021
2891 Clear 34 1015 16 10000 2.24 50 18:31 19.05.2021
2892 Clear 33 1015 17 10000 0.89 29 17:53 19.05.2021
2893 Clear 33 1016 17 10000 1.79 52 17:21 19.05.2021
2894 Clear 33 1016 18 10000 2.24 352 16:48 19.05.2021
2895 Clear 32 1016 19 10000 1.79 9 16:27 19.05.2021
2896 Clear 31 1016 24 10000 1.34 345 15:45 19.05.2021
2897 Clear 31 1017 27 10000 2.24 29 15:18 19.05.2021
2898 Clear 30 1018 28 10000 3.6 50 14:41 19.05.2021
2899 Clear 29 1018 33 10000 1.79 23 13:55 19.05.2021
2900 Clear 29 1018 34 10000 2.24 357 13:36 19.05.2021
2901 Clear 27 1018 39 10000 2.24 50 12:58 19.05.2021
2902 Clear 27 1018 40 10000 2.24 74 12:38 19.05.2021
2903 Clear 27 1018 42 10000 2.24 96 12:19 19.05.2021
2904 Clear 25 1018 46 10000 2.24 57 11:41 19.05.2021
2905 Clear 25 1018 49 10000 3.13 59 11:22 19.05.2021
2906 Clear 25 1018 49 10000 3.13 59 11:22 19.05.2021
2907 Clear 24 1018 51 10000 2.24 85 10:55 19.05.2021
2908 Clear 23 1018 53 10000 2.24 70 10:36 19.05.2021
2909 Clear 21 1019 60 10000 2.68 43 09:51 19.05.2021
2910 Clear 21 1019 64 10000 2.68 42 09:23 19.05.2021
2911 Clear 21 1019 64 10000 2.68 42 09:23 19.05.2021
2912 Clear 20 1018 68 10000 1.79 3 08:53 19.05.2021
2913 Clear 19 1018 69 10000 2.68 353 08:34 19.05.2021
2914 Clear 19 1018 70 10000 2.24 3 07:48 19.05.2021
2915 Clear 18 1018 73 10000 2.24 1 06:49 19.05.2021
2916 Clear 19 1018 69 10000 2.24 354 05:52 19.05.2021
2917 Clear 21 1018 66 9000 0.45 56 03:43 19.05.2021
2918 Clear 24 1018 55 10000 2.68 1 00:44 19.05.2021
2919 Clear 25 1018 54 10000 3.13 9 00:24 19.05.2021
2920 Clear 26 1017 47 10000 3.58 3 23:29 18.05.2021
2921 Clear 26 1017 42 10000 1.79 348 22:54 18.05.2021
2922 Clear 27 1017 38 10000 2.68 5 22:26 18.05.2021
2923 Clear 28 1017 35 10000 2.68 337 21:54 18.05.2021
2924 Clear 30 1017 32 10000 3.58 348 21:35 18.05.2021
2925 Clear 31 1016 29 10000 2.68 352 20:51 18.05.2021
2926 Clear 32 1015 28 10000 1.79 332 20:20 18.05.2021
2927 Clear 32 1015 27 10000 1.34 317 19:56 18.05.2021
2928 Clear 33 1015 26 10000 1.79 301 19:38 18.05.2021
2929 Clear 33 1015 28 10000 1.79 336 19:18 18.05.2021
2930 Clear 33 1016 27 10000 0.45 276 18:41 18.05.2021
2931 Clear 32 1016 28 10000 1.34 304 18:23 18.05.2021
2932 Clear 32 1016 28 10000 1.79 284 17:38 18.05.2021
2933 Clear 31 1016 29 10000 1.34 15 16:52 18.05.2021
2934 Clear 31 1017 29 10000 1.34 260 16:27 18.05.2021
2935 Clear 31 1017 29 10000 1.34 117 15:46 18.05.2021
2936 Clear 30 1018 28 10000 1.79 146 15:25 18.05.2021
2937 Clear 30 1018 28 10000 1.34 309 14:47 18.05.2021
2938 Clear 29 1019 30 10000 1.79 357 14:22 18.05.2021
2939 Clear 28 1019 36 10000 1.34 51 13:22 18.05.2021
2940 Clear 26 1019 39 10000 1.79 345 12:30 18.05.2021
2941 Clear 26 1019 40 10000 1.34 351 11:50 18.05.2021
2942 Clear 25 1019 42 10000 0.89 33 11:30 18.05.2021
2943 Clear 24 1019 44 10000 1.79 53 10:50 18.05.2021
2944 Clear 24 1019 44 10000 1.79 53 10:50 18.05.2021
2945 Clear 22 1019 47 10000 1.79 25 10:28 18.05.2021
2946 Clear 21 1019 49 10000 2.24 5 09:50 18.05.2021
2947 Clear 21 1019 50 10000 2.24 46 09:30 18.05.2021
2948 Clear 21 1019 50 10000 2.24 46 09:30 18.05.2021
2949 Clear 19 1019 48 10000 2.06 10 08:26 18.05.2021
2950 Clear 18 1019 52 10000 2.06 340 07:54 18.05.2021
2951 Clear 17 1019 88 10000 0.51 350 07:35 18.05.2021
2952 Clear 19 1018 63 10000 2.06 140 04:34 18.05.2021
2953 Clear 21 1019 40 10000 2.57 330 02:27 18.05.2021
2954 Clear 22 1019 43 10000 2.06 310 01:45 18.05.2021
2955 Clear 23 1018 38 10000 2.57 350 00:28 18.05.2021
2956 Clear 23 1018 35 10000 2.06 350 23:57 17.05.2021
2957 Clear 24 1017 33 10000 2.57 320 23:22 17.05.2021
2958 Clear 25 1017 27 10000 2.57 340 22:59 17.05.2021
2959 Clear 26 1016 28 10000 2.06 340 22:39 17.05.2021
2960 Clear 26 1016 28 10000 2.06 340 22:20 17.05.2021
2961 Clear 27 1016 26 10000 2.57 330 21:47 17.05.2021
2962 Clear 29 1016 24 10000 2.57 330 21:19 17.05.2021
2963 Clear 30 1016 20 10000 3.09 350 20:39 17.05.2021
2964 Clear 31 1016 20 10000 3.09 350 20:20 17.05.2021
2965 Clear 31 1016 21 10000 3.09 350 19:41 17.05.2021
2966 Clear 30 1016 21 10000 3.09 350 19:21 17.05.2021
2967 Clear 30 1016 19 10000 4.63 350 18:45 17.05.2021
2968 Clear 30 1016 19 10000 4.63 350 18:26 17.05.2021
2969 Clear 30 1017 21 10000 4.12 360 17:45 17.05.2021
2970 Clear 30 1017 21 10000 4.12 360 17:26 17.05.2021
2971 Clear 30 1017 21 10000 4.63 20 16:46 17.05.2021
2972 Clear 30 1017 21 10000 4.63 20 16:19 17.05.2021
2973 Clear 30 1017 21 10000 4.63 20 15:28 17.05.2021
2974 Clear 29 1017 23 10000 3.6 360 14:56 17.05.2021
2975 Clear 29 1017 26 10000 4.63 360 14:36 17.05.2021
2976 Clear 29 1017 26 10000 4.63 360 14:18 17.05.2021
2977 Clear 28 1018 34 10000 3.6 30 13:30 17.05.2021
2978 Clear 27 1018 34 10000 3.09 320 12:42 17.05.2021
2979 Clear 26 1018 36 10000 3.09 20 12:22 17.05.2021
2980 Clear 25 1018 41 10000 2.57 30 11:42 17.05.2021
2981 Clear 24 1018 43 10000 3.6 30 11:21 17.05.2021
2982 Clear 23 1017 49 10000 4.12 20 10:48 17.05.2021
2983 Clear 22 1017 56 10000 2.06 0 10:25 17.05.2021
2984 Clear 21 1017 64 10000 2.57 10 09:33 17.05.2021
2985 Clear 20 1017 68 10000 2.06 350 08:37 17.05.2021
2986 Clear 19 1016 77 10000 2.06 360 07:58 17.05.2021
2987 Clear 18 1016 72 10000 2.06 360 07:25 17.05.2021
2988 Clear 19 1016 77 10000 2.06 50 06:21 17.05.2021
2989 Clear 20 1016 68 10000 0.51 0 03:40 17.05.2021
2990 Clear 22 1016 64 10000 2.57 340 02:27 17.05.2021
2991 Clear 23 1016 56 10000 3.09 350 00:47 17.05.2021
2992 Clear 24 1015 50 10000 4.63 340 23:52 16.05.2021
2993 Clear 24 1015 44 10000 3.09 340 23:23 16.05.2021
2994 Clear 25 1014 41 10000 3.09 350 22:45 16.05.2021
2995 Clear 26 1014 41 10000 3.09 350 22:27 16.05.2021
2996 Clear 27 1014 36 10000 4.12 350 21:47 16.05.2021
2997 Clear 29 1014 30 10000 4.63 340 21:27 16.05.2021
2998 Clear 30 1014 28 10000 5.66 340 20:50 16.05.2021
2999 Clear 30 1013 30 10000 5.66 360 20:24 16.05.2021
3000 Clear 31 1014 25 10000 4.12 360 19:57 16.05.2021
3001 Clear 31 1014 22 10000 3.09 340 19:24 16.05.2021
3002 Clear 32 1014 22 10000 5.66 320 18:57 16.05.2021
3003 Clear 32 1014 22 10000 3.6 320 18:38 16.05.2021
3004 Clear 32 1014 22 10000 3.6 320 18:19 16.05.2021
3005 Clear 32 1014 18 10000 3.6 310 17:41 16.05.2021
3006 Clear 32 1014 18 10000 3.6 310 17:22 16.05.2021
3007 Clear 32 1014 23 10000 3.09 10 16:54 16.05.2021
3008 Clouds 32 1012 26 10000 1.34 26 16:26 16.05.2021
3009 Clouds 31 1013 26 10000 1.79 336 15:53 16.05.2021
3010 Clear 30 1015 34 10000 2.57 320 15:27 16.05.2021
3011 Clear 30 1016 32 10000 2.06 0 14:58 16.05.2021
3012 Clear 29 1016 34 10000 2.57 330 14:37 16.05.2021
3013 Clear 29 1016 34 10000 2.57 330 14:18 16.05.2021
3014 Clear 28 1016 32 10000 2.06 40 13:43 16.05.2021
3015 Clear 27 1017 36 10000 2.06 30 13:19 16.05.2021
3016 Clear 27 1017 41 10000 2.57 30 12:52 16.05.2021
3017 Clear 26 1017 41 10000 3.6 10 12:30 16.05.2021
3018 Clear 25 1017 47 10000 2.57 340 11:52 16.05.2021
3019 Clear 25 1017 50 10000 1.54 10 11:32 16.05.2021
3020 Clear 23 1017 56 10000 2.06 20 10:47 16.05.2021
3021 Clear 22 1017 60 10000 2.06 40 10:28 16.05.2021
3022 Clear 21 1016 64 10000 3.6 20 09:47 16.05.2021
3023 Clear 21 1016 68 10000 2.57 40 09:25 16.05.2021
3024 Clear 20 1016 72 10000 2.06 40 08:44 16.05.2021
3025 Clear 18 1016 77 10000 2.57 50 08:23 16.05.2021
3026 Clear 17 1016 77 10000 2.57 70 07:32 16.05.2021
3027 Clear 18 1016 68 10000 3.6 40 06:48 16.05.2021
3028 Clear 22 1016 53 10000 2.57 340 01:43 16.05.2021
3029 Clear 23 1015 46 10000 2.06 350 00:41 16.05.2021
3030 Clear 24 1015 41 10000 3.09 350 23:38 15.05.2021
3031 Clear 24 1015 41 10000 3.09 350 23:19 15.05.2021
3032 Clear 26 1014 34 10000 3.09 350 22:34 15.05.2021
3033 Clear 26 1014 28 10000 4.12 350 21:58 15.05.2021
3034 Clear 29 1014 23 10000 3.09 360 21:31 15.05.2021
3035 Clear 31 1013 18 10000 3.09 360 20:57 15.05.2021
3036 Clear 32 1013 17 10000 3.6 360 20:27 15.05.2021
3037 Clear 33 1013 17 10000 4.63 360 19:56 15.05.2021
3038 Clear 33 1013 22 10000 3.09 350 19:30 15.05.2021
3039 Clear 33 1014 23 10000 2.57 280 18:23 15.05.2021
3040 Clear 32 1014 23 10000 3.09 340 17:49 15.05.2021
3041 Clear 32 1014 23 10000 1.03 310 17:22 15.05.2021
3042 Clear 32 1015 23 10000 2.57 280 16:39 15.05.2021
3043 Clear 31 1015 23 10000 2.57 280 16:20 15.05.2021
3044 Clear 31 1016 25 10000 2.57 310 15:55 15.05.2021
3045 Clear 29 1016 24 10000 2.57 250 14:52 15.05.2021
3046 Clear 29 1016 24 10000 0.51 310 14:29 15.05.2021
3047 Clear 28 1017 26 10000 1.54 40 13:50 15.05.2021
3048 Clear 27 1017 32 10000 1.03 230 13:21 15.05.2021
3049 Clear 25 1017 38 10000 2.06 20 12:20 15.05.2021
3050 Clear 24 1017 46 10000 2.06 30 11:41 15.05.2021
3051 Clear 22 1017 49 10000 3.09 30 10:54 15.05.2021
3052 Clear 20 1017 52 10000 2.06 50 09:58 15.05.2021
3053 Clear 18 1017 72 10000 1.03 0 08:54 15.05.2021
3054 Clear 17 1017 72 10000 1.03 0 07:58 15.05.2021
3055 Clear 16 1017 77 10000 1.54 60 07:25 15.05.2021
3056 Clear 16 1017 77 10000 1.54 120 06:53 15.05.2021
3057 Clear 16 1017 77 10000 1.54 120 06:53 15.05.2021
3058 Clear 17 1017 67 10000 2.06 60 06:34 15.05.2021
3059 Clear 19 1017 55 10000 2.57 60 04:20 15.05.2021
3060 Clear 20 1017 45 10000 1.54 330 00:51 15.05.2021
3061 Clear 20 1017 56 10000 0.51 0 23:48 14.05.2021
3062 Clear 22 1017 49 10000 1.03 210 22:45 14.05.2021
3063 Clear 23 1016 40 10000 0.51 0 22:24 14.05.2021
3064 Clear 25 1016 27 10000 1.54 10 21:32 14.05.2021
3065 Clear 27 1016 22 10000 2.57 40 20:59 14.05.2021
3066 Clear 27 1016 22 10000 2.57 40 20:59 14.05.2021
3067 Clear 28 1016 23 10000 2.57 360 20:34 14.05.2021
3068 Clear 28 1016 24 10000 2.06 0 19:50 14.05.2021
3069 Clear 28 1016 26 10000 1.03 310 19:31 14.05.2021
3070 Clear 28 1016 28 10000 1.03 290 18:56 14.05.2021
3071 Clear 28 1016 30 10000 1.54 340 18:32 14.05.2021
3072 Clear 28 1017 28 10000 1.54 340 17:48 14.05.2021
3073 Clear 27 1017 32 10000 2.06 330 17:25 14.05.2021
3074 Clear 27 1017 34 10000 3.09 340 16:48 14.05.2021
3075 Clear 26 1017 38 10000 2.06 340 16:29 14.05.2021
3076 Clear 25 1018 38 10000 4.12 30 15:54 14.05.2021
3077 Clear 24 1018 38 10000 4.12 30 14:59 14.05.2021
3078 Clear 24 1018 38 10000 4.12 30 14:59 14.05.2021
3079 Clear 23 1019 40 10000 3.6 0 14:40 14.05.2021
3080 Clear 22 1019 43 10000 3.09 30 13:45 14.05.2021
3081 Clear 21 1019 46 10000 2.57 30 13:26 14.05.2021
3082 Clear 21 1019 46 10000 1.54 0 12:35 14.05.2021
3083 Clear 20 1019 49 10000 2.57 330 11:55 14.05.2021
3084 Clear 19 1019 52 10000 2.57 10 11:25 14.05.2021
3085 Clear 18 1019 59 10000 3.09 50 10:39 14.05.2021
3086 Clear 18 1019 59 10000 3.09 50 10:20 14.05.2021
3087 Clear 17 1018 67 10000 2.57 0 09:42 14.05.2021
3088 Clear 16 1018 67 10000 2.57 0 09:24 14.05.2021
3089 Clear 15 1018 72 10000 1.03 0 08:34 14.05.2021
3090 Clear 13 1017 87 10000 0.51 0 07:35 14.05.2021
3091 Clear 13 1017 82 10000 0.51 0 06:43 14.05.2021
3092 Clear 17 1018 63 10000 3.09 290 02:46 14.05.2021
3093 Clouds 19 1018 60 10000 4.12 310 01:18 14.05.2021
3094 Clear 19 1018 60 10000 4.63 310 00:24 14.05.2021
3095 Clear 20 1017 56 10000 5.14 320 23:37 13.05.2021
3096 Clear 20 1017 56 10000 5.14 320 23:18 13.05.2021
3097 Clear 22 1016 49 10000 3.6 330 22:41 13.05.2021
3098 Clear 22 1016 49 10000 3.6 330 22:41 13.05.2021
3099 Clear 23 1016 49 10000 3.6 330 22:22 13.05.2021
3100 Clear 24 1017 50 10000 2.68 334 21:41 13.05.2021
3101 Clear 24 1016 47 10000 4.02 336 21:22 13.05.2021
3102 Clear 25 1015 44 10000 2.68 326 20:46 13.05.2021
3103 Clear 27 1014 42 10000 3.13 307 19:59 13.05.2021
3104 Clear 27 1014 41 10000 1.79 314 19:38 13.05.2021
3105 Clear 27 1015 40 10000 3.13 331 19:19 13.05.2021
3106 Clear 27 1015 38 10000 2.68 329 18:45 13.05.2021
3107 Clear 28 1015 38 10000 3.58 322 18:22 13.05.2021
3108 Clear 27 1015 38 10000 1.34 252 17:48 13.05.2021
3109 Clear 27 1015 38 10000 1.79 317 17:27 13.05.2021
3110 Clear 27 1015 37 10000 2.68 278 16:55 13.05.2021
3111 Clear 26 1016 39 10000 2.24 303 16:20 13.05.2021
3112 Clear 25 1017 39 10000 1.79 273 15:56 13.05.2021
3113 Clear 25 1016 39 10000 1.34 258 15:36 13.05.2021
3114 Clear 25 1017 40 10000 1.79 272 15:18 13.05.2021
3115 Clear 24 1017 42 10000 1.34 340 14:41 13.05.2021
3116 Clear 23 1018 43 10000 1.34 196 14:21 13.05.2021
3117 Clear 23 1018 45 10000 1.34 303 14:21 13.05.2021
3118 Clear 22 1018 45 10000 1.34 319 13:44 13.05.2021
3119 Clear 21 1018 47 10000 1.79 3 13:25 13.05.2021
3120 Clear 21 1019 47 10000 1.34 4 12:43 13.05.2021
3121 Clear 19 1019 50 10000 2.24 10 12:21 13.05.2021
3122 Clear 19 1020 51 10000 1.79 355 11:42 13.05.2021
3123 Clear 18 1020 56 10000 1.79 42 10:59 13.05.2021
3124 Clear 17 1020 56 10000 1.34 41 10:39 13.05.2021
3125 Clear 16 1019 61 10000 1.34 41 09:57 13.05.2021
3126 Clear 15 1019 64 10000 1.34 31 09:30 13.05.2021
3127 Clear 15 1020 67 10000 1.79 18 08:43 13.05.2021
3128 Clear 14 1020 72 10000 1.79 356 08:20 13.05.2021
3129 Clear 13 1019 71 10000 0.89 33 07:36 13.05.2021
3130 Clear 13 1020 72 10000 1.54 30 05:57 13.05.2021
3131 Clear 15 1020 74 10000 0.89 310 02:57 13.05.2021
3132 Clear 16 1020 71 10000 0 0 02:32 13.05.2021
3133 Clear 18 1020 74 10000 1.34 307 23:54 12.05.2021
3134 Clear 18 1020 74 10000 0.89 275 23:26 12.05.2021
3135 Clear 19 1019 72 10000 2.68 255 22:26 12.05.2021
3136 Clear 19 1019 70 10000 2.24 296 21:56 12.05.2021
3137 Clear 21 1018 66 10000 3.13 257 21:25 12.05.2021
3138 Clear 22 1018 62 10000 3.13 252 20:51 12.05.2021
3139 Clear 23 1018 60 10000 3.58 259 20:20 12.05.2021
3140 Clouds 23 1018 57 10000 3.13 273 19:38 12.05.2021
3141 Clear 25 1018 47 10000 2.24 264 18:34 12.05.2021
3142 Clear 25 1018 43 10000 0.89 268 17:58 12.05.2021
3143 Clear 25 1018 43 10000 2.24 266 17:40 12.05.2021
3144 Clear 25 1018 44 10000 2.24 288 17:22 12.05.2021
3145 Clouds 25 1019 43 10000 2.24 302 16:36 12.05.2021
3146 Clouds 24 1020 53 10000 1.03 0 15:50 12.05.2021
3147 Clear 23 1019 51 10000 2.24 314 15:30 12.05.2021
3148 Clouds 23 1021 49 10000 2.57 230 14:41 12.05.2021
3149 Clouds 22 1021 49 10000 2.57 230 14:22 12.05.2021
3150 Clear 22 1021 49 10000 2.06 340 13:44 12.05.2021
3151 Clouds 20 1022 45 10000 2.06 290 12:49 12.05.2021
3152 Clouds 19 1022 45 10000 1.54 0 12:27 12.05.2021
3153 Clear 18 1022 52 10000 1.03 0 11:40 12.05.2021
3154 Clear 18 1022 52 10000 1.03 0 11:19 12.05.2021
3155 Clear 17 1022 59 10000 0.51 0 10:41 12.05.2021
3156 Clear 16 1022 72 10000 1.03 0 09:52 12.05.2021
3157 Clear 15 1022 82 10000 1.03 0 09:29 12.05.2021
3158 Clear 14 1022 87 10000 1.03 300 08:58 12.05.2021
3159 Clear 14 1021 87 10000 2.06 130 08:37 12.05.2021
3160 Clear 12 1021 100 10000 1.54 150 08:18 12.05.2021
3161 Clear 12 1021 87 10000 0.51 90 06:34 12.05.2021
3162 Clear 14 1022 77 10000 2.06 280 02:41 12.05.2021
3163 Clear 15 1023 63 10000 3.6 270 00:40 12.05.2021
3164 Clear 16 1022 59 10000 2.57 270 23:56 11.05.2021
3165 Clear 16 1022 59 10000 3.09 270 23:36 11.05.2021
3166 Clear 16 1022 59 10000 3.09 270 23:18 11.05.2021
3167 Clear 17 1022 48 10000 4.63 270 22:42 11.05.2021
3168 Clear 18 1022 48 10000 4.12 230 22:18 11.05.2021
3169 Clear 18 1022 48 10000 4.63 270 22:18 11.05.2021
3170 Clear 18 1022 48 10000 4.12 230 21:48 11.05.2021
3171 Clear 20 1021 45 10000 2.06 240 21:30 11.05.2021
3172 Clear 20 1021 33 10000 2.06 220 20:47 11.05.2021
3173 Clear 22 1021 33 10000 1.03 220 20:26 11.05.2021
3174 Clear 22 1021 30 10000 2.57 280 19:46 11.05.2021
3175 Clear 22 1021 30 10000 2.57 270 19:23 11.05.2021
3176 Clear 22 1021 30 10000 2.57 310 18:58 11.05.2021
3177 Clear 22 1021 33 10000 2.57 300 18:29 11.05.2021
3178 Clear 22 1021 30 10000 1.54 20 17:47 11.05.2021
3179 Clear 22 1022 33 10000 1.54 260 17:23 11.05.2021
3180 Clear 21 1022 35 10000 2.06 290 16:59 11.05.2021
3181 Clear 21 1023 42 10000 1.54 0 16:30 11.05.2021
3182 Clear 20 1023 42 10000 1.54 0 15:46 11.05.2021
3183 Clear 20 1023 42 10000 1.54 0 15:21 11.05.2021
3184 Clear 19 1023 40 10000 2.06 130 14:59 11.05.2021
3185 Clouds 19 1023 45 10000 1.54 240 14:41 11.05.2021
3186 Clouds 19 1023 45 10000 1.54 240 14:20 11.05.2021
3187 Clouds 19 1024 48 10000 2.06 0 13:41 11.05.2021
3188 Clouds 18 1024 48 10000 2.06 0 13:19 11.05.2021
3189 Clear 18 1024 55 10000 3.09 360 12:50 11.05.2021
3190 Clear 17 1024 55 10000 3.09 360 12:24 11.05.2021
3191 Clear 16 1023 59 10000 3.09 20 11:42 11.05.2021
3192 Clear 16 1023 59 10000 3.09 20 11:23 11.05.2021
3193 Clear 15 1023 59 10000 4.12 20 10:47 11.05.2021
3194 Clear 15 1023 63 10000 2.06 350 10:23 11.05.2021
3195 Clear 15 1023 63 10000 2.06 350 10:23 11.05.2021
3196 Clear 14 1023 67 10000 1.54 320 09:51 11.05.2021
3197 Clear 13 1023 76 10000 1.63 355 09:32 11.05.2021
3198 Clear 12 1022 87 10000 0.91 331 08:54 11.05.2021
3199 Clear 11 1022 93 10000 0.51 180 08:32 11.05.2021
3200 Clear 10 1022 93 10000 1.03 170 07:56 11.05.2021
3201 Clear 10 1021 87 10000 0.51 0 07:36 11.05.2021
3202 Clear 11 1021 87 10000 2.57 320 06:24 11.05.2021
3203 Clear 13 1019 67 10000 5.14 270 01:38 11.05.2021
3204 Clear 14 1019 63 10000 5.66 280 00:51 11.05.2021
3205 Clear 14 1018 63 10000 5.14 270 00:33 11.05.2021
3206 Clear 15 1017 72 10000 4.63 250 23:26 10.05.2021
3207 Clouds 15 1017 72 10000 5.14 250 22:55 10.05.2021
3208 Clouds 16 1016 67 10000 5.14 240 22:37 10.05.2021
3209 Clouds 16 1015 72 10000 3.09 230 22:18 10.05.2021
3210 Clouds 17 1015 67 10000 4.63 220 21:31 10.05.2021
3211 Clouds 17 1014 67 10000 4.63 240 20:56 10.05.2021
3212 Clouds 17 1014 67 10000 6.17 240 20:37 10.05.2021
3213 Clouds 16 1014 67 10000 6.17 240 20:19 10.05.2021
3214 Clouds 16 1014 55 10000 6.69 290 19:41 10.05.2021
3215 Rain 18 1014 55 10000 6.69 290 19:20 10.05.2021
3216 Clouds 18 1014 55 10000 9.26 290 18:52 10.05.2021
3217 Clouds 17 1013 48 10000 8.75 240 18:22 10.05.2021
3218 Clouds 19 1013 48 10000 8.23 250 17:43 10.05.2021
3219 Clouds 20 1013 45 10000 8.75 240 17:20 10.05.2021
3220 Clouds 19 1013 45 10000 8.23 240 16:45 10.05.2021
3221 Clouds 20 1013 45 10000 7.72 230 16:24 10.05.2021
3222 Clouds 19 1014 63 10000 1.03 0 15:33 10.05.2021
3223 Clouds 17 1014 63 10000 1.03 0 14:59 10.05.2021
3224 Clouds 15 1015 88 10000 0.51 0 14:40 10.05.2021
3225 Clouds 15 1015 88 10000 0.51 0 14:20 10.05.2021
3226 Rain 18 1014 55 10000 3.6 200 13:35 10.05.2021
3227 Clouds 18 1014 59 10000 3.09 200 12:48 10.05.2021
3228 Clouds 17 1014 67 10000 1.54 0 12:23 10.05.2021
3229 Clear 17 1014 63 10000 3.09 220 11:45 10.05.2021
3230 Clear 17 1014 63 10000 2.06 260 11:26 10.05.2021
3231 Clear 16 1014 77 10000 1.54 180 10:49 10.05.2021
3232 Clear 16 1014 77 10000 1.54 180 10:30 10.05.2021
3233 Clear 15 1014 82 10000 0.51 0 09:48 10.05.2021
3234 Clear 14 1015 94 10000 0.51 0 09:28 10.05.2021
3235 Clear 12 1014 100 10000 1.03 0 08:34 10.05.2021
3236 Clear 11 1014 100 10000 1.54 180 07:56 10.05.2021
3237 Clear 11 1013 100 10000 0.51 200 07:35 10.05.2021
3238 Clear 11 1013 93 10000 1.47 294 06:58 10.05.2021
3239 Clear 12 1013 87 10000 1.03 230 06:27 10.05.2021
3240 Clear 16 1012 82 10000 1.03 0 00:55 10.05.2021
3241 Clear 16 1012 77 10000 2.57 260 23:57 09.05.2021
3242 Clear 16 1011 72 10000 3.6 230 22:44 09.05.2021
3243 Clear 17 1011 68 10000 4.63 230 22:21 09.05.2021
3244 Clear 18 1010 68 10000 5.66 240 21:49 09.05.2021
3245 Clear 18 1010 63 10000 5.14 230 21:28 09.05.2021
3246 Clear 20 1010 60 10000 6.17 230 20:42 09.05.2021
3247 Clouds 20 1009 60 10000 6.69 230 20:21 09.05.2021
3248 Clouds 21 1009 64 10000 7.72 230 19:41 09.05.2021
3249 Clouds 21 1009 68 10000 8.23 220 19:20 09.05.2021
3250 Clouds 20 1009 73 10000 7.72 220 18:45 09.05.2021
3251 Clouds 20 1009 73 10000 6.69 220 18:23 09.05.2021
3252 Clouds 20 1007 76 10000 2.68 234 17:33 09.05.2021
3253 Clouds 20 1007 76 10000 2.68 234 17:33 09.05.2021
3254 Clouds 17 1010 94 10000 6.17 220 16:41 09.05.2021
3255 Clouds 17 1010 88 10000 5.14 220 16:23 09.05.2021
3256 Rain 15 1010 94 4000 7.72 240 15:23 09.05.2021
3257 Rain 17 1009 82 3000 9.77 220 14:53 09.05.2021
3258 Rain 18 1010 88 10000 6.17 210 14:24 09.05.2021
3259 Clouds 17 1010 63 8000 8.75 220 13:40 09.05.2021
3260 Rain 20 1010 49 10000 8.75 220 12:50 09.05.2021
3261 Clouds 20 1010 49 10000 7.72 220 12:23 09.05.2021
3262 Clouds 19 1010 63 10000 4.63 210 11:24 09.05.2021
3263 Clouds 19 1010 68 10000 4.63 220 10:55 09.05.2021
3264 Clouds 18 1010 67 10000 3.09 210 10:36 09.05.2021
3265 Clouds 17 1010 67 10000 2.57 240 09:42 09.05.2021
3266 Clouds 17 1010 72 10000 3.09 260 09:20 09.05.2021
3267 Clouds 16 1010 82 10000 4.63 220 08:48 09.05.2021
3268 Clouds 15 1010 82 10000 4.63 220 08:27 09.05.2021
3269 Clouds 15 1009 82 10000 3.6 220 07:42 09.05.2021
3270 Clouds 16 1010 77 10000 4.12 220 06:42 09.05.2021
3271 Clear 17 1010 59 10000 3.09 210 04:42 09.05.2021
3272 Clear 21 1011 43 10000 3.6 220 00:35 09.05.2021
3273 Clear 22 1011 40 10000 8.23 230 23:33 08.05.2021
3274 Clear 22 1009 30 10000 2.06 220 22:56 08.05.2021
3275 Clear 22 1008 33 10000 4.12 110 22:25 08.05.2021
3276 Clear 22 1009 43 10000 1.54 160 21:53 08.05.2021
3277 Clear 23 1010 38 10000 1.54 30 21:23 08.05.2021
3278 Rain 26 1011 18 10000 5.66 270 20:59 08.05.2021
3279 Rain 27 1011 18 10000 7.2 250 20:37 08.05.2021
3280 Clouds 27 1011 24 10000 6.69 250 19:45 08.05.2021
3281 Clear 28 1010 26 10000 4.63 240 19:22 08.05.2021
3282 Clear 29 1010 24 10000 5.14 230 18:51 08.05.2021
3283 Clear 29 1011 26 10000 5.66 240 18:26 08.05.2021
3284 Clear 29 1011 26 10000 6.17 230 17:46 08.05.2021
3285 Clear 30 1011 26 10000 6.17 240 16:49 08.05.2021
3286 Clear 30 1012 26 10000 5.66 260 16:28 08.05.2021
3287 Clear 29 1012 25 10000 3.6 220 15:45 08.05.2021
3288 Clear 29 1013 26 10000 3.6 220 15:23 08.05.2021
3289 Clear 28 1013 29 10000 3.6 230 14:30 08.05.2021
3290 Clear 27 1013 28 10000 3.09 200 13:59 08.05.2021
3291 Clear 26 1014 28 10000 1.54 310 13:26 08.05.2021
3292 Clear 25 1014 33 10000 0.51 360 12:42 08.05.2021
3293 Clear 25 1014 33 10000 0.51 360 12:24 08.05.2021
3294 Clear 24 1014 40 10000 1.95 190 11:39 08.05.2021
3295 Clear 21 1015 43 10000 1.03 0 10:57 08.05.2021
3296 Clear 21 1015 55 10000 1.03 0 10:38 08.05.2021
3297 Clear 20 1015 55 10000 1.03 0 10:19 08.05.2021
3298 Clear 19 1015 55 10000 1.03 0 09:46 08.05.2021
3299 Clear 18 1015 63 10000 1.03 0 09:26 08.05.2021
3300 Clear 16 1015 77 10000 0.51 40 08:24 08.05.2021
3301 Clear 16 1014 77 10000 1.32 59 07:40 08.05.2021
3302 Clear 16 1014 72 10000 1.54 40 06:42 08.05.2021
3303 Clear 17 1015 59 10000 0.51 170 04:40 08.05.2021
3304 Clear 20 1016 55 10000 1.32 224 01:41 08.05.2021
3305 Clear 20 1016 49 10000 0.51 210 00:41 08.05.2021
3306 Clear 22 1016 37 10000 2.06 200 23:56 07.05.2021
3307 Clear 24 1016 31 10000 2.57 220 23:24 07.05.2021
3308 Clear 24 1016 31 10000 2.06 240 22:46 07.05.2021
3309 Clear 27 1015 26 10000 4.63 280 21:55 07.05.2021
3310 Clear 28 1015 24 10000 2.06 320 21:32 07.05.2021
3311 Clear 30 1015 19 10000 2.57 340 20:57 07.05.2021
3312 Clear 30 1015 17 10000 3.09 350 20:39 07.05.2021
3313 Clear 30 1015 19 10000 2.57 350 19:59 07.05.2021
3314 Clear 31 1015 18 10000 2.57 300 19:34 07.05.2021
3315 Clear 31 1015 18 10000 2.57 210 18:59 07.05.2021
3316 Clear 31 1015 18 10000 1.54 340 18:40 07.05.2021
3317 Clear 31 1015 18 10000 1.54 340 18:19 07.05.2021
3318 Clear 31 1016 20 10000 1.03 30 17:23 07.05.2021
3319 Clear 31 1016 21 10000 2.06 330 16:51 07.05.2021
3320 Clear 30 1016 20 10000 1.03 290 16:32 07.05.2021
3321 Clear 30 1017 20 10000 3.09 280 15:50 07.05.2021
3322 Clear 29 1017 20 10000 3.09 280 15:32 07.05.2021
3323 Clear 29 1017 20 10000 3.09 280 14:55 07.05.2021
3324 Clear 29 1017 23 10000 1.54 0 14:29 07.05.2021
3325 Clear 28 1018 28 10000 2.06 0 13:51 07.05.2021
3326 Clear 27 1018 29 10000 3.09 30 13:20 07.05.2021
3327 Clear 26 1018 36 10000 3.09 10 12:39 07.05.2021
3328 Clear 26 1018 36 10000 3.09 10 12:20 07.05.2021
3329 Clear 24 1018 43 10000 2.57 30 11:46 07.05.2021
3330 Clear 23 1018 46 10000 2.57 10 11:20 07.05.2021
3331 Clear 21 1018 52 10000 2.57 60 10:41 07.05.2021
3332 Clear 21 1018 52 10000 2.57 60 10:21 07.05.2021
3333 Clear 19 1018 68 10000 2.57 20 09:34 07.05.2021
3334 Clear 17 1018 72 10000 2.06 360 08:52 07.05.2021
3335 Clear 16 1018 72 10000 1.54 350 08:30 07.05.2021
3336 Clear 15 1017 67 10000 1.54 350 07:18 07.05.2021
3337 Clear 16 1017 82 10000 1.54 80 06:28 07.05.2021
3338 Clear 16 1018 77 10000 0.51 160 03:34 07.05.2021
3339 Clear 21 1017 49 10000 0.51 220 23:45 06.05.2021
3340 Clear 24 1017 35 10000 3.6 270 22:42 06.05.2021
3341 Clear 25 1016 29 10000 3.09 260 22:19 06.05.2021
3342 Clear 27 1016 26 10000 3.09 260 21:39 06.05.2021
3343 Clear 27 1016 26 10000 3.09 260 21:39 06.05.2021
3344 Clear 29 1015 28 10000 4.12 250 20:37 06.05.2021
3345 Clear 29 1015 28 10000 4.12 250 20:37 06.05.2021
3346 Clear 29 1015 28 10000 4.12 250 20:19 06.05.2021
3347 Clear 30 1015 23 10000 4.12 270 19:46 06.05.2021
3348 Clear 30 1015 23 10000 3.6 230 19:20 06.05.2021
3349 Clear 30 1015 25 10000 4.12 310 18:49 06.05.2021
3350 Clear 30 1015 26 10000 3.6 300 18:29 06.05.2021
3351 Clear 30 1015 26 10000 4.63 280 17:49 06.05.2021
3352 Clear 30 1015 26 10000 3.09 280 17:23 06.05.2021
3353 Clear 30 1016 28 10000 2.57 260 16:51 06.05.2021
3354 Clear 30 1016 32 10000 3.09 0 16:33 06.05.2021
3355 Clear 29 1016 32 10000 3.09 0 15:55 06.05.2021
3356 Clear 29 1016 32 10000 3.09 0 15:36 06.05.2021
3357 Clear 28 1017 34 10000 1.54 0 14:59 06.05.2021
3358 Clear 28 1017 39 10000 1.54 260 14:23 06.05.2021
3359 Clear 27 1017 39 10000 2.06 230 13:44 06.05.2021
3360 Clear 26 1017 44 10000 2.06 0 13:20 06.05.2021
3361 Clear 26 1017 44 10000 2.06 0 13:20 06.05.2021
3362 Clear 24 1017 47 10000 2.06 0 12:37 06.05.2021
3363 Clear 24 1017 47 10000 2.06 0 12:19 06.05.2021
3364 Clear 22 1017 56 10000 0.51 0 11:42 06.05.2021
3365 Clear 22 1017 56 10000 0.51 0 11:19 06.05.2021
3366 Clear 21 1017 60 10000 1.54 230 10:44 06.05.2021
3367 Clear 20 1017 68 10000 1.03 0 10:23 06.05.2021
3368 Clear 19 1017 72 10000 0.51 0 09:42 06.05.2021
3369 Clear 18 1017 77 10000 0.51 0 09:22 06.05.2021
3370 Clear 15 1016 94 10000 0.98 69 08:34 06.05.2021
3371 Clear 15 1016 100 10000 1.54 140 07:58 06.05.2021
3372 Clear 15 1016 94 10000 0.81 71 07:38 06.05.2021
3373 Clear 15 1015 88 10000 1.03 0 06:44 06.05.2021
3374 Clear 15 1015 88 10000 1.03 0 06:25 06.05.2021
3375 Clear 16 1015 82 10000 1.54 180 05:42 06.05.2021
3376 Clear 17 1015 77 10000 3.6 210 04:29 06.05.2021
3377 Clear 18 1016 63 10000 3.6 180 01:55 06.05.2021
3378 Clear 22 1014 43 10000 3.09 270 23:28 05.05.2021
3379 Clear 22 1014 46 10000 1.03 190 22:31 05.05.2021
3380 Clear 25 1013 33 10000 1.03 150 21:57 05.05.2021
3381 Clear 27 1013 26 10000 0.51 210 21:35 05.05.2021
3382 Clear 28 1013 28 10000 3.96 245 20:57 05.05.2021
3383 Clear 29 1013 23 10000 2.04 188 20:28 05.05.2021
3384 Clear 29 1013 23 10000 2.04 188 19:42 05.05.2021
3385 Clear 29 1013 23 10000 1.54 20 19:23 05.05.2021
3386 Clear 29 1013 23 10000 2.57 0 18:39 05.05.2021
3387 Clear 29 1014 23 10000 1.54 340 18:18 05.05.2021
3388 Clear 29 1014 23 10000 1.54 340 17:44 05.05.2021
3389 Clear 29 1014 26 10000 3.09 0 17:25 05.05.2021
3390 Clear 28 1014 26 10000 3.09 330 16:48 05.05.2021
3391 Clear 28 1015 28 10000 3.09 20 16:48 05.05.2021
3392 Clear 28 1015 28 10000 3.09 20 16:28 05.05.2021
3393 Clear 28 1015 34 10000 1.03 0 15:50 05.05.2021
3394 Clear 27 1015 34 10000 1.03 0 15:20 05.05.2021
3395 Clear 27 1015 34 10000 3.6 0 14:42 05.05.2021
3396 Clear 26 1016 34 10000 4.12 40 14:23 05.05.2021
3397 Clear 25 1016 44 10000 2.57 60 13:34 05.05.2021
3398 Clear 23 1016 49 10000 2.57 360 12:58 05.05.2021
3399 Clear 22 1016 53 10000 3.09 20 12:27 05.05.2021
3400 Clear 21 1016 64 10000 3.09 50 11:49 05.05.2021
3401 Clear 21 1016 64 10000 2.57 60 11:28 05.05.2021
3402 Clear 19 1016 72 10000 3.09 20 10:51 05.05.2021
3403 Clear 18 1016 72 10000 1.54 350 10:26 05.05.2021
3404 Clear 17 1016 77 10000 1.03 0 09:49 05.05.2021
3405 Clear 16 1016 94 10000 1.5 38 08:57 05.05.2021
3406 Clear 15 1016 88 10000 0.51 40 08:37 05.05.2021
3407 Clear 15 1016 88 10000 0.51 40 08:19 05.05.2021
3408 Clear 14 1015 94 10000 1.03 140 07:41 05.05.2021
3409 Clear 14 1015 94 10000 2.06 160 06:56 05.05.2021
3410 Clear 15 1015 88 10000 1.03 190 05:58 05.05.2021
3411 Clear 17 1015 77 10000 3.6 210 01:43 05.05.2021
3412 Clear 18 1015 64 10000 4.63 210 23:47 04.05.2021
3413 Clear 19 1014 56 10000 5.14 220 23:29 04.05.2021
3414 Clear 21 1014 52 10000 5.14 220 22:43 04.05.2021
3415 Clear 22 1014 46 10000 1.54 180 22:21 04.05.2021
3416 Clear 24 1014 38 10000 1.03 210 21:52 04.05.2021
3417 Clear 27 1013 34 10000 0.51 0 21:31 04.05.2021
3418 Clear 27 1013 34 10000 4.75 233 20:56 04.05.2021
3419 Clear 27 1013 32 10000 1.54 0 20:38 04.05.2021
3420 Clear 27 1013 32 10000 1.54 0 20:20 04.05.2021
3421 Clear 27 1014 32 10000 2.57 50 19:40 04.05.2021
3422 Clear 28 1014 32 10000 2.57 50 19:20 04.05.2021
3423 Clear 28 1014 32 10000 2.06 0 18:48 04.05.2021
3424 Clouds 27 1014 29 10000 2.06 80 18:20 04.05.2021
3425 Clouds 27 1014 32 10000 4.12 40 17:44 04.05.2021
3426 Clouds 27 1014 32 10000 3.6 10 17:21 04.05.2021
3427 Clouds 27 1015 31 10000 3.6 50 16:40 04.05.2021
3428 Clouds 26 1015 31 10000 3.6 50 16:21 04.05.2021
3429 Clear 26 1016 38 10000 4.63 80 15:26 04.05.2021
3430 Clear 25 1016 38 10000 4.63 80 14:47 04.05.2021
3431 Clear 24 1017 46 10000 4.12 30 13:50 04.05.2021
3432 Clear 23 1017 46 10000 2.06 50 13:26 04.05.2021
3433 Clear 22 1018 46 10000 3.6 30 12:58 04.05.2021
3434 Clear 22 1018 52 10000 2.57 70 12:39 04.05.2021
3435 Clear 21 1018 52 10000 2.57 70 12:19 04.05.2021
3436 Clear 20 1018 52 10000 4.12 20 11:41 04.05.2021
3437 Clear 20 1018 56 10000 3.09 10 11:21 04.05.2021
3438 Clear 17 1018 67 10000 3.09 30 10:40 04.05.2021
3439 Clear 17 1018 67 10000 3.09 30 10:21 04.05.2021
3440 Clear 15 1018 77 10000 3.6 40 09:27 04.05.2021
3441 Clear 14 1018 82 10000 2.06 60 08:57 04.05.2021
3442 Clear 14 1017 82 10000 2.57 20 08:35 04.05.2021
3443 Clear 13 1017 82 10000 2.06 360 07:56 04.05.2021
3444 Clear 13 1017 82 10000 2.57 350 07:34 04.05.2021
3445 Clear 13 1017 87 10000 1.03 30 06:28 04.05.2021
3446 Clear 13 1017 87 10000 1.03 30 06:28 04.05.2021
3447 Clear 14 1017 82 10000 0.51 0 05:35 04.05.2021
3448 Clear 14 1017 82 10000 1.03 10 03:51 04.05.2021
3449 Clear 16 1018 67 10000 1.54 240 00:51 04.05.2021
3450 Clear 18 1018 55 10000 3.09 210 23:44 03.05.2021
3451 Clear 18 1017 52 10000 2.57 190 23:24 03.05.2021
3452 Clear 20 1016 45 10000 3.6 210 22:33 03.05.2021
3453 Clear 20 1015 52 10000 1.03 240 21:55 03.05.2021
3454 Clear 20 1015 56 10000 1.54 120 21:37 03.05.2021
3455 Clear 22 1015 46 10000 1.03 0 21:18 03.05.2021
3456 Clear 22 1015 46 10000 1.03 0 20:41 03.05.2021
3457 Clear 22 1015 43 10000 2.06 20 20:23 03.05.2021
3458 Clear 23 1015 40 10000 2.57 350 19:43 03.05.2021
3459 Clear 22 1015 40 10000 4.12 340 19:24 03.05.2021
3460 Clear 22 1015 37 10000 4.12 350 18:28 03.05.2021
3461 Clear 22 1014 35 10000 3.6 360 17:52 03.05.2021
3462 Clear 23 1014 38 10000 4.12 360 17:25 03.05.2021
3463 Clear 23 1015 35 10000 3.09 350 16:51 03.05.2021
3464 Clear 22 1016 40 10000 3.6 40 16:19 03.05.2021
3465 Clear 23 1016 40 10000 3.6 40 16:19 03.05.2021
3466 Clear 22 1016 40 10000 3.6 40 15:47 03.05.2021
3467 Clear 22 1016 40 10000 3.09 30 14:56 03.05.2021
3468 Clear 22 1016 40 10000 2.57 60 14:20 03.05.2021
3469 Clear 21 1016 38 10000 2.57 20 13:51 03.05.2021
3470 Clear 21 1017 35 10000 3.6 20 13:29 03.05.2021
3471 Clear 21 1017 35 10000 3.6 20 13:29 03.05.2021
3472 Clear 20 1017 37 10000 3.6 10 12:51 03.05.2021
3473 Clear 20 1017 52 10000 3.09 20 12:25 03.05.2021
3474 Clear 18 1017 59 10000 2.06 360 11:43 03.05.2021
3475 Clear 17 1017 63 10000 2.06 0 11:23 03.05.2021
3476 Clear 16 1017 67 10000 1.54 0 10:47 03.05.2021
3477 Clear 15 1017 72 10000 1.54 20 10:29 03.05.2021
3478 Clear 14 1017 77 10000 1.54 360 09:53 03.05.2021
3479 Clear 13 1016 82 10000 1.54 360 09:20 03.05.2021
3480 Clear 12 1016 82 10000 2.57 360 08:40 03.05.2021
3481 Clear 12 1016 82 10000 2.57 360 08:19 03.05.2021
3482 Clear 12 1015 87 10000 1.03 0 07:35 03.05.2021
3483 Clear 12 1015 82 10000 0.51 0 06:26 03.05.2021
3484 Clear 12 1015 87 10000 0.51 0 05:53 03.05.2021
3485 Clear 15 1016 67 10000 1.54 220 01:37 03.05.2021
3486 Clear 16 1015 63 10000 3.09 280 00:19 03.05.2021
3487 Clear 16 1015 55 10000 3.09 310 23:25 02.05.2021
3488 Clear 16 1014 55 10000 3.09 310 22:49 02.05.2021
3489 Clear 17 1014 48 10000 3.17 275 22:30 02.05.2021
3490 Clear 20 1014 30 10000 1.03 0 21:56 02.05.2021
3491 Clear 21 1013 26 10000 1.03 0 21:33 02.05.2021
3492 Clear 21 1014 28 10000 1.03 0 20:45 02.05.2021
3493 Clear 22 1014 24 10000 1.03 0 20:22 02.05.2021
3494 Clear 22 1014 21 10000 2.06 0 19:40 02.05.2021
3495 Clear 23 1014 23 10000 2.57 350 19:21 02.05.2021
3496 Clear 22 1014 23 10000 2.57 350 18:44 02.05.2021
3497 Clear 22 1014 23 10000 2.57 350 18:44 02.05.2021
3498 Clear 22 1014 24 10000 1.54 320 18:25 02.05.2021
3499 Clear 22 1014 26 10000 2.57 320 17:47 02.05.2021
3500 Clear 22 1015 28 10000 2.06 250 17:28 02.05.2021
3501 Clear 22 1015 26 10000 3.09 270 16:58 02.05.2021
3502 Clear 22 1015 24 10000 1.03 0 16:39 02.05.2021
3503 Clear 21 1015 24 10000 1.03 0 16:18 02.05.2021
3504 Clear 21 1016 28 10000 1.54 270 15:41 02.05.2021
3505 Clear 21 1016 28 10000 1.54 270 15:22 02.05.2021
3506 Clear 20 1017 34 10000 1.54 280 14:37 02.05.2021
3507 Clear 20 1017 34 10000 2.06 330 13:58 02.05.2021
3508 Clear 19 1017 34 10000 2.06 250 13:40 02.05.2021
3509 Clear 19 1017 34 10000 2.06 250 13:19 02.05.2021
3510 Clouds 18 1018 37 10000 1.54 90 12:42 02.05.2021
3511 Clear 18 1018 42 10000 1.03 30 12:22 02.05.2021
3512 Clear 18 1018 42 10000 1.03 30 12:22 02.05.2021
3513 Clear 17 1018 48 10000 1.03 0 11:48 02.05.2021
3514 Clear 16 1018 51 10000 0.51 0 11:28 02.05.2021
3515 Clear 15 1018 54 10000 2.06 40 10:36 02.05.2021
3516 Clear 14 1018 54 10000 2.06 40 10:18 02.05.2021
3517 Clear 13 1018 67 10000 1.03 0 09:42 02.05.2021
3518 Clear 13 1018 67 10000 1.03 0 09:42 02.05.2021
3519 Clear 12 1018 76 10000 1.54 20 09:23 02.05.2021
3520 Clear 12 1017 76 10000 1.03 50 08:52 02.05.2021
3521 Clear 11 1017 81 10000 1.87 19 08:26 02.05.2021
3522 Clear 10 1017 81 10000 1.54 20 07:31 02.05.2021
3523 Clear 10 1017 87 10000 1.03 0 06:50 02.05.2021
3524 Clear 11 1017 93 10000 1.03 90 05:20 02.05.2021
3525 Clear 13 1017 76 10000 1.54 190 01:37 02.05.2021
3526 Clear 14 1017 72 10000 3.09 230 23:48 01.05.2021
3527 Clear 14 1017 67 10000 4.12 230 23:28 01.05.2021
3528 Clear 15 1017 63 10000 5.14 240 22:52 01.05.2021
3529 Clear 15 1016 59 10000 5.66 240 22:25 01.05.2021
3530 Clear 16 1016 55 10000 5.66 240 21:55 01.05.2021
3531 Clear 17 1016 48 10000 5.66 240 21:37 01.05.2021
3532 Clear 17 1016 48 10000 5.66 240 21:18 01.05.2021
3533 Clear 19 1015 30 10000 6.69 260 20:40 01.05.2021
3534 Clear 19 1015 30 10000 6.69 260 20:22 01.05.2021
3535 Clear 20 1015 30 10000 6.17 280 19:46 01.05.2021
3536 Clear 20 1015 30 10000 4.12 280 19:23 01.05.2021
3537 Clear 21 1015 26 10000 4.63 280 18:44 01.05.2021
3538 Clear 20 1014 30 10000 3.6 290 18:21 01.05.2021
3539 Clear 21 1015 32 10000 5.14 270 17:37 01.05.2021
3540 Clear 20 1015 32 10000 5.14 280 16:58 01.05.2021
3541 Clear 20 1015 32 10000 5.14 290 16:39 01.05.2021
3542 Clear 20 1015 32 10000 5.14 290 16:21 01.05.2021
3543 Clear 19 1015 37 10000 7.2 270 14:59 01.05.2021
3544 Clouds 18 1016 45 10000 5.66 260 13:59 01.05.2021
3545 Clouds 17 1016 45 10000 5.14 270 13:26 01.05.2021
3546 Clouds 16 1016 48 10000 5.14 250 12:52 01.05.2021
3547 Clouds 16 1016 48 10000 5.14 250 12:52 01.05.2021
3548 Clouds 16 1016 55 10000 4.12 260 12:25 01.05.2021
3549 Clouds 15 1016 55 10000 4.12 290 11:53 01.05.2021
3550 Clear 15 1016 58 10000 4.12 290 11:34 01.05.2021
3551 Clear 14 1016 58 10000 3.6 260 10:58 01.05.2021
3552 Clear 14 1016 54 10000 2.57 280 10:30 01.05.2021
3553 Clear 12 1016 62 10000 2.06 290 09:43 01.05.2021
3554 Clear 11 1015 62 10000 2.06 300 09:24 01.05.2021
3555 Clear 10 1015 81 10000 2.57 280 08:32 01.05.2021
3556 Clear 10 1014 81 10000 2.57 280 07:39 01.05.2021
3557 Clear 11 1013 71 10000 2.06 300 06:20 01.05.2021
3558 Clear 12 1013 76 10000 1.54 310 03:44 01.05.2021
3559 Clear 16 1012 51 10000 4.63 280 00:32 01.05.2021
3560 Clear 16 1012 55 10000 3.6 270 23:58 30.04.2021
3561 Clear 16 1011 48 10000 3.09 260 22:57 30.04.2021
3562 Clear 16 1011 45 10000 3.09 280 22:37 30.04.2021
3563 Clear 17 1011 45 10000 3.09 280 22:18 30.04.2021
3564 Clear 18 1010 39 10000 4.12 300 21:43 30.04.2021
3565 Clear 19 1010 37 10000 5.66 290 21:23 30.04.2021
3566 Clear 21 1009 32 10000 5.66 290 20:43 30.04.2021
3567 Clear 21 1009 32 10000 5.14 290 19:58 30.04.2021
3568 Clear 21 1009 32 10000 4.12 300 19:25 30.04.2021
3569 Clear 22 1009 35 10000 4.12 260 18:44 30.04.2021
3570 Clear 22 1009 33 10000 4.63 270 18:26 30.04.2021
3571 Clear 21 1009 37 10000 3.09 280 17:50 30.04.2021
3572 Clear 21 1009 40 10000 4.12 260 17:24 30.04.2021
3573 Clear 21 1009 37 10000 1.54 310 16:52 30.04.2021
3574 Clear 21 1010 37 10000 3.09 290 16:30 30.04.2021
3575 Clear 21 1010 42 10000 2.57 250 15:42 30.04.2021
3576 Clear 21 1010 42 10000 2.57 250 15:20 30.04.2021
3577 Clear 20 1010 42 10000 2.57 250 14:47 30.04.2021
3578 Clear 20 1011 45 10000 1.54 320 14:28 30.04.2021
3579 Clouds 19 1011 48 10000 1.03 0 13:53 30.04.2021
3580 Clear 19 1011 52 10000 1.54 250 13:34 30.04.2021
3581 Clear 19 1011 52 10000 1.54 330 12:46 30.04.2021
3582 Clear 18 1011 59 10000 1.54 360 12:26 30.04.2021
3583 Clear 17 1011 59 10000 1.03 0 11:44 30.04.2021
3584 Clear 15 1011 63 10000 1.03 0 11:21 30.04.2021
3585 Clear 14 1011 82 10000 1.54 80 10:40 30.04.2021
3586 Clear 14 1011 82 10000 1.54 80 10:21 30.04.2021
3587 Clear 13 1011 88 10000 1.03 40 09:36 30.04.2021
3588 Clear 13 1010 93 10000 1.03 0 08:53 30.04.2021
3589 Clear 12 1010 87 10000 1.03 0 07:59 30.04.2021
3590 Clear 12 1010 100 10000 0.51 330 07:31 30.04.2021
3591 Clear 12 1010 82 10000 1.54 80 06:53 30.04.2021
3592 Clear 12 1010 82 10000 1.54 30 06:25 30.04.2021
3593 Clear 12 1010 94 10000 1.03 70 05:40 30.04.2021
3594 Clear 13 1010 82 10000 1.54 240 02:58 30.04.2021
3595 Clear 13 1010 88 10000 0.79 327 01:45 30.04.2021
3596 Clear 15 1011 72 10000 2.06 290 00:26 30.04.2021
3597 Clear 15 1010 77 10000 2.06 210 23:26 29.04.2021
3598 Clear 15 1010 77 10000 2.06 210 22:44 29.04.2021
3599 Clear 16 1010 63 10000 2.06 260 22:23 29.04.2021
3600 Clear 17 1010 59 10000 3.6 250 21:45 29.04.2021
3601 Clear 18 1010 55 10000 4.12 250 21:26 29.04.2021
3602 Clear 18 1009 55 10000 4.63 250 20:55 29.04.2021
3603 Clear 19 1009 52 10000 4.12 250 20:37 29.04.2021
3604 Clear 19 1009 52 10000 4.12 250 20:18 29.04.2021
3605 Clear 20 1009 39 10000 2.06 320 19:42 29.04.2021
3606 Clear 20 1009 39 10000 2.06 320 19:21 29.04.2021
3607 Clear 20 1009 37 10000 2.57 300 18:43 29.04.2021
3608 Clear 20 1009 37 10000 3.6 320 18:21 29.04.2021
3609 Clear 20 1009 40 10000 4.63 320 17:46 29.04.2021
3610 Clear 20 1010 37 10000 5.66 300 17:19 29.04.2021
3611 Clear 21 1011 37 10000 4.63 280 16:44 29.04.2021
3612 Clear 21 1011 37 10000 4.63 280 16:23 29.04.2021
3613 Clear 20 1011 37 10000 4.63 280 15:50 29.04.2021
3614 Clear 20 1011 37 10000 4.63 280 15:26 29.04.2021
3615 Clear 20 1011 43 10000 4.12 290 14:46 29.04.2021
3616 Clear 20 1011 43 10000 4.12 290 14:46 29.04.2021
3617 Clear 20 1011 43 10000 4.12 290 14:46 29.04.2021
3618 Clear 20 1011 43 10000 4.12 290 14:46 29.04.2021
3619 Clear 20 1011 43 10000 4.12 290 14:46 29.04.2021
3620 Clear 20 1011 43 10000 4.12 290 14:46 29.04.2021
3621 Clear 20 1011 43 10000 4.12 290 14:46 29.04.2021
3622 Clear 20 1011 43 10000 4.12 290 14:46 29.04.2021
3623 Clear 20 1011 43 10000 4.12 290 14:46 29.04.2021
3624 Clear 20 1011 43 10000 4.12 290 14:46 29.04.2021
3625 Clouds 19 1011 45 10000 4.63 270 14:24 29.04.2021
3626 Clouds 19 1012 45 10000 4.12 260 13:46 29.04.2021
3627 Clouds 19 1012 49 10000 3.6 270 13:24 29.04.2021
3628 Clouds 18 1012 48 10000 4.12 260 12:44 29.04.2021
3629 Clouds 18 1012 45 10000 3.6 280 12:26 29.04.2021
3630 Clouds 17 1012 52 10000 1.54 0 11:48 29.04.2021
3631 Clouds 17 1011 59 10000 1.54 0 11:25 29.04.2021
3632 Clouds 16 1011 72 10000 3.6 300 10:52 29.04.2021
3633 Clouds 15 1011 72 10000 2.06 280 10:31 29.04.2021
3634 Clear 14 1011 82 10000 2.06 290 09:43 29.04.2021
3635 Clear 13 1011 88 10000 2.06 270 09:25 29.04.2021
3636 Clear 12 1011 93 10000 2.57 260 08:52 29.04.2021
3637 Clear 12 1010 93 10000 2.57 260 08:27 29.04.2021
3638 Clouds 11 1010 100 10000 1.54 220 07:48 29.04.2021
3639 Clouds 12 1010 88 10000 2.06 230 06:52 29.04.2021
3640 Clear 13 1010 88 10000 3.6 270 05:32 29.04.2021
3641 Clouds 15 1010 77 10000 4.12 220 00:54 29.04.2021
3642 Clouds 16 1010 77 10000 4.63 220 23:49 28.04.2021
3643 Clouds 16 1010 77 10000 4.63 220 23:49 28.04.2021
3644 Clouds 16 1009 72 10000 3.09 230 23:19 28.04.2021
3645 Clouds 16 1009 72 10000 3.09 230 22:39 28.04.2021
3646 Clouds 17 1009 72 10000 3.09 230 22:20 28.04.2021
3647 Clouds 18 1008 68 10000 4.63 220 21:38 28.04.2021
3648 Clouds 18 1008 68 10000 4.63 220 21:20 28.04.2021
3649 Clouds 19 1008 68 10000 3.6 240 20:42 28.04.2021
3650 Clouds 19 1008 63 10000 5.14 230 20:24 28.04.2021
3651 Clouds 20 1008 56 10000 6.69 240 19:47 28.04.2021
3652 Clouds 20 1008 52 10000 6.17 240 19:25 28.04.2021
3653 Clouds 20 1008 52 10000 6.69 240 18:51 28.04.2021
3654 Clouds 21 1008 49 10000 6.17 230 18:31 28.04.2021
3655 Clouds 21 1008 49 10000 7.2 220 17:49 28.04.2021
3656 Clouds 21 1008 52 10000 8.23 220 17:26 28.04.2021
3657 Clouds 21 1008 49 10000 6.17 220 16:49 28.04.2021
3658 Clouds 21 1008 49 10000 4.12 230 16:18 28.04.2021
3659 Clouds 21 1009 49 10000 3.6 240 15:46 28.04.2021
3660 Clouds 21 1009 49 10000 3.6 240 14:58 28.04.2021
3661 Clouds 21 1009 56 10000 3.6 260 14:39 28.04.2021
3662 Clouds 20 1009 56 10000 3.6 260 14:20 28.04.2021
3663 Clouds 20 1009 56 10000 3.6 260 13:38 28.04.2021
3664 Clouds 19 1009 56 10000 3.6 250 12:57 28.04.2021
3665 Clouds 19 1009 59 10000 3.09 240 12:39 28.04.2021
3666 Clouds 18 1009 72 10000 2.57 250 11:56 28.04.2021
3667 Clouds 18 1009 82 10000 2.06 210 11:33 28.04.2021
3668 Clouds 16 1009 82 8000 1.54 220 10:57 28.04.2021
3669 Clouds 16 1009 94 7000 1.54 0 10:39 28.04.2021
3670 Clouds 15 1008 94 5000 1.54 210 10:19 28.04.2021
3671 Clouds 14 1008 94 5000 1.54 210 09:41 28.04.2021
3672 Clouds 13 1008 94 9000 3.09 180 09:23 28.04.2021
3673 Clear 13 1008 94 10000 2.06 210 08:47 28.04.2021
3674 Clear 13 1007 94 10000 2.06 200 07:31 28.04.2021
3675 Clouds 13 1007 100 10000 0.51 250 06:40 28.04.2021
3676 Clouds 14 1007 94 9000 2.06 210 05:27 28.04.2021
3677 Clear 15 1008 94 10000 3.09 180 02:42 28.04.2021
3678 Clouds 15 1008 94 10000 2.57 200 01:36 28.04.2021
3679 Clouds 16 1008 88 10000 2.06 190 00:26 28.04.2021
3680 Clouds 17 1008 94 10000 2.06 230 23:42 27.04.2021
3681 Clouds 18 1008 94 10000 2.06 230 22:56 27.04.2021
3682 Clouds 18 1007 82 10000 3.09 230 22:37 27.04.2021
3683 Clouds 18 1007 82 10000 3.09 230 22:18 27.04.2021
3684 Clouds 18 1007 82 10000 3.09 230 21:42 27.04.2021
3685 Clouds 18 1007 82 10000 2.57 230 21:20 27.04.2021
3686 Clouds 18 1007 82 10000 2.57 220 20:47 27.04.2021
3687 Clouds 19 1007 82 10000 3.09 230 20:28 27.04.2021
3688 Clouds 19 1006 77 10000 5.66 220 19:45 27.04.2021
3689 Clouds 20 1006 77 10000 4.63 220 19:22 27.04.2021
3690 Clouds 19 1006 82 10000 3.6 210 18:50 27.04.2021
3691 Clouds 18 1006 77 10000 3.6 210 18:32 27.04.2021
3692 Clouds 18 1006 88 10000 2.06 200 17:43 27.04.2021
3693 Clouds 17 1006 88 10000 2.57 150 17:25 27.04.2021
3694 Rain 17 1006 77 10000 1.54 190 16:46 27.04.2021
3695 Rain 19 1005 56 10000 3.09 0 16:25 27.04.2021
3696 Rain 19 1005 56 10000 3.09 0 15:49 27.04.2021
3697 Rain 20 1005 56 10000 3.09 0 15:25 27.04.2021
3698 Clouds 21 1005 56 10000 3.09 240 14:52 27.04.2021
3699 Clouds 21 1005 60 10000 4.12 230 14:28 27.04.2021
3700 Clouds 21 1006 64 10000 2.57 250 13:58 27.04.2021
3701 Clouds 21 1006 64 10000 3.09 270 13:33 27.04.2021
3702 Clouds 20 1006 73 10000 1.54 310 12:45 27.04.2021
3703 Clouds 19 1006 82 10000 1.54 320 11:59 27.04.2021
3704 Clouds 18 1006 82 10000 1.38 257 11:34 27.04.2021
3705 Clouds 17 1006 88 10000 2.06 350 10:59 27.04.2021
3706 Clouds 17 1006 88 10000 1.03 0 10:32 27.04.2021
3707 Clouds 16 1006 88 10000 0.51 0 09:59 27.04.2021
3708 Clouds 16 1005 94 10000 0.51 0 09:39 27.04.2021
3709 Clouds 15 1005 94 10000 1.03 0 08:40 27.04.2021
3710 Clouds 15 1005 94 6000 1.54 170 07:53 27.04.2021
3711 Clouds 15 1005 94 5000 1.03 0 07:30 27.04.2021
3712 Clouds 15 1005 94 10000 3.09 180 06:41 27.04.2021
3713 Clouds 15 1005 94 10000 2.57 170 05:52 27.04.2021
3714 Rain 16 1007 94 9000 2.57 160 02:38 27.04.2021
3715 Clouds 17 1007 82 10000 4.12 180 00:38 27.04.2021
3716 Clouds 17 1007 82 10000 2.57 190 23:58 26.04.2021
3717 Clouds 17 1007 82 10000 2.57 190 23:25 26.04.2021
3718 Clouds 18 1007 82 10000 3.6 200 22:55 26.04.2021
3719 Clouds 18 1007 82 10000 3.6 210 22:32 26.04.2021
3720 Clouds 19 1006 72 10000 3.6 0 21:44 26.04.2021
3721 Clouds 18 1006 72 10000 3.6 0 21:24 26.04.2021
3722 Clouds 18 1006 72 10000 4.12 210 20:58 26.04.2021
3723 Clouds 18 1006 72 10000 6.17 220 20:38 26.04.2021
3724 Clouds 20 1005 68 10000 5.66 210 19:54 26.04.2021
3725 Clouds 20 1006 72 10000 6.17 210 19:35 26.04.2021
3726 Clouds 20 1005 77 10000 6.17 220 18:52 26.04.2021
3727 Clouds 19 1005 72 10000 5.14 200 18:33 26.04.2021
3728 Rain 20 1005 68 10000 7.72 220 17:53 26.04.2021
3729 Clouds 20 1005 82 10000 3.09 0 17:34 26.04.2021
3730 Clouds 21 1003 69 7152 4.02 225 16:54 26.04.2021
3731 Clouds 19 1006 88 10000 4.63 160 16:30 26.04.2021
3732 Clouds 20 1007 64 10000 6.17 190 15:59 26.04.2021
3733 Clouds 21 1007 64 10000 6.17 190 15:40 26.04.2021
3734 Clouds 21 1007 64 10000 6.17 190 15:20 26.04.2021
3735 Clouds 20 1007 64 10000 6.17 190 14:45 26.04.2021
3736 Clouds 22 1007 64 10000 5.14 200 14:25 26.04.2021
3737 Clouds 20 1007 68 10000 5.14 200 13:44 26.04.2021
3738 Clouds 20 1008 73 10000 3.6 0 13:23 26.04.2021
3739 Rain 17 1008 94 10000 3.09 190 12:34 26.04.2021
3740 Rain 17 1008 88 10000 2.57 180 11:44 26.04.2021
3741 Rain 17 1008 77 10000 4.63 190 11:22 26.04.2021
3742 Clouds 18 1008 82 10000 4.12 160 10:40 26.04.2021
3743 Clouds 17 1008 82 10000 4.12 160 10:19 26.04.2021
3744 Clouds 17 1008 82 10000 3.09 170 09:46 26.04.2021
3745 Clouds 16 1008 94 10000 1.54 170 09:22 26.04.2021
3746 Clouds 16 1008 94 10000 1.54 170 09:22 26.04.2021
3747 Clouds 16 1008 94 10000 1.54 170 09:22 26.04.2021
3748 Clouds 15 1008 100 10000 1.03 0 08:45 26.04.2021
3749 Clouds 14 1008 94 10000 1.54 170 08:20 26.04.2021
3750 Clouds 14 1008 94 10000 1.03 0 07:51 26.04.2021
3751 Clouds 14 1008 94 10000 1.03 130 07:19 26.04.2021
3752 Clouds 14 1008 94 10000 2.06 160 06:24 26.04.2021
3753 Clouds 15 1008 94 10000 1.54 130 04:42 26.04.2021
3754 Clouds 15 1008 94 9000 1.17 128 04:24 26.04.2021
3755 Clouds 15 1009 94 9000 1.54 240 02:23 26.04.2021
3756 Clouds 16 1009 88 10000 1.54 310 00:49 26.04.2021
3757 Clouds 16 1009 88 10000 1.54 340 00:26 26.04.2021
3758 Clouds 18 1009 82 10000 2.06 270 23:43 25.04.2021
3759 Clouds 17 1009 82 10000 2.06 270 23:24 25.04.2021
3760 Clouds 18 1009 82 10000 1.03 0 22:42 25.04.2021
3761 Clouds 17 1009 82 10000 1.54 320 22:20 25.04.2021
3762 Clouds 19 1008 72 10000 2.06 250 21:46 25.04.2021
3763 Clouds 18 1008 82 10000 2.57 130 21:27 25.04.2021
3764 Clouds 19 1007 72 10000 3.6 130 20:59 25.04.2021
3765 Clouds 21 1007 60 10000 4.12 180 20:39 25.04.2021
3766 Clouds 20 1007 60 10000 4.12 180 20:19 25.04.2021
3767 Clouds 21 1007 64 10000 2.57 160 19:39 25.04.2021
3768 Clouds 21 1007 64 10000 2.57 160 19:21 25.04.2021
3769 Clouds 22 1007 56 10000 2.57 200 18:45 25.04.2021
3770 Clouds 22 1007 56 10000 2.57 200 18:25 25.04.2021
3771 Clouds 22 1007 56 10000 3.09 200 17:43 25.04.2021
3772 Clouds 22 1007 53 10000 3.09 230 17:21 25.04.2021
3773 Clouds 21 1007 53 10000 3.09 220 16:44 25.04.2021
3774 Clouds 21 1008 56 10000 2.06 210 16:26 25.04.2021
3775 Clouds 21 1008 56 10000 2.06 210 15:53 25.04.2021
3776 Clouds 20 1008 56 10000 1.54 200 15:24 25.04.2021
3777 Clouds 20 1009 64 10000 1.03 0 14:31 25.04.2021
3778 Clouds 19 1009 64 10000 0.51 20 13:59 25.04.2021
3779 Clouds 19 1009 68 10000 2.06 330 13:27 25.04.2021
3780 Clouds 18 1009 68 10000 1.03 300 12:59 25.04.2021
3781 Clouds 18 1010 77 10000 0.51 0 12:40 25.04.2021
3782 Clouds 17 1010 77 10000 0.51 0 12:20 25.04.2021
3783 Clouds 17 1010 88 10000 1.03 0 11:38 25.04.2021
3784 Clouds 16 1010 88 10000 2.57 60 10:52 25.04.2021
3785 Rain 16 1009 88 10000 1.54 40 10:24 25.04.2021
3786 Clouds 15 1010 88 10000 2.06 50 09:53 25.04.2021
3787 Rain 15 1009 88 10000 2.06 60 09:27 25.04.2021
3788 Rain 15 1009 88 10000 0.51 0 08:56 25.04.2021
3789 Clear 15 1008 88 10000 1.03 0 07:51 25.04.2021
3790 Clear 15 1008 88 10000 0.51 0 07:22 25.04.2021
3791 Clear 15 1008 88 10000 0.51 0 07:22 25.04.2021
3792 Clear 15 1008 88 10000 1.03 0 06:59 25.04.2021
3793 Clear 15 1008 88 10000 1.03 0 06:19 25.04.2021
3794 Clear 15 1008 88 10000 1.03 0 06:19 25.04.2021
3795 Clear 15 1009 88 10000 0.51 0 04:46 25.04.2021
3796 Clear 16 1010 88 10000 2.06 80 02:47 25.04.2021
3797 Clear 17 1010 77 10000 3.09 70 01:38 25.04.2021
3798 Clouds 17 1011 72 10000 2.57 60 00:35 25.04.2021
3799 Clear 17 1011 72 10000 3.6 60 23:50 24.04.2021
3800 Clear 17 1011 72 10000 3.6 70 23:27 24.04.2021
3801 Clear 18 1011 68 10000 3.6 60 22:52 24.04.2021
3802 Clear 18 1011 68 10000 5.66 80 22:32 24.04.2021
3803 Clear 19 1010 63 10000 4.63 100 21:43 24.04.2021
3804 Clear 19 1010 63 10000 4.63 100 21:23 24.04.2021
3805 Clear 19 1010 63 10000 5.14 90 20:44 24.04.2021
3806 Clouds 20 1011 63 10000 4.12 90 20:26 24.04.2021
3807 Clouds 20 1010 52 10000 4.63 80 19:42 24.04.2021
3808 Clouds 21 1010 52 10000 4.12 100 19:21 24.04.2021
3809 Clouds 20 1010 60 10000 4.63 90 18:49 24.04.2021
3810 Clouds 20 1010 63 10000 2.57 90 18:27 24.04.2021
3811 Clouds 21 1011 63 10000 3.09 80 17:48 24.04.2021
3812 Clouds 20 1011 56 10000 4.63 90 17:23 24.04.2021
3813 Clouds 21 1011 59 10000 5.14 90 16:45 24.04.2021
3814 Clouds 21 1011 52 10000 5.66 80 16:25 24.04.2021
3815 Clear 22 1011 40 10000 1.54 60 15:35 24.04.2021
3816 Clear 22 1011 40 10000 2.57 70 14:41 24.04.2021
3817 Clear 22 1011 40 10000 2.57 90 14:23 24.04.2021
3818 Clear 22 1012 43 10000 2.06 10 13:40 24.04.2021
3819 Clear 21 1012 43 10000 2.57 330 12:59 24.04.2021
3820 Clear 21 1012 46 10000 2.06 290 12:19 24.04.2021
3821 Clear 20 1012 49 10000 2.57 300 11:49 24.04.2021
3822 Clear 19 1012 55 10000 3.09 230 11:22 24.04.2021
3823 Clear 19 1012 49 10000 3.6 120 10:47 24.04.2021
3824 Clear 17 1012 55 10000 3.09 100 10:21 24.04.2021
3825 Clear 16 1012 63 10000 2.06 90 09:46 24.04.2021
3826 Clear 14 1011 77 10000 2.57 70 08:50 24.04.2021
3827 Clear 13 1011 82 10000 1.03 0 07:36 24.04.2021
3828 Clear 14 1012 82 10000 0.51 0 05:50 24.04.2021
3829 Clear 16 1013 67 10000 2.06 350 01:48 24.04.2021
3830 Clear 18 1013 55 10000 1.54 240 00:32 24.04.2021
3831 Clear 20 1013 49 10000 1.54 180 22:57 23.04.2021
3832 Clear 20 1012 49 10000 3.09 160 22:37 23.04.2021
3833 Clear 20 1012 49 10000 3.09 160 22:18 23.04.2021
3834 Clear 21 1012 46 10000 3.6 150 21:41 23.04.2021
3835 Clear 21 1012 43 10000 4.12 160 21:23 23.04.2021
3836 Clear 23 1011 38 10000 5.66 150 20:41 23.04.2021
3837 Clear 23 1011 38 10000 5.66 150 20:19 23.04.2021
3838 Clear 24 1011 41 10000 4.12 170 19:47 23.04.2021
3839 Clear 24 1011 41 10000 4.12 170 19:27 23.04.2021
3840 Clear 25 1011 38 10000 2.57 0 18:47 23.04.2021
3841 Clear 26 1011 36 10000 1.54 150 18:27 23.04.2021
3842 Clear 26 1011 34 10000 2.57 50 17:47 23.04.2021
3843 Clear 26 1011 34 10000 2.57 50 17:47 23.04.2021
3844 Clear 26 1012 32 10000 1.54 200 17:28 23.04.2021
3845 Clear 26 1012 36 10000 3.09 210 16:57 23.04.2021
3846 Clear 25 1013 38 10000 1.54 0 16:32 23.04.2021
3847 Clear 25 1013 38 10000 1.54 0 15:45 23.04.2021
3848 Clouds 25 1013 44 10000 4.12 270 15:21 23.04.2021
3849 Clouds 24 1013 44 10000 2.06 310 14:21 23.04.2021
3850 Clear 23 1014 53 10000 2.06 100 13:38 23.04.2021
3851 Clear 22 1014 53 10000 2.06 100 12:42 23.04.2021
3852 Clear 22 1014 56 10000 1.03 0 12:19 23.04.2021
3853 Clear 20 1014 64 10000 2.06 60 11:46 23.04.2021
3854 Clear 19 1014 68 10000 2.06 20 11:24 23.04.2021
3855 Clear 18 1014 72 10000 2.57 20 10:43 23.04.2021
3856 Clear 16 1014 82 10000 1.54 10 10:22 23.04.2021
3857 Clear 16 1014 88 10000 2.06 30 09:39 23.04.2021
3858 Clear 14 1014 94 10000 1.54 320 08:48 23.04.2021
3859 Clear 14 1014 94 10000 1.54 350 08:25 23.04.2021
3860 Clear 14 1013 88 10000 2.06 30 07:34 23.04.2021
3861 Clear 15 1014 94 10000 2.06 20 06:46 23.04.2021
3862 Clear 14 1014 88 10000 2.06 130 05:23 23.04.2021
3863 Clear 15 1014 88 10000 1.54 160 02:58 23.04.2021
3864 Clear 16 1015 77 10000 3.6 220 00:40 23.04.2021
3865 Clear 16 1015 77 10000 3.09 220 23:49 22.04.2021
3866 Clear 18 1014 68 10000 5.14 220 22:44 22.04.2021
3867 Clear 18 1014 59 10000 5.14 220 22:21 22.04.2021
3868 Clear 18 1014 59 10000 5.14 220 22:21 22.04.2021
3869 Clear 19 1013 56 10000 5.66 220 21:48 22.04.2021
3870 Clear 20 1013 52 10000 5.14 220 21:29 22.04.2021
3871 Clear 21 1012 49 10000 6.69 220 20:59 22.04.2021
3872 Clear 22 1012 40 10000 3.6 210 20:41 22.04.2021
3873 Clear 22 1012 40 10000 3.6 210 20:20 22.04.2021
3874 Clear 23 1012 40 10000 4.12 230 19:43 22.04.2021
3875 Clouds 24 1012 35 10000 1.54 220 19:25 22.04.2021
3876 Clouds 24 1012 31 10000 4.63 220 18:42 22.04.2021
3877 Clouds 25 1012 31 10000 2.57 220 18:19 22.04.2021
3878 Clouds 24 1012 33 10000 3.6 220 17:38 22.04.2021
3879 Clouds 24 1012 33 10000 3.6 220 17:18 22.04.2021
3880 Clouds 24 1012 35 10000 3.6 210 16:46 22.04.2021
3881 Clear 24 1013 38 10000 1.54 0 16:26 22.04.2021
3882 Clear 24 1013 38 10000 1.54 0 15:47 22.04.2021
3883 Clear 23 1013 38 10000 1.54 0 15:22 22.04.2021
3884 Clouds 23 1013 40 10000 3.09 270 14:44 22.04.2021
3885 Clouds 22 1013 46 10000 2.06 10 14:26 22.04.2021
3886 Clouds 22 1014 56 10000 1.54 0 13:41 22.04.2021
3887 Clouds 21 1014 56 10000 1.54 0 13:22 22.04.2021
3888 Clouds 21 1014 56 10000 1.03 0 12:52 22.04.2021
3889 Clouds 21 1014 56 10000 2.06 110 12:30 22.04.2021
3890 Clouds 20 1014 68 10000 1.03 0 11:50 22.04.2021
3891 Clouds 19 1014 68 10000 1.03 0 11:26 22.04.2021
3892 Clouds 18 1013 82 10000 1.03 0 10:48 22.04.2021
3893 Clouds 18 1014 88 10000 1.03 0 10:30 22.04.2021
3894 Clouds 17 1013 94 10000 1.03 0 09:59 22.04.2021
3895 Clouds 16 1013 94 10000 0.51 0 09:34 22.04.2021
3896 Clouds 16 1013 100 10000 1.54 200 08:48 22.04.2021
3897 Clouds 15 1012 100 10000 1.03 0 08:23 22.04.2021
3898 Clouds 15 1012 100 10000 1.54 200 07:49 22.04.2021
3899 Clouds 15 1012 94 10000 1.54 190 07:31 22.04.2021
3900 Clouds 15 1012 94 10000 2.06 200 06:44 22.04.2021
3901 Clouds 15 1012 94 10000 2.57 210 06:18 22.04.2021
3902 Clouds 16 1012 82 10000 2.06 200 05:21 22.04.2021
3903 Clouds 15 1014 82 10000 2.06 190 02:24 22.04.2021
3904 Clouds 16 1014 72 10000 2.57 240 23:59 21.04.2021
3905 Clouds 16 1014 77 10000 4.12 220 23:39 21.04.2021
3906 Clouds 16 1014 77 10000 4.12 220 23:19 21.04.2021
3907 Clouds 17 1013 72 10000 4.12 220 22:40 21.04.2021
3908 Clouds 17 1013 72 10000 4.12 220 22:19 21.04.2021
3909 Rain 18 1012 63 10000 4.12 230 21:41 21.04.2021
3910 Clear 18 1012 63 10000 4.12 230 21:19 21.04.2021
3911 Clear 19 1012 59 10000 6.69 220 20:32 21.04.2021
3912 Clear 19 1012 59 10000 7.2 230 19:50 21.04.2021
3913 Clouds 20 1012 56 10000 7.72 220 19:28 21.04.2021
3914 Clouds 20 1011 52 10000 6.69 220 18:57 21.04.2021
3915 Clouds 21 1011 49 10000 7.2 220 18:39 21.04.2021
3916 Clouds 21 1011 49 10000 7.2 220 18:19 21.04.2021
3917 Clouds 21 1011 40 10000 3.6 250 17:43 21.04.2021
3918 Clouds 22 1012 40 10000 3.6 230 17:22 21.04.2021
3919 Clouds 22 1012 37 10000 3.6 240 16:40 21.04.2021
3920 Clouds 22 1013 40 10000 3.09 210 15:52 21.04.2021
3921 Clouds 21 1013 40 10000 4.12 230 15:26 21.04.2021
3922 Clouds 21 1013 45 10000 3.09 220 14:46 21.04.2021
3923 Clouds 21 1013 45 10000 1.54 280 14:27 21.04.2021
3924 Clouds 20 1014 49 10000 2.57 310 13:50 21.04.2021
3925 Clouds 20 1014 45 10000 0.51 180 13:23 21.04.2021
3926 Clouds 19 1014 48 10000 1.54 290 12:48 21.04.2021
3927 Clear 19 1014 52 10000 1.54 310 12:25 21.04.2021
3928 Clear 18 1014 59 10000 2.06 290 11:46 21.04.2021
3929 Clear 17 1014 63 10000 1.54 350 11:25 21.04.2021
3930 Clear 16 1014 72 10000 2.06 290 10:40 21.04.2021
3931 Clear 15 1014 67 10000 2.06 280 09:57 21.04.2021
3932 Clear 15 1014 72 10000 2.06 300 09:33 21.04.2021
3933 Clear 14 1014 82 10000 1.03 0 08:53 21.04.2021
3934 Clear 13 1013 87 10000 1.03 0 08:27 21.04.2021
3935 Clear 13 1012 87 10000 0.51 160 07:58 21.04.2021
3936 Clear 13 1012 87 10000 1.03 140 07:29 21.04.2021
3937 Clear 14 1012 82 10000 1.37 39 06:23 21.04.2021
3938 Clear 13 1013 76 10000 2.57 310 04:41 21.04.2021
3939 Clear 16 1013 72 10000 2.06 280 00:50 21.04.2021
3940 Clear 18 1014 63 10000 3.09 270 23:48 20.04.2021
3941 Clear 18 1013 59 10000 4.12 250 22:59 20.04.2021
3942 Clear 19 1013 60 10000 4.63 260 22:38 20.04.2021
3943 Clear 18 1013 60 10000 4.63 260 22:18 20.04.2021
3944 Clear 20 1012 56 10000 4.63 250 21:45 20.04.2021
3945 Clear 21 1012 43 10000 4.63 280 21:24 20.04.2021
3946 Clear 22 1012 40 10000 5.14 310 20:42 20.04.2021
3947 Clear 22 1012 35 10000 3.6 330 20:23 20.04.2021
3948 Clear 23 1012 37 10000 4.63 310 19:52 20.04.2021
3949 Clear 24 1012 35 10000 4.12 330 19:34 20.04.2021
3950 Clear 23 1012 35 10000 4.12 330 18:55 20.04.2021
3951 Clear 24 1012 38 10000 5.14 340 18:35 20.04.2021
3952 Clear 24 1012 35 10000 5.14 340 17:45 20.04.2021
3953 Clear 24 1013 38 10000 2.57 330 17:22 20.04.2021
3954 Clear 23 1013 38 10000 2.57 330 16:44 20.04.2021
3955 Clear 23 1014 43 10000 3.09 290 15:51 20.04.2021
3956 Clear 22 1014 43 10000 3.09 290 15:27 20.04.2021
3957 Clear 22 1014 43 10000 3.09 290 14:57 20.04.2021
3958 Clouds 22 1015 46 10000 3.09 250 14:28 20.04.2021
3959 Clouds 21 1015 49 10000 2.57 290 13:37 20.04.2021
3960 Clouds 21 1015 49 10000 2.57 290 13:18 20.04.2021
3961 Clear 20 1016 55 10000 2.06 250 12:40 20.04.2021
3962 Clear 19 1016 55 10000 2.06 250 12:19 20.04.2021
3963 Clear 18 1016 59 10000 2.06 360 11:40 20.04.2021
3964 Clear 18 1016 59 10000 2.06 360 11:20 20.04.2021
3965 Clear 17 1016 63 10000 2.06 350 10:42 20.04.2021
3966 Clear 16 1016 67 10000 2.06 350 10:22 20.04.2021
3967 Clear 14 1016 94 10000 0.96 52 09:22 20.04.2021
3968 Clear 14 1016 94 10000 0.96 52 08:54 20.04.2021
3969 Clear 13 1015 93 10000 1.13 33 08:19 20.04.2021
3970 Clear 12 1015 93 10000 0.51 310 07:39 20.04.2021
3971 Clear 13 1015 87 10000 1.03 0 06:36 20.04.2021
3972 Clear 13 1015 87 10000 1.03 130 05:37 20.04.2021
3973 Clear 14 1015 88 10000 0.51 50 04:41 20.04.2021
3974 Clear 16 1017 63 10000 3.09 200 00:53 20.04.2021
3975 Clear 16 1017 63 10000 2.57 190 00:28 20.04.2021
3976 Clear 18 1017 55 10000 2.06 220 23:36 19.04.2021
3977 Clear 19 1017 55 10000 2.57 250 22:56 19.04.2021
3978 Clear 19 1016 59 10000 3.6 220 22:32 19.04.2021
3979 Clear 20 1016 49 10000 5.14 230 21:48 19.04.2021
3980 Clear 20 1016 43 10000 5.14 230 21:28 19.04.2021
3981 Clear 22 1016 43 10000 4.63 240 20:46 19.04.2021
3982 Clear 22 1015 38 10000 5.14 240 20:24 19.04.2021
3983 Clear 23 1015 38 10000 5.66 240 19:59 19.04.2021
3984 Clear 23 1015 38 10000 5.14 230 19:40 19.04.2021
3985 Clear 24 1015 38 10000 5.14 230 19:21 19.04.2021
3986 Clear 24 1015 38 10000 5.66 230 18:45 19.04.2021
3987 Clear 24 1015 38 10000 6.17 260 18:21 19.04.2021
3988 Clear 24 1015 41 10000 5.14 230 17:50 19.04.2021
3989 Clear 25 1016 41 10000 6.17 250 17:27 19.04.2021
3990 Clear 25 1016 41 10000 5.66 220 16:49 19.04.2021
3991 Clear 24 1017 38 10000 3.09 0 16:31 19.04.2021
3992 Clear 25 1017 38 10000 3.09 0 15:44 19.04.2021
3993 Clear 24 1017 38 10000 3.09 0 15:25 19.04.2021
3994 Clear 23 1018 50 10000 2.06 0 14:53 19.04.2021
3995 Clear 23 1018 49 10000 2.57 290 14:34 19.04.2021
3996 Clear 22 1019 53 10000 2.06 0 13:53 19.04.2021
3997 Clear 21 1019 56 10000 1.03 0 13:30 19.04.2021
3998 Clear 20 1019 63 10000 1.03 0 12:56 19.04.2021
3999 Clear 19 1019 68 10000 1.54 230 12:36 19.04.2021
4000 Clear 18 1019 72 10000 1.03 0 12:18 19.04.2021
4001 Rain 18 1019 72 10000 1.03 0 11:49 19.04.2021
4002 Clear 17 1019 77 10000 0.51 0 11:20 19.04.2021
4003 Clear 16 1019 72 10000 1.03 0 10:44 19.04.2021
4004 Clear 16 1019 82 10000 0.51 0 10:20 19.04.2021
4005 Clear 15 1019 77 10000 0.51 0 09:43 19.04.2021
4006 Clear 15 1019 77 10000 0.51 0 09:43 19.04.2021
4007 Rain 14 1019 88 10000 0.51 70 09:24 19.04.2021
4008 Clear 13 1019 93 10000 0.51 140 08:41 19.04.2021
4009 Clear 13 1019 87 10000 1.54 160 07:50 19.04.2021
4010 Clear 13 1018 87 10000 1.03 160 07:26 19.04.2021
4011 Clear 14 1018 77 10000 0.51 0 06:52 19.04.2021
4012 Clear 15 1018 63 10000 2.06 190 05:30 19.04.2021
4013 Clear 14 1019 67 10000 1.03 140 01:50 19.04.2021
4014 Clear 17 1020 51 10000 1.54 250 00:42 19.04.2021
4015 Clear 19 1020 45 10000 1.54 260 23:22 18.04.2021
4016 Clear 20 1019 45 10000 4.12 300 22:58 18.04.2021
4017 Clear 20 1019 40 10000 2.57 310 22:34 18.04.2021
4018 Clear 22 1019 24 10000 1.03 0 21:57 18.04.2021
4019 Clear 23 1018 25 10000 1.03 140 21:29 18.04.2021
4020 Clear 25 1018 19 10000 1.03 0 20:55 18.04.2021
4021 Clear 25 1018 19 10000 1.03 0 20:55 18.04.2021
4022 Clear 25 1018 20 10000 0.51 110 20:37 18.04.2021
4023 Clear 25 1018 20 10000 0.51 110 20:19 18.04.2021
4024 Clear 25 1018 20 10000 1.03 80 19:41 18.04.2021
4025 Clear 26 1018 18 10000 1.03 190 19:21 18.04.2021
4026 Clear 25 1018 22 10000 1.54 350 18:45 18.04.2021
4027 Clear 25 1018 19 10000 2.06 90 18:26 18.04.2021
4028 Clear 25 1018 20 10000 2.57 0 17:47 18.04.2021
4029 Clear 25 1018 20 10000 2.57 0 17:28 18.04.2021
4030 Clear 24 1018 19 10000 1.54 70 16:53 18.04.2021
4031 Clear 24 1019 19 10000 2.06 60 16:35 18.04.2021
4032 Clear 24 1019 20 10000 3.09 40 15:51 18.04.2021
4033 Clear 24 1019 18 10000 1.54 30 15:28 18.04.2021
4034 Clear 23 1020 18 10000 3.09 10 14:54 18.04.2021
4035 Clear 23 1020 21 10000 1.54 110 14:36 18.04.2021
4036 Clear 23 1020 21 10000 1.54 110 14:18 18.04.2021
4037 Clear 22 1020 23 10000 3.6 80 13:38 18.04.2021
4038 Clear 22 1020 23 10000 3.6 80 13:19 18.04.2021
4039 Clear 20 1020 40 10000 4.12 70 12:33 18.04.2021
4040 Clear 19 1020 42 10000 3.6 60 11:45 18.04.2021
4041 Clear 17 1020 51 10000 2.57 50 11:22 18.04.2021
4042 Clear 16 1020 55 10000 2.57 60 10:51 18.04.2021
4043 Clear 15 1020 72 10000 1.03 0 10:32 18.04.2021
4044 Clear 14 1019 72 10000 1.03 0 09:57 18.04.2021
4045 Clear 13 1019 82 10000 2.06 50 09:38 18.04.2021
4046 Clouds 12 1018 76 10000 1.34 6 09:19 18.04.2021
4047 Clear 11 1019 87 10000 1.54 50 08:39 18.04.2021
4048 Clear 11 1019 87 10000 1.54 50 08:19 18.04.2021
4049 Clouds 11 1018 100 6000 1.54 50 07:39 18.04.2021
4050 Fog 12 1018 100 8000 0.51 0 05:45 18.04.2021
4051 Fog 12 1018 100 8000 1.03 0 05:24 18.04.2021
4052 Mist 13 1018 94 4100 1.54 160 03:26 18.04.2021
4053 Clear 14 1018 100 10000 2.57 140 02:22 18.04.2021
4054 Clear 16 1018 82 10000 1.81 26 00:41 18.04.2021
4055 Clear 17 1018 77 10000 3.09 270 23:40 17.04.2021
4056 Clear 18 1017 77 10000 2.06 250 22:59 17.04.2021
4057 Clear 19 1017 72 10000 2.57 230 22:39 17.04.2021
4058 Clear 19 1017 72 10000 2.57 230 22:20 17.04.2021
4059 Clear 19 1016 68 10000 4.12 230 21:38 17.04.2021
4060 Clear 20 1016 68 10000 4.12 230 21:19 17.04.2021
4061 Clouds 21 1015 56 10000 4.63 240 20:28 17.04.2021
4062 Clouds 22 1015 56 10000 7.2 230 19:46 17.04.2021
4063 Clouds 22 1015 49 10000 6.69 230 19:22 17.04.2021
4064 Clear 23 1015 31 10000 2.57 310 18:58 17.04.2021
4065 Clear 23 1015 31 10000 2.57 230 18:37 17.04.2021
4066 Clear 24 1015 29 10000 3.6 260 18:18 17.04.2021
4067 Clear 24 1016 29 10000 1.54 260 17:41 17.04.2021
4068 Clear 23 1016 31 10000 2.57 330 16:55 17.04.2021
4069 Clear 23 1016 33 10000 2.06 260 16:29 17.04.2021
4070 Clear 23 1016 28 10000 1.03 230 15:55 17.04.2021
4071 Clear 22 1017 43 10000 2.57 0 14:51 17.04.2021
4072 Clear 21 1017 49 10000 2.57 300 14:33 17.04.2021
4073 Clouds 20 1017 52 10000 1.54 340 13:50 17.04.2021
4074 Clouds 20 1018 63 10000 2.06 290 13:25 17.04.2021
4075 Clouds 19 1018 68 10000 1.03 90 12:42 17.04.2021
4076 Clouds 18 1018 77 10000 2.57 60 12:21 17.04.2021
4077 Clouds 17 1018 82 10000 3.09 20 11:50 17.04.2021
4078 Clouds 17 1018 82 10000 3.09 20 11:30 17.04.2021
4079 Clouds 16 1018 88 10000 2.57 10 10:46 17.04.2021
4080 Clouds 16 1018 94 8000 2.06 10 10:27 17.04.2021
4081 Clouds 16 1017 88 8000 2.06 10 09:44 17.04.2021
4082 Clouds 15 1017 88 10000 1.54 290 08:41 17.04.2021
4083 Clouds 15 1017 88 10000 1.54 250 08:22 17.04.2021
4084 Clouds 15 1016 94 10000 1.54 270 06:59 17.04.2021
4085 Clouds 14 1016 94 10000 2.57 200 03:56 17.04.2021
4086 Clear 15 1016 94 10000 2.57 200 03:38 17.04.2021
4087 Clear 15 1016 88 10000 3.6 210 00:49 17.04.2021
4088 Clear 16 1016 88 10000 3.09 210 00:29 17.04.2021
4089 Clear 17 1016 82 10000 3.09 260 23:48 16.04.2021
4090 Clear 16 1016 82 10000 4.12 260 23:25 16.04.2021
4091 Clear 17 1016 77 10000 6.69 270 22:50 16.04.2021
4092 Clear 18 1015 77 10000 3.09 250 22:22 16.04.2021
4093 Clear 18 1015 77 10000 3.09 250 22:22 16.04.2021
4094 Clear 18 1015 72 10000 3.09 270 21:51 16.04.2021
4095 Clear 18 1014 68 10000 4.63 270 21:30 16.04.2021
4096 Clear 20 1014 68 10000 4.63 260 20:50 16.04.2021
4097 Clouds 20 1014 64 10000 5.14 250 20:27 16.04.2021
4098 Clouds 21 1014 60 10000 4.12 250 19:55 16.04.2021
4099 Clouds 21 1014 53 10000 4.12 240 19:31 16.04.2021
4100 Clouds 22 1014 49 10000 3.6 270 18:46 16.04.2021
4101 Clouds 22 1014 46 10000 3.09 310 18:21 16.04.2021
4102 Clouds 22 1014 43 10000 1.54 230 17:45 16.04.2021
4103 Clouds 22 1014 46 10000 1.03 330 17:19 16.04.2021
4104 Clouds 22 1014 46 10000 1.54 120 16:43 16.04.2021
4105 Clouds 22 1015 60 10000 1.54 0 16:24 16.04.2021
4106 Clouds 21 1015 60 10000 1.54 0 15:48 16.04.2021
4107 Clouds 21 1015 60 10000 1.54 0 15:21 16.04.2021
4108 Clouds 20 1016 60 10000 1.03 0 14:42 16.04.2021
4109 Clouds 20 1016 60 10000 1.03 0 14:20 16.04.2021
4110 Clouds 20 1016 60 10000 1.03 0 13:50 16.04.2021
4111 Clouds 19 1016 68 10000 1.54 10 13:21 16.04.2021
4112 Clouds 18 1016 72 10000 2.06 70 12:48 16.04.2021
4113 Clouds 18 1016 72 10000 2.06 80 12:29 16.04.2021
4114 Clouds 17 1016 77 10000 2.06 20 11:55 16.04.2021
4115 Clouds 17 1016 77 10000 2.06 30 11:27 16.04.2021
4116 Clouds 16 1016 82 10000 2.57 50 10:56 16.04.2021
4117 Clouds 16 1016 88 10000 2.57 40 10:37 16.04.2021
4118 Clouds 15 1016 88 10000 2.57 40 10:19 16.04.2021
4119 Clouds 15 1015 94 10000 2.06 30 09:43 16.04.2021
4120 Clouds 14 1015 88 10000 3.09 30 09:20 16.04.2021
4121 Clouds 14 1015 88 10000 3.6 40 08:41 16.04.2021
4122 Clouds 14 1015 88 10000 3.6 40 08:18 16.04.2021
4123 Clouds 15 1014 94 10000 1.54 40 07:37 16.04.2021
4124 Clouds 15 1014 94 10000 2.57 40 06:59 16.04.2021
4125 Clouds 15 1014 94 10000 2.06 50 06:24 16.04.2021
4126 Clouds 15 1014 94 10000 1.54 80 04:23 16.04.2021
4127 Clouds 15 1015 94 10000 2.57 20 01:38 16.04.2021
4128 Clouds 15 1015 94 10000 1.54 40 00:42 16.04.2021
4129 Rain 15 1015 100 10000 1.54 60 00:20 16.04.2021
4130 Rain 16 1014 100 10000 0.62 309 23:42 15.04.2021
4131 Rain 16 1014 100 10000 0.62 309 23:42 15.04.2021
4132 Rain 16 1014 100 10000 0.71 261 23:23 15.04.2021
4133 Rain 16 1014 100 10000 0.71 261 22:47 15.04.2021
4134 Rain 16 1014 94 10000 1.03 0 22:23 15.04.2021
4135 Rain 17 1013 88 10000 1.54 40 21:43 15.04.2021
4136 Rain 17 1013 77 10000 2.57 20 21:24 15.04.2021
4137 Clouds 18 1012 77 10000 2.57 60 20:47 15.04.2021
4138 Clouds 18 1012 77 10000 2.57 60 20:25 15.04.2021
4139 Clouds 19 1012 77 10000 3.09 60 19:47 15.04.2021
4140 Clouds 19 1012 77 10000 3.6 60 19:28 15.04.2021
4141 Clouds 19 1012 88 10000 3.6 50 18:59 15.04.2021
4142 Clouds 19 1012 82 10000 4.63 20 18:37 15.04.2021
4143 Clouds 19 1012 82 10000 4.63 20 18:18 15.04.2021
4144 Clouds 20 1012 64 10000 3.09 340 17:44 15.04.2021
4145 Clouds 20 1012 64 10000 3.09 340 17:24 15.04.2021
4146 Clouds 20 1012 64 10000 3.6 20 16:43 15.04.2021
4147 Clouds 21 1012 56 10000 2.06 40 16:24 15.04.2021
4148 Clouds 22 1013 53 10000 1.54 0 15:47 15.04.2021
4149 Clouds 22 1013 53 10000 1.54 0 15:27 15.04.2021
4150 Clouds 21 1013 53 10000 1.54 0 14:43 15.04.2021
4151 Clouds 21 1013 52 10000 1.03 0 14:25 15.04.2021
4152 Clear 20 1013 60 10000 2.06 50 13:48 15.04.2021
4153 Clear 20 1013 60 10000 2.06 50 13:25 15.04.2021
4154 Clear 19 1013 63 10000 1.54 60 12:49 15.04.2021
4155 Clouds 18 1013 63 10000 2.06 30 12:27 15.04.2021
4156 Clouds 18 1013 68 10000 2.57 20 11:48 15.04.2021
4157 Clouds 17 1013 63 10000 2.57 10 11:29 15.04.2021
4158 Clear 17 1013 72 10000 2.57 30 10:58 15.04.2021
4159 Clouds 16 1013 77 10000 2.06 20 10:40 15.04.2021
4160 Clouds 16 1013 77 10000 2.06 20 10:22 15.04.2021
4161 Clouds 15 1013 88 10000 1.03 0 09:31 15.04.2021
4162 Clouds 15 1013 82 10000 1.54 340 08:53 15.04.2021
4163 Clouds 15 1013 82 10000 1.03 0 08:34 15.04.2021
4164 Clouds 14 1012 88 10000 1.54 350 07:37 15.04.2021
4165 Clouds 14 1012 88 10000 1.54 350 07:18 15.04.2021
4166 Clouds 15 1013 82 10000 1.03 0 06:36 15.04.2021
4167 Clouds 15 1013 82 10000 1.03 80 04:57 15.04.2021
4168 Clear 16 1013 82 10000 2.06 30 03:59 15.04.2021
4169 Clear 17 1014 77 10000 1.03 50 00:22 15.04.2021
4170 Clear 17 1013 72 10000 1.03 0 23:36 14.04.2021
4171 Clear 17 1013 72 10000 1.03 0 22:58 14.04.2021
4172 Clouds 17 1013 72 10000 1.03 0 22:39 14.04.2021
4173 Clouds 17 1013 72 10000 1.03 0 22:20 14.04.2021
4174 Clouds 18 1013 68 10000 1.54 170 21:42 14.04.2021
4175 Clouds 18 1013 72 10000 1.54 260 21:22 14.04.2021
4176 Clouds 18 1013 68 10000 1.54 180 20:48 14.04.2021
4177 Clouds 19 1013 68 10000 1.54 200 20:29 14.04.2021
4178 Clear 20 1012 60 10000 0.51 0 19:48 14.04.2021
4179 Clouds 20 1012 56 10000 2.06 230 19:19 14.04.2021
4180 Clouds 20 1012 56 10000 2.06 240 19:19 14.04.2021
4181 Clouds 20 1012 56 10000 2.06 240 18:55 14.04.2021
4182 Clear 19 1013 63 10000 2.06 200 18:21 14.04.2021
4183 Rain 20 1013 60 10000 2.57 160 17:57 14.04.2021
4184 Rain 20 1013 52 10000 3.6 180 17:24 14.04.2021
4185 Rain 20 1013 52 10000 4.12 170 16:52 14.04.2021
4186 Clouds 21 1014 49 10000 3.09 170 16:24 14.04.2021
4187 Clouds 21 1014 49 10000 3.09 170 15:42 14.04.2021
4188 Clouds 21 1014 49 10000 3.09 170 15:22 14.04.2021
4189 Clouds 22 1014 49 10000 2.06 0 14:46 14.04.2021
4190 Clouds 22 1014 49 10000 3.09 190 14:24 14.04.2021
4191 Clouds 21 1015 49 10000 2.57 160 13:54 14.04.2021
4192 Clear 20 1015 49 10000 2.57 160 13:23 14.04.2021
4193 Clear 19 1015 68 10000 1.03 0 12:37 14.04.2021
4194 Clear 19 1015 59 10000 0.51 0 11:43 14.04.2021
4195 Clear 19 1015 63 10000 1.03 0 11:25 14.04.2021
4196 Clear 17 1015 67 10000 1.54 0 10:48 14.04.2021
4197 Clear 17 1015 72 10000 1.54 40 10:30 14.04.2021
4198 Clear 16 1015 72 10000 2.57 70 09:42 14.04.2021
4199 Clear 16 1015 77 10000 2.57 40 09:21 14.04.2021
4200 Clear 15 1014 77 10000 2.57 40 08:45 14.04.2021
4201 Clear 15 1014 82 10000 2.57 30 08:21 14.04.2021
4202 Clear 16 1014 82 10000 1.54 10 07:20 14.04.2021
4203 Clear 16 1015 82 10000 1.54 50 06:25 14.04.2021
4204 Clear 17 1015 82 10000 2.06 70 04:45 14.04.2021
4205 Clear 17 1017 72 10000 3.6 240 01:49 14.04.2021
4206 Clear 18 1017 63 10000 3.09 240 00:39 14.04.2021
4207 Clear 19 1017 68 10000 3.6 250 23:55 13.04.2021
4208 Clear 19 1017 68 10000 3.6 250 23:30 13.04.2021
4209 Clear 19 1017 68 10000 3.6 250 22:43 13.04.2021
4210 Clear 20 1017 68 10000 2.57 240 22:19 13.04.2021
4211 Clear 21 1016 64 10000 3.6 250 21:46 13.04.2021
4212 Clear 21 1016 60 10000 3.09 260 21:28 13.04.2021
4213 Clear 25 1016 38 10000 0.51 0 20:43 13.04.2021
4214 Clear 25 1016 38 10000 0.51 0 20:23 13.04.2021
4215 Clear 25 1016 36 10000 1.54 340 19:50 13.04.2021
4216 Clear 25 1016 36 10000 1.54 170 19:25 13.04.2021
4217 Clear 26 1016 34 10000 1.54 280 18:44 13.04.2021
4218 Clear 25 1016 34 10000 1.54 220 18:25 13.04.2021
4219 Clear 25 1017 38 10000 2.06 220 17:40 13.04.2021
4220 Clear 25 1017 36 10000 1.03 340 17:18 13.04.2021
4221 Clear 25 1017 36 10000 1.03 340 16:44 13.04.2021
4222 Clear 25 1018 41 10000 2.06 120 16:23 13.04.2021
4223 Clear 24 1019 46 10000 2.06 80 15:53 13.04.2021
4224 Clear 24 1019 46 10000 2.06 80 15:34 13.04.2021
4225 Clear 23 1019 46 10000 1.54 100 14:47 13.04.2021
4226 Clear 23 1019 46 10000 1.54 100 14:22 13.04.2021
4227 Clear 23 1020 49 10000 3.09 360 13:45 13.04.2021
4228 Clear 21 1020 56 10000 2.06 0 13:25 13.04.2021
4229 Clear 21 1020 56 10000 2.57 70 12:58 13.04.2021
4230 Clear 20 1021 60 10000 2.57 360 12:31 13.04.2021
4231 Clear 19 1021 59 10000 1.54 20 11:59 13.04.2021
4232 Clear 18 1021 63 10000 2.57 30 11:31 13.04.2021
4233 Clear 18 1021 63 10000 2.57 30 11:31 13.04.2021
4234 Clear 17 1020 72 10000 2.57 40 10:56 13.04.2021
4235 Clear 16 1020 77 10000 3.09 40 10:24 13.04.2021
4236 Clear 15 1020 82 10000 2.06 350 09:59 13.04.2021
4237 Clear 14 1020 88 10000 1.03 0 09:40 13.04.2021
4238 Clear 14 1020 88 10000 1.03 0 09:18 13.04.2021
4239 Clouds 13 1020 94 10000 0.51 0 08:41 13.04.2021
4240 Clouds 13 1020 88 10000 1.03 360 08:20 13.04.2021
4241 Clouds 13 1020 94 10000 2.06 60 07:36 13.04.2021
4242 Clear 14 1020 94 10000 1.03 80 06:51 13.04.2021
4243 Clear 14 1020 94 10000 0.51 0 04:52 13.04.2021
4244 Clear 16 1021 82 10000 1.54 260 02:41 13.04.2021
4245 Clear 18 1021 72 10000 4.12 240 00:39 13.04.2021
4246 Clear 18 1020 72 10000 2.06 240 23:49 12.04.2021
4247 Rain 18 1020 72 10000 2.06 240 23:27 12.04.2021
4248 Clear 19 1020 72 10000 2.06 240 22:43 12.04.2021
4249 Clear 19 1020 68 10000 2.57 240 22:23 12.04.2021
4250 Clear 20 1019 64 10000 2.57 240 21:46 12.04.2021
4251 Clear 22 1019 60 10000 4.12 230 21:21 12.04.2021
4252 Clear 23 1019 56 10000 4.63 230 20:41 12.04.2021
4253 Clear 24 1018 33 10000 1.03 0 20:23 12.04.2021
4254 Clear 24 1019 41 10000 2.57 340 19:57 12.04.2021
4255 Clear 25 1018 38 10000 1.54 10 19:38 12.04.2021
4256 Clear 25 1018 38 10000 1.54 10 19:19 12.04.2021
4257 Clear 25 1018 41 10000 2.06 320 18:44 12.04.2021
4258 Clear 24 1018 41 10000 2.57 360 18:25 12.04.2021
4259 Clear 25 1019 38 10000 2.06 350 17:45 12.04.2021
4260 Clear 25 1019 38 10000 1.54 20 17:24 12.04.2021
4261 Clear 24 1019 38 10000 0.51 30 16:47 12.04.2021
4262 Clouds 24 1020 49 10000 3.09 70 16:27 12.04.2021
4263 Clouds 23 1020 49 10000 3.09 70 15:54 12.04.2021
4264 Clouds 23 1020 49 10000 3.09 70 15:33 12.04.2021
4265 Clear 23 1020 53 10000 1.54 20 14:55 12.04.2021
4266 Clear 22 1020 56 10000 2.06 90 14:36 12.04.2021
4267 Clear 21 1021 64 10000 2.57 60 13:53 12.04.2021
4268 Clear 20 1021 68 10000 3.09 50 13:31 12.04.2021
4269 Clear 20 1021 68 10000 4.12 30 12:56 12.04.2021
4270 Clouds 19 1021 77 10000 3.09 30 12:36 12.04.2021
4271 Clouds 18 1021 77 10000 3.09 30 12:18 12.04.2021
4272 Clouds 16 1021 82 10000 4.12 30 11:25 12.04.2021
4273 Clouds 16 1020 94 10000 3.6 50 10:49 12.04.2021
4274 Clouds 15 1020 94 10000 3.6 60 10:27 12.04.2021
4275 Clouds 15 1020 94 10000 3.6 50 09:51 12.04.2021
4276 Clouds 14 1020 100 8000 3.09 40 09:23 12.04.2021
4277 Clouds 14 1019 100 5000 3.09 40 08:44 12.04.2021
4278 Clouds 13 1019 100 10000 1.03 0 07:45 12.04.2021
4279 Clouds 13 1019 94 10000 1.03 330 07:22 12.04.2021
4280 Clouds 14 1019 94 9000 1.54 10 06:28 12.04.2021
4281 Clouds 13 1019 94 10000 1.03 0 05:45 12.04.2021
4282 Clouds 13 1019 94 10000 1.03 0 05:45 12.04.2021
4283 Clear 14 1019 88 10000 3.09 170 02:26 12.04.2021
4284 Clear 15 1018 82 10000 2.57 210 00:27 12.04.2021
4285 Clear 15 1018 82 10000 3.09 210 23:51 11.04.2021
4286 Clear 16 1018 77 10000 3.6 200 23:31 11.04.2021
4287 Clear 17 1018 77 10000 3.09 210 22:49 11.04.2021
4288 Clear 18 1017 72 10000 4.63 220 22:27 11.04.2021
4289 Clear 19 1017 63 10000 4.63 230 21:58 11.04.2021
4290 Clear 19 1016 60 10000 3.6 240 21:39 11.04.2021
4291 Clear 19 1016 60 10000 3.6 240 21:20 11.04.2021
4292 Clouds 21 1015 56 10000 4.12 250 20:39 11.04.2021
4293 Clouds 21 1015 56 10000 4.12 250 20:20 11.04.2021
4294 Clouds 22 1014 59 10000 3.13 236 19:41 11.04.2021
4295 Clouds 22 1015 53 10000 5.14 230 19:20 11.04.2021
4296 Clouds 22 1015 53 10000 5.14 230 18:55 11.04.2021
4297 Clouds 22 1015 53 10000 5.14 230 18:55 11.04.2021
4298 Clouds 22 1015 49 10000 3.6 240 18:37 11.04.2021
4299 Clouds 22 1015 49 10000 3.6 240 18:18 11.04.2021
4300 Clouds 22 1015 49 10000 3.6 240 18:18 11.04.2021
4301 Clouds 22 1015 49 10000 5.14 240 17:40 11.04.2021
4302 Clouds 22 1015 49 10000 5.14 240 17:19 11.04.2021
4303 Clouds 22 1015 49 10000 5.66 280 16:41 11.04.2021
4304 Clouds 22 1015 46 10000 4.63 270 16:20 11.04.2021
4305 Clouds 22 1015 46 10000 4.63 270 15:45 11.04.2021
4306 Clouds 21 1015 52 10000 6.17 280 15:24 11.04.2021
4307 Clouds 21 1015 52 10000 5.14 260 14:51 11.04.2021
4308 Clouds 21 1015 52 10000 5.14 260 14:51 11.04.2021
4309 Clouds 20 1015 60 10000 5.66 270 14:22 11.04.2021
4310 Clouds 20 1015 60 10000 5.14 280 13:42 11.04.2021
4311 Clouds 20 1016 68 10000 5.14 270 13:23 11.04.2021
4312 Clouds 19 1016 77 10000 3.09 280 12:40 11.04.2021
4313 Clouds 19 1016 77 10000 3.09 280 12:20 11.04.2021
4314 Clouds 18 1015 77 10000 3.09 260 11:45 11.04.2021
4315 Clouds 17 1015 88 10000 3.6 250 11:20 11.04.2021
4316 Clouds 17 1015 88 10000 3.09 230 10:45 11.04.2021
4317 Clouds 16 1015 94 10000 2.57 220 10:23 11.04.2021
4318 Clouds 15 1014 94 10000 1.54 200 09:50 11.04.2021
4319 Clouds 15 1014 94 10000 1.54 200 09:29 11.04.2021
4320 Clouds 14 1014 100 10000 1.54 190 08:40 11.04.2021
4321 Clouds 14 1013 94 10000 2.57 220 07:57 11.04.2021
4322 Clouds 15 1013 94 10000 2.57 220 07:21 11.04.2021
4323 Rain 14 1013 88 10000 2.06 180 05:55 11.04.2021
4324 Rain 15 1013 88 10000 2.06 200 05:23 11.04.2021
4325 Clear 15 1014 88 10000 2.57 210 04:51 11.04.2021
4326 Clouds 15 1014 94 10000 2.57 220 04:33 11.04.2021
4327 Clouds 15 1014 88 10000 1.54 190 01:31 11.04.2021
4328 Clouds 16 1014 88 10000 3.09 210 00:32 11.04.2021
4329 Clouds 16 1014 88 10000 3.6 220 23:46 10.04.2021
4330 Clouds 17 1013 82 10000 3.6 220 22:58 10.04.2021
4331 Clouds 17 1013 77 10000 5.14 220 22:30 10.04.2021
4332 Clouds 18 1013 72 10000 6.17 220 21:54 10.04.2021
4333 Clouds 18 1012 68 10000 5.14 230 21:33 10.04.2021
4334 Clouds 18 1012 63 10000 6.17 220 20:58 10.04.2021
4335 Clouds 20 1012 60 10000 5.66 230 20:40 10.04.2021
4336 Clouds 20 1012 56 10000 6.69 230 20:21 10.04.2021
4337 Clouds 20 1012 56 10000 6.69 230 19:43 10.04.2021
4338 Clouds 21 1011 52 10000 6.69 240 19:25 10.04.2021
4339 Clouds 21 1011 49 10000 6.69 230 18:44 10.04.2021
4340 Clouds 21 1011 43 10000 7.72 220 18:25 10.04.2021
4341 Clouds 22 1011 53 10000 8.23 230 17:36 10.04.2021
4342 Clouds 22 1011 46 10000 7.72 240 16:54 10.04.2021
4343 Clouds 22 1012 53 10000 5.66 220 16:26 10.04.2021
4344 Clouds 22 1012 56 10000 4.12 240 15:53 10.04.2021
4345 Clouds 21 1013 52 10000 4.12 230 14:57 10.04.2021
4346 Clouds 21 1013 52 10000 3.6 240 14:37 10.04.2021
4347 Clouds 20 1014 56 10000 2.57 220 13:59 10.04.2021
4348 Clouds 20 1014 59 10000 3.6 220 13:39 10.04.2021
4349 Clouds 19 1014 59 10000 2.06 220 12:49 10.04.2021
4350 Clouds 19 1015 63 10000 1.03 240 12:26 10.04.2021
4351 Clouds 19 1015 68 10000 0.51 210 11:47 10.04.2021
4352 Clouds 18 1014 63 10000 0.51 70 11:24 10.04.2021
4353 Clouds 17 1014 72 10000 0.51 70 10:52 10.04.2021
4354 Clouds 17 1014 77 10000 0.51 0 10:31 10.04.2021
4355 Clouds 16 1014 82 10000 0.51 0 09:45 10.04.2021
4356 Clouds 16 1014 82 10000 0.51 0 09:45 10.04.2021
4357 Clouds 15 1014 82 10000 0.51 0 09:19 10.04.2021
4358 Clouds 15 1014 82 10000 0.95 48 08:46 10.04.2021
4359 Clouds 14 1013 77 10000 0.51 50 08:28 10.04.2021
4360 Clouds 15 1013 82 10000 1.03 50 07:29 10.04.2021
4361 Clouds 15 1013 82 10000 1.03 10 06:49 10.04.2021
4362 Clouds 15 1013 82 10000 2.57 320 05:54 10.04.2021
4363 Clouds 16 1014 77 10000 2.06 270 03:49 10.04.2021
4364 Clouds 15 1015 77 10000 2.57 260 02:50 10.04.2021
4365 Clouds 15 1015 82 10000 3.6 260 02:18 10.04.2021
4366 Clear 16 1015 77 10000 4.63 230 00:41 10.04.2021
4367 Clear 16 1015 77 10000 4.63 230 00:19 10.04.2021
4368 Clear 17 1014 72 10000 5.14 220 23:40 09.04.2021
4369 Clear 18 1014 63 10000 4.63 270 22:58 09.04.2021
4370 Clear 19 1014 52 10000 2.57 270 22:38 09.04.2021
4371 Clear 21 1013 46 10000 1.54 310 21:56 09.04.2021
4372 Clear 21 1013 46 10000 2.06 330 21:37 09.04.2021
4373 Clear 22 1013 46 10000 2.06 340 21:18 09.04.2021
4374 Clear 23 1013 40 10000 2.06 330 20:41 09.04.2021
4375 Clear 23 1013 40 10000 2.06 330 20:22 09.04.2021
4376 Clear 23 1013 40 10000 2.06 330 20:22 09.04.2021
4377 Clear 23 1013 40 10000 1.03 0 19:44 09.04.2021
4378 Clouds 23 1013 40 10000 1.03 0 19:23 09.04.2021
4379 Clouds 23 1013 40 10000 1.03 360 18:54 09.04.2021
4380 Clouds 23 1014 40 10000 2.06 330 18:32 09.04.2021
4381 Clouds 23 1014 40 10000 2.06 350 17:54 09.04.2021
4382 Clouds 23 1014 43 10000 1.03 40 17:36 09.04.2021
4383 Clouds 23 1012 48 10000 1.34 29 16:56 09.04.2021
4384 Clouds 23 1015 46 10000 1.03 350 16:35 09.04.2021
4385 Clouds 22 1016 46 10000 2.57 0 15:52 09.04.2021
4386 Clouds 22 1016 46 10000 2.57 0 15:34 09.04.2021
4387 Clouds 22 1016 46 10000 2.57 0 14:58 09.04.2021
4388 Clouds 21 1016 49 10000 1.54 0 14:39 09.04.2021
4389 Clouds 21 1017 52 10000 1.03 0 13:52 09.04.2021
4390 Clouds 20 1017 56 10000 2.57 10 13:25 09.04.2021
4391 Clouds 20 1017 52 10000 2.06 0 12:54 09.04.2021
4392 Clear 19 1017 55 10000 2.06 0 12:36 09.04.2021
4393 Clouds 18 1017 59 10000 2.57 30 11:46 09.04.2021
4394 Clouds 17 1017 63 10000 2.06 60 11:23 09.04.2021
4395 Clear 16 1017 67 10000 1.54 40 10:47 09.04.2021
4396 Clear 15 1017 67 10000 1.03 0 10:29 09.04.2021
4397 Clear 15 1017 77 10000 2.06 60 09:49 09.04.2021
4398 Clear 14 1017 77 10000 1.54 360 09:22 09.04.2021
4399 Clear 14 1017 77 10000 1.54 350 08:51 09.04.2021
4400 Clouds 14 1016 88 10000 1.03 350 07:39 09.04.2021
4401 Clouds 15 1017 77 10000 1.54 40 06:56 09.04.2021
4402 Clouds 15 1017 72 10000 1.54 40 05:56 09.04.2021
4403 Clouds 15 1017 77 10000 2.06 20 03:53 09.04.2021
4404 Clouds 15 1018 72 10000 1.03 0 01:48 09.04.2021
4405 Clear 16 1018 67 10000 3.6 220 00:38 09.04.2021
4406 Clear 16 1018 67 10000 3.6 220 00:19 09.04.2021
4407 Clear 16 1018 67 10000 2.57 220 23:24 08.04.2021
4408 Clear 17 1018 67 10000 2.57 220 22:45 08.04.2021
4409 Clear 18 1017 63 10000 3.6 210 22:25 08.04.2021
4410 Clear 19 1017 59 10000 3.09 210 21:56 08.04.2021
4411 Clear 18 1017 59 10000 3.09 210 21:56 08.04.2021
4412 Clear 19 1016 56 10000 4.63 240 21:37 08.04.2021
4413 Clear 20 1016 52 10000 4.63 230 21:19 08.04.2021
4414 Clear 21 1016 52 10000 4.63 230 20:52 08.04.2021
4415 Clouds 21 1015 52 10000 4.12 230 20:31 08.04.2021
4416 Clouds 22 1015 49 10000 3.6 240 19:49 08.04.2021
4417 Clear 22 1016 46 10000 4.63 80 19:20 08.04.2021
4418 Clear 23 1016 43 10000 6.17 80 18:51 08.04.2021
4419 Clear 23 1016 43 10000 6.69 70 18:23 08.04.2021
4420 Clear 23 1016 40 10000 5.66 60 17:50 08.04.2021
4421 Clear 23 1016 40 10000 0.51 290 17:26 08.04.2021
4422 Clear 23 1016 40 10000 2.57 20 16:55 08.04.2021
4423 Clouds 23 1018 46 10000 2.06 330 16:35 08.04.2021
4424 Clouds 23 1018 46 10000 2.06 330 15:49 08.04.2021
4425 Clouds 23 1018 46 10000 2.06 330 15:31 08.04.2021
4426 Clouds 22 1018 53 10000 2.57 270 14:58 08.04.2021
4427 Clouds 22 1018 53 10000 3.09 60 14:37 08.04.2021
4428 Clouds 22 1018 53 10000 3.09 60 14:19 08.04.2021
4429 Clouds 21 1019 52 10000 2.06 0 13:43 08.04.2021
4430 Clouds 20 1019 59 10000 2.06 340 13:23 08.04.2021
4431 Clouds 20 1019 56 10000 1.54 30 12:45 08.04.2021
4432 Clouds 19 1020 60 10000 1.54 0 12:26 08.04.2021
4433 Clouds 19 1020 63 10000 1.54 350 11:47 08.04.2021
4434 Clouds 18 1020 68 10000 1.54 310 11:21 08.04.2021
4435 Clear 17 1019 77 10000 2.06 50 10:43 08.04.2021
4436 Clear 16 1019 77 10000 1.03 0 10:24 08.04.2021
4437 Clear 15 1019 88 10000 1.03 160 09:43 08.04.2021
4438 Clear 14 1019 94 10000 0.51 0 08:53 08.04.2021
4439 Clear 14 1018 88 10000 1.81 54 08:35 08.04.2021
4440 Clear 15 1018 82 10000 1.54 340 07:59 08.04.2021
4441 Clear 15 1018 82 10000 3.09 10 07:40 08.04.2021
4442 Clear 15 1018 82 10000 2.06 30 04:51 08.04.2021
4443 Clear 17 1018 72 10000 1.54 310 01:25 08.04.2021
4444 Clear 17 1018 68 10000 3.09 240 00:30 08.04.2021
4445 Clear 17 1017 72 10000 3.6 230 23:47 07.04.2021
4446 Clear 18 1017 72 10000 3.6 230 23:24 07.04.2021
4447 Clear 18 1017 72 10000 3.6 230 22:55 07.04.2021
4448 Clear 18 1016 68 10000 5.14 230 22:35 07.04.2021
4449 Clear 18 1016 68 10000 5.66 220 21:58 07.04.2021
4450 Clear 19 1015 63 10000 5.66 210 21:34 07.04.2021
4451 Clear 20 1015 56 10000 6.69 210 20:51 07.04.2021
4452 Clouds 21 1014 60 10000 6.69 210 20:28 07.04.2021
4453 Clear 23 1014 53 10000 7.2 230 19:50 07.04.2021
4454 Clear 23 1014 49 10000 6.69 220 19:31 07.04.2021
4455 Clear 23 1013 53 10000 6.69 220 18:57 07.04.2021
4456 Clear 24 1013 50 10000 6.17 220 18:39 07.04.2021
4457 Clear 24 1013 50 10000 6.17 220 18:18 07.04.2021
4458 Clear 24 1013 43 10000 5.66 220 17:43 07.04.2021
4459 Clear 24 1013 44 10000 5.66 220 17:24 07.04.2021
4460 Clear 25 1013 41 10000 4.12 230 16:45 07.04.2021
4461 Clear 25 1013 41 10000 4.12 230 16:21 07.04.2021
4462 Clear 25 1014 53 10000 4.63 200 15:53 07.04.2021
4463 Clear 24 1014 53 10000 4.63 200 15:32 07.04.2021
4464 Clear 24 1014 53 10000 4.63 200 14:47 07.04.2021
4465 Clear 23 1014 53 10000 2.06 220 14:24 07.04.2021
4466 Clear 22 1014 49 10000 2.57 210 13:45 07.04.2021
4467 Clear 22 1014 49 10000 2.57 210 13:20 07.04.2021
4468 Clear 22 1014 56 10000 2.06 130 12:46 07.04.2021
4469 Clear 21 1014 56 10000 1.03 0 12:19 07.04.2021
4470 Clear 20 1013 68 10000 1.54 40 11:45 07.04.2021
4471 Clear 18 1013 72 10000 2.06 0 11:22 07.04.2021
4472 Clear 17 1013 72 10000 2.06 0 10:50 07.04.2021
4473 Clear 15 1013 88 10000 1.54 360 09:50 07.04.2021
4474 Clear 14 1012 88 10000 0.51 20 09:28 07.04.2021
4475 Clear 14 1012 88 10000 0.51 20 09:28 07.04.2021
4476 Clear 13 1012 94 10000 1.03 0 08:53 07.04.2021
4477 Clear 13 1012 94 10000 1.54 340 08:32 07.04.2021
4478 Clear 13 1011 100 10000 1.03 0 07:54 07.04.2021
4479 Clear 14 1011 88 10000 1.03 0 07:29 07.04.2021
4480 Clear 14 1011 88 10000 0.51 140 06:44 07.04.2021
4481 Clear 14 1011 88 10000 2.06 180 05:43 07.04.2021
4482 Clear 15 1011 82 10000 1.03 0 03:32 07.04.2021
4483 Clear 19 1011 55 10000 2.57 270 23:52 06.04.2021
4484 Clear 20 1011 52 10000 3.09 270 23:23 06.04.2021
4485 Clear 22 1011 46 10000 4.12 280 22:59 06.04.2021
4486 Clear 23 1010 49 10000 2.57 230 22:22 06.04.2021
4487 Clear 23 1010 49 10000 2.57 230 21:57 06.04.2021
4488 Clear 23 1010 49 10000 3.09 240 21:38 06.04.2021
4489 Clear 23 1010 49 10000 3.09 240 21:20 06.04.2021
4490 Clear 23 1010 40 10000 1.54 180 20:50 06.04.2021
4491 Clear 25 1010 29 10000 1.03 210 20:21 06.04.2021
4492 Clear 25 1010 25 10000 1.03 0 19:49 06.04.2021
4493 Clear 27 1010 22 10000 1.54 260 19:30 06.04.2021
4494 Clear 27 1010 22 10000 2.06 310 18:47 06.04.2021
4495 Clear 27 1010 22 10000 2.06 310 18:24 06.04.2021
4496 Clear 27 1010 24 10000 1.03 290 17:51 06.04.2021
4497 Clear 27 1011 28 10000 2.57 230 17:29 06.04.2021
4498 Clear 27 1011 29 10000 0.51 280 16:55 06.04.2021
4499 Clear 26 1012 47 10000 1.54 70 16:37 06.04.2021
4500 Clear 26 1012 47 10000 1.54 70 15:41 06.04.2021
4501 Clear 25 1012 47 10000 1.54 70 15:20 06.04.2021
4502 Clear 25 1013 53 10000 2.06 60 14:39 06.04.2021
4503 Clear 25 1013 53 10000 2.06 60 14:39 06.04.2021
4504 Clear 24 1013 60 10000 1.54 350 14:18 06.04.2021
4505 Clear 23 1013 60 10000 1.54 350 13:43 06.04.2021
4506 Clear 23 1014 53 10000 1.03 50 13:23 06.04.2021
4507 Clear 21 1014 60 10000 1.03 0 12:42 06.04.2021
4508 Clear 20 1014 72 10000 2.06 50 12:22 06.04.2021
4509 Clear 19 1014 68 10000 2.57 50 11:51 06.04.2021
4510 Clear 18 1014 77 10000 2.06 20 11:21 06.04.2021
4511 Clear 16 1015 82 10000 1.03 0 10:47 06.04.2021
4512 Clear 16 1015 88 10000 1.03 0 10:28 06.04.2021
4513 Clear 15 1015 88 10000 1.03 0 09:49 06.04.2021
4514 Clear 14 1014 94 10000 1.54 360 09:30 06.04.2021
4515 Clouds 13 1015 87 9000 1.82 50 08:45 06.04.2021
4516 Clouds 13 1014 87 9000 1.03 0 08:18 06.04.2021
4517 Clear 13 1014 94 10000 1.54 140 06:55 06.04.2021
4518 Clear 14 1014 88 10000 1.54 140 05:40 06.04.2021
4519 Clear 16 1015 77 10000 0.51 0 02:57 06.04.2021
4520 Clear 18 1016 68 10000 4.12 220 00:45 06.04.2021
4521 Clear 18 1016 68 10000 2.06 220 00:21 06.04.2021
4522 Clear 19 1016 63 10000 2.06 240 23:43 05.04.2021
4523 Clear 20 1016 60 10000 3.6 270 23:20 05.04.2021
4524 Clear 21 1016 56 10000 2.57 260 22:48 05.04.2021
4525 Clear 21 1016 56 10000 3.6 270 22:27 05.04.2021
4526 Clear 22 1015 53 10000 4.12 270 21:45 05.04.2021
4527 Clear 22 1015 49 10000 3.09 220 21:22 05.04.2021
4528 Clear 24 1015 43 10000 1.03 0 20:45 05.04.2021
4529 Clear 24 1015 43 10000 1.03 260 20:27 05.04.2021
4530 Clear 25 1015 38 10000 1.54 250 19:44 05.04.2021
4531 Clear 25 1015 43 10000 2.57 220 19:23 05.04.2021
4532 Clear 25 1015 38 10000 2.06 230 18:55 05.04.2021
4533 Clear 25 1015 38 10000 0.51 180 18:36 05.04.2021
4534 Clear 25 1015 38 10000 0.51 180 18:18 05.04.2021
4535 Clear 25 1015 44 10000 1.54 330 17:43 05.04.2021
4536 Clear 25 1015 43 10000 1.54 0 17:20 05.04.2021
4537 Clear 25 1015 46 10000 1.03 250 16:44 05.04.2021
4538 Clear 24 1016 49 10000 0.51 40 16:21 05.04.2021
4539 Clear 23 1017 60 10000 1.54 60 15:52 05.04.2021
4540 Clear 23 1017 60 10000 1.54 60 15:52 05.04.2021
4541 Clear 23 1017 60 10000 1.54 60 15:29 05.04.2021
4542 Clear 22 1017 60 10000 1.54 60 14:54 05.04.2021
4543 Clear 22 1017 64 10000 2.06 30 14:34 05.04.2021
4544 Clouds 20 1018 64 10000 2.57 70 13:31 05.04.2021
4545 Clouds 19 1018 72 10000 2.06 30 12:51 05.04.2021
4546 Clouds 19 1018 68 10000 1.54 0 12:28 05.04.2021
4547 Clouds 18 1018 77 10000 1.54 320 11:56 05.04.2021
4548 Clouds 18 1018 77 10000 2.06 70 11:36 05.04.2021
4549 Clouds 17 1018 77 10000 2.06 70 11:18 05.04.2021
4550 Clouds 16 1018 88 9000 1.03 0 10:45 05.04.2021
4551 Clouds 16 1018 94 9000 1.03 0 10:26 05.04.2021
4552 Clouds 15 1017 94 6000 1.03 100 09:47 05.04.2021
4553 Clouds 14 1017 94 6000 1.03 100 09:23 05.04.2021
4554 Mist 14 1017 100 4000 0.51 240 08:45 05.04.2021
4555 Fog 13 1017 100 450 0.51 140 08:25 05.04.2021
4556 Clear 12 1016 100 8000 1.59 35 07:36 05.04.2021
4557 Clouds 14 1016 94 6000 2.06 110 06:32 05.04.2021
4558 Clouds 15 1017 88 10000 3.09 210 01:57 05.04.2021
4559 Clear 16 1017 88 10000 3.6 210 00:50 05.04.2021
4560 Clear 16 1016 88 10000 4.63 210 23:52 04.04.2021
4561 Clear 17 1016 82 10000 5.66 220 23:28 04.04.2021
4562 Clear 17 1016 72 10000 5.14 210 22:52 04.04.2021
4563 Clear 17 1015 68 10000 3.6 200 22:30 04.04.2021
4564 Clear 19 1014 56 10000 4.12 220 21:43 04.04.2021
4565 Clear 21 1013 60 10000 5.66 220 21:19 04.04.2021
4566 Clouds 22 1013 40 10000 2.06 220 20:30 04.04.2021
4567 Clouds 24 1013 38 10000 2.06 240 19:58 04.04.2021
4568 Clouds 25 1013 36 10000 1.03 170 19:38 04.04.2021
4569 Clouds 24 1013 41 10000 1.03 200 19:19 04.04.2021
4570 Clouds 25 1013 41 10000 1.03 200 18:47 04.04.2021
4571 Clouds 24 1013 38 10000 2.06 250 18:24 04.04.2021
4572 Clouds 24 1013 43 10000 1.54 310 17:55 04.04.2021
4573 Clouds 24 1013 43 10000 0.51 20 17:24 04.04.2021
4574 Clouds 24 1013 46 10000 1.03 50 16:52 04.04.2021
4575 Clouds 24 1014 46 10000 1.03 150 16:31 04.04.2021
4576 Clear 23 1012 53 10000 0.89 125 15:37 04.04.2021
4577 Clouds 22 1014 52 10000 1.54 20 15:18 04.04.2021
4578 Clouds 21 1015 64 10000 1.03 100 14:37 04.04.2021
4579 Clouds 21 1015 64 10000 1.03 100 14:18 04.04.2021
4580 Clouds 19 1015 72 10000 0.51 10 13:26 04.04.2021
4581 Clouds 19 1015 72 10000 1.03 200 12:50 04.04.2021
4582 Clouds 18 1015 72 10000 0.51 170 12:27 04.04.2021
4583 Clouds 16 1015 88 8000 1.54 100 11:43 04.04.2021
4584 Clouds 16 1015 88 8000 1.54 100 11:25 04.04.2021
4585 Clouds 15 1015 94 7000 2.06 70 10:46 04.04.2021
4586 Clouds 14 1015 94 6000 2.57 60 10:20 04.04.2021
4587 Clouds 13 1014 94 8000 1.03 0 09:37 04.04.2021
4588 Clouds 13 1014 94 8000 1.03 0 09:18 04.04.2021
4589 Clouds 13 1013 100 8000 1.03 40 08:42 04.04.2021
4590 Clouds 13 1013 100 8000 1.03 40 08:24 04.04.2021
4591 Clear 12 1013 94 10000 0.79 146 06:39 04.04.2021
4592 Clear 13 1012 94 10000 0.51 0 05:44 04.04.2021
4593 Clear 14 1013 88 10000 3.09 180 02:20 04.04.2021
4594 Clear 16 1013 88 10000 1.54 130 00:47 04.04.2021
4595 Clear 15 1013 88 10000 1.54 130 00:18 04.04.2021
4596 Clear 16 1013 88 10000 0.51 0 23:41 03.04.2021
4597 Clouds 16 1013 82 10000 3.09 260 22:56 03.04.2021
4598 Rain 16 1013 88 10000 6.69 260 22:37 03.04.2021
4599 Rain 16 1013 88 8000 8.75 280 22:18 03.04.2021
4600 Rain 18 1012 63 10000 3.6 220 21:39 03.04.2021
4601 Clouds 18 1012 63 10000 3.6 220 21:21 03.04.2021
4602 Clouds 19 1012 63 10000 2.57 200 20:40 03.04.2021
4603 Clouds 20 1012 63 10000 2.57 200 20:20 03.04.2021
4604 Clouds 20 1011 68 10000 3.09 220 19:43 03.04.2021
4605 Rain 21 1010 56 10000 0.45 347 19:19 03.04.2021
4606 Clouds 22 1009 54 10000 2.24 36 18:45 03.04.2021
4607 Clear 22 1011 38 10000 1.54 210 18:18 03.04.2021
4608 Clouds 23 1011 40 10000 2.06 210 17:41 03.04.2021
4609 Clouds 23 1011 40 10000 2.06 210 17:21 03.04.2021
4610 Clouds 23 1012 38 10000 2.57 230 16:43 03.04.2021
4611 Clouds 22 1012 40 10000 2.06 300 16:21 03.04.2021
4612 Clouds 22 1013 43 10000 2.06 290 15:46 03.04.2021
4613 Clouds 22 1013 43 10000 2.06 290 15:21 03.04.2021
4614 Clouds 21 1013 46 10000 2.57 280 14:42 03.04.2021
4615 Clouds 21 1014 46 10000 2.06 0 14:22 03.04.2021
4616 Clouds 20 1014 52 10000 1.03 230 13:48 03.04.2021
4617 Clouds 20 1014 59 10000 0.51 220 13:23 03.04.2021
4618 Clear 19 1015 63 10000 0.51 0 12:49 03.04.2021
4619 Clear 18 1015 67 10000 1.03 0 12:21 03.04.2021
4620 Clear 18 1015 67 10000 1.03 0 12:21 03.04.2021
4621 Clear 16 1015 82 10000 0.13 91 11:38 03.04.2021
4622 Clear 13 1015 88 10000 1.03 0 10:56 03.04.2021
4623 Clear 13 1015 88 10000 1.03 0 10:36 03.04.2021
4624 Clear 13 1015 88 10000 1.03 0 10:18 03.04.2021
4625 Clouds 12 1015 93 9000 0.51 0 09:28 03.04.2021
4626 Clouds 12 1015 93 9000 0.82 83 08:54 03.04.2021
4627 Clouds 11 1014 100 9000 1.54 80 08:28 03.04.2021
4628 Clear 12 1014 93 10000 1.54 260 07:29 03.04.2021
4629 Clear 12 1014 93 10000 0.51 0 06:44 03.04.2021
4630 Clear 12 1015 94 10000 1.54 190 03:53 03.04.2021
4631 Clear 13 1016 88 10000 3.09 190 02:51 03.04.2021
4632 Clear 13 1016 88 10000 3.09 180 02:26 03.04.2021
4633 Clear 15 1017 72 10000 2.57 270 00:23 03.04.2021
4634 Clear 17 1017 63 10000 4.12 270 23:50 02.04.2021
4635 Clear 17 1017 63 10000 4.12 270 23:26 02.04.2021
4636 Clear 17 1017 63 10000 2.57 260 22:55 02.04.2021
4637 Clear 17 1016 59 10000 3.6 250 22:36 02.04.2021
4638 Clear 18 1016 55 10000 6.17 260 21:46 02.04.2021
4639 Clear 18 1016 55 10000 6.17 260 21:26 02.04.2021
4640 Clear 20 1016 49 10000 4.12 270 20:54 02.04.2021
4641 Clear 20 1016 40 10000 4.63 290 20:35 02.04.2021
4642 Clear 21 1016 37 10000 5.14 300 19:59 02.04.2021
4643 Clear 21 1016 37 10000 5.66 280 19:39 02.04.2021
4644 Clear 22 1016 37 10000 5.66 280 19:21 02.04.2021
4645 Clouds 22 1016 37 10000 4.63 270 18:41 02.04.2021
4646 Clouds 22 1016 37 10000 4.63 270 18:21 02.04.2021
4647 Clouds 22 1016 40 10000 3.6 270 17:45 02.04.2021
4648 Clouds 22 1016 40 10000 5.14 270 17:18 02.04.2021
4649 Clouds 21 1017 46 10000 3.6 280 16:23 02.04.2021
4650 Clouds 21 1017 46 10000 3.6 290 15:42 02.04.2021
4651 Clouds 21 1018 46 10000 4.12 240 14:57 02.04.2021
4652 Clouds 21 1018 49 10000 3.09 240 14:33 02.04.2021
4653 Clouds 20 1018 49 10000 3.09 240 13:46 02.04.2021
4654 Clouds 19 1018 55 10000 3.09 270 13:26 02.04.2021
4655 Clouds 19 1019 63 10000 2.06 270 12:47 02.04.2021
4656 Clouds 18 1019 72 10000 1.54 250 12:20 02.04.2021
4657 Clouds 18 1019 72 10000 1.54 270 11:58 02.04.2021
4658 Clouds 17 1019 77 10000 1.03 230 11:21 02.04.2021
4659 Clouds 16 1018 77 10000 1.03 0 10:51 02.04.2021
4660 Clouds 15 1018 88 10000 1.54 210 10:32 02.04.2021
4661 Clouds 15 1018 88 10000 1.54 210 10:32 02.04.2021
4662 Clouds 15 1018 94 10000 2.06 190 09:57 02.04.2021
4663 Clouds 14 1018 94 10000 1.54 190 09:37 02.04.2021
4664 Clouds 14 1018 94 10000 1.54 190 09:18 02.04.2021
4665 Clouds 13 1018 94 10000 1.03 0 08:37 02.04.2021
4666 Clouds 14 1017 94 10000 2.06 220 07:52 02.04.2021
4667 Clouds 14 1017 94 10000 2.57 210 07:19 02.04.2021
4668 Clouds 14 1017 94 10000 2.06 190 06:22 02.04.2021
4669 Clouds 16 1018 88 10000 2.57 220 02:59 02.04.2021
4670 Clouds 16 1018 94 10000 3.6 220 00:56 02.04.2021
4671 Clouds 17 1018 82 10000 3.6 220 00:36 02.04.2021
4672 Clouds 17 1017 82 10000 5.14 230 23:43 01.04.2021
4673 Clouds 17 1017 82 10000 4.63 220 23:25 01.04.2021
4674 Clouds 17 1016 82 10000 5.14 220 22:22 01.04.2021
4675 Clouds 18 1016 77 10000 5.14 220 21:56 01.04.2021
4676 Clouds 18 1016 77 10000 4.63 220 21:38 01.04.2021
4677 Clouds 18 1016 72 10000 6.17 220 21:18 01.04.2021
4678 Clouds 18 1015 68 10000 8.23 220 20:39 01.04.2021
4679 Rain 19 1015 68 10000 8.23 220 20:21 01.04.2021
4680 Clouds 20 1015 56 10000 6.17 230 19:40 01.04.2021
4681 Clouds 21 1015 53 10000 6.69 230 18:59 01.04.2021
4682 Clouds 21 1015 53 10000 6.69 230 18:41 01.04.2021
4683 Clouds 22 1015 49 10000 6.69 220 18:18 01.04.2021
4684 Clouds 21 1015 53 10000 8.23 230 17:39 01.04.2021
4685 Clouds 22 1015 53 10000 8.23 230 17:20 01.04.2021
4686 Clouds 22 1015 53 10000 6.69 230 16:47 01.04.2021
4687 Clouds 22 1015 53 10000 7.2 230 15:59 01.04.2021
4688 Clouds 22 1015 56 10000 5.66 220 15:24 01.04.2021
4689 Clouds 22 1015 56 10000 5.14 210 14:57 01.04.2021
4690 Clouds 22 1015 56 10000 4.63 190 14:38 01.04.2021
4691 Clouds 21 1015 56 10000 4.63 190 14:19 01.04.2021
4692 Clouds 21 1016 60 10000 4.63 210 13:48 01.04.2021
4693 Clouds 21 1016 64 10000 5.14 220 13:27 01.04.2021
4694 Clouds 20 1016 64 10000 4.12 200 12:47 01.04.2021
4695 Clouds 19 1016 63 10000 4.63 220 12:28 01.04.2021
4696 Clouds 19 1016 63 10000 5.14 210 11:45 01.04.2021
4697 Clouds 18 1016 63 10000 5.14 210 11:19 01.04.2021
4698 Clouds 18 1015 68 10000 5.66 200 10:47 01.04.2021
4699 Clouds 17 1015 72 10000 6.17 210 10:29 01.04.2021
4700 Clear 16 1014 67 10000 5.66 210 09:41 01.04.2021
4701 Clear 17 1014 67 10000 5.66 210 09:22 01.04.2021
4702 Clear 14 1013 67 10000 2.06 260 08:33 01.04.2021
4703 Clear 16 1012 59 10000 3.09 280 07:24 01.04.2021
4704 Clear 16 1011 59 10000 1.54 250 06:59 01.04.2021
4705 Clear 16 1011 59 10000 0.51 280 06:30 01.04.2021
4706 Rain 18 1012 42 10000 3.09 330 03:28 01.04.2021
4707 Clear 18 1010 39 10000 3.09 70 00:38 01.04.2021
4708 Rain 20 1010 30 10000 4.12 60 23:44 31.03.2021
4709 Clear 19 1010 34 10000 3.6 60 23:44 31.03.2021
4710 Clear 18 1010 39 10000 3.6 30 22:59 31.03.2021
4711 Clear 20 1010 34 10000 2.57 30 22:40 31.03.2021
4712 Clear 20 1010 34 10000 2.57 30 22:20 31.03.2021
4713 Clear 22 1010 26 10000 1.54 80 21:44 31.03.2021
4714 Clear 24 1010 22 10000 3.09 130 21:20 31.03.2021
4715 Clear 25 1010 22 10000 4.12 120 20:44 31.03.2021
4716 Clear 26 1009 21 10000 4.63 110 20:24 31.03.2021
4717 Clear 27 1009 19 10000 5.66 120 19:59 31.03.2021
4718 Clear 28 1009 20 10000 6.69 120 19:36 31.03.2021
4719 Clear 27 1009 20 10000 6.69 120 19:18 31.03.2021
4720 Clear 28 1009 18 10000 6.69 110 18:43 31.03.2021
4721 Clear 29 1010 16 10000 5.66 120 17:57 31.03.2021
4722 Clear 29 1010 19 10000 4.12 120 17:36 31.03.2021
4723 Clear 30 1010 16 10000 5.14 120 16:58 31.03.2021
4724 Clear 29 1011 17 10000 5.14 120 16:38 31.03.2021
4725 Clear 29 1011 28 10000 2.06 240 16:19 31.03.2021
4726 Clear 29 1011 28 10000 2.06 240 16:19 31.03.2021
4727 Clear 29 1011 28 10000 2.06 240 15:50 31.03.2021
4728 Clear 29 1011 28 10000 2.06 240 15:19 31.03.2021
4729 Clear 29 1012 23 10000 2.06 180 14:44 31.03.2021
4730 Clear 29 1012 23 10000 2.57 130 14:22 31.03.2021
4731 Clear 28 1012 26 10000 4.12 110 13:41 31.03.2021
4732 Clear 25 1013 31 10000 6.17 70 12:42 31.03.2021
4733 Clear 25 1013 31 10000 6.17 70 12:21 31.03.2021
4734 Clear 25 1013 31 10000 6.17 70 12:21 31.03.2021
4735 Clear 24 1014 38 10000 5.14 60 11:59 31.03.2021
4736 Clear 22 1014 37 10000 4.63 70 11:21 31.03.2021
4737 Clear 20 1014 42 10000 4.12 60 10:47 31.03.2021
4738 Clear 19 1014 48 10000 2.57 40 10:26 31.03.2021
4739 Clear 18 1014 48 10000 3.6 40 09:43 31.03.2021
4740 Clear 17 1014 51 10000 4.12 40 09:18 31.03.2021
4741 Clear 17 1014 51 10000 5.66 40 08:39 31.03.2021
4742 Clear 17 1014 51 10000 5.66 40 07:54 31.03.2021
4743 Clear 17 1015 45 10000 6.17 60 06:49 31.03.2021
4744 Clear 20 1016 40 10000 5.14 70 03:52 31.03.2021
4745 Clear 19 1017 42 10000 5.66 80 01:43 31.03.2021
4746 Clear 19 1017 45 10000 4.63 70 00:53 31.03.2021
4747 Clear 18 1017 48 10000 2.06 70 00:21 31.03.2021
4748 Rain 19 1017 42 10000 3.6 70 23:47 30.03.2021
4749 Clear 20 1017 37 10000 3.6 60 23:19 30.03.2021
4750 Clear 21 1016 37 10000 2.57 50 22:42 30.03.2021
4751 Clear 21 1016 37 10000 2.57 50 22:24 30.03.2021
4752 Clear 22 1016 33 10000 3.6 80 21:53 30.03.2021
4753 Clear 22 1016 35 10000 4.12 80 21:23 30.03.2021
4754 Clear 23 1016 35 10000 3.6 70 20:57 30.03.2021
4755 Clear 23 1016 41 10000 2.57 60 20:29 30.03.2021
4756 Clear 24 1016 43 10000 1.54 30 19:52 30.03.2021
4757 Clear 24 1016 41 10000 2.06 290 19:29 30.03.2021
4758 Clear 24 1017 41 10000 3.09 230 18:47 30.03.2021
4759 Clear 24 1017 41 10000 3.09 230 18:24 30.03.2021
4760 Clear 25 1017 38 10000 3.09 220 17:42 30.03.2021
4761 Clear 25 1017 25 10000 7.2 90 17:24 30.03.2021
4762 Clear 26 1017 27 10000 8.75 100 16:46 30.03.2021
4763 Clear 27 1017 26 10000 8.23 110 16:25 30.03.2021
4764 Clear 27 1017 29 10000 5.66 100 15:36 30.03.2021
4765 Clear 26 1018 41 10000 4.63 80 15:18 30.03.2021
4766 Clear 25 1018 31 10000 5.66 100 14:43 30.03.2021
4767 Clear 24 1018 43 10000 4.63 80 14:19 30.03.2021
4768 Clear 22 1019 52 10000 4.12 60 13:44 30.03.2021
4769 Clear 19 1019 59 10000 4.63 40 12:58 30.03.2021
4770 Clear 19 1020 68 10000 4.63 60 12:39 30.03.2021
4771 Clear 19 1020 68 10000 4.63 60 12:20 30.03.2021
4772 Rain 18 1021 67 10000 2.57 30 11:41 30.03.2021
4773 Clear 18 1020 67 10000 2.06 30 11:18 30.03.2021
4774 Clear 17 1021 72 10000 1.54 250 10:41 30.03.2021
4775 Clear 16 1021 72 10000 1.54 250 10:19 30.03.2021
4776 Rain 16 1019 72 10000 3.6 360 09:40 30.03.2021
4777 Clear 16 1019 63 10000 5.14 30 09:20 30.03.2021
4778 Clear 16 1019 63 10000 5.14 30 08:41 30.03.2021
4779 Rain 16 1019 72 10000 3.6 50 07:55 30.03.2021
4780 Clear 16 1019 82 10000 1.54 30 07:31 30.03.2021
4781 Clear 17 1019 63 10000 2.06 20 06:29 30.03.2021
4782 Clear 17 1019 67 10000 5.66 70 05:25 30.03.2021
4783 Clear 19 1023 59 10000 6.17 260 01:44 30.03.2021
4784 Clear 19 1020 42 10000 4.12 110 23:53 29.03.2021
4785 Clear 20 1019 42 10000 5.14 100 23:21 29.03.2021
4786 Clear 20 1019 42 10000 5.14 100 22:43 29.03.2021
4787 Clear 21 1019 52 10000 3.09 50 21:55 29.03.2021
4788 Clear 21 1018 52 10000 4.12 90 21:34 29.03.2021
4789 Clear 22 1020 46 10000 2.57 260 20:51 29.03.2021
4790 Clear 22 1020 43 10000 2.57 260 20:30 29.03.2021
4791 Clear 24 1019 41 10000 4.12 260 19:55 29.03.2021
4792 Clear 24 1020 41 10000 4.12 230 19:28 29.03.2021
4793 Clear 24 1019 41 10000 6.17 220 18:56 29.03.2021
4794 Clear 25 1019 34 10000 3.09 250 18:37 29.03.2021
4795 Clear 25 1019 32 10000 0.51 190 18:18 29.03.2021
4796 Clear 26 1019 31 10000 1.54 300 17:36 29.03.2021
4797 Clear 26 1019 31 10000 1.54 250 16:53 29.03.2021
4798 Clear 26 1020 36 10000 1.54 0 16:30 29.03.2021
4799 Clear 25 1020 36 10000 1.54 0 15:43 29.03.2021
4800 Clear 25 1020 36 10000 1.54 0 15:24 29.03.2021
4801 Clear 24 1021 41 10000 1.54 120 14:48 29.03.2021
4802 Clear 24 1021 41 10000 1.54 120 14:23 29.03.2021
4803 Clear 23 1021 46 10000 3.09 90 13:45 29.03.2021
4804 Clear 22 1021 43 10000 2.06 0 13:19 29.03.2021
4805 Clear 22 1021 43 10000 4.12 100 12:49 29.03.2021
4806 Clear 20 1021 55 10000 3.6 50 11:49 29.03.2021
4807 Clear 18 1021 59 10000 3.09 70 11:29 29.03.2021
4808 Clear 18 1021 67 10000 2.06 40 10:51 29.03.2021
4809 Clear 16 1022 67 10000 1.54 360 10:31 29.03.2021
4810 Clear 15 1021 72 10000 1.03 0 09:34 29.03.2021
4811 Clear 16 1020 63 10000 2.06 80 08:51 29.03.2021
4812 Clear 16 1020 67 10000 2.06 40 08:27 29.03.2021
4813 Clear 16 1020 72 10000 2.57 40 07:22 29.03.2021
4814 Clear 16 1021 67 10000 4.12 80 06:26 29.03.2021
4815 Clear 16 1022 63 10000 1.03 0 03:35 29.03.2021
4816 Clear 17 1023 63 10000 2.06 30 01:41 29.03.2021
4817 Clear 17 1022 67 10000 2.06 20 00:21 29.03.2021
4818 Clear 17 1023 63 10000 1.03 0 23:36 28.03.2021
4819 Clear 17 1023 63 10000 1.03 0 23:18 28.03.2021
4820 Clear 18 1022 59 10000 3.09 230 22:39 28.03.2021
4821 Clear 19 1021 52 10000 1.54 240 22:20 28.03.2021
4822 Clear 20 1021 45 10000 3.6 100 21:40 28.03.2021
4823 Clear 20 1021 45 10000 3.6 100 21:22 28.03.2021
4824 Clear 21 1020 49 10000 3.09 180 20:47 28.03.2021
4825 Clear 22 1020 38 10000 3.09 90 20:29 28.03.2021
4826 Clear 24 1020 33 10000 2.06 150 19:43 28.03.2021
4827 Clear 25 1020 33 10000 2.06 150 19:22 28.03.2021
4828 Clear 25 1020 34 10000 1.54 220 18:58 28.03.2021
4829 Clear 25 1020 34 10000 1.54 0 18:26 28.03.2021
4830 Clear 26 1020 31 10000 0.51 220 17:47 28.03.2021
4831 Clear 25 1021 33 10000 1.54 220 17:27 28.03.2021
4832 Clear 25 1021 31 10000 2.06 180 16:46 28.03.2021
4833 Clear 24 1021 31 10000 2.06 180 16:23 28.03.2021
4834 Clear 24 1022 33 10000 3.09 180 15:27 28.03.2021
4835 Clear 23 1022 33 10000 3.09 170 14:57 28.03.2021
4836 Clear 23 1023 35 10000 3.09 120 14:31 28.03.2021
4837 Clear 23 1023 38 10000 3.09 110 13:48 28.03.2021
4838 Clear 22 1023 37 10000 4.12 100 13:22 28.03.2021
4839 Clear 22 1023 37 10000 4.12 90 12:51 28.03.2021
4840 Clear 21 1023 43 10000 4.12 90 12:32 28.03.2021
4841 Clear 20 1023 49 10000 5.14 80 11:46 28.03.2021
4842 Clear 18 1023 52 10000 6.17 70 11:26 28.03.2021
4843 Clear 18 1023 55 10000 4.63 70 10:45 28.03.2021
4844 Clear 16 1023 59 10000 4.12 70 10:26 28.03.2021
4845 Clear 15 1023 72 10000 4.12 60 09:47 28.03.2021
4846 Clear 14 1023 72 10000 4.12 60 09:25 28.03.2021
4847 Clear 13 1022 71 10000 2.57 40 08:46 28.03.2021
4848 Clear 14 1022 67 10000 4.12 60 07:51 28.03.2021
4849 Clear 15 1022 63 10000 4.63 60 07:19 28.03.2021
4850 Clear 13 1022 71 10000 3.6 30 04:18 28.03.2021
4851 Clear 14 1022 72 10000 1.03 50 01:26 28.03.2021
4852 Clear 16 1022 59 10000 1.54 240 00:21 28.03.2021
4853 Clear 17 1022 55 10000 3.6 210 23:44 27.03.2021
4854 Clear 18 1022 55 10000 3.6 220 23:19 27.03.2021
4855 Clear 19 1021 52 10000 3.09 190 22:37 27.03.2021
4856 Clear 19 1020 52 10000 2.57 200 21:59 27.03.2021
4857 Clear 20 1020 42 10000 4.12 210 21:40 27.03.2021
4858 Clear 20 1020 42 10000 4.12 210 21:19 27.03.2021
4859 Clear 19 1019 48 10000 0.51 0 20:50 27.03.2021
4860 Clear 22 1019 37 10000 1.54 30 20:31 27.03.2021
4861 Clear 23 1019 35 10000 2.06 10 19:45 27.03.2021
4862 Clear 25 1019 29 10000 2.06 10 19:23 27.03.2021
4863 Clear 26 1019 25 10000 1.03 0 18:50 27.03.2021
4864 Clear 26 1019 22 10000 0.51 10 18:31 27.03.2021
4865 Clear 26 1018 21 10000 0.51 30 17:56 27.03.2021
4866 Clear 26 1018 22 10000 1.54 50 17:26 27.03.2021
4867 Clear 26 1018 24 10000 2.06 70 16:53 27.03.2021
4868 Clear 26 1019 25 10000 2.57 40 16:30 27.03.2021
4869 Clear 26 1019 25 10000 3.09 50 15:56 27.03.2021
4870 Clear 25 1019 33 10000 3.09 50 15:33 27.03.2021
4871 Clear 24 1020 35 10000 3.09 70 14:52 27.03.2021
4872 Clear 24 1020 33 10000 4.12 70 14:19 27.03.2021
4873 Clear 23 1021 35 10000 3.09 70 13:27 27.03.2021
4874 Clear 22 1021 37 10000 4.63 70 12:56 27.03.2021
4875 Clear 21 1021 40 10000 4.63 70 12:33 27.03.2021
4876 Clear 19 1022 42 10000 5.66 60 11:47 27.03.2021
4877 Clear 19 1022 42 10000 5.66 60 11:27 27.03.2021
4878 Clear 17 1022 55 10000 3.6 40 10:48 27.03.2021
4879 Clear 16 1022 55 10000 3.6 40 10:25 27.03.2021
4880 Clear 14 1022 62 10000 2.57 50 09:30 27.03.2021
4881 Clear 14 1022 62 10000 2.57 50 09:30 27.03.2021
4882 Clear 13 1021 71 10000 2.06 60 08:49 27.03.2021
4883 Clear 12 1021 66 10000 3.09 60 08:31 27.03.2021
4884 Clear 12 1021 76 10000 2.06 40 07:36 27.03.2021
4885 Clear 12 1021 76 10000 2.57 50 06:58 27.03.2021
4886 Clear 12 1021 76 10000 3.6 40 06:34 27.03.2021
4887 Clear 13 1021 71 10000 2.57 20 04:40 27.03.2021
4888 Clear 15 1022 55 10000 2.06 50 00:56 27.03.2021
4889 Clear 15 1022 58 10000 1.54 50 00:31 27.03.2021
4890 Clear 15 1023 55 10000 1.03 0 23:58 26.03.2021
4891 Clear 17 1023 45 10000 1.54 360 23:22 26.03.2021
4892 Clear 18 1022 42 10000 2.57 350 22:36 26.03.2021
4893 Clear 19 1022 42 10000 3.09 330 21:40 26.03.2021
4894 Clear 19 1022 42 10000 3.09 330 21:22 26.03.2021
4895 Clear 20 1021 40 10000 3.09 350 20:49 26.03.2021
4896 Clear 20 1021 42 10000 2.06 280 20:30 26.03.2021
4897 Clear 20 1021 42 10000 2.06 280 20:30 26.03.2021
4898 Clear 20 1021 42 10000 2.06 280 20:30 26.03.2021
4899 Clear 21 1020 40 10000 2.06 220 19:50 26.03.2021
4900 Clear 23 1020 35 10000 1.03 190 19:30 26.03.2021
4901 Clear 23 1020 35 10000 2.06 210 18:47 26.03.2021
4902 Clear 24 1020 35 10000 2.06 220 18:28 26.03.2021
4903 Clear 24 1021 33 10000 1.03 0 17:50 26.03.2021
4904 Clear 24 1021 35 10000 2.06 260 17:22 26.03.2021
4905 Clear 24 1021 25 10000 2.57 270 16:34 26.03.2021
4906 Clear 23 1022 37 10000 0.51 0 15:59 26.03.2021
4907 Clear 23 1022 37 10000 0.51 0 15:26 26.03.2021
4908 Clear 22 1022 49 10000 1.54 30 14:43 26.03.2021
4909 Clear 21 1022 43 10000 0.51 0 13:46 26.03.2021
4910 Clear 21 1022 43 10000 0.51 0 13:46 26.03.2021
4911 Clear 20 1023 45 10000 1.03 0 13:22 26.03.2021
4912 Clear 19 1023 55 10000 1.54 20 12:35 26.03.2021
4913 Clear 17 1024 59 10000 2.57 20 11:47 26.03.2021
4914 Clear 15 1024 67 10000 2.57 10 11:27 26.03.2021
4915 Clear 14 1023 76 10000 3.09 30 10:42 26.03.2021
4916 Clear 13 1023 76 10000 3.09 30 10:19 26.03.2021
4917 Clear 11 1023 87 10000 1.54 360 09:41 26.03.2021
4918 Clear 10 1022 87 10000 1.54 360 08:49 26.03.2021
4919 Clear 10 1022 87 10000 2.06 360 08:29 26.03.2021
4920 Clear 9 1022 87 10000 2.57 350 07:44 26.03.2021
4921 Clear 10 1022 87 10000 1.54 350 07:22 26.03.2021
4922 Clouds 10 1022 87 9000 2.06 30 06:55 26.03.2021
4923 Clouds 10 1022 93 6000 1.54 90 05:32 26.03.2021
4924 Mist 11 1022 93 4200 1.03 0 04:18 26.03.2021
4925 Clear 13 1023 71 10000 1.03 0 00:52 26.03.2021
4926 Clear 13 1023 76 10000 1.03 0 23:51 25.03.2021
4927 Clear 14 1023 76 10000 1.03 0 23:33 25.03.2021
4928 Clear 15 1023 63 10000 2.57 210 22:41 25.03.2021
4929 Clear 15 1023 63 10000 2.57 210 22:19 25.03.2021
4930 Clear 15 1023 63 10000 2.57 210 22:19 25.03.2021
4931 Clear 16 1023 59 10000 3.6 220 21:45 25.03.2021
4932 Clear 17 1022 55 10000 4.12 220 21:24 25.03.2021
4933 Clear 18 1022 45 10000 3.6 220 20:38 25.03.2021
4934 Clear 19 1022 45 10000 3.6 220 20:18 25.03.2021
4935 Clear 20 1022 42 10000 4.63 220 19:40 25.03.2021
4936 Clear 20 1022 42 10000 4.63 220 19:21 25.03.2021
4937 Clear 21 1021 43 10000 3.6 220 18:44 25.03.2021
4938 Clear 22 1022 46 10000 3.6 220 18:25 25.03.2021
4939 Clear 22 1022 43 10000 2.57 240 17:40 25.03.2021
4940 Clear 22 1022 43 10000 2.57 240 17:21 25.03.2021
4941 Clear 22 1022 43 10000 2.57 210 16:38 25.03.2021
4942 Clear 21 1023 52 10000 1.54 0 16:19 25.03.2021
4943 Clear 21 1023 52 10000 1.54 0 15:42 25.03.2021
4944 Clear 21 1023 52 10000 1.54 0 15:19 25.03.2021
4945 Clear 20 1023 60 10000 1.54 0 14:42 25.03.2021
4946 Clear 18 1024 68 10000 2.57 270 13:40 25.03.2021
4947 Clear 18 1024 68 10000 2.57 270 13:22 25.03.2021
4948 Clear 17 1025 72 10000 1.03 0 12:41 25.03.2021
4949 Clouds 16 1025 72 10000 2.06 310 12:20 25.03.2021
4950 Clouds 15 1025 82 10000 2.06 40 11:48 25.03.2021
4951 Clouds 14 1025 82 10000 2.06 40 11:26 25.03.2021
4952 Clouds 13 1025 88 10000 1.03 0 10:51 25.03.2021
4953 Clouds 12 1025 88 9000 1.54 330 10:24 25.03.2021
4954 Clouds 12 1025 94 7000 1.54 340 09:55 25.03.2021
4955 Mist 12 1025 94 5000 0.51 0 09:36 25.03.2021
4956 Mist 11 1024 100 3000 0.51 180 08:46 25.03.2021
4957 Mist 11 1024 94 1500 0.51 0 07:59 25.03.2021
4958 Fog 11 1024 94 1100 1.54 230 06:59 25.03.2021
4959 Fog 11 1024 94 350 1.54 200 06:25 25.03.2021
4960 Fog 10 1024 100 100 1.54 210 05:49 25.03.2021
4961 Clouds 11 1024 93 8000 0.51 0 02:48 25.03.2021
4962 Clear 13 1025 82 10000 3.09 200 00:24 25.03.2021
4963 Clear 13 1025 76 10000 3.09 200 23:53 24.03.2021
4964 Clear 13 1025 72 10000 3.09 200 23:29 24.03.2021
4965 Clear 14 1025 67 10000 2.57 210 22:49 24.03.2021
4966 Clear 15 1025 63 10000 3.09 210 22:28 24.03.2021
4967 Clear 15 1025 67 10000 3.09 220 21:44 24.03.2021
4968 Clear 16 1025 63 10000 4.63 220 21:24 24.03.2021
4969 Clear 17 1024 55 10000 5.66 220 20:43 24.03.2021
4970 Clear 18 1024 48 10000 5.14 220 20:20 24.03.2021
4971 Clear 19 1024 48 10000 5.14 220 19:49 24.03.2021
4972 Clear 20 1023 46 10000 5.14 220 19:29 24.03.2021
4973 Clear 22 1023 43 10000 3.09 230 18:51 24.03.2021
4974 Clear 23 1023 38 10000 2.57 230 18:23 24.03.2021
4975 Clear 23 1023 38 10000 2.57 230 17:52 24.03.2021
4976 Clear 23 1023 35 10000 3.09 260 17:32 24.03.2021
4977 Clear 22 1023 35 10000 2.57 250 16:53 24.03.2021
4978 Clear 23 1024 43 10000 2.06 220 16:31 24.03.2021
4979 Clear 22 1025 49 10000 3.09 290 15:50 24.03.2021
4980 Clear 22 1025 49 10000 3.09 290 15:32 24.03.2021
4981 Clear 21 1025 49 10000 3.09 290 14:48 24.03.2021
4982 Clear 20 1025 56 10000 0.51 0 14:27 24.03.2021
4983 Clear 20 1025 63 10000 1.54 0 13:57 24.03.2021
4984 Clear 19 1026 68 10000 1.03 0 13:28 24.03.2021
4985 Clouds 17 1026 77 10000 0.51 0 12:45 24.03.2021
4986 Clouds 16 1026 77 10000 0.51 0 12:23 24.03.2021
4987 Clouds 15 1026 72 10000 1.03 0 11:49 24.03.2021
4988 Clouds 13 1026 82 10000 1.03 0 10:59 24.03.2021
4989 Clouds 12 1026 87 9000 1.03 0 10:41 24.03.2021
4990 Clouds 12 1026 87 9000 1.03 0 10:22 24.03.2021
4991 Clouds 12 1026 87 9000 1.54 40 09:53 24.03.2021
4992 Clouds 11 1026 87 8000 1.03 0 09:22 24.03.2021
4993 Clouds 11 1025 100 7000 1.54 70 08:52 24.03.2021
4994 Clouds 10 1025 100 6000 2.06 40 08:29 24.03.2021
4995 Clouds 10 1024 100 5000 2.06 50 07:41 24.03.2021
4996 Mist 10 1024 93 1200 1.54 30 06:54 24.03.2021
4997 Clouds 10 1024 93 9000 1.03 0 05:52 24.03.2021
4998 Clear 12 1024 87 10000 3.09 180 00:56 24.03.2021
4999 Clear 12 1024 82 10000 2.06 190 00:28 24.03.2021
5000 Clear 13 1024 72 10000 3.09 260 23:22 23.03.2021
5001 Clear 14 1024 72 10000 2.57 260 22:58 23.03.2021
5002 Clear 15 1024 63 10000 3.09 270 22:40 23.03.2021
5003 Clear 15 1023 67 10000 2.06 230 21:59 23.03.2021
5004 Clear 15 1023 67 10000 3.09 220 21:40 23.03.2021
5005 Clear 15 1023 67 10000 3.09 220 21:19 23.03.2021
5006 Clear 17 1022 59 10000 4.63 220 20:42 23.03.2021
5007 Clear 17 1022 59 10000 4.63 220 20:23 23.03.2021
5008 Clear 18 1022 48 10000 5.66 220 19:45 23.03.2021
5009 Rain 19 1022 48 10000 6.69 220 19:25 23.03.2021
5010 Clear 21 1021 46 10000 6.17 220 18:43 23.03.2021
5011 Clear 21 1021 46 10000 6.17 220 18:21 23.03.2021
5012 Clear 22 1021 43 10000 6.17 220 17:44 23.03.2021
5013 Clear 22 1021 40 10000 5.14 220 17:21 23.03.2021
5014 Clear 22 1021 40 10000 5.14 220 17:21 23.03.2021
5015 Clear 23 1022 46 10000 3.09 210 16:26 23.03.2021
5016 Clear 22 1022 46 10000 3.09 210 15:59 23.03.2021
5017 Clear 22 1022 46 10000 3.09 210 15:38 23.03.2021
5018 Clear 21 1022 49 10000 2.57 190 14:52 23.03.2021
5019 Clear 21 1023 40 10000 1.03 0 14:21 23.03.2021
5020 Clear 20 1023 49 10000 1.54 0 13:50 23.03.2021
5021 Clear 19 1023 55 10000 1.54 290 13:26 23.03.2021
5022 Clear 19 1023 55 10000 1.54 290 13:26 23.03.2021
5023 Clear 18 1024 63 10000 1.03 0 12:59 23.03.2021
5024 Clear 18 1024 59 10000 0.51 0 12:39 23.03.2021
5025 Clear 17 1024 59 10000 0.51 0 12:19 23.03.2021
5026 Clear 16 1024 67 10000 0.51 0 11:42 23.03.2021
5027 Clear 13 1024 67 10000 1.03 0 10:44 23.03.2021
5028 Clear 13 1023 76 10000 1.54 20 10:23 23.03.2021
5029 Clear 11 1023 81 10000 1.03 0 09:58 23.03.2021
5030 Clear 10 1023 81 10000 1.54 350 09:36 23.03.2021
5031 Clear 9 1023 81 10000 1.54 350 09:18 23.03.2021
5032 Clear 8 1022 87 10000 1.54 360 08:39 23.03.2021
5033 Clear 8 1022 87 10000 1.54 360 08:21 23.03.2021
5034 Clear 7 1022 87 10000 2.06 360 07:28 23.03.2021
5035 Clear 8 1021 93 10000 0.51 0 06:59 23.03.2021
5036 Clear 8 1021 93 10000 1.03 60 06:24 23.03.2021
5037 Clear 10 1020 76 10000 3.09 190 03:21 23.03.2021
5038 Clear 11 1020 76 10000 4.12 180 01:34 23.03.2021
5039 Clear 10 1020 66 10000 2.06 170 23:43 22.03.2021
5040 Clear 14 1020 51 10000 2.57 270 22:54 22.03.2021
5041 Clear 14 1020 47 10000 3.09 270 22:36 22.03.2021
5042 Clear 14 1020 47 10000 3.09 270 22:18 22.03.2021
5043 Clear 16 1019 41 10000 3.6 240 21:40 22.03.2021
5044 Clear 16 1019 41 10000 3.6 240 21:21 22.03.2021
5045 Clear 17 1019 39 10000 3.6 230 20:41 22.03.2021
5046 Clear 18 1018 42 10000 6.17 230 20:21 22.03.2021
5047 Clear 18 1018 42 10000 6.17 230 19:52 22.03.2021
5048 Clear 19 1018 28 10000 4.12 220 19:30 22.03.2021
5049 Clear 19 1018 28 10000 4.12 220 19:30 22.03.2021
5050 Clear 20 1018 28 10000 3.09 220 18:47 22.03.2021
5051 Clear 21 1017 28 10000 2.06 220 18:28 22.03.2021
5052 Clear 21 1017 24 10000 2.57 200 17:58 22.03.2021
5053 Clear 21 1017 26 10000 1.54 200 17:38 22.03.2021
5054 Clear 22 1017 26 10000 1.54 200 17:19 22.03.2021
5055 Clear 21 1017 24 10000 1.54 210 16:43 22.03.2021
5056 Clear 21 1018 24 10000 2.06 270 16:18 22.03.2021
5057 Clear 21 1018 28 10000 1.03 0 15:38 22.03.2021
5058 Clear 21 1018 28 10000 1.03 0 15:18 22.03.2021
5059 Clear 20 1018 28 10000 1.03 0 14:51 22.03.2021
5060 Clear 20 1019 32 10000 2.06 250 14:32 22.03.2021
5061 Clear 19 1019 39 10000 1.03 0 13:47 22.03.2021
5062 Clear 18 1019 39 10000 1.03 0 13:26 22.03.2021
5063 Clear 18 1020 42 10000 1.54 0 12:54 22.03.2021
5064 Clear 17 1020 42 10000 1.54 0 12:24 22.03.2021
5065 Clear 15 1020 51 10000 2.57 40 11:49 22.03.2021
5066 Clear 15 1020 51 10000 2.57 40 11:26 22.03.2021
5067 Clear 13 1020 54 10000 2.57 20 10:45 22.03.2021
5068 Clear 12 1020 54 10000 2.57 20 10:24 22.03.2021
5069 Clear 10 1019 71 10000 2.57 10 09:46 22.03.2021
5070 Clear 9 1019 81 10000 2.06 10 09:27 22.03.2021
5071 Clear 8 1019 81 10000 2.06 360 08:45 22.03.2021
5072 Clear 7 1019 81 10000 1.54 350 08:26 22.03.2021
5073 Clear 6 1019 87 10000 0.51 0 07:50 22.03.2021
5074 Clear 6 1019 93 10000 2.57 30 07:30 22.03.2021
5075 Clear 7 1019 87 10000 2.25 44 06:39 22.03.2021
5076 Clear 7 1020 76 10000 1.03 0 02:47 22.03.2021
5077 Clear 8 1020 76 10000 1.75 3 00:43 22.03.2021
5078 Clear 9 1020 71 10000 0.51 0 23:55 21.03.2021
5079 Clear 9 1020 71 10000 1.54 170 23:20 21.03.2021
5080 Clear 9 1020 71 10000 0.51 0 22:59 21.03.2021
5081 Clear 11 1020 58 10000 0.51 190 22:38 21.03.2021
5082 Clear 14 1020 38 10000 2.57 250 21:43 21.03.2021
5083 Clear 14 1020 38 10000 2.57 250 21:24 21.03.2021
5084 Clear 14 1020 44 10000 1.54 260 20:55 21.03.2021
5085 Clear 16 1019 33 10000 2.06 230 20:36 21.03.2021
5086 Clear 16 1019 33 10000 2.06 230 20:18 21.03.2021
5087 Clear 18 1019 29 10000 0.94 191 19:29 21.03.2021
5088 Clear 18 1019 29 10000 1.03 0 18:58 21.03.2021
5089 Clear 19 1019 26 10000 0.51 360 18:40 21.03.2021
5090 Clear 18 1019 26 10000 0.51 360 18:18 21.03.2021
5091 Clear 19 1019 26 10000 1.54 320 17:41 21.03.2021
5092 Clear 18 1019 25 10000 1.03 0 17:18 21.03.2021
5093 Clear 18 1019 25 10000 1.03 0 16:48 21.03.2021
5094 Clear 18 1019 25 10000 1.03 310 16:23 21.03.2021
5095 Clear 17 1020 29 10000 2.06 70 15:42 21.03.2021
5096 Clear 17 1020 27 10000 2.57 40 15:21 21.03.2021
5097 Clear 17 1021 29 10000 2.57 40 14:47 21.03.2021
5098 Clear 16 1021 25 10000 2.06 80 14:27 21.03.2021
5099 Clear 16 1022 29 10000 2.57 30 13:57 21.03.2021
5100 Clear 15 1022 31 10000 2.57 50 13:38 21.03.2021
5101 Clear 14 1022 33 10000 2.57 60 12:43 21.03.2021
5102 Clear 14 1022 33 10000 2.57 60 12:25 21.03.2021
5103 Clear 14 1022 33 10000 2.57 60 12:25 21.03.2021
5104 Clear 13 1023 33 10000 3.09 50 11:41 21.03.2021
5105 Clear 13 1023 35 10000 3.09 40 11:21 21.03.2021
5106 Clear 12 1023 37 10000 3.09 30 10:44 21.03.2021
5107 Clear 11 1023 40 10000 3.09 40 10:26 21.03.2021
5108 Clear 10 1022 61 10000 2.06 20 09:49 21.03.2021
5109 Clear 9 1022 61 10000 2.06 20 09:30 21.03.2021
5110 Clear 9 1020 51 10000 2.24 52 08:56 21.03.2021
5111 Clear 6 1022 81 10000 1.03 0 08:31 21.03.2021
5112 Clear 2 1021 87 10000 1.03 0 07:51 21.03.2021
5113 Clear 3 1021 87 10000 1.03 90 07:28 21.03.2021
5114 Clear 5 1020 87 10000 2.15 47 06:21 21.03.2021
5115 Clear 5 1020 81 10000 0.51 300 03:41 21.03.2021
5116 Clear 7 1019 70 10000 3.09 30 00:58 21.03.2021
5117 Clear 7 1019 70 10000 2.57 20 00:38 21.03.2021
5118 Clear 8 1019 66 10000 1.54 20 00:20 21.03.2021
5119 Clear 8 1019 66 10000 1.54 20 23:45 20.03.2021
5120 Clear 10 1019 61 10000 2.06 20 23:19 20.03.2021
5121 Clear 11 1018 53 10000 3.09 30 22:24 20.03.2021
5122 Clear 10 1018 57 10000 2.57 30 21:51 20.03.2021
5123 Clear 11 1017 50 10000 2.57 40 21:33 20.03.2021
5124 Clear 12 1017 43 10000 2.57 20 20:58 20.03.2021
5125 Clear 13 1016 41 10000 2.06 30 20:39 20.03.2021
5126 Clear 13 1016 41 10000 2.06 30 20:21 20.03.2021
5127 Clear 16 1016 31 10000 4.63 50 19:41 20.03.2021
5128 Clear 16 1016 31 10000 4.63 50 19:22 20.03.2021
5129 Clear 16 1015 31 10000 4.12 60 18:45 20.03.2021
5130 Clear 16 1015 31 10000 4.12 60 18:45 20.03.2021
5131 Clouds 17 1015 29 10000 5.14 50 18:21 20.03.2021
5132 Clouds 17 1015 29 10000 6.17 70 17:44 20.03.2021
5133 Clouds 17 1014 27 10000 5.66 70 17:23 20.03.2021
5134 Clouds 17 1014 27 10000 8.75 60 16:44 20.03.2021
5135 Clouds 17 1014 29 10000 7.2 70 16:20 20.03.2021
5136 Clouds 17 1014 29 10000 7.2 60 15:54 20.03.2021
5137 Clouds 17 1014 27 10000 9.26 70 15:33 20.03.2021
5138 Clouds 17 1014 29 10000 9.26 60 14:44 20.03.2021
5139 Clouds 16 1014 33 10000 8.23 50 14:22 20.03.2021
5140 Clouds 15 1015 36 10000 8.23 50 13:32 20.03.2021
5141 Clouds 14 1015 38 10000 8.75 60 12:51 20.03.2021
5142 Clouds 14 1015 38 10000 8.23 60 12:26 20.03.2021
5143 Clear 13 1015 41 10000 9.26 60 11:45 20.03.2021
5144 Clear 13 1015 43 10000 8.75 50 11:27 20.03.2021
5145 Clear 12 1015 43 10000 7.72 60 10:54 20.03.2021
5146 Clear 11 1014 46 10000 8.23 50 10:27 20.03.2021
5147 Clear 11 1014 53 10000 7.2 40 09:55 20.03.2021
5148 Clear 10 1014 61 10000 4.12 40 09:27 20.03.2021
5149 Clear 9 1013 61 10000 3.6 50 08:56 20.03.2021
5150 Clear 7 1013 70 10000 2.57 40 08:30 20.03.2021
5151 Clear 7 1013 70 10000 2.57 40 08:30 20.03.2021
5152 Clear 8 1013 76 10000 3.09 40 07:52 20.03.2021
5153 Clear 7 1012 81 10000 2.06 50 07:31 20.03.2021
5154 Clear 9 1012 71 10000 4.12 40 06:47 20.03.2021
5155 Clouds 9 1012 76 10000 3.09 30 06:18 20.03.2021
5156 Clouds 10 1012 87 10000 3.09 80 03:46 20.03.2021
5157 Rain 11 1012 82 9000 3.09 10 02:44 20.03.2021
5158 Clear 9 1012 76 10000 1.03 90 23:58 19.03.2021
5159 Clear 9 1012 71 10000 1.03 0 23:30 19.03.2021
5160 Clear 12 1012 54 10000 1.54 360 22:48 19.03.2021
5161 Clear 12 1012 58 10000 2.06 350 22:27 19.03.2021
5162 Clear 14 1012 47 10000 2.57 20 21:56 19.03.2021
5163 Clear 14 1011 47 10000 3.09 350 21:22 19.03.2021
5164 Clear 15 1011 44 10000 1.54 340 20:59 19.03.2021
5165 Clear 15 1011 44 10000 2.06 330 20:39 19.03.2021
5166 Clear 15 1011 44 10000 2.06 330 20:21 19.03.2021
5167 Clear 17 1011 36 10000 3.6 40 19:45 19.03.2021
5168 Clear 17 1011 36 10000 3.6 40 19:20 19.03.2021
5169 Clear 18 1011 34 10000 4.63 40 19:20 19.03.2021
5170 Clear 18 1011 32 10000 4.63 40 18:40 19.03.2021
5171 Clear 18 1011 32 10000 4.63 40 18:19 19.03.2021
5172 Clear 18 1012 29 10000 4.63 30 17:55 19.03.2021
5173 Clear 18 1012 32 10000 4.63 40 17:30 19.03.2021
5174 Clear 18 1012 32 10000 6.17 30 16:55 19.03.2021
5175 Clear 18 1013 32 10000 4.12 10 16:29 19.03.2021
5176 Clear 18 1013 32 10000 4.12 10 15:55 19.03.2021
5177 Clear 18 1013 32 10000 4.12 10 15:26 19.03.2021
5178 Clear 18 1013 34 10000 6.17 20 14:47 19.03.2021
5179 Clear 17 1014 34 10000 5.14 20 14:27 19.03.2021
5180 Clear 17 1014 31 10000 5.14 70 13:40 19.03.2021
5181 Clear 16 1015 39 10000 4.63 50 12:57 19.03.2021
5182 Clear 16 1015 39 10000 4.63 70 12:37 19.03.2021
5183 Clear 15 1015 44 10000 5.14 50 11:48 19.03.2021
5184 Clear 14 1015 47 10000 5.66 50 10:57 19.03.2021
5185 Clear 13 1015 50 10000 4.12 50 10:39 19.03.2021
5186 Clear 12 1015 50 10000 4.12 50 10:18 19.03.2021
5187 Clear 12 1015 54 10000 5.14 40 09:41 19.03.2021
5188 Clear 10 1015 53 10000 5.14 50 09:22 19.03.2021
5189 Clear 9 1015 61 10000 3.6 40 08:41 19.03.2021
5190 Clear 8 1015 61 10000 3.6 40 08:22 19.03.2021
5191 Clear 8 1014 65 10000 2.57 50 07:42 19.03.2021
5192 Clear 9 1014 53 10000 3.09 60 06:56 19.03.2021
5193 Clear 6 1014 70 10000 0.51 0 03:57 19.03.2021
5194 Clear 11 1015 46 10000 2.57 60 00:58 19.03.2021
5195 Clear 13 1015 38 10000 4.12 50 23:50 18.03.2021
5196 Clear 13 1015 38 10000 4.63 50 23:26 18.03.2021
5197 Clear 13 1014 41 10000 3.6 50 22:43 18.03.2021
5198 Clear 16 1013 29 10000 4.63 50 22:25 18.03.2021
5199 Clear 16 1013 29 10000 4.63 50 21:40 18.03.2021
5200 Clear 16 1013 29 10000 4.63 50 21:20 18.03.2021
5201 Clear 17 1013 27 10000 5.66 30 20:36 18.03.2021
5202 Clear 19 1012 26 10000 4.63 30 19:59 18.03.2021
5203 Clear 19 1012 26 10000 4.63 30 19:59 18.03.2021
5204 Clear 19 1012 26 10000 4.63 30 19:41 18.03.2021
5205 Clear 19 1012 30 10000 4.12 20 19:21 18.03.2021
5206 Clear 21 1012 24 10000 6.17 20 18:39 18.03.2021
5207 Clear 21 1012 26 10000 5.14 20 17:51 18.03.2021
5208 Clear 21 1012 26 10000 6.69 30 17:26 18.03.2021
5209 Clear 21 1012 30 10000 5.66 60 16:52 18.03.2021
5210 Clear 21 1013 24 10000 5.66 60 16:32 18.03.2021
5211 Clear 21 1014 32 10000 7.2 40 15:58 18.03.2021
5212 Clear 21 1014 32 10000 7.2 40 15:40 18.03.2021
5213 Clear 21 1014 32 10000 7.2 40 15:18 18.03.2021
5214 Clear 21 1014 32 10000 7.2 40 14:41 18.03.2021
5215 Clear 20 1014 32 10000 7.2 50 14:18 18.03.2021
5216 Clear 19 1015 37 10000 7.2 50 13:37 18.03.2021
5217 Clear 19 1015 37 10000 7.2 50 13:19 18.03.2021
5218 Clear 18 1015 34 10000 7.72 60 12:37 18.03.2021
5219 Clear 18 1015 34 10000 7.72 60 12:37 18.03.2021
5220 Clear 18 1015 34 10000 7.72 60 12:37 18.03.2021
5221 Clear 18 1015 34 10000 7.72 60 12:19 18.03.2021
5222 Clear 17 1015 36 10000 8.23 50 11:44 18.03.2021
5223 Clear 16 1016 39 10000 9.26 40 11:22 18.03.2021
5224 Clear 16 1016 41 10000 8.23 40 10:41 18.03.2021
5225 Clouds 14 1016 47 6000 6.69 50 10:23 18.03.2021
5226 Clouds 13 1016 50 6000 7.2 50 09:52 18.03.2021
5227 Clear 12 1016 54 10000 7.72 40 09:27 18.03.2021
5228 Clear 11 1015 62 10000 5.66 40 08:45 18.03.2021
5229 Clear 11 1015 62 10000 5.66 40 08:25 18.03.2021
5230 Clear 11 1015 66 10000 4.63 30 07:47 18.03.2021
5231 Clear 11 1015 87 10000 3.09 40 06:50 18.03.2021
5232 Clear 11 1016 76 10000 3.6 40 06:26 18.03.2021
5233 Clear 11 1016 76 10000 2.06 40 05:27 18.03.2021
5234 Clear 14 1017 58 10000 1.03 0 00:49 18.03.2021
5235 Clear 12 1017 71 10000 1.03 0 23:58 17.03.2021
5236 Clear 14 1017 58 10000 1.54 130 22:43 17.03.2021
5237 Clear 14 1017 58 10000 1.54 130 22:43 17.03.2021
5238 Clear 14 1016 62 10000 0.51 60 22:24 17.03.2021
5239 Clear 14 1016 62 10000 0.51 60 21:52 17.03.2021
5240 Clear 14 1016 62 10000 0.51 60 21:33 17.03.2021
5241 Clear 16 1016 51 10000 1.54 0 20:58 17.03.2021
5242 Clear 17 1016 48 10000 1.54 130 20:40 17.03.2021
5243 Clear 17 1016 48 10000 1.54 130 20:20 17.03.2021
5244 Clear 21 1016 35 10000 2.06 70 19:43 17.03.2021
5245 Clear 21 1016 35 10000 2.06 70 19:21 17.03.2021
5246 Clear 22 1016 28 10000 3.6 60 18:52 17.03.2021
5247 Clear 23 1016 28 10000 4.12 70 18:32 17.03.2021
5248 Clear 23 1016 27 10000 5.14 90 17:43 17.03.2021
5249 Clear 23 1016 27 10000 5.14 100 17:23 17.03.2021
5250 Clear 23 1017 25 10000 4.63 80 16:43 17.03.2021
5251 Clear 23 1018 35 10000 5.66 80 16:21 17.03.2021
5252 Clear 23 1018 35 10000 5.66 80 15:49 17.03.2021
5253 Clear 23 1018 35 10000 5.66 80 15:30 17.03.2021
5254 Clear 22 1018 35 10000 7.2 70 14:43 17.03.2021
5255 Clear 22 1018 35 10000 7.2 70 14:21 17.03.2021
5256 Clear 21 1019 37 10000 7.2 70 13:55 17.03.2021
5257 Clear 21 1019 40 10000 6.17 60 13:27 17.03.2021
5258 Clear 20 1020 45 10000 7.2 60 12:51 17.03.2021
5259 Clear 19 1020 52 10000 6.17 40 12:31 17.03.2021
5260 Clear 19 1020 55 10000 8.23 60 11:50 17.03.2021
5261 Clear 18 1020 55 10000 8.23 60 11:23 17.03.2021
5262 Clear 17 1020 48 10000 7.2 50 10:54 17.03.2021
5263 Clear 15 1020 72 10000 5.14 30 10:26 17.03.2021
5264 Clear 14 1020 72 10000 6.69 40 09:48 17.03.2021
5265 Clear 13 1020 76 10000 6.17 40 09:25 17.03.2021
5266 Clear 12 1020 76 10000 5.14 40 08:58 17.03.2021
5267 Clear 12 1020 82 10000 4.63 30 08:38 17.03.2021
5268 Clear 11 1020 87 10000 4.63 40 07:49 17.03.2021
5269 Clear 11 1020 87 10000 4.12 40 07:30 17.03.2021
5270 Clear 11 1020 87 10000 4.12 50 06:42 17.03.2021
5271 Clear 11 1020 82 10000 3.6 50 04:26 17.03.2021
5272 Clear 11 1021 87 10000 2.57 40 03:25 17.03.2021
5273 Clear 13 1022 71 10000 1.03 50 00:40 17.03.2021
5274 Clear 13 1021 71 10000 1.03 0 23:33 16.03.2021
5275 Clear 14 1021 67 10000 1.03 0 22:59 16.03.2021
5276 Clear 15 1021 58 10000 1.03 0 22:40 16.03.2021
5277 Clear 15 1020 63 10000 1.03 200 22:21 16.03.2021
5278 Clear 15 1020 63 10000 1.03 200 21:39 16.03.2021
5279 Clear 15 1020 63 10000 1.03 200 21:21 16.03.2021
5280 Clear 16 1020 59 10000 2.06 260 20:46 16.03.2021
5281 Clear 18 1019 48 10000 1.54 100 20:18 16.03.2021
5282 Clear 21 1019 40 10000 2.57 100 19:43 16.03.2021
5283 Clear 21 1019 40 10000 2.57 100 19:24 16.03.2021
5284 Clear 22 1019 37 10000 3.09 80 18:47 16.03.2021
5285 Clear 23 1019 33 10000 5.14 70 18:29 16.03.2021
5286 Clear 23 1019 33 10000 4.63 90 17:51 16.03.2021
5287 Clear 24 1019 35 10000 5.14 60 17:32 16.03.2021
5288 Clear 24 1019 38 10000 5.66 40 16:53 16.03.2021
5289 Clear 24 1019 38 10000 5.66 40 16:53 16.03.2021
5290 Clear 23 1020 33 10000 3.6 90 16:31 16.03.2021
5291 Clear 24 1020 33 10000 3.6 90 15:57 16.03.2021
5292 Clear 24 1020 33 10000 3.6 90 15:36 16.03.2021
5293 Clear 24 1020 35 10000 5.14 60 15:18 16.03.2021
5294 Clear 23 1021 40 10000 4.63 60 14:41 16.03.2021
5295 Clear 23 1021 31 10000 4.12 90 14:22 16.03.2021
5296 Clear 22 1021 40 10000 5.66 50 13:57 16.03.2021
5297 Clear 21 1021 46 10000 5.66 50 13:29 16.03.2021
5298 Clear 21 1021 45 10000 6.17 40 12:55 16.03.2021
5299 Clear 21 1021 45 10000 6.17 40 12:36 16.03.2021
5300 Clear 20 1022 45 10000 6.17 40 11:56 16.03.2021
5301 Clear 19 1022 52 10000 5.14 40 11:32 16.03.2021
5302 Clear 17 1022 55 10000 5.14 30 10:46 16.03.2021
5303 Clear 15 1022 58 10000 6.17 50 10:21 16.03.2021
5304 Clear 13 1022 71 10000 3.09 10 09:40 16.03.2021
5305 Clear 12 1022 71 10000 3.09 10 09:20 16.03.2021
5306 Clear 11 1021 81 10000 2.06 20 08:53 16.03.2021
5307 Clear 11 1021 76 10000 2.57 30 08:35 16.03.2021
5308 Clear 10 1021 81 10000 2.57 50 07:51 16.03.2021
5309 Clear 11 1021 76 10000 2.57 20 07:24 16.03.2021
5310 Clear 11 1021 76 10000 3.69 45 06:38 16.03.2021
5311 Clear 11 1021 76 10000 2.06 50 05:36 16.03.2021
5312 Clear 11 1021 76 10000 2.57 40 02:46 16.03.2021
5313 Clear 12 1021 76 10000 1.03 0 02:25 16.03.2021
5314 Clear 13 1021 67 10000 3.09 40 00:39 16.03.2021
5315 Clear 14 1021 62 10000 3.09 50 23:54 15.03.2021
5316 Clear 14 1021 67 10000 3.09 40 23:19 15.03.2021
5317 Clear 15 1021 63 10000 2.06 40 22:43 15.03.2021
5318 Clear 16 1020 59 10000 1.54 350 22:24 15.03.2021
5319 Clear 16 1020 59 10000 1.54 350 21:49 15.03.2021
5320 Clear 16 1020 59 10000 1.54 350 21:28 15.03.2021
5321 Clear 16 1020 63 10000 2.06 60 20:54 15.03.2021
5322 Clear 17 1020 55 10000 1.54 30 20:36 15.03.2021
5323 Clear 20 1020 45 10000 2.06 60 20:18 15.03.2021
5324 Clear 20 1020 45 10000 2.06 60 19:43 15.03.2021
5325 Clear 20 1019 42 10000 3.09 60 19:22 15.03.2021
5326 Clear 21 1019 43 10000 4.12 40 18:47 15.03.2021
5327 Clear 23 1019 40 10000 3.6 40 18:23 15.03.2021
5328 Clear 23 1019 40 10000 3.6 40 17:55 15.03.2021
5329 Clear 23 1020 33 10000 3.6 50 17:28 15.03.2021
5330 Clear 23 1020 33 10000 4.12 50 16:49 15.03.2021
5331 Clear 23 1020 38 10000 3.6 40 16:20 15.03.2021
5332 Clear 23 1020 38 10000 3.6 40 15:39 15.03.2021
5333 Clear 23 1020 38 10000 3.6 40 15:20 15.03.2021
5334 Clear 23 1021 35 10000 2.57 70 14:41 15.03.2021
5335 Clear 22 1021 35 10000 3.09 40 14:21 15.03.2021
5336 Clear 22 1021 40 10000 2.57 30 13:46 15.03.2021
5337 Clear 21 1022 52 10000 3.6 50 13:24 15.03.2021
5338 Clear 20 1022 42 10000 4.63 60 12:47 15.03.2021
5339 Clear 19 1022 45 10000 4.63 40 12:18 15.03.2021
5340 Clear 19 1022 45 10000 5.14 60 11:47 15.03.2021
5341 Clear 18 1022 51 10000 4.63 40 11:29 15.03.2021
5342 Clear 16 1022 55 10000 5.14 50 10:45 15.03.2021
5343 Clear 16 1022 55 10000 5.14 50 10:26 15.03.2021
5344 Clear 14 1022 58 10000 5.66 30 09:49 15.03.2021
5345 Clear 13 1022 62 10000 4.12 20 09:30 15.03.2021
5346 Clear 12 1022 71 10000 3.09 10 08:48 15.03.2021
5347 Clear 11 1022 66 10000 3.6 50 08:27 15.03.2021
5348 Clear 10 1022 76 10000 0.51 0 07:49 15.03.2021
5349 Clear 10 1022 71 10000 2.57 350 07:30 15.03.2021
5350 Clear 11 1021 66 10000 3.09 50 06:36 15.03.2021
5351 Clear 11 1022 76 10000 2.57 50 05:24 15.03.2021
5352 Clear 14 1023 58 10000 4.12 60 01:25 15.03.2021
5353 Clear 11 1023 76 10000 1.03 0 23:52 14.03.2021
5354 Clear 13 1023 67 10000 3.09 30 23:19 14.03.2021
5355 Clear 13 1023 67 10000 2.57 30 22:42 14.03.2021
5356 Clear 14 1023 62 10000 1.54 40 22:19 14.03.2021
5357 Clear 14 1023 62 10000 1.54 50 21:44 14.03.2021
5358 Clear 16 1022 55 10000 1.54 50 21:18 14.03.2021
5359 Clear 17 1022 55 10000 2.57 100 20:43 14.03.2021
5360 Clear 17 1022 55 10000 2.57 100 20:24 14.03.2021
5361 Clear 20 1022 40 10000 2.06 100 19:42 14.03.2021
5362 Clear 20 1022 40 10000 2.06 100 19:22 14.03.2021
5363 Clear 21 1022 35 10000 2.57 60 18:47 14.03.2021
5364 Clear 22 1022 28 10000 3.09 70 18:22 14.03.2021
5365 Clear 22 1022 28 10000 4.63 60 17:39 14.03.2021
5366 Clear 22 1022 28 10000 4.63 60 17:20 14.03.2021
5367 Clear 22 1022 32 10000 4.12 50 16:46 14.03.2021
5368 Clear 22 1022 32 10000 4.12 50 16:24 14.03.2021
5369 Clear 21 1022 32 10000 5.14 50 15:52 14.03.2021
5370 Clear 21 1023 30 10000 5.66 50 15:30 14.03.2021
5371 Clear 21 1024 32 10000 7.2 50 14:41 14.03.2021
5372 Clear 20 1024 32 10000 7.2 50 14:20 14.03.2021
5373 Clear 20 1024 34 10000 7.2 50 13:49 14.03.2021
5374 Clear 19 1024 39 10000 6.17 60 13:28 14.03.2021
5375 Clear 18 1025 42 10000 6.17 60 12:45 14.03.2021
5376 Clear 18 1025 42 10000 6.17 60 12:27 14.03.2021
5377 Clear 18 1025 42 10000 6.17 60 12:27 14.03.2021
5378 Clear 17 1025 48 10000 5.66 50 11:47 14.03.2021
5379 Clear 15 1025 48 10000 4.63 60 11:29 14.03.2021
5380 Clear 14 1025 54 10000 4.63 60 10:56 14.03.2021
5381 Clear 14 1025 58 10000 2.57 40 10:36 14.03.2021
5382 Clear 13 1025 58 10000 2.57 40 10:18 14.03.2021
5383 Clear 11 1025 71 10000 3.6 40 09:42 14.03.2021
5384 Clear 11 1025 71 10000 3.6 40 09:21 14.03.2021
5385 Clear 9 1024 76 10000 3.09 40 08:41 14.03.2021
5386 Clear 8 1024 81 10000 2.57 40 08:18 14.03.2021
5387 Clear 8 1024 76 10000 2.06 40 07:35 14.03.2021
5388 Clear 8 1024 76 10000 3.09 40 06:41 14.03.2021
5389 Clear 10 1024 71 10000 2.57 30 03:54 14.03.2021
5390 Clear 10 1024 76 10000 0.51 30 00:51 14.03.2021
5391 Clear 12 1024 71 10000 1.03 0 00:19 14.03.2021
5392 Clear 12 1024 71 10000 1.03 0 23:47 13.03.2021
5393 Clear 14 1024 54 10000 0.51 0 23:24 13.03.2021
5394 Clear 14 1024 58 10000 1.03 0 22:52 13.03.2021
5395 Clear 16 1024 44 10000 1.54 340 22:26 13.03.2021
5396 Clear 17 1023 55 10000 0.51 210 21:43 13.03.2021
5397 Clear 17 1023 55 10000 0.51 210 21:25 13.03.2021
5398 Clear 16 1023 63 10000 1.54 220 20:50 13.03.2021
5399 Clear 17 1022 59 10000 2.57 200 20:30 13.03.2021
5400 Clear 18 1022 55 10000 3.09 230 19:53 13.03.2021
5401 Clear 20 1021 42 10000 2.57 300 19:30 13.03.2021
5402 Clear 21 1021 40 10000 2.06 210 18:44 13.03.2021
5403 Clear 21 1021 40 10000 1.54 170 18:23 13.03.2021
5404 Clear 21 1021 35 10000 1.03 280 17:59 13.03.2021
5405 Clear 21 1022 37 10000 1.54 220 17:40 13.03.2021
5406 Clear 21 1022 37 10000 1.54 220 17:21 13.03.2021
5407 Clear 21 1022 37 10000 2.57 290 16:42 13.03.2021
5408 Clear 21 1022 37 10000 1.54 260 16:19 13.03.2021
5409 Clear 20 1022 40 10000 1.54 310 15:27 13.03.2021
5410 Clear 20 1023 42 10000 1.54 20 14:47 13.03.2021
5411 Clear 20 1023 42 10000 1.54 20 14:28 13.03.2021
5412 Clear 19 1024 42 10000 1.03 60 13:47 13.03.2021
5413 Clear 18 1024 45 10000 0.51 350 13:24 13.03.2021
5414 Clear 18 1024 48 10000 1.54 50 12:43 13.03.2021
5415 Clear 17 1024 48 10000 1.03 20 12:20 13.03.2021
5416 Clear 16 1024 51 10000 1.03 0 11:49 13.03.2021
5417 Clear 15 1024 55 10000 1.03 0 11:28 13.03.2021
5418 Clear 14 1023 66 10000 2.57 40 10:50 13.03.2021
5419 Clear 13 1023 66 10000 2.57 40 10:29 13.03.2021
5420 Clear 12 1022 65 10000 0.89 93 09:47 13.03.2021
5421 Clear 11 1021 67 10000 1.79 34 08:59 13.03.2021
5422 Clear 10 1023 93 10000 1.54 110 08:41 13.03.2021
5423 Clear 9 1023 87 10000 1.03 0 08:19 13.03.2021
5424 Clear 9 1023 87 10000 1.03 0 08:19 13.03.2021
5425 Clear 8 1023 93 10000 1.03 0 07:46 13.03.2021
5426 Clear 8 1022 87 10000 0.51 0 06:51 13.03.2021
5427 Clear 8 1022 87 10000 2.88 5 02:54 13.03.2021
5428 Clear 12 1023 81 10000 1.03 360 00:56 13.03.2021
5429 Clear 11 1023 71 10000 1.03 0 23:59 12.03.2021
5430 Clear 13 1023 66 10000 2.06 350 23:32 12.03.2021
5431 Clear 15 1023 58 10000 2.57 340 22:43 12.03.2021
5432 Clear 15 1023 58 10000 2.57 340 22:23 12.03.2021
5433 Clear 14 1023 58 10000 3.09 340 21:45 12.03.2021
5434 Clear 15 1023 55 10000 3.09 350 21:27 12.03.2021
5435 Clear 16 1022 51 10000 3.09 350 20:56 12.03.2021
5436 Clear 17 1022 51 10000 3.09 350 20:36 12.03.2021
5437 Clear 17 1022 45 10000 4.12 360 19:59 12.03.2021
5438 Clear 18 1021 45 10000 5.14 10 19:40 12.03.2021
5439 Clear 18 1021 45 10000 5.14 10 19:22 12.03.2021
5440 Clear 20 1021 43 10000 4.63 340 18:36 12.03.2021
5441 Clear 21 1021 43 10000 3.6 330 18:18 12.03.2021
5442 Clear 21 1021 40 10000 3.6 340 17:39 12.03.2021
5443 Clear 21 1021 40 10000 3.6 340 17:20 12.03.2021
5444 Clear 22 1021 43 10000 5.14 340 16:42 12.03.2021
5445 Clear 21 1023 52 10000 1.03 0 15:55 12.03.2021
5446 Clear 21 1023 52 10000 1.03 0 15:35 12.03.2021
5447 Clear 21 1023 52 10000 1.03 0 14:49 12.03.2021
5448 Clouds 21 1023 60 10000 2.06 120 14:21 12.03.2021
5449 Clear 20 1024 59 10000 1.03 0 13:45 12.03.2021
5450 Clear 19 1024 59 10000 2.57 70 13:24 12.03.2021
5451 Clear 18 1025 59 10000 2.57 50 12:59 12.03.2021
5452 Clear 18 1025 63 10000 2.57 10 12:41 12.03.2021
5453 Clear 17 1025 63 10000 1.54 0 12:20 12.03.2021
5454 Clear 17 1025 63 10000 1.54 0 11:51 12.03.2021
5455 Clear 16 1026 63 10000 2.06 50 11:23 12.03.2021
5456 Clear 15 1026 77 10000 1.54 50 10:54 12.03.2021
5457 Clear 15 1026 77 10000 2.06 10 10:26 12.03.2021
5458 Clear 14 1025 88 10000 1.54 10 09:57 12.03.2021
5459 Clear 13 1025 82 10000 1.54 20 09:26 12.03.2021
5460 Clear 11 1025 87 10000 1.03 0 08:46 12.03.2021
5461 Clear 11 1025 93 10000 2.57 350 07:59 12.03.2021
5462 Clear 10 1025 100 10000 1.54 350 07:38 12.03.2021
5463 Clear 11 1024 93 10000 0.51 0 06:54 12.03.2021
5464 Clear 11 1024 93 10000 0.51 270 06:28 12.03.2021
5465 Clear 12 1025 93 10000 1.03 110 02:58 12.03.2021
5466 Clear 13 1025 88 10000 1.54 310 00:51 12.03.2021
5467 Clear 14 1026 82 10000 1.03 250 23:31 11.03.2021
5468 Clear 15 1025 77 10000 2.57 220 22:51 11.03.2021
5469 Clear 14 1025 82 10000 1.54 200 22:31 11.03.2021
5470 Clear 15 1025 82 10000 1.54 200 21:56 11.03.2021
5471 Clear 15 1025 82 10000 1.54 200 21:37 11.03.2021
5472 Clear 16 1025 82 10000 2.57 230 21:19 11.03.2021
5473 Clear 16 1025 82 10000 2.57 230 20:41 11.03.2021
5474 Clear 17 1025 63 10000 3.09 230 20:19 11.03.2021
5475 Clear 19 1024 55 10000 3.6 230 19:45 11.03.2021
5476 Clear 19 1024 55 10000 3.6 230 19:26 11.03.2021
5477 Clear 20 1024 56 10000 3.6 230 18:47 11.03.2021
5478 Clear 21 1024 49 10000 2.57 220 18:29 11.03.2021
5479 Clear 21 1024 49 10000 2.06 220 17:44 11.03.2021
5480 Clear 22 1025 35 10000 2.57 250 16:54 11.03.2021
5481 Clear 21 1026 49 10000 2.06 220 16:28 11.03.2021
5482 Clear 21 1026 49 10000 2.06 220 15:49 11.03.2021
5483 Clear 20 1026 49 10000 2.06 220 15:22 11.03.2021
5484 Clear 20 1026 49 10000 1.54 290 14:49 11.03.2021
5485 Clear 20 1027 52 10000 1.54 0 14:20 11.03.2021
5486 Clear 19 1027 48 10000 1.03 0 13:59 11.03.2021
5487 Clear 18 1028 63 10000 1.54 290 13:38 11.03.2021
5488 Clear 18 1028 63 10000 1.54 290 13:18 11.03.2021
5489 Clear 17 1028 63 10000 1.54 50 12:43 11.03.2021
5490 Clear 16 1028 72 10000 1.54 70 12:25 11.03.2021
5491 Clear 15 1028 72 10000 2.06 60 11:43 11.03.2021
5492 Clear 14 1028 76 10000 1.54 50 11:25 11.03.2021
5493 Clear 13 1028 76 10000 1.54 60 10:44 11.03.2021
5494 Clear 12 1028 76 10000 2.57 50 10:21 11.03.2021
5495 Clear 10 1027 93 10000 1.54 20 09:45 11.03.2021
5496 Clear 10 1027 93 10000 1.54 20 09:23 11.03.2021
5497 Clear 8 1027 93 10000 1.03 0 08:47 11.03.2021
5498 Clear 8 1027 93 10000 1.03 0 08:20 11.03.2021
5499 Clear 8 1027 93 10000 2.57 350 07:34 11.03.2021
5500 Clear 9 1026 93 10000 1.03 0 06:50 11.03.2021
5501 Clear 9 1026 93 10000 1.03 0 06:50 11.03.2021
5502 Clear 9 1026 100 10000 1.03 0 06:30 11.03.2021
5503 Clear 9 1026 93 10000 0.51 60 04:44 11.03.2021
5504 Clear 10 1026 87 10000 1.03 50 01:23 11.03.2021
5505 -273 0 0 0 0 0 23:51 10.03.2021
5506 -273 0 0 0 0 0 23:51 10.03.2021
5507 Clear 13 1026 76 10000 2.57 270 23:20 10.03.2021
5508 Clear 15 1026 67 10000 3.6 280 22:39 10.03.2021
5509 Clear 15 1026 67 10000 3.6 280 22:39 10.03.2021
5510 Clear 14 1025 77 10000 2.06 270 21:47 10.03.2021
5511 Clear 14 1025 77 10000 2.06 270 21:26 10.03.2021
5512 Clear 15 1024 72 10000 2.06 250 20:58 10.03.2021
5513 Clear 15 1024 72 10000 2.57 250 20:39 10.03.2021
5514 Clear 15 1024 72 10000 2.57 250 20:20 10.03.2021
5515 Clear 18 1023 55 10000 2.06 240 19:40 10.03.2021
5516 Clear 18 1023 55 10000 2.06 240 19:20 10.03.2021
5517 Clear 20 1023 34 10000 0.51 170 18:38 10.03.2021
5518 Clear 20 1023 34 10000 0.51 170 18:19 10.03.2021
5519 Clear 20 1023 34 10000 0.51 330 17:42 10.03.2021
5520 Clouds 20 1023 32 10000 1.03 190 17:20 10.03.2021
5521 Clouds 20 1023 34 10000 0.51 200 16:53 10.03.2021
5522 Clouds 20 1023 37 10000 1.54 290 16:30 10.03.2021
5523 Clear 20 1024 45 10000 1.03 0 15:59 10.03.2021
5524 Clear 20 1024 45 10000 1.03 0 15:38 10.03.2021
5525 Clear 19 1024 45 10000 1.03 0 15:20 10.03.2021
5526 Clear 19 1024 48 10000 2.06 60 14:38 10.03.2021
5527 Clear 18 1024 48 10000 1.54 70 14:19 10.03.2021
5528 Clear 18 1025 59 10000 1.03 0 13:35 10.03.2021
5529 Clear 17 1025 63 10000 2.06 60 12:56 10.03.2021
5530 Clear 16 1025 67 10000 1.03 0 12:32 10.03.2021
5531 Clear 15 1025 67 10000 2.06 0 11:59 10.03.2021
5532 Clear 14 1025 72 10000 2.57 40 11:31 10.03.2021
5533 Clear 13 1024 71 10000 2.57 30 10:57 10.03.2021
5534 Clear 12 1024 82 10000 2.06 40 10:34 10.03.2021
5535 Clear 11 1024 82 10000 2.57 70 09:58 10.03.2021
5536 Clear 10 1023 87 10000 0.51 0 09:40 10.03.2021
5537 Clear 10 1023 87 10000 0.51 0 09:20 10.03.2021
5538 Clear 9 1022 100 8000 0.51 0 08:46 10.03.2021
5539 Clear 8 1022 100 8000 0.51 0 08:28 10.03.2021
5540 Clear 8 1022 93 6000 0.51 0 07:48 10.03.2021
5541 Clear 8 1022 93 8000 1.03 0 07:29 10.03.2021
5542 Clear 8 1022 93 8000 1.03 0 07:29 10.03.2021
5543 Clear 9 1022 93 9000 1.54 40 06:52 10.03.2021
5544 Clear 10 1021 93 9000 1.03 120 03:29 10.03.2021
5545 Clear 11 1021 93 10000 2.06 140 00:42 10.03.2021
5546 Clear 12 1020 87 10000 1.54 150 23:49 09.03.2021
5547 Clear 12 1019 71 10000 1.91 349 22:58 09.03.2021
5548 Clear 12 1019 71 10000 1.91 349 22:38 09.03.2021
5549 Clear 12 1019 71 10000 1.7 338 22:18 09.03.2021
5550 Clear 13 1019 71 10000 1.7 338 21:44 09.03.2021
5551 Clear 14 1019 76 10000 0.51 0 21:24 09.03.2021
5552 Clear 13 1018 76 10000 0.51 0 20:56 09.03.2021
5553 Clear 15 1018 62 10000 0.51 360 20:38 09.03.2021
5554 Clear 15 1018 62 10000 0.51 360 20:19 09.03.2021
5555 Clouds 17 1017 48 10000 1.03 0 19:45 09.03.2021
5556 Clouds 17 1017 48 10000 1.03 0 19:25 09.03.2021
5557 Clouds 17 1016 51 10000 2.57 60 18:42 09.03.2021
5558 Clouds 18 1016 51 10000 2.57 60 18:23 09.03.2021
5559 Clouds 18 1016 45 10000 3.09 20 17:49 09.03.2021
5560 Clouds 18 1016 48 10000 2.06 40 17:28 09.03.2021
5561 Clouds 18 1016 48 10000 3.09 40 16:41 09.03.2021
5562 Clouds 18 1017 55 10000 2.57 40 16:23 09.03.2021
5563 Clouds 18 1017 55 10000 2.57 40 15:57 09.03.2021
5564 Clouds 18 1017 55 10000 2.57 40 15:28 09.03.2021
5565 Clouds 17 1017 63 10000 1.54 50 14:52 09.03.2021
5566 Clouds 17 1017 63 10000 1.03 0 14:27 09.03.2021
5567 Clouds 16 1018 63 10000 1.54 10 13:43 09.03.2021
5568 Clouds 16 1018 63 10000 2.06 60 13:22 09.03.2021
5569 Clouds 15 1018 67 10000 1.03 0 12:56 09.03.2021
5570 Clouds 15 1018 72 10000 2.57 60 12:38 09.03.2021
5571 Clear 14 1018 72 10000 3.6 50 11:58 09.03.2021
5572 Clear 14 1018 82 10000 3.6 50 11:39 09.03.2021
5573 Clear 13 1018 82 10000 3.6 50 11:19 09.03.2021
5574 Clear 12 1018 87 10000 3.6 50 10:41 09.03.2021
5575 Clear 11 1018 87 10000 3.6 50 10:22 09.03.2021
5576 Clear 10 1018 87 10000 1.54 340 09:58 09.03.2021
5577 Clear 10 1017 87 10000 2.57 350 09:37 09.03.2021
5578 Clear 9 1017 87 10000 2.57 350 09:18 09.03.2021
5579 Clouds 8 1016 93 10000 1.54 360 08:35 09.03.2021
5580 Clouds 8 1016 93 10000 1.03 0 07:50 09.03.2021
5581 Clouds 8 1016 93 6000 1.03 120 07:31 09.03.2021
5582 Clear 8 1016 93 10000 1.03 0 06:59 09.03.2021
5583 Clear 9 1015 93 10000 1.03 100 05:54 09.03.2021
5584 Clouds 9 1016 93 9000 0.51 0 03:51 09.03.2021
5585 Clouds 11 1016 87 10000 1.03 0 00:18 09.03.2021
5586 Clear 11 1016 87 10000 1.54 130 23:42 08.03.2021
5587 Clear 11 1016 87 10000 1.54 130 23:23 08.03.2021
5588 Clouds 11 1015 87 10000 1.54 170 22:44 08.03.2021
5589 Clouds 11 1015 87 10000 1.54 170 22:26 08.03.2021
5590 Clouds 12 1015 87 10000 1.54 170 21:53 08.03.2021
5591 Clouds 12 1015 87 10000 1.03 0 21:34 08.03.2021
5592 Clear 12 1014 82 10000 1.54 150 20:45 08.03.2021
5593 Clear 12 1014 76 10000 1.54 150 20:25 08.03.2021
5594 Clear 13 1014 67 10000 1.54 150 19:58 08.03.2021
5595 Clear 14 1013 62 10000 2.06 170 19:28 08.03.2021
5596 Clouds 15 1013 63 10000 3.09 190 18:39 08.03.2021
5597 Clouds 15 1013 63 10000 3.09 190 18:20 08.03.2021
5598 Clouds 16 1013 58 10000 3.6 220 17:51 08.03.2021
5599 Clouds 16 1013 59 10000 3.6 220 17:25 08.03.2021
5600 Clouds 16 1013 63 10000 4.12 220 16:46 08.03.2021
5601 Clouds 16 1013 63 10000 4.12 220 16:28 08.03.2021
5602 Clouds 16 1014 63 10000 3.09 250 15:49 08.03.2021
5603 Clouds 16 1014 63 10000 3.09 250 15:28 08.03.2021
5604 Clouds 16 1014 63 10000 3.09 250 14:43 08.03.2021
5605 Clouds 15 1015 67 10000 3.6 230 14:20 08.03.2021
5606 Clouds 15 1015 82 9000 3.09 260 13:40 08.03.2021
5607 Clouds 14 1015 82 9000 3.09 260 13:19 08.03.2021
5608 Clouds 13 1016 88 6000 2.57 240 12:45 08.03.2021
5609 Mist 13 1016 88 4500 3.09 220 12:26 08.03.2021
5610 Clouds 12 1016 100 6000 1.03 0 11:40 08.03.2021
5611 Clouds 12 1016 100 6000 1.03 0 11:19 08.03.2021
5612 Mist 11 1016 94 4500 1.03 0 10:43 08.03.2021
5613 Mist 11 1015 94 1800 0.51 0 10:24 08.03.2021
5614 Mist 11 1015 100 2000 1.03 0 09:41 08.03.2021
5615 Fog 11 1015 100 450 0.51 0 09:23 08.03.2021
5616 Fog 11 1015 100 450 0.51 0 09:23 08.03.2021
5617 Mist 10 1015 100 1400 1.54 190 08:29 08.03.2021
5618 Fog 11 1014 100 250 1.54 210 07:24 08.03.2021
5619 Fog 11 1014 100 200 1.54 350 06:44 08.03.2021
5620 Mist 12 1015 94 4800 1.03 0 03:39 08.03.2021
5621 Clouds 12 1016 87 10000 1.03 0 00:45 08.03.2021
5622 Clouds 12 1016 94 10000 2.06 200 00:20 08.03.2021
5623 Clear 12 1016 93 10000 1.54 140 23:39 07.03.2021
5624 Clear 12 1016 93 10000 1.54 140 23:20 07.03.2021
5625 Clear 13 1016 82 10000 2.06 220 22:44 07.03.2021
5626 Clear 13 1016 82 10000 2.06 190 22:26 07.03.2021
5627 Clear 13 1016 93 10000 1.03 140 21:45 07.03.2021
5628 Clear 13 1016 87 10000 1.54 140 21:26 07.03.2021
5629 Clear 13 1016 82 10000 1.54 190 20:49 07.03.2021
5630 Clouds 13 1015 72 10000 3.6 230 20:31 07.03.2021
5631 Clouds 14 1015 77 10000 3.6 210 19:58 07.03.2021
5632 Clouds 14 1015 72 10000 1.54 220 19:39 07.03.2021
5633 Clouds 15 1015 72 10000 1.54 220 19:20 07.03.2021
5634 Clouds 14 1015 63 10000 2.06 270 18:47 07.03.2021
5635 Rain 16 1014 63 10000 3.09 250 18:20 07.03.2021
5636 Rain 16 1014 67 10000 6.17 290 17:44 07.03.2021
5637 Rain 18 1014 68 10000 1.54 220 17:21 07.03.2021
5638 Rain 19 1015 63 10000 1.03 210 16:59 07.03.2021
5639 Rain 19 1015 63 10000 1.03 210 16:59 07.03.2021
5640 Clouds 19 1015 59 10000 2.06 200 16:39 07.03.2021
5641 Clouds 19 1015 59 10000 2.06 200 16:20 07.03.2021
5642 Clouds 19 1015 59 10000 2.06 200 16:20 07.03.2021
5643 Clear 19 1015 63 10000 1.54 240 15:46 07.03.2021
5644 Clouds 19 1016 63 10000 1.54 230 15:28 07.03.2021
5645 Clouds 18 1017 67 10000 1.54 260 14:39 07.03.2021
5646 Clouds 18 1017 67 10000 1.54 260 14:21 07.03.2021
5647 Clouds 17 1018 72 10000 0.51 240 13:42 07.03.2021
5648 Clouds 16 1018 72 10000 0.51 240 13:23 07.03.2021
5649 Clouds 16 1018 82 10000 0.51 320 12:47 07.03.2021
5650 Clouds 15 1018 82 9000 1.03 0 12:29 07.03.2021
5651 Clouds 14 1018 88 8000 0.53 355 11:52 07.03.2021
5652 Clouds 14 1018 88 7000 0.51 0 11:23 07.03.2021
5653 Clouds 14 1018 88 6000 0.51 0 10:51 07.03.2021
5654 Mist 13 1018 94 5000 0.51 0 10:33 07.03.2021
5655 Mist 13 1018 94 5000 0.51 0 09:52 07.03.2021
5656 Mist 13 1018 94 3000 0.39 134 09:26 07.03.2021
5657 Mist 13 1018 94 3000 1.03 30 08:48 07.03.2021
5658 Mist 13 1018 94 3000 1.54 20 08:25 07.03.2021
5659 Mist 13 1017 94 4500 1.54 40 07:51 07.03.2021
5660 Mist 13 1017 94 4100 0.89 196 02:44 07.03.2021
5661 Mist 13 1018 94 4000 0.51 0 02:24 07.03.2021
5662 Clouds 14 1018 94 9000 1.18 308 00:24 07.03.2021
5663 Clouds 14 1018 94 9000 2.57 340 23:39 06.03.2021
5664 Clouds 14 1018 94 9000 2.57 340 23:19 06.03.2021
5665 Clouds 14 1018 94 8000 0.51 0 22:41 06.03.2021
5666 Clouds 14 1018 94 8000 0.51 0 22:21 06.03.2021
5667 Rain 14 1018 88 10000 0.51 0 21:40 06.03.2021
5668 Rain 14 1018 88 10000 0.51 0 21:20 06.03.2021
5669 Rain 14 1018 88 10000 0.51 0 21:20 06.03.2021
5670 Clouds 14 1017 94 9000 2.06 170 20:41 06.03.2021
5671 Rain 14 1017 88 10000 1.54 300 19:55 06.03.2021
5672 Rain 15 1017 94 10000 0.51 80 19:37 06.03.2021
5673 Clear 15 1017 94 10000 0.51 80 19:18 06.03.2021
5674 Rain 15 1017 77 10000 0.51 0 18:41 06.03.2021
5675 Rain 15 1017 77 10000 0.51 0 18:20 06.03.2021
5676 Clear 15 1016 77 10000 2.57 150 17:48 06.03.2021
5677 Clear 16 1016 72 10000 2.06 170 17:27 06.03.2021
5678 Clear 16 1016 77 10000 2.06 160 16:53 06.03.2021
5679 Rain 16 1016 77 10000 1.03 0 16:31 06.03.2021
5680 Clouds 16 1016 77 10000 2.57 150 15:55 06.03.2021
5681 Rain 16 1017 77 10000 2.57 140 15:35 06.03.2021
5682 Rain 17 1017 63 10000 3.6 110 14:57 06.03.2021
5683 Clear 17 1017 72 10000 2.57 90 14:31 06.03.2021
5684 Clear 17 1017 67 10000 2.57 100 13:52 06.03.2021
5685 Clear 16 1017 72 10000 3.6 70 13:33 06.03.2021
5686 Clear 16 1017 72 10000 4.12 50 12:58 06.03.2021
5687 Clear 16 1017 72 10000 4.12 50 12:38 06.03.2021
5688 Clear 16 1017 72 10000 4.12 50 12:18 06.03.2021
5689 Clear 16 1017 72 10000 4.12 50 12:18 06.03.2021
5690 Clear 15 1017 77 10000 3.6 50 11:38 06.03.2021
5691 Clear 14 1017 77 10000 3.6 50 11:18 06.03.2021
5692 Clear 13 1018 82 10000 3.09 60 10:42 06.03.2021
5693 Clouds 13 1017 88 9000 4.12 60 09:57 06.03.2021
5694 Clouds 12 1017 94 9000 3.09 60 09:26 06.03.2021
5695 Clear 12 1017 87 10000 3.6 70 08:56 06.03.2021
5696 Clear 11 1016 93 10000 2.06 40 08:31 06.03.2021
5697 Clear 11 1016 87 10000 2.57 50 07:55 06.03.2021
5698 Clear 11 1016 87 10000 3.6 60 07:22 06.03.2021
5699 Clear 11 1015 87 10000 4.63 60 06:42 06.03.2021
5700 Clear 11 1015 87 10000 3.09 60 03:49 06.03.2021
5701 Clear 11 1016 87 10000 2.57 70 01:43 06.03.2021
5702 Clear 11 1016 93 10000 1.54 40 00:47 06.03.2021
5703 Clear 12 1016 93 10000 2.06 30 23:51 05.03.2021
5704 Clear 12 1016 93 10000 1.03 10 23:22 05.03.2021
5705 Clear 12 1015 93 10000 2.06 80 22:45 05.03.2021
5706 Clear 12 1015 94 10000 2.57 50 22:22 05.03.2021
5707 Clear 12 1015 94 10000 2.06 70 21:52 05.03.2021
5708 Clear 13 1015 94 10000 2.57 70 21:32 05.03.2021
5709 Clear 13 1015 88 10000 3.09 70 20:53 05.03.2021
5710 Clear 13 1014 88 10000 3.09 70 20:26 05.03.2021
5711 Clear 14 1014 82 10000 4.63 60 19:55 05.03.2021
5712 Clouds 14 1014 82 10000 3.6 70 19:26 05.03.2021
5713 Clouds 14 1014 77 10000 4.12 80 18:56 05.03.2021
5714 Clouds 14 1014 77 10000 4.63 90 18:38 05.03.2021
5715 Clouds 15 1014 77 10000 4.63 90 18:18 05.03.2021
5716 Clouds 15 1014 77 10000 4.63 90 18:18 05.03.2021
5717 Clouds 14 1013 82 10000 3.6 90 17:34 05.03.2021
5718 Clouds 14 1013 88 10000 3.6 90 16:46 05.03.2021
5719 Clouds 14 1013 88 7000 3.6 60 16:24 05.03.2021
5720 Rain 14 1013 88 7000 3.6 60 15:58 05.03.2021
5721 Rain 14 1013 88 7000 3.6 60 15:39 05.03.2021
5722 Rain 14 1013 88 7000 3.6 60 15:20 05.03.2021
5723 Clouds 13 1014 88 10000 3.09 30 14:38 05.03.2021
5724 Clouds 13 1014 88 10000 3.09 30 14:38 05.03.2021
5725 Rain 12 1014 94 8000 1.54 310 13:55 05.03.2021
5726 Rain 12 1014 94 6000 5.66 50 13:22 05.03.2021
5727 Rain 12 1014 94 4000 3.6 60 12:55 05.03.2021
5728 Rain 12 1014 94 4000 3.6 40 11:56 05.03.2021
5729 Rain 11 1015 94 4000 2.57 70 11:36 05.03.2021
5730 Rain 11 1015 94 4000 2.57 70 11:18 05.03.2021
5731 Rain 11 1014 87 5000 3.09 30 10:41 05.03.2021
5732 Rain 11 1014 87 5000 3.09 30 10:23 05.03.2021
5733 Rain 12 1013 87 5000 1.54 350 09:49 05.03.2021
5734 Rain 12 1013 87 5000 1.54 350 09:26 05.03.2021
5735 Clouds 12 1013 87 5000 2.06 360 08:43 05.03.2021
5736 Rain 12 1013 87 10000 2.06 350 08:24 05.03.2021
5737 Clouds 12 1012 87 10000 2.57 40 07:44 05.03.2021
5738 Clouds 12 1012 87 10000 2.57 40 07:20 05.03.2021
5739 Clouds 12 1013 82 10000 2.57 50 06:31 05.03.2021
5740 Haze 13 1015 76 5000 1.54 50 02:51 05.03.2021
5741 Clouds 13 1015 82 10000 2.57 40 00:46 05.03.2021
5742 Clouds 14 1015 77 10000 1.54 140 23:37 04.03.2021
5743 Clouds 14 1015 72 10000 2.57 170 22:47 04.03.2021
5744 Clouds 15 1016 67 10000 3.09 170 22:25 04.03.2021
5745 Clouds 16 1016 67 10000 2.06 180 21:47 04.03.2021
5746 Clouds 15 1016 72 10000 1.54 140 21:28 04.03.2021
5747 Clouds 16 1016 67 10000 1.54 140 20:41 04.03.2021
5748 Clouds 16 1015 67 10000 2.06 160 20:23 04.03.2021
5749 Clouds 18 1015 52 10000 1.28 228 19:58 04.03.2021
5750 Clouds 18 1015 48 10000 1.28 228 19:39 04.03.2021
5751 Clouds 18 1015 48 10000 0.94 226 19:19 04.03.2021
5752 Clouds 19 1015 39 10000 1.03 0 18:45 04.03.2021
5753 Clear 19 1016 45 10000 2.06 220 18:24 04.03.2021
5754 Clear 19 1016 48 10000 1.03 0 17:46 04.03.2021
5755 Clear 19 1016 42 10000 1.03 260 17:27 04.03.2021
5756 Clear 19 1016 42 10000 1.03 90 16:47 04.03.2021
5757 Clear 19 1017 48 10000 1.03 0 16:28 04.03.2021
5758 Clear 19 1017 48 10000 1.03 0 15:50 04.03.2021
5759 Clear 19 1017 48 10000 1.03 0 15:31 04.03.2021
5760 Clear 18 1018 52 10000 1.54 120 14:49 04.03.2021
5761 Clear 18 1018 55 10000 2.57 80 14:26 04.03.2021
5762 Clear 18 1019 55 10000 2.06 0 13:48 04.03.2021
5763 Clear 17 1019 63 10000 1.54 10 13:30 04.03.2021
5764 Clear 17 1019 55 10000 2.57 80 12:53 04.03.2021
5765 Clear 17 1020 63 10000 2.57 50 12:35 04.03.2021
5766 Clear 15 1020 67 10000 3.09 60 11:47 04.03.2021
5767 Clear 14 1020 72 10000 3.09 20 11:25 04.03.2021
5768 Clear 13 1020 82 10000 2.57 20 10:55 04.03.2021
5769 Clear 13 1020 87 10000 2.06 350 10:31 04.03.2021
5770 Clouds 11 1020 87 9000 2.06 350 09:44 04.03.2021
5771 Clear 11 1020 87 10000 2.06 350 09:23 04.03.2021
5772 Clear 11 1020 93 10000 1.54 10 08:36 04.03.2021
5773 Clear 10 1020 93 10000 2.57 360 07:54 04.03.2021
5774 Clear 10 1020 93 10000 2.57 360 07:31 04.03.2021
5775 Clear 11 1020 87 10000 3.6 60 06:25 04.03.2021
5776 Clear 11 1021 87 10000 3.6 60 05:39 04.03.2021
5777 Clear 12 1023 93 8000 0.51 0 01:44 04.03.2021
5778 Clear 12 1023 93 8000 0.51 0 01:44 04.03.2021
5779 Clear 12 1023 93 8000 0.51 0 01:44 04.03.2021
5780 Clear 12 1023 93 8000 0.51 0 01:44 04.03.2021
5781 Clear 12 1023 93 8000 0.51 0 01:44 04.03.2021
5782 Clear 14 1024 77 10000 1.54 200 22:56 03.03.2021
5783 Clear 14 1024 77 10000 2.57 220 22:28 03.03.2021
5784 Clear 15 1024 72 10000 2.57 210 21:45 03.03.2021
5785 Clear 16 1024 72 10000 2.57 210 21:25 03.03.2021
5786 Clear 17 1024 72 10000 3.09 230 20:59 03.03.2021
5787 Clear 17 1023 67 10000 2.53 236 20:41 03.03.2021
5788 Clear 17 1023 67 10000 2.97 236 20:23 03.03.2021
5789 Clear 19 1023 59 10000 2.97 236 19:45 03.03.2021
5790 Clear 20 1023 52 10000 0.51 10 19:26 03.03.2021
5791 Clear 20 1023 56 10000 1.03 30 18:48 03.03.2021
5792 Clear 21 1023 52 10000 1.03 0 18:30 03.03.2021
5793 Clear 21 1023 49 10000 2.06 40 17:56 03.03.2021
5794 Clear 21 1023 49 10000 2.06 40 17:20 03.03.2021
5795 Clear 21 1023 49 10000 2.06 70 16:50 03.03.2021
5796 Clear 21 1024 52 10000 2.57 70 16:27 03.03.2021
5797 Clear 21 1025 60 10000 1.54 40 15:51 03.03.2021
5798 Clear 21 1025 60 10000 1.54 40 15:31 03.03.2021
5799 Clear 20 1025 59 10000 1.03 0 14:39 03.03.2021
5800 Clear 19 1026 59 10000 1.54 50 14:20 03.03.2021
5801 Clear 19 1026 68 10000 1.54 30 13:39 03.03.2021
5802 Clear 19 1026 68 10000 1.54 30 13:21 03.03.2021
5803 Clear 17 1026 72 10000 2.06 50 12:41 03.03.2021
5804 Clear 17 1026 72 10000 2.06 50 12:22 03.03.2021
5805 Clear 15 1027 88 10000 2.57 50 11:44 03.03.2021
5806 Clear 15 1027 88 10000 2.57 50 11:26 03.03.2021
5807 Clear 13 1027 94 10000 1.54 10 10:45 03.03.2021
5808 Clear 12 1027 94 10000 1.54 10 10:21 03.03.2021
5809 Clear 11 1026 100 7000 0.51 20 09:41 03.03.2021
5810 Clear 11 1026 100 9000 0.51 360 08:52 03.03.2021
5811 Clear 10 1026 100 7000 2.31 41 08:24 03.03.2021
5812 Clear 10 1026 100 10000 1.03 0 07:55 03.03.2021
5813 Clear 10 1026 93 10000 1.03 10 07:26 03.03.2021
5814 Clear 11 1025 100 10000 0.51 0 06:22 03.03.2021
5815 Clear 11 1025 93 10000 2.15 48 05:44 03.03.2021
5816 Clouds 12 1025 93 8000 1.03 80 04:36 03.03.2021
5817 Clouds 11 1025 93 8000 2.06 130 03:54 03.03.2021
5818 Clear 14 1025 88 10000 1.03 0 00:28 03.03.2021
5819 Clear 14 1025 88 10000 0.75 234 23:34 02.03.2021
5820 Clear 15 1025 77 10000 0.98 196 22:52 02.03.2021
5821 Clouds 15 1024 82 10000 1.54 130 22:22 02.03.2021
5822 Clouds 15 1024 82 10000 1.54 130 21:54 02.03.2021
5823 Clouds 16 1024 77 10000 1.54 120 21:36 02.03.2021
5824 Clouds 15 1024 82 10000 2.06 120 20:56 02.03.2021
5825 Clouds 16 1024 82 10000 2.06 110 20:38 02.03.2021
5826 Clouds 16 1024 82 10000 2.06 110 20:20 02.03.2021
5827 Clear 18 1024 68 10000 0.51 110 19:47 02.03.2021
5828 Clear 19 1023 63 10000 1.54 260 19:28 02.03.2021
5829 Clear 20 1023 63 10000 0.51 0 18:42 02.03.2021
5830 Clear 20 1023 56 10000 1.54 120 18:22 02.03.2021
5831 Clouds 21 1023 56 10000 1.54 80 17:58 02.03.2021
5832 Clouds 21 1023 56 10000 1.54 80 17:58 02.03.2021
5833 Clouds 21 1023 56 10000 1.54 120 17:39 02.03.2021
5834 Clouds 21 1023 56 10000 1.54 120 17:19 02.03.2021
5835 Clouds 21 1023 56 10000 1.54 120 17:19 02.03.2021
5836 Clear 21 1023 56 10000 1.03 0 16:47 02.03.2021
5837 Clouds 20 1023 56 10000 0.51 0 15:55 02.03.2021
5838 Clouds 20 1023 56 10000 0.51 0 15:27 02.03.2021
5839 Clouds 20 1023 56 10000 0.51 0 15:27 02.03.2021
5840 Clouds 20 1023 56 10000 1.03 0 14:50 02.03.2021
5841 Clear 19 1024 56 10000 0.51 0 14:19 02.03.2021
5842 Clear 19 1024 59 10000 1.54 60 13:47 02.03.2021
5843 Clear 19 1024 55 10000 1.03 0 13:25 02.03.2021
5844 Clear 18 1024 68 10000 1.03 0 12:47 02.03.2021
5845 Clear 17 1024 72 10000 1.03 0 12:25 02.03.2021
5846 Clear 17 1024 77 10000 2.06 50 11:47 02.03.2021
5847 Clear 16 1024 77 10000 1.54 50 11:23 02.03.2021
5848 Clear 15 1024 88 10000 1.54 10 10:54 02.03.2021
5849 Clear 14 1024 88 10000 1.03 0 10:30 02.03.2021
5850 Clear 13 1023 94 10000 0.51 0 09:43 02.03.2021
5851 Clear 12 1023 93 9000 1.03 0 09:24 02.03.2021
5852 Clear 11 1022 93 7000 1.86 43 08:54 02.03.2021
5853 Clear 11 1022 100 7000 1.03 0 08:33 02.03.2021
5854 Clear 10 1022 100 10000 1.03 140 07:46 02.03.2021
5855 Clear 12 1021 94 10000 2.06 120 06:37 02.03.2021
5856 Clear 12 1021 94 10000 1.03 110 05:52 02.03.2021
5857 Clear 12 1021 94 10000 1.03 120 05:32 02.03.2021
5858 Clear 13 1021 88 10000 0.51 0 04:38 02.03.2021
5859 Clear 14 1020 88 10000 2.57 190 01:43 02.03.2021
5860 Clear 14 1020 88 10000 2.57 190 01:21 02.03.2021
5861 Clear 14 1019 82 10000 0.51 0 23:37 01.03.2021
5862 Clear 14 1019 82 10000 0.51 0 23:19 01.03.2021
5863 Clear 15 1019 77 10000 0.51 210 22:38 01.03.2021
5864 Clear 15 1019 77 10000 0.51 210 22:19 01.03.2021
5865 Clear 16 1019 77 10000 0.51 0 21:41 01.03.2021
5866 Clear 16 1019 67 10000 2.77 261 21:23 01.03.2021
5867 Clear 16 1018 72 10000 0.51 70 20:43 01.03.2021
5868 Clear 17 1018 67 10000 1.03 50 20:21 01.03.2021
5869 Clear 17 1018 63 10000 1.54 60 19:43 01.03.2021
5870 Clear 18 1017 59 10000 1.03 50 19:24 01.03.2021
5871 Clear 19 1017 55 10000 1.54 50 18:43 01.03.2021
5872 Clear 19 1017 55 10000 2.06 90 18:23 01.03.2021
5873 Clear 19 1016 52 10000 2.57 70 17:47 01.03.2021
5874 Clear 20 1016 52 10000 2.57 80 17:22 01.03.2021
5875 Clear 20 1016 49 10000 3.09 70 16:47 01.03.2021
5876 Clouds 19 1016 52 10000 2.06 70 16:27 01.03.2021
5877 Clouds 19 1016 52 10000 3.09 60 15:49 01.03.2021
5878 Clouds 19 1016 52 10000 3.6 40 15:23 01.03.2021
5879 Clear 20 1017 52 10000 3.6 60 14:58 01.03.2021
5880 Clear 19 1017 52 10000 3.6 70 14:39 01.03.2021
5881 Clear 19 1017 55 10000 5.14 50 13:56 01.03.2021
5882 Clear 19 1018 55 10000 5.66 60 13:37 01.03.2021
5883 Clear 18 1018 55 10000 5.66 60 13:19 01.03.2021
5884 Clear 18 1018 59 10000 6.69 70 12:42 01.03.2021
5885 Clear 17 1018 59 10000 6.69 70 12:22 01.03.2021
5886 Clear 16 1018 67 10000 6.17 70 11:49 01.03.2021
5887 Clear 16 1018 72 10000 5.66 70 11:23 01.03.2021
5888 Clear 16 1018 72 10000 5.66 70 11:23 01.03.2021
5889 Clear 14 1018 77 10000 4.12 70 10:37 01.03.2021
5890 Clear 13 1018 77 10000 4.12 70 10:19 01.03.2021
5891 Clear 12 1018 82 10000 3.09 80 09:50 01.03.2021
5892 Clear 12 1017 87 10000 2.06 20 09:28 01.03.2021
5893 Clear 12 1017 87 10000 2.06 30 08:55 01.03.2021
5894 Clear 12 1017 87 10000 2.57 40 08:30 01.03.2021
5895 Clear 12 1017 87 10000 2.57 50 07:19 01.03.2021
5896 Clouds 12 1017 82 10000 3.09 80 06:25 01.03.2021
5897 Clear 12 1017 82 10000 2.06 40 02:38 01.03.2021
5898 Clouds 13 1017 82 10000 1.61 358 23:47 28.02.2021
5899 Clear 13 1016 82 10000 2.06 110 22:57 28.02.2021
5900 Clear 13 1016 76 10000 2.57 90 22:38 28.02.2021
5901 Clear 13 1016 76 10000 2.57 90 22:20 28.02.2021
5902 Clear 13 1016 82 10000 3.09 100 21:43 28.02.2021
5903 Clear 14 1016 76 10000 2.57 100 21:23 28.02.2021
5904 Clear 14 1016 72 10000 3.09 100 20:39 28.02.2021
5905 Clear 15 1016 72 10000 3.09 100 20:19 28.02.2021
5906 Clear 16 1016 67 10000 2.57 100 19:46 28.02.2021
5907 Clear 17 1016 63 10000 3.6 90 19:27 28.02.2021
5908 Clear 18 1015 55 10000 3.09 90 18:46 28.02.2021
5909 Clear 19 1015 55 10000 3.6 100 18:26 28.02.2021
5910 Clouds 19 1015 52 10000 3.6 90 17:56 28.02.2021
5911 Clouds 19 1015 48 10000 3.6 120 17:37 28.02.2021
5912 Clouds 19 1015 48 10000 3.6 120 17:18 28.02.2021
5913 Clouds 19 1015 48 10000 3.6 110 16:44 28.02.2021
5914 Clouds 19 1015 52 10000 3.6 140 16:26 28.02.2021
5915 Clouds 19 1016 48 10000 3.09 110 15:51 28.02.2021
5916 Clouds 19 1016 48 10000 3.09 110 15:51 28.02.2021
5917 Clouds 19 1016 48 10000 4.12 90 15:26 28.02.2021
5918 Clouds 19 1017 52 10000 4.63 110 14:57 28.02.2021
5919 Clouds 19 1017 52 10000 4.12 110 14:30 28.02.2021
5920 Clouds 18 1017 55 10000 5.14 100 13:56 28.02.2021
5921 Clouds 18 1018 55 10000 5.14 100 13:36 28.02.2021
5922 Clouds 18 1018 55 10000 5.14 100 13:18 28.02.2021
5923 Clouds 18 1018 59 10000 5.14 100 12:48 28.02.2021
5924 Clear 17 1018 59 10000 5.14 90 12:30 28.02.2021
5925 Clear 16 1019 63 10000 4.63 80 11:55 28.02.2021
5926 Clear 16 1019 67 10000 4.63 80 11:36 28.02.2021
5927 Clear 15 1019 67 10000 4.63 80 11:18 28.02.2021
5928 Clear 12 1019 76 10000 2.57 70 10:30 28.02.2021
5929 Clear 11 1019 87 10000 1.54 60 09:58 28.02.2021
5930 Clear 10 1019 87 10000 2.06 80 09:38 28.02.2021
5931 Clear 10 1019 87 10000 2.06 80 09:19 28.02.2021
5932 Clouds 9 1017 88 10000 1.79 13 08:38 28.02.2021
5933 Clear 9 1018 93 10000 2.06 40 08:20 28.02.2021
5934 Clear 9 1018 93 10000 1.03 0 07:43 28.02.2021
5935 Clear 9 1018 93 10000 1.03 50 07:25 28.02.2021
5936 Clear 9 1018 87 10000 2.57 10 06:23 28.02.2021
5937 Clear 10 1018 87 10000 3.09 40 05:19 28.02.2021
5938 Clear 10 1020 81 10000 1.03 0 02:26 28.02.2021
5939 Clear 11 1020 87 10000 1.59 90 01:28 28.02.2021
5940 Clear 11 1020 87 10000 1.72 84 00:39 28.02.2021
5941 Clear 12 1020 87 10000 1.59 84 23:50 27.02.2021
5942 Clear 12 1020 82 10000 3.09 80 23:22 27.02.2021
5943 Clear 13 1020 82 10000 2.06 70 22:50 27.02.2021
5944 Clear 13 1020 76 10000 3.09 60 22:24 27.02.2021
5945 Clear 14 1019 76 10000 3.6 60 21:59 27.02.2021
5946 Clear 14 1019 76 10000 3.6 60 21:38 27.02.2021
5947 Clear 14 1019 87 10000 3.09 40 20:58 27.02.2021
5948 Clear 15 1019 77 10000 3.09 20 20:39 27.02.2021
5949 Clear 15 1019 77 10000 3.09 20 20:21 27.02.2021
5950 Clear 15 1019 77 10000 2.57 30 19:43 27.02.2021
5951 Clear 15 1019 77 10000 2.57 30 19:43 27.02.2021
5952 Clear 16 1020 72 10000 1.54 60 19:23 27.02.2021
5953 Clear 16 1020 67 10000 2.06 60 18:41 27.02.2021
5954 Clear 16 1020 67 10000 2.57 60 18:20 27.02.2021
5955 Clear 17 1020 67 10000 3.09 60 17:44 27.02.2021
5956 Clear 17 1020 59 10000 3.09 60 17:20 27.02.2021
5957 Clear 17 1020 63 10000 4.12 70 16:56 27.02.2021
5958 Clear 17 1020 63 10000 4.12 60 16:36 27.02.2021
5959 Clear 17 1020 63 10000 4.12 60 16:18 27.02.2021
5960 Clear 17 1021 67 10000 4.12 40 15:38 27.02.2021
5961 Clear 17 1021 72 10000 3.6 60 14:50 27.02.2021
5962 Clear 17 1022 72 10000 3.6 50 14:32 27.02.2021
5963 Clear 16 1022 63 10000 2.57 80 13:56 27.02.2021
5964 Clear 16 1023 67 10000 3.09 70 13:33 27.02.2021
5965 Clear 15 1023 72 10000 3.09 60 12:57 27.02.2021
5966 Clear 15 1023 72 10000 4.12 70 12:36 27.02.2021
5967 Clear 14 1023 72 10000 4.12 70 12:18 27.02.2021
5968 Clear 14 1024 82 10000 3.09 40 11:42 27.02.2021
5969 Clear 12 1024 82 10000 3.09 40 11:23 27.02.2021
5970 Clear 12 1024 82 10000 2.57 50 10:46 27.02.2021
5971 Clear 11 1024 93 10000 2.06 30 10:28 27.02.2021
5972 Clear 9 1024 93 10000 2.57 30 09:50 27.02.2021
5973 Clear 9 1024 93 10000 2.06 10 09:26 27.02.2021
5974 Clear 9 1023 93 10000 2.57 30 08:42 27.02.2021
5975 Clear 9 1023 93 10000 1.03 0 08:21 27.02.2021
5976 Clear 9 1023 93 10000 1.03 10 07:42 27.02.2021
5977 Clouds 10 1023 93 9000 1.54 30 05:18 27.02.2021
5978 Clear 12 1025 87 10000 1.03 50 00:56 27.02.2021
5979 Clear 13 1025 82 10000 1.03 20 23:58 26.02.2021
5980 Clear 13 1025 82 10000 1.03 20 23:40 26.02.2021
5981 Clear 13 1025 82 10000 1.03 20 23:18 26.02.2021
5982 Clear 14 1024 76 10000 1 38 22:30 26.02.2021
5983 Clear 15 1024 76 10000 1.03 0 21:49 26.02.2021
5984 Clear 15 1024 72 10000 3.6 100 21:30 26.02.2021
5985 Clear 16 1024 67 10000 1.03 0 20:45 26.02.2021
5986 Clear 16 1024 67 10000 2.06 80 20:24 26.02.2021
5987 Clear 17 1024 63 10000 2.57 110 19:52 26.02.2021
5988 Clear 17 1024 67 10000 1.54 80 19:25 26.02.2021
5989 Clear 18 1023 59 10000 3.09 100 18:48 26.02.2021
5990 Clouds 18 1023 55 10000 4.12 70 18:24 26.02.2021
5991 Clouds 19 1023 59 10000 3.09 80 17:48 26.02.2021
5992 Clouds 19 1023 59 10000 3.09 80 17:29 26.02.2021
5993 Clouds 19 1023 55 10000 3.6 80 16:56 26.02.2021
5994 Clear 19 1024 59 10000 1.54 20 16:37 26.02.2021
5995 Clear 19 1024 59 10000 1.54 20 16:19 26.02.2021
5996 Clear 19 1024 59 10000 1.54 20 15:41 26.02.2021
5997 Clear 19 1024 59 10000 1.54 20 15:22 26.02.2021
5998 Clear 19 1024 63 10000 1.54 0 14:51 26.02.2021
5999 Clear 18 1025 63 10000 1.03 0 14:30 26.02.2021
6000 Clear 18 1025 68 10000 1.03 0 13:47 26.02.2021
6001 Clouds 17 1026 72 10000 2.06 40 13:28 26.02.2021
6002 Clouds 16 1026 72 10000 1.54 40 12:48 26.02.2021
6003 Clouds 15 1026 77 10000 2.57 40 12:26 26.02.2021
6004 Clear 14 1026 77 10000 2.06 50 11:39 26.02.2021
6005 Clear 14 1025 82 10000 1.03 0 10:55 26.02.2021
6006 Clear 13 1025 94 10000 1.03 0 10:24 26.02.2021
6007 Clouds 13 1025 88 10000 1.54 100 09:47 26.02.2021
6008 Clouds 12 1025 94 10000 1.54 20 09:27 26.02.2021
6009 Clear 12 1024 94 10000 1.03 0 08:33 26.02.2021
6010 Clear 12 1024 94 10000 1.03 0 07:56 26.02.2021
6011 Clouds 12 1024 94 10000 1.03 0 07:20 26.02.2021
6012 Rain 12 1024 87 10000 1.54 10 06:31 26.02.2021
6013 Rain 12 1024 87 10000 1.03 0 04:59 26.02.2021
6014 Clouds 13 1024 82 10000 0.51 0 02:38 26.02.2021
6015 Clear 13 1024 72 10000 3.6 110 00:33 26.02.2021
6016 Clear 14 1024 72 10000 4.12 100 23:39 25.02.2021
6017 Clear 14 1024 82 10000 2.06 90 22:58 25.02.2021
6018 Clouds 14 1024 82 10000 2.57 80 22:38 25.02.2021
6019 Clear 15 1024 82 10000 3.09 60 21:53 25.02.2021
6020 Clear 15 1024 77 10000 3.09 60 21:33 25.02.2021
6021 Clouds 16 1024 82 10000 3.09 70 20:55 25.02.2021
6022 Clouds 16 1024 82 10000 2.57 50 20:37 25.02.2021
6023 Clouds 16 1024 82 10000 2.57 50 20:18 25.02.2021
6024 Clouds 17 1023 72 10000 2.57 40 19:47 25.02.2021
6025 Clouds 17 1023 72 10000 2.57 70 19:19 25.02.2021
6026 Clouds 18 1023 68 10000 2.57 40 18:44 25.02.2021
6027 Clouds 19 1023 59 10000 1.54 50 18:18 25.02.2021
6028 Clouds 19 1023 59 10000 1.54 30 17:42 25.02.2021
6029 Clouds 19 1024 59 10000 2.06 30 17:22 25.02.2021
6030 Clouds 19 1024 63 10000 3.09 30 16:34 25.02.2021
6031 Clear 18 1025 67 10000 3.09 30 15:55 25.02.2021
6032 Clear 18 1025 67 10000 3.09 30 15:28 25.02.2021
6033 Clear 17 1025 67 10000 2.06 10 14:40 25.02.2021
6034 Clear 17 1025 67 10000 2.06 10 14:21 25.02.2021
6035 Clear 17 1025 67 10000 2.57 360 13:48 25.02.2021
6036 Clear 16 1026 72 10000 2.57 40 13:24 25.02.2021
6037 Clear 16 1026 72 10000 2.06 350 12:40 25.02.2021
6038 Clear 15 1026 72 10000 2.06 350 12:21 25.02.2021
6039 Clear 15 1026 72 10000 2.57 20 11:43 25.02.2021
6040 Clear 14 1026 72 10000 2.57 40 11:18 25.02.2021
6041 Clear 12 1026 82 10000 3.6 40 10:38 25.02.2021
6042 Clear 11 1026 87 10000 2.57 20 09:56 25.02.2021
6043 Clear 11 1026 87 10000 2.57 20 09:38 25.02.2021
6044 Clear 10 1025 87 10000 3.09 10 08:50 25.02.2021
6045 Clear 10 1025 87 10000 2.57 10 08:22 25.02.2021
6046 Clear 10 1025 87 10000 2.57 360 07:50 25.02.2021
6047 Clear 10 1025 87 10000 3.09 360 07:19 25.02.2021
6048 Clear 10 1025 87 10000 1.03 0 06:35 25.02.2021
6049 Clear 11 1026 87 10000 1.03 0 01:52 25.02.2021
6050 Clear 12 1026 82 10000 1.03 0 01:34 25.02.2021
6051 Clear 12 1026 71 10000 1.03 0 00:38 25.02.2021
6052 Clear 13 1026 71 10000 0.51 0 23:47 24.02.2021
6053 Clear 13 1026 71 10000 1.54 10 23:22 24.02.2021
6054 Clear 14 1026 67 10000 3.6 120 22:44 24.02.2021
6055 Clear 14 1026 67 10000 3.6 120 22:24 24.02.2021
6056 Clear 14 1025 72 10000 5.66 110 21:44 24.02.2021
6057 Clear 15 1025 67 10000 5.66 110 20:53 24.02.2021
6058 Clear 15 1025 67 10000 6.69 100 20:29 24.02.2021
6059 Clear 16 1025 63 10000 6.69 100 19:54 24.02.2021
6060 Clear 17 1025 59 10000 4.63 100 19:26 24.02.2021
6061 Clear 18 1025 55 10000 4.63 100 18:55 24.02.2021
6062 Clear 19 1025 52 10000 6.17 100 18:34 24.02.2021
6063 Clear 19 1025 52 10000 6.17 100 17:52 24.02.2021
6064 Clear 20 1025 52 10000 6.69 100 17:29 24.02.2021
6065 Clear 20 1025 52 10000 8.23 100 16:57 24.02.2021
6066 Clouds 20 1026 49 10000 5.66 80 16:36 24.02.2021
6067 Clouds 21 1026 49 10000 5.66 80 16:18 24.02.2021
6068 Clouds 21 1026 49 10000 5.66 80 15:37 24.02.2021
6069 Clear 20 1026 49 10000 5.14 80 14:53 24.02.2021
6070 Clear 20 1027 56 10000 4.12 100 14:34 24.02.2021
6071 Clear 20 1027 52 10000 5.14 60 13:58 24.02.2021
6072 Clear 19 1028 55 10000 5.66 80 13:38 24.02.2021
6073 Clear 20 1028 55 10000 5.66 80 13:19 24.02.2021
6074 Clear 19 1029 59 10000 5.14 80 12:43 24.02.2021
6075 Clear 18 1029 59 10000 5.14 80 12:23 24.02.2021
6076 Clear 17 1028 63 10000 4.63 80 11:46 24.02.2021
6077 Clear 15 1028 67 10000 5.14 70 10:51 24.02.2021
6078 Clear 13 1029 76 10000 2.06 10 10:29 24.02.2021
6079 Clear 11 1029 76 10000 3.09 340 09:44 24.02.2021
6080 Clear 11 1029 76 10000 3.09 340 09:20 24.02.2021
6081 Clear 10 1028 71 10000 2.57 0 08:34 24.02.2021
6082 Clear 10 1028 76 10000 1.54 30 07:57 24.02.2021
6083 Clear 10 1028 76 10000 3.6 350 07:20 24.02.2021
6084 Clear 10 1029 76 10000 4.63 80 06:23 24.02.2021
6085 Clear 10 1031 81 10000 4.63 60 03:28 24.02.2021
6086 Clear 11 1031 76 10000 3.6 110 00:26 24.02.2021
6087 Clear 11 1031 71 10000 3.09 120 23:24 23.02.2021
6088 Clear 13 1031 62 10000 3.09 130 22:40 23.02.2021
6089 Clear 13 1031 62 10000 3.09 130 22:19 23.02.2021
6090 Clear 13 1031 62 10000 4.12 130 21:44 23.02.2021
6091 Clear 13 1030 71 10000 3.09 120 21:22 23.02.2021
6092 Clear 13 1030 67 10000 3.09 120 20:48 23.02.2021
6093 Clear 15 1030 55 10000 4.12 120 20:29 23.02.2021
6094 Clear 15 1030 55 10000 4.12 100 19:48 23.02.2021
6095 Clear 17 1029 45 10000 4.63 80 19:27 23.02.2021
6096 Clear 18 1029 42 10000 3.6 70 18:56 23.02.2021
6097 Clear 19 1029 39 10000 4.12 70 18:32 23.02.2021
6098 Clear 19 1029 42 10000 3.09 80 17:54 23.02.2021
6099 Clear 19 1029 39 10000 3.09 90 17:33 23.02.2021
6100 Clear 19 1029 45 10000 4.12 90 16:56 23.02.2021
6101 Clear 19 1029 45 10000 3.09 90 16:36 23.02.2021
6102 Clear 19 1029 45 10000 3.09 90 16:18 23.02.2021
6103 Clear 18 1030 55 10000 4.12 60 15:40 23.02.2021
6104 Clear 18 1030 55 10000 4.12 60 15:21 23.02.2021
6105 Clear 18 1030 55 10000 4.12 60 14:44 23.02.2021
6106 Clear 17 1030 63 10000 3.6 70 14:25 23.02.2021
6107 Clear 17 1031 63 10000 3.6 70 13:46 23.02.2021
6108 Clouds 16 1031 67 10000 5.14 70 13:26 23.02.2021
6109 Clear 15 1031 77 10000 4.12 40 12:51 23.02.2021
6110 Clear 14 1031 77 10000 5.14 50 12:20 23.02.2021
6111 Clear 13 1031 88 10000 3.6 40 11:50 23.02.2021
6112 Clear 12 1031 82 10000 3.09 30 11:23 23.02.2021
6113 Clear 11 1031 82 10000 3.09 30 10:52 23.02.2021
6114 Clear 10 1031 87 10000 3.09 40 10:34 23.02.2021
6115 Clear 9 1030 93 10000 3.09 40 09:45 23.02.2021
6116 Clear 8 1030 93 10000 3.09 40 09:25 23.02.2021
6117 Clear 7 1029 93 10000 2.06 360 08:57 23.02.2021
6118 Clear 7 1029 93 10000 2.06 10 08:38 23.02.2021
6119 Clear 7 1029 93 10000 2.06 10 08:19 23.02.2021
6120 Clear 7 1028 100 10000 2.57 50 05:44 23.02.2021
6121 Clear 8 1028 93 10000 1.03 10 05:22 23.02.2021
6122 Clear 9 1027 100 10000 1.54 90 02:36 23.02.2021
6123 Clear 9 1027 93 10000 1.03 70 00:55 23.02.2021
6124 Clear 10 1027 93 10000 0.51 30 00:18 23.02.2021
6125 Clear 10 1026 87 10000 2.06 180 23:24 22.02.2021
6126 Clear 10 1026 87 10000 1.54 200 22:41 22.02.2021
6127 Clear 11 1025 82 10000 3.09 220 22:41 22.02.2021
6128 Clear 11 1025 82 10000 3.09 220 22:21 22.02.2021
6129 Clear 11 1025 76 10000 3.09 210 21:46 22.02.2021
6130 Clear 12 1025 71 10000 3.09 220 21:24 22.02.2021
6131 Clear 13 1024 71 10000 3.09 220 20:55 22.02.2021
6132 Clear 13 1024 71 10000 3.6 220 20:31 22.02.2021
6133 Clear 14 1024 67 10000 4.12 220 19:58 22.02.2021
6134 Clear 14 1023 67 10000 3.6 220 19:38 22.02.2021
6135 Clear 14 1023 67 10000 3.6 220 19:18 22.02.2021
6136 Clear 15 1023 63 10000 5.14 220 18:44 22.02.2021
6137 Clouds 16 1022 59 10000 4.12 220 18:21 22.02.2021
6138 Clouds 16 1022 59 10000 4.12 220 17:43 22.02.2021
6139 Clouds 16 1022 55 10000 4.63 220 17:18 22.02.2021
6140 Clouds 16 1022 55 10000 2.06 230 16:46 22.02.2021
6141 Clouds 16 1022 55 10000 3.09 200 15:57 22.02.2021
6142 Clouds 16 1022 55 10000 3.09 200 15:31 22.02.2021
6143 Clouds 15 1022 59 10000 2.57 220 14:49 22.02.2021
6144 Clouds 15 1022 59 10000 3.6 230 14:30 22.02.2021
6145 Clouds 15 1023 58 10000 2.06 250 13:50 22.02.2021
6146 Clouds 14 1023 67 10000 2.06 190 13:25 22.02.2021
6147 Clouds 13 1023 67 10000 2.06 170 12:44 22.02.2021
6148 Clear 13 1023 71 10000 1.03 0 12:22 22.02.2021
6149 Clear 12 1023 76 10000 1.03 0 11:45 22.02.2021
6150 Clear 11 1022 76 10000 1.03 0 11:25 22.02.2021
6151 Clear 10 1022 81 10000 1.03 0 10:50 22.02.2021
6152 Clear 9 1022 81 10000 0.51 0 10:31 22.02.2021
6153 Clear 8 1022 93 10000 0.51 0 09:50 22.02.2021
6154 Clear 7 1021 93 10000 0.51 180 09:32 22.02.2021
6155 Clear 6 1021 93 10000 0.51 190 08:58 22.02.2021
6156 Clear 5 1020 100 10000 1.03 150 08:39 22.02.2021
6157 Clear 5 1020 100 10000 1.03 210 07:59 22.02.2021
6158 Clear 5 1020 100 10000 1.03 190 07:27 22.02.2021
6159 Clear 6 1019 87 10000 2.06 240 06:47 22.02.2021
6160 Clear 6 1019 87 10000 2.06 240 06:23 22.02.2021
6161 Clear 7 1018 93 10000 1.03 0 03:48 22.02.2021
6162 Clear 8 1017 87 10000 1.03 220 02:55 22.02.2021
6163 Clear 9 1016 76 10000 2.57 250 00:49 22.02.2021
6164 Clear 9 1016 76 10000 3.09 230 00:26 22.02.2021
6165 Clear 9 1015 76 10000 3.09 240 23:48 21.02.2021
6166 Clouds 10 1014 76 10000 4.12 260 22:55 21.02.2021
6167 Clouds 10 1014 76 10000 4.63 270 22:24 21.02.2021
6168 Clouds 10 1013 71 10000 6.17 270 21:50 21.02.2021
6169 Clouds 11 1013 71 10000 6.17 260 21:30 21.02.2021
6170 Clouds 12 1012 67 10000 4.63 260 20:50 21.02.2021
6171 Clouds 12 1012 62 10000 3.09 230 20:21 21.02.2021
6172 Clouds 12 1011 66 10000 3.09 250 19:59 21.02.2021
6173 Clouds 12 1010 62 10000 3.6 270 19:39 21.02.2021
6174 Clouds 13 1010 62 10000 3.6 270 19:21 21.02.2021
6175 Clouds 14 1009 58 10000 6.17 290 18:28 21.02.2021
6176 Clouds 14 1009 62 10000 5.66 280 17:52 21.02.2021
6177 Clouds 14 1008 67 10000 6.69 280 17:24 21.02.2021
6178 Clouds 14 1008 71 10000 6.69 270 16:52 21.02.2021
6179 Clouds 13 1007 71 10000 5.66 270 16:31 21.02.2021
6180 Clouds 12 1006 82 10000 1.54 260 15:36 21.02.2021
6181 Clouds 12 1006 82 10000 1.54 260 15:18 21.02.2021
6182 Clouds 11 1006 87 10000 2.57 340 14:39 21.02.2021
6183 Clouds 11 1006 87 10000 2.57 340 14:18 21.02.2021
6184 Clouds 11 1006 87 10000 6.69 320 13:30 21.02.2021
6185 Rain 11 1006 87 10000 6.69 320 12:59 21.02.2021
6186 Rain 11 1006 87 10000 6.69 330 12:28 21.02.2021
6187 Rain 12 1005 94 10000 2.06 260 11:43 21.02.2021
6188 Rain 12 1005 94 9000 1.54 160 10:57 21.02.2021
6189 Rain 12 1005 94 9000 1.03 170 10:22 21.02.2021
6190 Rain 12 1005 94 4000 4.63 210 09:52 21.02.2021
6191 Rain 12 1005 88 3000 3.09 180 09:27 21.02.2021
6192 Rain 13 1004 82 10000 2.57 180 08:43 21.02.2021
6193 Clouds 13 1004 77 10000 4.63 190 08:19 21.02.2021
6194 Clouds 13 1005 76 10000 2.06 140 07:31 21.02.2021
6195 Rain 14 1005 72 10000 3.09 140 06:52 21.02.2021
6196 Clouds 14 1007 63 10000 3.6 170 02:49 21.02.2021
6197 Clear 15 1007 63 10000 5.14 160 02:29 21.02.2021
6198 Clear 14 1007 67 10000 4.63 140 00:42 21.02.2021
6199 Clear 14 1007 71 10000 2.06 130 00:18 21.02.2021
6200 Clear 14 1008 67 10000 3.09 140 23:18 20.02.2021
6201 Clear 15 1008 63 10000 3.6 150 22:41 20.02.2021
6202 Clear 14 1008 63 10000 3.6 150 22:21 20.02.2021
6203 Clear 15 1008 63 10000 4.63 150 21:41 20.02.2021
6204 Clear 15 1008 63 10000 4.63 150 21:20 20.02.2021
6205 Clear 16 1008 63 10000 4.12 160 20:42 20.02.2021
6206 Clear 16 1008 63 10000 4.12 160 20:21 20.02.2021
6207 Clear 17 1009 59 10000 3.09 170 19:52 20.02.2021
6208 Clear 17 1009 59 10000 2.57 170 19:27 20.02.2021
6209 Clear 20 1010 45 10000 4.12 180 18:39 20.02.2021
6210 Clear 20 1010 45 10000 4.12 180 18:20 20.02.2021
6211 Clear 20 1010 32 10000 6.17 180 17:38 20.02.2021
6212 Clear 20 1010 32 10000 5.66 180 16:56 20.02.2021
6213 Clear 21 1010 33 10000 5.66 180 16:32 20.02.2021
6214 Clear 21 1011 30 10000 4.12 200 15:53 20.02.2021
6215 Clear 21 1011 28 10000 4.63 190 15:31 20.02.2021
6216 Clear 20 1012 49 10000 2.57 200 14:47 20.02.2021
6217 Clear 20 1013 55 10000 3.09 180 14:23 20.02.2021
6218 Clouds 19 1013 55 9000 3.09 180 13:47 20.02.2021
6219 Clouds 19 1013 55 9000 3.09 180 13:47 20.02.2021
6220 Clouds 18 1014 59 9000 2.06 190 13:24 20.02.2021
6221 Clouds 17 1014 59 9000 1.03 140 12:50 20.02.2021
6222 Clouds 16 1015 67 9000 2.62 148 12:23 20.02.2021
6223 Clouds 14 1015 72 9000 2.06 30 11:44 20.02.2021
6224 Clouds 14 1015 72 9000 2.06 30 11:44 20.02.2021
6225 Clouds 13 1015 82 6000 2.06 40 11:24 20.02.2021
6226 Mist 11 1016 100 4000 2.08 107 10:49 20.02.2021
6227 Mist 10 1016 100 3000 0.51 0 09:55 20.02.2021
6228 Fog 9 1015 100 400 1.26 63 09:30 20.02.2021
6229 Fog 10 1015 100 800 1.26 63 08:43 20.02.2021
6230 Fog 10 1015 100 800 1.18 48 08:18 20.02.2021
6231 Mist 11 1016 93 2800 1.54 340 03:32 20.02.2021
6232 Clear 12 1015 90 10000 0.89 336 02:25 20.02.2021
6233 Clear 12 1015 90 10000 0.89 347 01:49 20.02.2021
6234 Mist 13 1017 94 4500 2.06 150 00:45 20.02.2021
6235 Mist 13 1017 94 4500 2.06 150 00:20 20.02.2021
6236 Clouds 13 1018 94 7000 2.06 170 23:18 19.02.2021
6237 Clouds 13 1018 88 9000 1.03 120 22:28 19.02.2021
6238 Clouds 13 1018 82 10000 1.48 220 21:58 19.02.2021
6239 Clouds 15 1018 77 10000 0.51 0 21:32 19.02.2021
6240 Clouds 15 1018 77 10000 1.54 50 20:57 19.02.2021
6241 Clouds 15 1018 77 10000 1.03 320 20:37 19.02.2021
6242 Clouds 15 1018 77 10000 1.03 320 20:18 19.02.2021
6243 Clear 15 1018 77 10000 1.03 0 19:30 19.02.2021
6244 Clear 16 1017 72 10000 1.03 0 18:57 19.02.2021
6245 Clear 16 1018 77 10000 1.54 230 18:35 19.02.2021
6246 Clear 17 1018 67 10000 2.06 250 17:56 19.02.2021
6247 Clouds 17 1018 67 10000 2.57 270 17:23 19.02.2021
6248 Clouds 17 1018 72 10000 3.09 270 16:39 19.02.2021
6249 Clouds 17 1018 72 10000 3.09 270 16:20 19.02.2021
6250 Clouds 15 1019 77 10000 1.03 0 15:45 19.02.2021
6251 Clouds 15 1019 77 10000 1.03 0 15:27 19.02.2021
6252 Clouds 15 1019 77 10000 1.03 0 14:41 19.02.2021
6253 Clouds 14 1020 88 9000 0.51 0 14:23 19.02.2021
6254 Clouds 14 1020 88 7000 1.54 170 13:44 19.02.2021
6255 Clouds 13 1020 94 8000 1.54 130 13:24 19.02.2021
6256 Clouds 12 1021 94 6000 1.54 120 12:44 19.02.2021
6257 Mist 12 1021 94 4000 2.57 130 12:24 19.02.2021
6258 Mist 11 1021 100 4000 1.54 70 11:51 19.02.2021
6259 Mist 11 1021 93 4000 1.54 90 11:26 19.02.2021
6260 Mist 10 1021 100 4000 0.51 0 10:51 19.02.2021
6261 Mist 10 1021 100 4000 1.54 90 10:22 19.02.2021
6262 Mist 10 1020 100 2000 1.54 100 09:48 19.02.2021
6263 Mist 10 1020 93 2000 1.54 80 09:26 19.02.2021
6264 Fog 10 1020 93 150 1.54 90 08:53 19.02.2021
6265 Fog 10 1020 93 200 1.03 80 08:24 19.02.2021
6266 Fog 9 1020 93 150 2.06 40 07:49 19.02.2021
6267 Fog 9 1020 93 100 1.54 40 07:30 19.02.2021
6268 Fog 9 1020 100 100 0.51 0 06:54 19.02.2021
6269 Fog 9 1019 93 50 0.51 0 05:30 19.02.2021
6270 Fog 10 1020 100 50 0.51 0 04:41 19.02.2021
6271 Mist 10 1020 93 2700 1.03 140 01:48 19.02.2021
6272 Mist 11 1020 93 3000 0.69 18 00:37 19.02.2021
6273 Mist 11 1020 93 4000 0.71 345 23:56 18.02.2021
6274 Clear 12 1020 93 8000 1.03 30 23:35 18.02.2021
6275 Clear 13 1020 94 7000 0.51 0 22:50 18.02.2021
6276 Clear 12 1020 94 7000 1.03 0 22:30 18.02.2021
6277 Clear 13 1020 94 9000 1.54 250 21:52 18.02.2021
6278 Clear 13 1020 94 9000 1.54 250 21:26 18.02.2021
6279 Clear 13 1020 94 9000 1.54 250 20:44 18.02.2021
6280 Clear 14 1020 94 9000 0.51 140 20:24 18.02.2021
6281 Clear 15 1019 88 10000 1.03 210 19:56 18.02.2021
6282 Clear 16 1019 77 10000 1.03 220 19:37 18.02.2021
6283 Clear 16 1019 77 10000 1.03 220 19:18 18.02.2021
6284 Clear 17 1019 72 10000 1.03 0 18:42 18.02.2021
6285 Clear 18 1019 68 10000 2.06 220 18:24 18.02.2021
6286 Clouds 18 1019 68 10000 2.06 230 17:42 18.02.2021
6287 Clouds 18 1019 68 10000 1.54 0 17:23 18.02.2021
6288 Clouds 18 1019 67 10000 1.54 0 16:41 18.02.2021
6289 Clouds 17 1020 77 10000 2.06 0 16:22 18.02.2021
6290 Clouds 16 1020 77 10000 2.06 0 15:41 18.02.2021
6291 Clouds 16 1020 77 10000 2.06 0 15:22 18.02.2021
6292 Clouds 15 1020 82 10000 3.09 210 14:50 18.02.2021
6293 Clouds 15 1020 82 9000 1.54 0 14:30 18.02.2021
6294 Clouds 14 1021 88 6000 2.06 160 13:49 18.02.2021
6295 Mist 13 1021 94 5000 1.03 0 13:21 18.02.2021
6296 Clouds 12 1021 100 6000 1.03 0 12:54 18.02.2021
6297 Mist 11 1021 100 5000 0.51 0 12:28 18.02.2021
6298 Mist 11 1021 100 3000 1.54 360 11:47 18.02.2021
6299 Mist 11 1021 100 1500 1.03 0 11:27 18.02.2021
6300 Fog 10 1021 100 800 1.54 10 10:54 18.02.2021
6301 Fog 10 1021 100 300 0.51 0 10:35 18.02.2021
6302 Fog 10 1020 100 150 1.54 30 09:57 18.02.2021
6303 Fog 9 1020 100 150 0.51 0 09:28 18.02.2021
6304 Fog 9 1019 100 100 1.03 70 08:48 18.02.2021
6305 Fog 9 1019 100 250 1.54 330 08:30 18.02.2021
6306 Fog 9 1019 100 200 1.03 0 07:42 18.02.2021
6307 Fog 9 1019 100 150 0.51 0 07:20 18.02.2021
6308 Mist 9 1019 100 3000 0.51 0 05:42 18.02.2021
6309 Clouds 12 1019 93 9000 1.37 3 00:26 18.02.2021
6310 Clear 13 1019 94 10000 0.51 0 23:38 17.02.2021
6311 Clear 13 1019 94 10000 0.51 0 23:38 17.02.2021
6312 Clear 13 1019 94 10000 1.03 160 22:57 17.02.2021
6313 Clear 13 1019 82 10000 0.51 230 22:39 17.02.2021
6314 Clear 14 1019 82 10000 0.51 230 22:19 17.02.2021
6315 Clear 15 1019 77 10000 2.06 270 21:42 17.02.2021
6316 Clear 15 1019 77 10000 2.06 270 21:19 17.02.2021
6317 Clear 15 1019 77 10000 1.54 280 20:40 17.02.2021
6318 Clear 17 1019 63 10000 1.54 250 19:59 17.02.2021
6319 Clear 20 1019 45 10000 1.03 230 19:37 17.02.2021
6320 Clear 23 1019 40 10000 1.03 190 18:58 17.02.2021
6321 Clear 22 1019 37 10000 1.03 0 18:37 17.02.2021
6322 Clear 22 1019 40 10000 1.03 0 17:47 17.02.2021
6323 Clear 23 1019 40 10000 0.51 0 17:23 17.02.2021
6324 Clear 23 1019 40 10000 0.51 330 16:54 17.02.2021
6325 Clear 22 1020 46 10000 2.06 50 16:29 17.02.2021
6326 Clear 22 1020 46 10000 2.06 50 15:59 17.02.2021
6327 Clear 21 1020 46 10000 2.06 50 15:40 17.02.2021
6328 Clear 21 1020 46 10000 2.06 50 15:21 17.02.2021
6329 Clear 20 1021 56 10000 2.06 0 14:44 17.02.2021
6330 Clear 19 1021 59 10000 2.57 30 14:26 17.02.2021
6331 Clear 19 1022 55 10000 2.57 50 13:45 17.02.2021
6332 Clear 17 1023 67 10000 2.57 30 12:59 17.02.2021
6333 Clear 15 1023 67 10000 3.09 20 12:26 17.02.2021
6334 Clear 15 1023 72 10000 3.09 40 11:59 17.02.2021
6335 Clear 14 1023 76 10000 3.6 50 11:36 17.02.2021
6336 Clear 13 1023 76 10000 3.6 50 11:18 17.02.2021
6337 Clear 12 1024 76 10000 3.6 40 10:43 17.02.2021
6338 Clear 11 1024 82 10000 3.6 30 10:21 17.02.2021
6339 Clear 9 1024 87 10000 3.09 30 09:44 17.02.2021
6340 Clear 9 1024 93 10000 2.57 360 09:25 17.02.2021
6341 Clear 8 1023 93 10000 2.57 360 08:42 17.02.2021
6342 Clear 9 1023 93 10000 3.09 360 08:21 17.02.2021
6343 Clear 9 1023 87 10000 2.57 20 07:26 17.02.2021
6344 Clear 9 1024 93 10000 1.54 60 05:53 17.02.2021
6345 Clear 10 1025 93 10000 1.03 80 02:34 17.02.2021
6346 Clear 11 1025 93 10000 0.51 80 01:55 17.02.2021
6347 Clear 12 1025 87 10000 1.72 15 00:33 17.02.2021
6348 Clear 13 1025 87 10000 0.51 10 23:55 16.02.2021
6349 Clear 13 1025 87 10000 1.03 90 23:36 16.02.2021
6350 Clear 13 1025 87 10000 2.06 120 22:43 16.02.2021
6351 Clear 14 1025 87 10000 2.06 110 22:25 16.02.2021
6352 Clear 14 1025 72 10000 0.51 0 21:54 16.02.2021
6353 Clear 13 1025 72 10000 0.51 0 21:36 16.02.2021
6354 Clear 14 1025 72 10000 0.51 0 21:18 16.02.2021
6355 Clear 14 1025 72 10000 0.51 0 20:41 16.02.2021
6356 Clear 14 1025 72 10000 1.03 340 20:20 16.02.2021
6357 Clear 15 1025 67 10000 0.51 340 19:42 16.02.2021
6358 Clear 18 1025 52 10000 0.81 343 19:23 16.02.2021
6359 Clear 20 1025 42 10000 1.03 290 18:40 16.02.2021
6360 Clear 20 1025 40 10000 1.03 0 18:22 16.02.2021
6361 Clear 20 1025 40 10000 1.03 0 17:52 16.02.2021
6362 Clear 21 1025 37 10000 1.03 0 17:27 16.02.2021
6363 Clear 20 1025 45 10000 1.03 0 16:51 16.02.2021
6364 Clear 20 1026 48 10000 1.03 0 16:29 16.02.2021
6365 Clear 20 1026 48 10000 1.03 0 15:53 16.02.2021
6366 Clear 19 1026 48 10000 1.03 0 15:32 16.02.2021
6367 Clear 19 1027 48 10000 2.57 0 14:57 16.02.2021
6368 Clear 18 1027 48 10000 1.54 350 14:38 16.02.2021
6369 Clear 18 1027 48 10000 1.54 350 14:19 16.02.2021
6370 Clear 17 1028 59 10000 2.57 20 13:38 16.02.2021
6371 Clear 16 1028 63 10000 2.06 20 12:52 16.02.2021
6372 Clear 15 1028 67 10000 2.57 40 12:26 16.02.2021
6373 Clear 14 1029 71 10000 3.09 20 11:58 16.02.2021
6374 Clear 13 1029 76 10000 2.57 30 11:38 16.02.2021
6375 Clear 12 1029 76 10000 2.57 30 11:19 16.02.2021
6376 Clear 12 1029 76 10000 2.06 40 10:45 16.02.2021
6377 Clear 11 1028 76 10000 3.6 40 10:26 16.02.2021
6378 Clear 10 1028 81 10000 3.6 50 09:50 16.02.2021
6379 Clear 9 1028 81 10000 4.12 30 09:26 16.02.2021
6380 Clear 9 1027 81 10000 2.57 10 08:51 16.02.2021
6381 Clear 8 1027 87 10000 3.09 10 08:26 16.02.2021
6382 Clear 9 1027 87 10000 2.57 10 07:44 16.02.2021
6383 Clear 9 1027 93 10000 2.06 20 06:49 16.02.2021
6384 Clear 10 1028 87 10000 1.54 360 02:38 16.02.2021
6385 Clear 11 1028 81 10000 1.03 0 23:55 15.02.2021
6386 Clear 12 1028 87 10000 2.06 50 23:29 15.02.2021
6387 Clear 12 1028 82 10000 2.06 50 22:50 15.02.2021
6388 Clear 13 1028 82 10000 1.54 50 22:27 15.02.2021
6389 Clear 13 1027 72 10000 0.51 0 21:44 15.02.2021
6390 Clear 14 1027 72 10000 0.51 0 21:24 15.02.2021
6391 Clear 14 1027 72 10000 0.51 0 20:55 15.02.2021
6392 Clear 16 1026 63 10000 1.54 190 20:37 15.02.2021
6393 Clear 17 1026 55 10000 1.03 0 19:51 15.02.2021
6394 Clear 18 1026 48 10000 1.54 140 19:29 15.02.2021
6395 Clear 20 1026 45 10000 1.54 160 18:57 15.02.2021
6396 Clear 21 1026 40 10000 1.03 0 18:29 15.02.2021
6397 Clear 22 1026 37 10000 1.54 170 17:58 15.02.2021
6398 Clear 22 1027 40 10000 1.54 140 17:40 15.02.2021
6399 Clear 22 1027 40 10000 1.54 140 17:21 15.02.2021
6400 Clear 22 1027 40 10000 1.03 0 16:45 15.02.2021
6401 Clear 21 1027 40 10000 1.03 0 16:22 15.02.2021
6402 Clear 21 1027 40 10000 1.03 0 15:44 15.02.2021
6403 Clear 21 1027 40 10000 1.03 0 15:20 15.02.2021
6404 Clear 20 1028 45 10000 3.09 60 14:49 15.02.2021
6405 Clear 19 1028 45 10000 2.57 50 14:21 15.02.2021
6406 Clear 19 1028 45 10000 3.09 70 13:49 15.02.2021
6407 Clear 18 1029 55 10000 2.57 30 13:27 15.02.2021
6408 Clear 18 1029 63 10000 1.03 0 12:52 15.02.2021
6409 Clear 16 1029 72 10000 2.57 30 12:31 15.02.2021
6410 Clear 15 1029 72 10000 3.09 50 11:54 15.02.2021
6411 Clear 14 1029 77 10000 3.09 30 11:27 15.02.2021
6412 Clear 13 1029 76 10000 3.09 20 10:56 15.02.2021
6413 Clear 13 1029 76 10000 2.57 30 10:38 15.02.2021
6414 Clear 12 1029 76 10000 2.57 30 10:20 15.02.2021
6415 Clear 11 1029 87 10000 1.54 360 09:51 15.02.2021
6416 Clear 10 1028 87 10000 2.06 360 09:31 15.02.2021
6417 Clear 9 1028 81 10000 2.57 360 08:23 15.02.2021
6418 Clear 9 1028 81 10000 2.06 360 07:27 15.02.2021
6419 Clear 9 1028 81 10000 4.63 60 06:42 15.02.2021
6420 Clear 10 1028 87 10000 2.06 60 04:58 15.02.2021
6421 Clear 11 1028 87 10000 3.09 40 02:21 15.02.2021
6422 Clear 12 1028 87 10000 3.09 40 00:24 15.02.2021
6423 Clear 12 1028 76 10000 3.6 40 23:30 14.02.2021
6424 Clear 13 1028 82 10000 3.6 30 22:51 14.02.2021
6425 Clear 13 1028 76 10000 2.57 20 22:30 14.02.2021
6426 Clear 15 1027 58 10000 1.03 0 21:55 14.02.2021
6427 Clear 15 1027 67 10000 3.09 130 21:32 14.02.2021
6428 Clear 15 1027 63 10000 4.12 120 20:56 14.02.2021
6429 Clear 16 1026 63 10000 4.12 110 20:31 14.02.2021
6430 Clear 17 1026 63 10000 4.12 100 19:57 14.02.2021
6431 Clear 18 1026 55 10000 3.6 80 19:36 14.02.2021
6432 Clear 20 1026 49 10000 4.12 70 18:47 14.02.2021
6433 Clear 21 1026 46 10000 3.6 70 18:28 14.02.2021
6434 Clear 21 1026 43 10000 3.6 50 17:45 14.02.2021
6435 Clear 22 1026 37 10000 4.12 60 17:26 14.02.2021
6436 Clear 22 1026 37 10000 4.63 70 16:40 14.02.2021
6437 Clear 22 1026 37 10000 4.63 70 16:21 14.02.2021
6438 Clear 22 1026 43 10000 4.63 50 15:45 14.02.2021
6439 Clear 21 1026 52 10000 5.14 60 14:59 14.02.2021
6440 Clear 20 1026 52 10000 4.63 60 14:33 14.02.2021
6441 Clear 19 1027 55 10000 5.66 50 13:59 14.02.2021
6442 Clear 18 1027 55 10000 5.14 60 13:33 14.02.2021
6443 Clear 18 1027 59 10000 5.66 60 12:58 14.02.2021
6444 Clear 16 1027 59 10000 5.14 50 12:23 14.02.2021
6445 Clear 15 1027 63 10000 5.66 60 11:52 14.02.2021
6446 Clear 14 1026 67 10000 6.17 50 11:26 14.02.2021
6447 Clear 13 1026 71 10000 6.17 60 10:57 14.02.2021
6448 Clear 12 1026 76 10000 4.12 30 10:21 14.02.2021
6449 Clear 10 1026 87 10000 3.6 50 09:40 14.02.2021
6450 Clear 10 1026 87 10000 3.6 50 09:21 14.02.2021
6451 Clear 9 1024 79 10000 2.68 51 08:52 14.02.2021
6452 Clear 8 1025 93 10000 3.09 30 07:58 14.02.2021
6453 Clear 9 1025 93 10000 3.09 20 06:54 14.02.2021
6454 Clear 9 1025 93 10000 3.09 20 06:54 14.02.2021
6455 Clear 9 1025 87 10000 3.6 50 05:43 14.02.2021
6456 Clear 9 1026 93 10000 1.54 30 03:51 14.02.2021
6457 Clear 11 1026 93 10000 0.51 0 02:29 14.02.2021
6458 Clear 11 1026 93 10000 1.03 0 00:54 14.02.2021
6459 Clear 11 1026 93 10000 1.03 0 00:34 14.02.2021
6460 Clear 12 1026 93 10000 1.03 50 23:44 13.02.2021
6461 Clear 12 1026 93 10000 2.06 100 23:25 13.02.2021
6462 Clear 13 1026 87 10000 0.51 0 22:49 13.02.2021
6463 Clear 13 1026 93 10000 1.54 70 22:21 13.02.2021
6464 Clear 13 1026 87 10000 1.03 80 21:49 13.02.2021
6465 Clear 14 1026 87 10000 1.54 100 21:26 13.02.2021
6466 Clear 12 1025 87 10000 1.03 80 20:43 13.02.2021
6467 Clear 14 1025 82 10000 0.51 110 20:22 13.02.2021
6468 Clear 15 1025 72 10000 0.51 0 19:47 13.02.2021
6469 Clear 18 1025 59 10000 0.51 60 19:23 13.02.2021
6470 Clear 18 1025 59 10000 1.03 80 18:49 13.02.2021
6471 Clear 19 1025 55 10000 0.51 0 18:24 13.02.2021
6472 Clear 19 1025 52 10000 1.03 0 17:43 13.02.2021
6473 Clear 20 1025 52 10000 1.03 0 17:23 13.02.2021
6474 Clear 20 1025 52 10000 0.51 0 16:48 13.02.2021
6475 Clear 19 1025 55 10000 2.06 80 16:30 13.02.2021
6476 Clouds 19 1024 56 10000 2.24 81 15:42 13.02.2021
6477 Clear 18 1026 55 10000 3.09 60 15:24 13.02.2021
6478 Clear 17 1027 63 10000 3.09 50 14:33 13.02.2021
6479 Clear 16 1027 67 10000 3.6 60 13:48 13.02.2021
6480 Clear 16 1027 67 10000 3.6 40 13:26 13.02.2021
6481 Clear 15 1027 72 10000 3.6 40 12:50 13.02.2021
6482 Clear 15 1028 72 10000 3.6 50 12:20 13.02.2021
6483 Clear 14 1028 77 10000 3.09 60 11:46 13.02.2021
6484 Clear 13 1028 82 10000 3.09 30 11:21 13.02.2021
6485 Clear 12 1027 87 10000 3.09 10 10:56 13.02.2021
6486 Clear 12 1027 93 10000 1.54 30 10:38 13.02.2021
6487 Clear 11 1027 93 10000 1.54 30 10:19 13.02.2021
6488 Clear 10 1027 93 10000 2.06 40 09:45 13.02.2021
6489 Clear 9 1027 93 10000 2.06 50 09:21 13.02.2021
6490 Clear 9 1027 93 10000 1.54 40 08:41 13.02.2021
6491 Clear 9 1027 93 10000 1.54 60 07:54 13.02.2021
6492 Clear 9 1026 93 10000 1.03 70 06:44 13.02.2021
6493 Clear 9 1026 93 10000 2.53 17 06:19 13.02.2021
6494 Clear 10 1026 93 10000 2.25 29 04:26 13.02.2021
6495 Clouds 12 1025 79 10000 0.89 351 01:57 13.02.2021
6496 Clear 11 1026 87 10000 2.57 110 00:52 13.02.2021
6497 Clear 12 1026 82 10000 1.54 40 23:55 12.02.2021
6498 Clear 12 1026 82 10000 2.2 8 23:32 12.02.2021
6499 Clear 12 1026 82 10000 1.03 0 22:59 12.02.2021
6500 Clear 13 1025 76 10000 1.54 60 22:30 12.02.2021
6501 Clear 13 1025 76 10000 1.54 60 21:54 12.02.2021
6502 Clear 16 1025 59 10000 2.06 50 21:35 12.02.2021
6503 Clear 16 1025 59 10000 2.06 40 20:59 12.02.2021
6504 Clear 15 1024 72 10000 1.03 0 20:39 12.02.2021
6505 Clear 15 1024 72 10000 1.03 0 20:19 12.02.2021
6506 Clear 16 1024 72 10000 0.51 0 19:48 12.02.2021
6507 Clear 18 1024 55 10000 1.54 90 19:26 12.02.2021
6508 Clear 19 1023 48 10000 1.03 0 18:30 12.02.2021
6509 Clear 19 1023 52 10000 1.54 50 17:51 12.02.2021
6510 Clouds 20 1023 45 10000 1.54 340 17:31 12.02.2021
6511 Clouds 20 1023 52 10000 2.06 10 16:41 12.02.2021
6512 Clouds 20 1024 42 10000 2.57 360 15:47 12.02.2021
6513 Clouds 19 1024 42 10000 2.57 360 15:22 12.02.2021
6514 Clouds 19 1024 48 10000 3.6 20 14:53 12.02.2021
6515 Clouds 19 1024 52 10000 1.54 360 14:30 12.02.2021
6516 Clear 18 1025 59 10000 3.09 310 13:42 12.02.2021
6517 Clear 18 1025 59 10000 3.09 310 13:24 12.02.2021
6518 Clouds 18 1025 59 10000 3.6 30 12:51 12.02.2021
6519 Clouds 17 1025 67 10000 2.57 330 12:33 12.02.2021
6520 Clouds 16 1024 63 10000 3.09 10 11:46 12.02.2021
6521 Clouds 16 1024 82 10000 2.06 290 11:20 12.02.2021
6522 Clear 15 1024 88 10000 2.57 280 10:47 12.02.2021
6523 Clear 14 1023 94 10000 2.06 260 09:56 12.02.2021
6524 Clouds 14 1022 100 10000 2.06 250 09:38 12.02.2021
6525 Clouds 13 1022 100 7000 1.03 220 09:19 12.02.2021
6526 Clouds 14 1022 100 10000 2.06 250 08:40 12.02.2021
6527 Clouds 14 1022 100 10000 2.06 250 08:18 12.02.2021
6528 Clouds 14 1022 100 10000 1.54 240 07:51 12.02.2021
6529 Clouds 14 1022 94 10000 3.6 220 06:57 12.02.2021
6530 Clouds 14 1021 94 9000 3.09 230 05:51 12.02.2021
6531 Rain 14 1022 94 8000 3.09 230 05:26 12.02.2021
6532 Clouds 14 1022 88 10000 2.57 240 01:57 12.02.2021
6533 Clouds 15 1021 82 10000 3.09 260 23:46 11.02.2021
6534 Clouds 15 1021 88 10000 2.06 240 23:22 11.02.2021
6535 Clouds 15 1021 94 10000 1.03 0 22:58 11.02.2021
6536 Clouds 15 1021 88 10000 0.51 0 22:40 11.02.2021
6537 Clouds 16 1021 94 10000 1.03 0 22:21 11.02.2021
6538 Clouds 15 1021 94 10000 1.03 0 21:42 11.02.2021
6539 Clouds 15 1021 94 10000 1.03 0 21:23 11.02.2021
6540 Clouds 15 1021 88 10000 0.51 0 20:46 11.02.2021
6541 Clouds 16 1021 88 10000 2.57 250 20:23 11.02.2021
6542 Clouds 16 1021 88 10000 2.06 230 19:51 11.02.2021
6543 Clouds 17 1020 82 10000 1.54 230 19:33 11.02.2021
6544 Clouds 18 1020 72 10000 2.06 230 18:59 11.02.2021
6545 Clouds 18 1020 72 10000 3.09 230 18:31 11.02.2021
6546 Clouds 18 1020 77 10000 1.54 110 17:58 11.02.2021
6547 Clouds 18 1020 77 10000 1.54 110 17:37 11.02.2021
6548 Clouds 18 1020 77 10000 1.54 110 17:19 11.02.2021
6549 Clouds 18 1020 77 10000 1.03 0 16:41 11.02.2021
6550 Clouds 18 1020 68 10000 2.57 260 16:23 11.02.2021
6551 Clouds 18 1020 68 10000 2.57 260 15:44 11.02.2021
6552 Clouds 18 1020 68 10000 2.57 260 15:44 11.02.2021
6553 Clouds 18 1020 68 10000 2.57 260 15:26 11.02.2021
6554 Clouds 17 1021 72 10000 2.06 270 14:53 11.02.2021
6555 Clouds 17 1021 77 10000 2.06 0 14:30 11.02.2021
6556 Clouds 17 1022 94 4000 1.54 290 13:42 11.02.2021
6557 Clouds 17 1022 94 4000 1.54 290 13:19 11.02.2021
6558 Clouds 16 1022 82 10000 1.54 230 12:56 11.02.2021
6559 Drizzle 16 1022 94 4500 1.54 180 12:32 11.02.2021
6560 Clouds 16 1022 88 10000 1.54 200 11:47 11.02.2021
6561 Clouds 15 1022 94 10000 2.06 190 11:27 11.02.2021
6562 Clouds 15 1022 100 8000 1.54 170 10:45 11.02.2021
6563 Clouds 14 1021 100 6000 1.54 170 10:26 11.02.2021
6564 Rain 14 1021 100 4000 0.51 0 09:59 11.02.2021
6565 Rain 14 1021 100 300 0.51 0 09:36 11.02.2021
6566 Fog 14 1021 100 300 0.51 0 09:18 11.02.2021
6567 Fog 14 1021 100 200 0.51 0 08:43 11.02.2021
6568 Fog 14 1021 100 400 1.03 0 07:43 11.02.2021
6569 Clouds 14 1021 100 6000 1.54 250 06:43 11.02.2021
6570 Drizzle 14 1021 100 4000 2.06 220 05:54 11.02.2021
6571 Clouds 14 1021 94 10000 2.06 210 03:43 11.02.2021
6572 Clouds 14 1021 94 9000 2.06 190 02:21 11.02.2021
6573 Clouds 15 1020 94 10000 3.09 240 00:23 11.02.2021
6574 Clouds 15 1020 94 10000 2.57 240 23:48 10.02.2021
6575 Clouds 15 1020 94 10000 3.6 230 23:20 10.02.2021
6576 Clouds 15 1020 94 10000 3.6 230 22:43 10.02.2021
6577 Clouds 15 1020 94 10000 3.6 230 22:23 10.02.2021
6578 Clouds 16 1019 88 10000 3.09 230 21:40 10.02.2021
6579 Clouds 16 1019 88 10000 3.09 230 21:20 10.02.2021
6580 Clouds 16 1019 88 10000 3.6 230 20:51 10.02.2021
6581 Clouds 16 1019 88 10000 3.6 230 20:28 10.02.2021
6582 Clouds 16 1018 88 10000 3.6 230 19:50 10.02.2021
6583 Clouds 16 1018 88 10000 4.12 230 19:28 10.02.2021
6584 Drizzle 16 1018 94 9000 3.09 230 18:49 10.02.2021
6585 Drizzle 16 1017 94 8000 5.14 240 18:27 10.02.2021
6586 Clouds 16 1017 82 10000 6.17 240 17:59 10.02.2021
6587 Clouds 17 1017 82 10000 5.14 240 17:40 10.02.2021
6588 Clouds 17 1017 82 10000 5.14 240 17:20 10.02.2021
6589 Clouds 18 1016 82 10000 4.63 240 16:45 10.02.2021
6590 Clouds 18 1016 77 10000 4.63 240 16:24 10.02.2021
6591 Clouds 18 1016 77 10000 4.63 240 15:25 10.02.2021
6592 Clouds 18 1016 77 10000 5.66 240 14:58 10.02.2021
6593 Clouds 18 1016 77 10000 6.17 250 14:39 10.02.2021
6594 Clouds 18 1016 77 10000 6.17 250 13:55 10.02.2021
6595 Clouds 18 1017 82 10000 6.17 260 13:31 10.02.2021
6596 Clouds 17 1016 82 10000 7.2 250 12:55 10.02.2021
6597 Clouds 17 1016 82 10000 6.17 250 12:31 10.02.2021
6598 Clouds 16 1016 88 10000 6.17 250 11:59 10.02.2021
6599 Clouds 16 1015 88 10000 7.2 250 11:40 10.02.2021
6600 Clouds 16 1015 88 10000 7.2 250 11:22 10.02.2021
6601 Clouds 15 1015 94 10000 6.17 230 10:37 10.02.2021
6602 Drizzle 15 1015 94 7000 6.69 230 10:18 10.02.2021
6603 Drizzle 15 1014 94 7000 6.17 230 09:37 10.02.2021
6604 Drizzle 15 1014 94 7000 6.17 230 09:18 10.02.2021
6605 Drizzle 14 1014 94 8000 5.14 240 08:42 10.02.2021
6606 Drizzle 14 1014 94 5000 5.14 230 07:52 10.02.2021
6607 Clouds 14 1012 94 10000 8.23 230 06:51 10.02.2021
6608 Clear 14 1013 88 10000 5.66 230 02:45 10.02.2021
6609 Clear 13 1013 88 10000 5.66 220 00:31 10.02.2021
6610 Clouds 13 1012 94 10000 5.14 230 23:35 09.02.2021
6611 Clouds 13 1012 94 10000 6.17 240 22:54 09.02.2021
6612 Clouds 14 1012 88 10000 5.66 230 22:25 09.02.2021
6613 Clouds 13 1012 88 10000 5.14 230 21:53 09.02.2021
6614 Clouds 13 1011 94 4000 4.12 270 21:34 09.02.2021
6615 Clouds 14 1011 94 4000 4.12 270 20:50 09.02.2021
6616 Clouds 13 1011 94 4000 4.12 270 20:27 09.02.2021
6617 Clouds 14 1010 88 10000 6.69 230 19:59 09.02.2021
6618 Rain 15 1010 88 10000 7.72 230 19:39 09.02.2021
6619 Clouds 15 1010 82 10000 5.66 230 19:00 09.02.2021
6620 Clouds 15 1010 82 10000 5.14 230 18:39 09.02.2021
6621 Clouds 15 1010 82 10000 7.72 230 17:58 09.02.2021
6622 Clouds 15 1010 88 10000 8.23 230 17:40 09.02.2021
6623 Clouds 15 1010 88 10000 8.23 230 17:22 09.02.2021
6624 Clouds 15 1010 88 10000 7.72 220 16:47 09.02.2021
6625 Clouds 15 1010 88 10000 7.2 240 16:19 09.02.2021
6626 Clouds 15 1010 88 10000 7.2 240 15:50 09.02.2021
6627 Clouds 15 1010 88 10000 7.2 240 15:27 09.02.2021
6628 Rain 15 1010 88 10000 5.66 230 14:56 09.02.2021
6629 Rain 14 1011 88 9000 6.69 240 14:28 09.02.2021
6630 Rain 14 1011 88 2700 8.23 230 13:53 09.02.2021
6631 Rain 15 1011 77 10000 8.75 220 13:28 09.02.2021
6632 Clouds 15 1011 82 10000 7.72 220 12:57 09.02.2021
6633 Clouds 15 1012 88 10000 7.2 220 12:38 09.02.2021
6634 Clouds 15 1012 88 10000 7.2 220 12:20 09.02.2021
6635 Clouds 15 1012 88 10000 6.17 210 11:41 09.02.2021
6636 Clouds 15 1012 88 10000 6.17 210 11:21 09.02.2021
6637 Clouds 14 1012 88 10000 6.17 210 10:51 09.02.2021
6638 Clouds 13 1012 94 10000 4.12 210 10:19 09.02.2021
6639 Drizzle 12 1012 94 4000 5.14 220 09:44 09.02.2021
6640 Clouds 12 1012 94 10000 4.12 200 09:25 09.02.2021
6641 Clouds 12 1012 100 10000 3.09 200 08:52 09.02.2021
6642 Clouds 11 1012 93 10000 3.09 190 08:27 09.02.2021
6643 Clouds 11 1012 100 10000 2.57 200 07:36 09.02.2021
6644 Clouds 11 1013 93 10000 2.06 170 04:59 09.02.2021
6645 Clouds 10 1014 100 10000 2.06 210 03:42 09.02.2021
6646 Clouds 11 1014 87 10000 2.06 270 01:38 09.02.2021
6647 Clear 11 1014 87 10000 4.12 250 23:58 08.02.2021
6648 Clear 11 1014 94 10000 4.12 240 23:22 08.02.2021
6649 Clear 12 1014 94 10000 5.14 220 22:56 08.02.2021
6650 Clear 12 1014 82 10000 5.14 220 22:38 08.02.2021
6651 Clear 12 1014 82 10000 5.14 220 22:20 08.02.2021
6652 Clouds 12 1014 94 10000 1.54 200